<?xml version="1.0" encoding="UTF-8" standalone="no" ?>
<gpx xmlns="http://www.topografix.com/GPX/1/1" xmlns:xsi="http://www.w3.org/2001/XMLSchema-instance" xsi:schemaLocation="http://www.topografix.com/GPX/1/1 http://www.topografix.com/GPX/1/1/gpx.xsd" version="1.1" creator="VisuGPX - https://www.visugpx.com">
  <metadata>
    <name>NE-SO-Pirmil Mauves Nantes</name>
    <desc><![CDATA[NE-SO-Pirmil Mauves Nantes]]></desc>
  </metadata>
  <trk>
    <name><![CDATA[2022-04-03 12:35 GMT+2]]></name>
    <trkseg>
      <trkpt lat="47.16773" lon="-1.62666">
        <ele>78</ele>
        <time>2022-04-03T10:35:32.052Z</time>
      </trkpt>
      <trkpt lat="47.16774" lon="-1.62652">
        <ele>69</ele>
        <time>2022-04-03T10:36:26Z</time>
      </trkpt>
      <trkpt lat="47.16781" lon="-1.62662">
        <ele>77</ele>
        <time>2022-04-03T10:38:14Z</time>
      </trkpt>
      <trkpt lat="47.16775" lon="-1.62677">
        <ele>75</ele>
        <time>2022-04-03T10:38:17Z</time>
      </trkpt>
      <trkpt lat="47.16765" lon="-1.62677">
        <ele>75</ele>
        <time>2022-04-03T10:38:20Z</time>
      </trkpt>
      <trkpt lat="47.16754" lon="-1.62672">
        <ele>75</ele>
        <time>2022-04-03T10:38:22Z</time>
      </trkpt>
      <trkpt lat="47.16744" lon="-1.62678">
        <ele>74</ele>
        <time>2022-04-03T10:38:24Z</time>
      </trkpt>
      <trkpt lat="47.16734" lon="-1.62684">
        <ele>74</ele>
        <time>2022-04-03T10:38:26Z</time>
      </trkpt>
      <trkpt lat="47.16724" lon="-1.6269">
        <ele>74</ele>
        <time>2022-04-03T10:38:28Z</time>
      </trkpt>
      <trkpt lat="47.16716" lon="-1.62696">
        <ele>74</ele>
        <time>2022-04-03T10:38:30Z</time>
      </trkpt>
      <trkpt lat="47.16706" lon="-1.62686">
        <ele>74</ele>
        <time>2022-04-03T10:38:32Z</time>
      </trkpt>
      <trkpt lat="47.16701" lon="-1.6267">
        <ele>74</ele>
        <time>2022-04-03T10:38:34Z</time>
      </trkpt>
      <trkpt lat="47.16698" lon="-1.62652">
        <ele>74</ele>
        <time>2022-04-03T10:38:36Z</time>
      </trkpt>
      <trkpt lat="47.16696" lon="-1.62633">
        <ele>73</ele>
        <time>2022-04-03T10:38:38Z</time>
      </trkpt>
      <trkpt lat="47.16696" lon="-1.62613">
        <ele>72</ele>
        <time>2022-04-03T10:38:40Z</time>
      </trkpt>
      <trkpt lat="47.16696" lon="-1.62594">
        <ele>72</ele>
        <time>2022-04-03T10:38:42Z</time>
      </trkpt>
      <trkpt lat="47.16697" lon="-1.62574">
        <ele>72</ele>
        <time>2022-04-03T10:38:44Z</time>
      </trkpt>
      <trkpt lat="47.16699" lon="-1.62554">
        <ele>72</ele>
        <time>2022-04-03T10:38:46Z</time>
      </trkpt>
      <trkpt lat="47.16701" lon="-1.62535">
        <ele>72</ele>
        <time>2022-04-03T10:38:48Z</time>
      </trkpt>
      <trkpt lat="47.16703" lon="-1.62516">
        <ele>72</ele>
        <time>2022-04-03T10:38:50Z</time>
      </trkpt>
      <trkpt lat="47.16707" lon="-1.62497">
        <ele>72</ele>
        <time>2022-04-03T10:38:52Z</time>
      </trkpt>
      <trkpt lat="47.1671" lon="-1.62479">
        <ele>71</ele>
        <time>2022-04-03T10:38:54Z</time>
      </trkpt>
      <trkpt lat="47.16713" lon="-1.62459">
        <ele>72</ele>
        <time>2022-04-03T10:38:56Z</time>
      </trkpt>
      <trkpt lat="47.16715" lon="-1.62441">
        <ele>72</ele>
        <time>2022-04-03T10:38:58Z</time>
      </trkpt>
      <trkpt lat="47.16718" lon="-1.62423">
        <ele>72</ele>
        <time>2022-04-03T10:39:00Z</time>
      </trkpt>
      <trkpt lat="47.16724" lon="-1.62407">
        <ele>73</ele>
        <time>2022-04-03T10:39:02Z</time>
      </trkpt>
      <trkpt lat="47.16729" lon="-1.62389">
        <ele>73</ele>
        <time>2022-04-03T10:39:04Z</time>
      </trkpt>
      <trkpt lat="47.16735" lon="-1.62372">
        <ele>73</ele>
        <time>2022-04-03T10:39:06Z</time>
      </trkpt>
      <trkpt lat="47.16744" lon="-1.62359">
        <ele>74</ele>
        <time>2022-04-03T10:39:08Z</time>
      </trkpt>
      <trkpt lat="47.16755" lon="-1.62349">
        <ele>74</ele>
        <time>2022-04-03T10:39:10Z</time>
      </trkpt>
      <trkpt lat="47.16767" lon="-1.62341">
        <ele>73</ele>
        <time>2022-04-03T10:39:12Z</time>
      </trkpt>
      <trkpt lat="47.1678" lon="-1.62334">
        <ele>73</ele>
        <time>2022-04-03T10:39:14Z</time>
      </trkpt>
      <trkpt lat="47.16792" lon="-1.62328">
        <ele>73</ele>
        <time>2022-04-03T10:39:16Z</time>
      </trkpt>
      <trkpt lat="47.16804" lon="-1.62322">
        <ele>73</ele>
        <time>2022-04-03T10:39:18Z</time>
      </trkpt>
      <trkpt lat="47.16816" lon="-1.62314">
        <ele>73</ele>
        <time>2022-04-03T10:39:20Z</time>
      </trkpt>
      <trkpt lat="47.16827" lon="-1.62305">
        <ele>73</ele>
        <time>2022-04-03T10:39:22Z</time>
      </trkpt>
      <trkpt lat="47.16837" lon="-1.62294">
        <ele>73</ele>
        <time>2022-04-03T10:39:24Z</time>
      </trkpt>
      <trkpt lat="47.16847" lon="-1.62282">
        <ele>73</ele>
        <time>2022-04-03T10:39:26Z</time>
      </trkpt>
      <trkpt lat="47.16856" lon="-1.6227">
        <ele>72</ele>
        <time>2022-04-03T10:39:28Z</time>
      </trkpt>
      <trkpt lat="47.16866" lon="-1.62258">
        <ele>72</ele>
        <time>2022-04-03T10:39:30Z</time>
      </trkpt>
      <trkpt lat="47.16881" lon="-1.62239">
        <ele>72</ele>
        <time>2022-04-03T10:39:33Z</time>
      </trkpt>
      <trkpt lat="47.16891" lon="-1.62225">
        <ele>67</ele>
        <time>2022-04-03T10:39:35Z</time>
      </trkpt>
      <trkpt lat="47.16899" lon="-1.62212">
        <ele>69</ele>
        <time>2022-04-03T10:39:37Z</time>
      </trkpt>
      <trkpt lat="47.16908" lon="-1.62199">
        <ele>70</ele>
        <time>2022-04-03T10:39:39Z</time>
      </trkpt>
      <trkpt lat="47.16916" lon="-1.62186">
        <ele>70</ele>
        <time>2022-04-03T10:39:41Z</time>
      </trkpt>
      <trkpt lat="47.16924" lon="-1.62171">
        <ele>70</ele>
        <time>2022-04-03T10:39:43Z</time>
      </trkpt>
      <trkpt lat="47.16932" lon="-1.62157">
        <ele>71</ele>
        <time>2022-04-03T10:39:45Z</time>
      </trkpt>
      <trkpt lat="47.1694" lon="-1.62142">
        <ele>71</ele>
        <time>2022-04-03T10:39:47Z</time>
      </trkpt>
      <trkpt lat="47.16947" lon="-1.62127">
        <ele>71</ele>
        <time>2022-04-03T10:39:49Z</time>
      </trkpt>
      <trkpt lat="47.16955" lon="-1.62112">
        <ele>71</ele>
        <time>2022-04-03T10:39:51Z</time>
      </trkpt>
      <trkpt lat="47.16963" lon="-1.62097">
        <ele>71</ele>
        <time>2022-04-03T10:39:53Z</time>
      </trkpt>
      <trkpt lat="47.16971" lon="-1.62082">
        <ele>72</ele>
        <time>2022-04-03T10:39:55Z</time>
      </trkpt>
      <trkpt lat="47.16979" lon="-1.62067">
        <ele>72</ele>
        <time>2022-04-03T10:39:57Z</time>
      </trkpt>
      <trkpt lat="47.16987" lon="-1.62053">
        <ele>72</ele>
        <time>2022-04-03T10:39:59Z</time>
      </trkpt>
      <trkpt lat="47.16995" lon="-1.62039">
        <ele>72</ele>
        <time>2022-04-03T10:40:01Z</time>
      </trkpt>
      <trkpt lat="47.17004" lon="-1.62025">
        <ele>72</ele>
        <time>2022-04-03T10:40:03Z</time>
      </trkpt>
      <trkpt lat="47.17012" lon="-1.62013">
        <ele>71</ele>
        <time>2022-04-03T10:40:05Z</time>
      </trkpt>
      <trkpt lat="47.17022" lon="-1.62">
        <ele>72</ele>
        <time>2022-04-03T10:40:07Z</time>
      </trkpt>
      <trkpt lat="47.1703" lon="-1.61986">
        <ele>72</ele>
        <time>2022-04-03T10:40:09Z</time>
      </trkpt>
      <trkpt lat="47.17039" lon="-1.61974">
        <ele>72</ele>
        <time>2022-04-03T10:40:11Z</time>
      </trkpt>
      <trkpt lat="47.17048" lon="-1.61961">
        <ele>72</ele>
        <time>2022-04-03T10:40:13Z</time>
      </trkpt>
      <trkpt lat="47.17058" lon="-1.61949">
        <ele>72</ele>
        <time>2022-04-03T10:40:15Z</time>
      </trkpt>
      <trkpt lat="47.17066" lon="-1.61937">
        <ele>72</ele>
        <time>2022-04-03T10:40:17Z</time>
      </trkpt>
      <trkpt lat="47.17076" lon="-1.61927">
        <ele>71</ele>
        <time>2022-04-03T10:40:19Z</time>
      </trkpt>
      <trkpt lat="47.17085" lon="-1.61916">
        <ele>71</ele>
        <time>2022-04-03T10:40:21Z</time>
      </trkpt>
      <trkpt lat="47.17095" lon="-1.61906">
        <ele>71</ele>
        <time>2022-04-03T10:40:23Z</time>
      </trkpt>
      <trkpt lat="47.17106" lon="-1.61896">
        <ele>71</ele>
        <time>2022-04-03T10:40:25Z</time>
      </trkpt>
      <trkpt lat="47.17116" lon="-1.61886">
        <ele>71</ele>
        <time>2022-04-03T10:40:27Z</time>
      </trkpt>
      <trkpt lat="47.17126" lon="-1.61876">
        <ele>71</ele>
        <time>2022-04-03T10:40:29Z</time>
      </trkpt>
      <trkpt lat="47.17137" lon="-1.61866">
        <ele>71</ele>
        <time>2022-04-03T10:40:31Z</time>
      </trkpt>
      <trkpt lat="47.17147" lon="-1.61856">
        <ele>71</ele>
        <time>2022-04-03T10:40:33Z</time>
      </trkpt>
      <trkpt lat="47.17157" lon="-1.61846">
        <ele>71</ele>
        <time>2022-04-03T10:40:35Z</time>
      </trkpt>
      <trkpt lat="47.17167" lon="-1.61837">
        <ele>71</ele>
        <time>2022-04-03T10:40:37Z</time>
      </trkpt>
      <trkpt lat="47.17177" lon="-1.61828">
        <ele>71</ele>
        <time>2022-04-03T10:40:39Z</time>
      </trkpt>
      <trkpt lat="47.17187" lon="-1.61819">
        <ele>71</ele>
        <time>2022-04-03T10:40:41Z</time>
      </trkpt>
      <trkpt lat="47.17197" lon="-1.61809">
        <ele>70</ele>
        <time>2022-04-03T10:40:43Z</time>
      </trkpt>
      <trkpt lat="47.17207" lon="-1.61798">
        <ele>70</ele>
        <time>2022-04-03T10:40:45Z</time>
      </trkpt>
      <trkpt lat="47.17216" lon="-1.61787">
        <ele>70</ele>
        <time>2022-04-03T10:40:47Z</time>
      </trkpt>
      <trkpt lat="47.17222" lon="-1.61772">
        <ele>70</ele>
        <time>2022-04-03T10:40:49Z</time>
      </trkpt>
      <trkpt lat="47.17227" lon="-1.61757">
        <ele>70</ele>
        <time>2022-04-03T10:40:51Z</time>
      </trkpt>
      <trkpt lat="47.17236" lon="-1.61743">
        <ele>70</ele>
        <time>2022-04-03T10:40:53Z</time>
      </trkpt>
      <trkpt lat="47.17244" lon="-1.61731">
        <ele>71</ele>
        <time>2022-04-03T10:40:55Z</time>
      </trkpt>
      <trkpt lat="47.17252" lon="-1.61717">
        <ele>72</ele>
        <time>2022-04-03T10:40:57Z</time>
      </trkpt>
      <trkpt lat="47.17259" lon="-1.61703">
        <ele>72</ele>
        <time>2022-04-03T10:40:59Z</time>
      </trkpt>
      <trkpt lat="47.17266" lon="-1.61688">
        <ele>73</ele>
        <time>2022-04-03T10:41:01Z</time>
      </trkpt>
      <trkpt lat="47.17273" lon="-1.61674">
        <ele>73</ele>
        <time>2022-04-03T10:41:03Z</time>
      </trkpt>
      <trkpt lat="47.1728" lon="-1.61659">
        <ele>73</ele>
        <time>2022-04-03T10:41:05Z</time>
      </trkpt>
      <trkpt lat="47.17288" lon="-1.61646">
        <ele>74</ele>
        <time>2022-04-03T10:41:07Z</time>
      </trkpt>
      <trkpt lat="47.17296" lon="-1.61633">
        <ele>74</ele>
        <time>2022-04-03T10:41:09Z</time>
      </trkpt>
      <trkpt lat="47.17304" lon="-1.6162">
        <ele>74</ele>
        <time>2022-04-03T10:41:11Z</time>
      </trkpt>
      <trkpt lat="47.17313" lon="-1.61607">
        <ele>74</ele>
        <time>2022-04-03T10:41:13Z</time>
      </trkpt>
      <trkpt lat="47.17321" lon="-1.61594">
        <ele>74</ele>
        <time>2022-04-03T10:41:15Z</time>
      </trkpt>
      <trkpt lat="47.1733" lon="-1.61582">
        <ele>74</ele>
        <time>2022-04-03T10:41:17Z</time>
      </trkpt>
      <trkpt lat="47.17339" lon="-1.61571">
        <ele>75</ele>
        <time>2022-04-03T10:41:19Z</time>
      </trkpt>
      <trkpt lat="47.17349" lon="-1.6156">
        <ele>74</ele>
        <time>2022-04-03T10:41:21Z</time>
      </trkpt>
      <trkpt lat="47.17358" lon="-1.6155">
        <ele>74</ele>
        <time>2022-04-03T10:41:23Z</time>
      </trkpt>
      <trkpt lat="47.17369" lon="-1.6154">
        <ele>73</ele>
        <time>2022-04-03T10:41:25Z</time>
      </trkpt>
      <trkpt lat="47.1738" lon="-1.6153">
        <ele>73</ele>
        <time>2022-04-03T10:41:27Z</time>
      </trkpt>
      <trkpt lat="47.17391" lon="-1.6152">
        <ele>73</ele>
        <time>2022-04-03T10:41:29Z</time>
      </trkpt>
      <trkpt lat="47.17402" lon="-1.61512">
        <ele>72</ele>
        <time>2022-04-03T10:41:31Z</time>
      </trkpt>
      <trkpt lat="47.17414" lon="-1.61503">
        <ele>71</ele>
        <time>2022-04-03T10:41:33Z</time>
      </trkpt>
      <trkpt lat="47.17426" lon="-1.61494">
        <ele>70</ele>
        <time>2022-04-03T10:41:35Z</time>
      </trkpt>
      <trkpt lat="47.17439" lon="-1.61486">
        <ele>69</ele>
        <time>2022-04-03T10:41:37Z</time>
      </trkpt>
      <trkpt lat="47.17452" lon="-1.61478">
        <ele>68</ele>
        <time>2022-04-03T10:41:39Z</time>
      </trkpt>
      <trkpt lat="47.17465" lon="-1.61472">
        <ele>68</ele>
        <time>2022-04-03T10:41:41Z</time>
      </trkpt>
      <trkpt lat="47.17478" lon="-1.61466">
        <ele>67</ele>
        <time>2022-04-03T10:41:43Z</time>
      </trkpt>
      <trkpt lat="47.1749" lon="-1.61461">
        <ele>67</ele>
        <time>2022-04-03T10:41:45Z</time>
      </trkpt>
      <trkpt lat="47.17502" lon="-1.61457">
        <ele>66</ele>
        <time>2022-04-03T10:41:47Z</time>
      </trkpt>
      <trkpt lat="47.1751" lon="-1.61449">
        <ele>66</ele>
        <time>2022-04-03T10:41:49Z</time>
      </trkpt>
      <trkpt lat="47.17513" lon="-1.61433">
        <ele>65</ele>
        <time>2022-04-03T10:41:51Z</time>
      </trkpt>
      <trkpt lat="47.17516" lon="-1.61414">
        <ele>65</ele>
        <time>2022-04-03T10:41:53Z</time>
      </trkpt>
      <trkpt lat="47.1752" lon="-1.61394">
        <ele>64</ele>
        <time>2022-04-03T10:41:55Z</time>
      </trkpt>
      <trkpt lat="47.17525" lon="-1.61374">
        <ele>64</ele>
        <time>2022-04-03T10:41:57Z</time>
      </trkpt>
      <trkpt lat="47.17528" lon="-1.61355">
        <ele>64</ele>
        <time>2022-04-03T10:41:59Z</time>
      </trkpt>
      <trkpt lat="47.17524" lon="-1.61338">
        <ele>64</ele>
        <time>2022-04-03T10:42:01Z</time>
      </trkpt>
      <trkpt lat="47.1752" lon="-1.61321">
        <ele>64</ele>
        <time>2022-04-03T10:42:03Z</time>
      </trkpt>
      <trkpt lat="47.1752" lon="-1.61302">
        <ele>63</ele>
        <time>2022-04-03T10:42:05Z</time>
      </trkpt>
      <trkpt lat="47.17516" lon="-1.61286">
        <ele>63</ele>
        <time>2022-04-03T10:42:07Z</time>
      </trkpt>
      <trkpt lat="47.17508" lon="-1.61271">
        <ele>63</ele>
        <time>2022-04-03T10:42:09Z</time>
      </trkpt>
      <trkpt lat="47.175" lon="-1.61255">
        <ele>63</ele>
        <time>2022-04-03T10:42:11Z</time>
      </trkpt>
      <trkpt lat="47.17494" lon="-1.61239">
        <ele>63</ele>
        <time>2022-04-03T10:42:13Z</time>
      </trkpt>
      <trkpt lat="47.17487" lon="-1.61223">
        <ele>63</ele>
        <time>2022-04-03T10:42:15Z</time>
      </trkpt>
      <trkpt lat="47.1748" lon="-1.61206">
        <ele>63</ele>
        <time>2022-04-03T10:42:17Z</time>
      </trkpt>
      <trkpt lat="47.17474" lon="-1.6119">
        <ele>63</ele>
        <time>2022-04-03T10:42:19Z</time>
      </trkpt>
      <trkpt lat="47.17467" lon="-1.61174">
        <ele>63</ele>
        <time>2022-04-03T10:42:21Z</time>
      </trkpt>
      <trkpt lat="47.1746" lon="-1.61157">
        <ele>63</ele>
        <time>2022-04-03T10:42:23Z</time>
      </trkpt>
      <trkpt lat="47.17454" lon="-1.61141">
        <ele>63</ele>
        <time>2022-04-03T10:42:25Z</time>
      </trkpt>
      <trkpt lat="47.17447" lon="-1.61123">
        <ele>62</ele>
        <time>2022-04-03T10:42:27Z</time>
      </trkpt>
      <trkpt lat="47.1744" lon="-1.61108">
        <ele>62</ele>
        <time>2022-04-03T10:42:29Z</time>
      </trkpt>
      <trkpt lat="47.17434" lon="-1.61095">
        <ele>62</ele>
        <time>2022-04-03T10:42:31Z</time>
      </trkpt>
      <trkpt lat="47.17431" lon="-1.6108">
        <ele>62</ele>
        <time>2022-04-03T10:42:33Z</time>
      </trkpt>
      <trkpt lat="47.17428" lon="-1.61061">
        <ele>61</ele>
        <time>2022-04-03T10:42:35Z</time>
      </trkpt>
      <trkpt lat="47.17423" lon="-1.61042">
        <ele>60</ele>
        <time>2022-04-03T10:42:37Z</time>
      </trkpt>
      <trkpt lat="47.17421" lon="-1.61025">
        <ele>60</ele>
        <time>2022-04-03T10:42:39Z</time>
      </trkpt>
      <trkpt lat="47.17432" lon="-1.6103">
        <ele>60</ele>
        <time>2022-04-03T10:42:43Z</time>
      </trkpt>
      <trkpt lat="47.17435" lon="-1.61046">
        <ele>59</ele>
        <time>2022-04-03T10:42:45Z</time>
      </trkpt>
      <trkpt lat="47.17441" lon="-1.61062">
        <ele>58</ele>
        <time>2022-04-03T10:42:47Z</time>
      </trkpt>
      <trkpt lat="47.17449" lon="-1.61077">
        <ele>57</ele>
        <time>2022-04-03T10:42:49Z</time>
      </trkpt>
      <trkpt lat="47.17459" lon="-1.6109">
        <ele>57</ele>
        <time>2022-04-03T10:42:51Z</time>
      </trkpt>
      <trkpt lat="47.17472" lon="-1.61101">
        <ele>57</ele>
        <time>2022-04-03T10:42:53Z</time>
      </trkpt>
      <trkpt lat="47.17487" lon="-1.61107">
        <ele>57</ele>
        <time>2022-04-03T10:42:55Z</time>
      </trkpt>
      <trkpt lat="47.17502" lon="-1.61105">
        <ele>56</ele>
        <time>2022-04-03T10:42:57Z</time>
      </trkpt>
      <trkpt lat="47.17516" lon="-1.61098">
        <ele>55</ele>
        <time>2022-04-03T10:42:59Z</time>
      </trkpt>
      <trkpt lat="47.17529" lon="-1.61087">
        <ele>55</ele>
        <time>2022-04-03T10:43:01Z</time>
      </trkpt>
      <trkpt lat="47.17541" lon="-1.61076">
        <ele>55</ele>
        <time>2022-04-03T10:43:03Z</time>
      </trkpt>
      <trkpt lat="47.17553" lon="-1.61065">
        <ele>54</ele>
        <time>2022-04-03T10:43:05Z</time>
      </trkpt>
      <trkpt lat="47.17565" lon="-1.61055">
        <ele>54</ele>
        <time>2022-04-03T10:43:07Z</time>
      </trkpt>
      <trkpt lat="47.17577" lon="-1.61044">
        <ele>55</ele>
        <time>2022-04-03T10:43:09Z</time>
      </trkpt>
      <trkpt lat="47.17588" lon="-1.61033">
        <ele>55</ele>
        <time>2022-04-03T10:43:11Z</time>
      </trkpt>
      <trkpt lat="47.176" lon="-1.61023">
        <ele>55</ele>
        <time>2022-04-03T10:43:13Z</time>
      </trkpt>
      <trkpt lat="47.17612" lon="-1.61013">
        <ele>56</ele>
        <time>2022-04-03T10:43:15Z</time>
      </trkpt>
      <trkpt lat="47.17624" lon="-1.61002">
        <ele>56</ele>
        <time>2022-04-03T10:43:17Z</time>
      </trkpt>
      <trkpt lat="47.17636" lon="-1.60992">
        <ele>55</ele>
        <time>2022-04-03T10:43:19Z</time>
      </trkpt>
      <trkpt lat="47.17647" lon="-1.60982">
        <ele>55</ele>
        <time>2022-04-03T10:43:21Z</time>
      </trkpt>
      <trkpt lat="47.17659" lon="-1.60973">
        <ele>55</ele>
        <time>2022-04-03T10:43:23Z</time>
      </trkpt>
      <trkpt lat="47.17672" lon="-1.6097">
        <ele>55</ele>
        <time>2022-04-03T10:43:25Z</time>
      </trkpt>
      <trkpt lat="47.17686" lon="-1.60972">
        <ele>56</ele>
        <time>2022-04-03T10:43:27Z</time>
      </trkpt>
      <trkpt lat="47.17698" lon="-1.60972">
        <ele>56</ele>
        <time>2022-04-03T10:43:29Z</time>
      </trkpt>
      <trkpt lat="47.1771" lon="-1.60965">
        <ele>56</ele>
        <time>2022-04-03T10:43:31Z</time>
      </trkpt>
      <trkpt lat="47.17722" lon="-1.60958">
        <ele>56</ele>
        <time>2022-04-03T10:43:33Z</time>
      </trkpt>
      <trkpt lat="47.17734" lon="-1.60949">
        <ele>56</ele>
        <time>2022-04-03T10:43:35Z</time>
      </trkpt>
      <trkpt lat="47.17746" lon="-1.6094">
        <ele>57</ele>
        <time>2022-04-03T10:43:37Z</time>
      </trkpt>
      <trkpt lat="47.17758" lon="-1.60931">
        <ele>57</ele>
        <time>2022-04-03T10:43:39Z</time>
      </trkpt>
      <trkpt lat="47.17769" lon="-1.60923">
        <ele>56</ele>
        <time>2022-04-03T10:43:41Z</time>
      </trkpt>
      <trkpt lat="47.1778" lon="-1.60912">
        <ele>56</ele>
        <time>2022-04-03T10:43:43Z</time>
      </trkpt>
      <trkpt lat="47.17792" lon="-1.60904">
        <ele>57</ele>
        <time>2022-04-03T10:43:45Z</time>
      </trkpt>
      <trkpt lat="47.17804" lon="-1.60896">
        <ele>57</ele>
        <time>2022-04-03T10:43:47Z</time>
      </trkpt>
      <trkpt lat="47.17815" lon="-1.60886">
        <ele>57</ele>
        <time>2022-04-03T10:43:49Z</time>
      </trkpt>
      <trkpt lat="47.17824" lon="-1.60872">
        <ele>58</ele>
        <time>2022-04-03T10:43:51Z</time>
      </trkpt>
      <trkpt lat="47.17832" lon="-1.60858">
        <ele>58</ele>
        <time>2022-04-03T10:43:53Z</time>
      </trkpt>
      <trkpt lat="47.17839" lon="-1.60843">
        <ele>57</ele>
        <time>2022-04-03T10:43:55Z</time>
      </trkpt>
      <trkpt lat="47.17845" lon="-1.60825">
        <ele>57</ele>
        <time>2022-04-03T10:43:57Z</time>
      </trkpt>
      <trkpt lat="47.1785" lon="-1.60806">
        <ele>57</ele>
        <time>2022-04-03T10:43:59Z</time>
      </trkpt>
      <trkpt lat="47.17854" lon="-1.60788">
        <ele>57</ele>
        <time>2022-04-03T10:44:01Z</time>
      </trkpt>
      <trkpt lat="47.17858" lon="-1.60768">
        <ele>57</ele>
        <time>2022-04-03T10:44:03Z</time>
      </trkpt>
      <trkpt lat="47.17862" lon="-1.60749">
        <ele>57</ele>
        <time>2022-04-03T10:44:05Z</time>
      </trkpt>
      <trkpt lat="47.17866" lon="-1.6073">
        <ele>57</ele>
        <time>2022-04-03T10:44:07Z</time>
      </trkpt>
      <trkpt lat="47.17871" lon="-1.60712">
        <ele>58</ele>
        <time>2022-04-03T10:44:09Z</time>
      </trkpt>
      <trkpt lat="47.17875" lon="-1.60694">
        <ele>58</ele>
        <time>2022-04-03T10:44:11Z</time>
      </trkpt>
      <trkpt lat="47.1788" lon="-1.60676">
        <ele>58</ele>
        <time>2022-04-03T10:44:13Z</time>
      </trkpt>
      <trkpt lat="47.17885" lon="-1.60659">
        <ele>58</ele>
        <time>2022-04-03T10:44:15Z</time>
      </trkpt>
      <trkpt lat="47.1789" lon="-1.60643">
        <ele>59</ele>
        <time>2022-04-03T10:44:17Z</time>
      </trkpt>
      <trkpt lat="47.17896" lon="-1.60629">
        <ele>59</ele>
        <time>2022-04-03T10:44:19Z</time>
      </trkpt>
      <trkpt lat="47.179" lon="-1.60615">
        <ele>59</ele>
        <time>2022-04-03T10:44:21Z</time>
      </trkpt>
      <trkpt lat="47.17904" lon="-1.60597">
        <ele>61</ele>
        <time>2022-04-03T10:44:24Z</time>
      </trkpt>
      <trkpt lat="47.17908" lon="-1.60586">
        <ele>61</ele>
        <time>2022-04-03T10:44:27Z</time>
      </trkpt>
      <trkpt lat="47.17918" lon="-1.60581">
        <ele>62</ele>
        <time>2022-04-03T10:44:37Z</time>
      </trkpt>
      <trkpt lat="47.17932" lon="-1.6058">
        <ele>64</ele>
        <time>2022-04-03T10:44:40Z</time>
      </trkpt>
      <trkpt lat="47.17945" lon="-1.60578">
        <ele>63</ele>
        <time>2022-04-03T10:44:42Z</time>
      </trkpt>
      <trkpt lat="47.17957" lon="-1.60574">
        <ele>63</ele>
        <time>2022-04-03T10:44:44Z</time>
      </trkpt>
      <trkpt lat="47.17966" lon="-1.60568">
        <ele>62</ele>
        <time>2022-04-03T10:44:46Z</time>
      </trkpt>
      <trkpt lat="47.17977" lon="-1.60562">
        <ele>62</ele>
        <time>2022-04-03T10:44:48Z</time>
      </trkpt>
      <trkpt lat="47.17992" lon="-1.60557">
        <ele>60</ele>
        <time>2022-04-03T10:44:50Z</time>
      </trkpt>
      <trkpt lat="47.18006" lon="-1.60554">
        <ele>58</ele>
        <time>2022-04-03T10:44:52Z</time>
      </trkpt>
      <trkpt lat="47.1802" lon="-1.60552">
        <ele>57</ele>
        <time>2022-04-03T10:44:54Z</time>
      </trkpt>
      <trkpt lat="47.18034" lon="-1.60554">
        <ele>57</ele>
        <time>2022-04-03T10:44:56Z</time>
      </trkpt>
      <trkpt lat="47.18047" lon="-1.6056">
        <ele>56</ele>
        <time>2022-04-03T10:44:58Z</time>
      </trkpt>
      <trkpt lat="47.18059" lon="-1.60567">
        <ele>57</ele>
        <time>2022-04-03T10:45:00Z</time>
      </trkpt>
      <trkpt lat="47.18071" lon="-1.60574">
        <ele>56</ele>
        <time>2022-04-03T10:45:02Z</time>
      </trkpt>
      <trkpt lat="47.18083" lon="-1.60581">
        <ele>56</ele>
        <time>2022-04-03T10:45:04Z</time>
      </trkpt>
      <trkpt lat="47.18096" lon="-1.60587">
        <ele>56</ele>
        <time>2022-04-03T10:45:06Z</time>
      </trkpt>
      <trkpt lat="47.18108" lon="-1.60591">
        <ele>56</ele>
        <time>2022-04-03T10:45:08Z</time>
      </trkpt>
      <trkpt lat="47.18121" lon="-1.60596">
        <ele>56</ele>
        <time>2022-04-03T10:45:10Z</time>
      </trkpt>
      <trkpt lat="47.18133" lon="-1.606">
        <ele>56</ele>
        <time>2022-04-03T10:45:12Z</time>
      </trkpt>
      <trkpt lat="47.18146" lon="-1.60603">
        <ele>56</ele>
        <time>2022-04-03T10:45:14Z</time>
      </trkpt>
      <trkpt lat="47.18159" lon="-1.60605">
        <ele>56</ele>
        <time>2022-04-03T10:45:16Z</time>
      </trkpt>
      <trkpt lat="47.18171" lon="-1.60605">
        <ele>56</ele>
        <time>2022-04-03T10:45:18Z</time>
      </trkpt>
      <trkpt lat="47.18182" lon="-1.60602">
        <ele>57</ele>
        <time>2022-04-03T10:45:20Z</time>
      </trkpt>
      <trkpt lat="47.1819" lon="-1.60591">
        <ele>58</ele>
        <time>2022-04-03T10:45:22Z</time>
      </trkpt>
      <trkpt lat="47.18194" lon="-1.60575">
        <ele>57</ele>
        <time>2022-04-03T10:45:24Z</time>
      </trkpt>
      <trkpt lat="47.18206" lon="-1.6057">
        <ele>58</ele>
        <time>2022-04-03T10:45:26Z</time>
      </trkpt>
      <trkpt lat="47.18219" lon="-1.60566">
        <ele>59</ele>
        <time>2022-04-03T10:45:28Z</time>
      </trkpt>
      <trkpt lat="47.18231" lon="-1.60558">
        <ele>59</ele>
        <time>2022-04-03T10:45:30Z</time>
      </trkpt>
      <trkpt lat="47.18244" lon="-1.6055">
        <ele>59</ele>
        <time>2022-04-03T10:45:32Z</time>
      </trkpt>
      <trkpt lat="47.18256" lon="-1.60541">
        <ele>59</ele>
        <time>2022-04-03T10:45:34Z</time>
      </trkpt>
      <trkpt lat="47.18267" lon="-1.60531">
        <ele>59</ele>
        <time>2022-04-03T10:45:36Z</time>
      </trkpt>
      <trkpt lat="47.18279" lon="-1.6052">
        <ele>59</ele>
        <time>2022-04-03T10:45:38Z</time>
      </trkpt>
      <trkpt lat="47.18289" lon="-1.60509">
        <ele>59</ele>
        <time>2022-04-03T10:45:40Z</time>
      </trkpt>
      <trkpt lat="47.18299" lon="-1.60498">
        <ele>59</ele>
        <time>2022-04-03T10:45:42Z</time>
      </trkpt>
      <trkpt lat="47.1831" lon="-1.60486">
        <ele>59</ele>
        <time>2022-04-03T10:45:44Z</time>
      </trkpt>
      <trkpt lat="47.1832" lon="-1.60474">
        <ele>59</ele>
        <time>2022-04-03T10:45:46Z</time>
      </trkpt>
      <trkpt lat="47.1833" lon="-1.60462">
        <ele>59</ele>
        <time>2022-04-03T10:45:48Z</time>
      </trkpt>
      <trkpt lat="47.1834" lon="-1.6045">
        <ele>59</ele>
        <time>2022-04-03T10:45:50Z</time>
      </trkpt>
      <trkpt lat="47.1835" lon="-1.60437">
        <ele>58</ele>
        <time>2022-04-03T10:45:52Z</time>
      </trkpt>
      <trkpt lat="47.1836" lon="-1.60424">
        <ele>58</ele>
        <time>2022-04-03T10:45:54Z</time>
      </trkpt>
      <trkpt lat="47.18371" lon="-1.60411">
        <ele>58</ele>
        <time>2022-04-03T10:45:56Z</time>
      </trkpt>
      <trkpt lat="47.18381" lon="-1.60399">
        <ele>58</ele>
        <time>2022-04-03T10:45:58Z</time>
      </trkpt>
      <trkpt lat="47.1839" lon="-1.60386">
        <ele>58</ele>
        <time>2022-04-03T10:46:00Z</time>
      </trkpt>
      <trkpt lat="47.184" lon="-1.60374">
        <ele>59</ele>
        <time>2022-04-03T10:46:02Z</time>
      </trkpt>
      <trkpt lat="47.18409" lon="-1.60362">
        <ele>58</ele>
        <time>2022-04-03T10:46:04Z</time>
      </trkpt>
      <trkpt lat="47.18418" lon="-1.60348">
        <ele>58</ele>
        <time>2022-04-03T10:46:06Z</time>
      </trkpt>
      <trkpt lat="47.18427" lon="-1.60334">
        <ele>59</ele>
        <time>2022-04-03T10:46:08Z</time>
      </trkpt>
      <trkpt lat="47.18435" lon="-1.6032">
        <ele>59</ele>
        <time>2022-04-03T10:46:10Z</time>
      </trkpt>
      <trkpt lat="47.18443" lon="-1.60305">
        <ele>59</ele>
        <time>2022-04-03T10:46:12Z</time>
      </trkpt>
      <trkpt lat="47.18451" lon="-1.60291">
        <ele>59</ele>
        <time>2022-04-03T10:46:14Z</time>
      </trkpt>
      <trkpt lat="47.18458" lon="-1.60278">
        <ele>59</ele>
        <time>2022-04-03T10:46:16Z</time>
      </trkpt>
      <trkpt lat="47.18466" lon="-1.60265">
        <ele>59</ele>
        <time>2022-04-03T10:46:18Z</time>
      </trkpt>
      <trkpt lat="47.18474" lon="-1.6025">
        <ele>59</ele>
        <time>2022-04-03T10:46:20Z</time>
      </trkpt>
      <trkpt lat="47.18481" lon="-1.60237">
        <ele>59</ele>
        <time>2022-04-03T10:46:22Z</time>
      </trkpt>
      <trkpt lat="47.18489" lon="-1.60224">
        <ele>59</ele>
        <time>2022-04-03T10:46:24Z</time>
      </trkpt>
      <trkpt lat="47.18496" lon="-1.60209">
        <ele>59</ele>
        <time>2022-04-03T10:46:26Z</time>
      </trkpt>
      <trkpt lat="47.18503" lon="-1.60195">
        <ele>59</ele>
        <time>2022-04-03T10:46:28Z</time>
      </trkpt>
      <trkpt lat="47.18511" lon="-1.60181">
        <ele>59</ele>
        <time>2022-04-03T10:46:30Z</time>
      </trkpt>
      <trkpt lat="47.18518" lon="-1.60166">
        <ele>59</ele>
        <time>2022-04-03T10:46:32Z</time>
      </trkpt>
      <trkpt lat="47.18525" lon="-1.6015">
        <ele>59</ele>
        <time>2022-04-03T10:46:34Z</time>
      </trkpt>
      <trkpt lat="47.18532" lon="-1.60136">
        <ele>59</ele>
        <time>2022-04-03T10:46:36Z</time>
      </trkpt>
      <trkpt lat="47.18539" lon="-1.60121">
        <ele>59</ele>
        <time>2022-04-03T10:46:38Z</time>
      </trkpt>
      <trkpt lat="47.18546" lon="-1.60106">
        <ele>59</ele>
        <time>2022-04-03T10:46:40Z</time>
      </trkpt>
      <trkpt lat="47.18553" lon="-1.60092">
        <ele>59</ele>
        <time>2022-04-03T10:46:42Z</time>
      </trkpt>
      <trkpt lat="47.18559" lon="-1.60076">
        <ele>59</ele>
        <time>2022-04-03T10:46:44Z</time>
      </trkpt>
      <trkpt lat="47.18564" lon="-1.60061">
        <ele>59</ele>
        <time>2022-04-03T10:46:46Z</time>
      </trkpt>
      <trkpt lat="47.18568" lon="-1.60046">
        <ele>59</ele>
        <time>2022-04-03T10:46:48Z</time>
      </trkpt>
      <trkpt lat="47.18574" lon="-1.60031">
        <ele>60</ele>
        <time>2022-04-03T10:46:50Z</time>
      </trkpt>
      <trkpt lat="47.18579" lon="-1.60016">
        <ele>60</ele>
        <time>2022-04-03T10:46:52Z</time>
      </trkpt>
      <trkpt lat="47.18584" lon="-1.60001">
        <ele>60</ele>
        <time>2022-04-03T10:46:54Z</time>
      </trkpt>
      <trkpt lat="47.18589" lon="-1.59986">
        <ele>60</ele>
        <time>2022-04-03T10:46:56Z</time>
      </trkpt>
      <trkpt lat="47.18594" lon="-1.59971">
        <ele>60</ele>
        <time>2022-04-03T10:46:58Z</time>
      </trkpt>
      <trkpt lat="47.18598" lon="-1.59956">
        <ele>60</ele>
        <time>2022-04-03T10:47:00Z</time>
      </trkpt>
      <trkpt lat="47.18602" lon="-1.59941">
        <ele>60</ele>
        <time>2022-04-03T10:47:02Z</time>
      </trkpt>
      <trkpt lat="47.18606" lon="-1.59927">
        <ele>60</ele>
        <time>2022-04-03T10:47:04Z</time>
      </trkpt>
      <trkpt lat="47.18611" lon="-1.59912">
        <ele>60</ele>
        <time>2022-04-03T10:47:06Z</time>
      </trkpt>
      <trkpt lat="47.18615" lon="-1.59897">
        <ele>59</ele>
        <time>2022-04-03T10:47:08Z</time>
      </trkpt>
      <trkpt lat="47.18619" lon="-1.59882">
        <ele>59</ele>
        <time>2022-04-03T10:47:10Z</time>
      </trkpt>
      <trkpt lat="47.18622" lon="-1.59866">
        <ele>59</ele>
        <time>2022-04-03T10:47:12Z</time>
      </trkpt>
      <trkpt lat="47.18619" lon="-1.59851">
        <ele>58</ele>
        <time>2022-04-03T10:47:14Z</time>
      </trkpt>
      <trkpt lat="47.18615" lon="-1.59837">
        <ele>58</ele>
        <time>2022-04-03T10:47:16Z</time>
      </trkpt>
      <trkpt lat="47.1862" lon="-1.59824">
        <ele>59</ele>
        <time>2022-04-03T10:47:18Z</time>
      </trkpt>
      <trkpt lat="47.18626" lon="-1.59813">
        <ele>58</ele>
        <time>2022-04-03T10:47:20Z</time>
      </trkpt>
      <trkpt lat="47.18629" lon="-1.59799">
        <ele>59</ele>
        <time>2022-04-03T10:47:22Z</time>
      </trkpt>
      <trkpt lat="47.18632" lon="-1.59782">
        <ele>59</ele>
        <time>2022-04-03T10:47:24Z</time>
      </trkpt>
      <trkpt lat="47.18639" lon="-1.59768">
        <ele>59</ele>
        <time>2022-04-03T10:47:26Z</time>
      </trkpt>
      <trkpt lat="47.18646" lon="-1.59757">
        <ele>59</ele>
        <time>2022-04-03T10:47:28Z</time>
      </trkpt>
      <trkpt lat="47.18652" lon="-1.59744">
        <ele>60</ele>
        <time>2022-04-03T10:47:30Z</time>
      </trkpt>
      <trkpt lat="47.18655" lon="-1.59729">
        <ele>60</ele>
        <time>2022-04-03T10:47:32Z</time>
      </trkpt>
      <trkpt lat="47.18657" lon="-1.59713">
        <ele>60</ele>
        <time>2022-04-03T10:47:34Z</time>
      </trkpt>
      <trkpt lat="47.1866" lon="-1.59697">
        <ele>60</ele>
        <time>2022-04-03T10:47:36Z</time>
      </trkpt>
      <trkpt lat="47.18663" lon="-1.59681">
        <ele>60</ele>
        <time>2022-04-03T10:47:38Z</time>
      </trkpt>
      <trkpt lat="47.18667" lon="-1.59665">
        <ele>59</ele>
        <time>2022-04-03T10:47:40Z</time>
      </trkpt>
      <trkpt lat="47.18672" lon="-1.5965">
        <ele>59</ele>
        <time>2022-04-03T10:47:42Z</time>
      </trkpt>
      <trkpt lat="47.18675" lon="-1.59634">
        <ele>59</ele>
        <time>2022-04-03T10:47:44Z</time>
      </trkpt>
      <trkpt lat="47.18677" lon="-1.59618">
        <ele>59</ele>
        <time>2022-04-03T10:47:46Z</time>
      </trkpt>
      <trkpt lat="47.18679" lon="-1.59602">
        <ele>59</ele>
        <time>2022-04-03T10:47:48Z</time>
      </trkpt>
      <trkpt lat="47.18681" lon="-1.59586">
        <ele>59</ele>
        <time>2022-04-03T10:47:50Z</time>
      </trkpt>
      <trkpt lat="47.18683" lon="-1.5957">
        <ele>59</ele>
        <time>2022-04-03T10:47:52Z</time>
      </trkpt>
      <trkpt lat="47.18685" lon="-1.59553">
        <ele>59</ele>
        <time>2022-04-03T10:47:54Z</time>
      </trkpt>
      <trkpt lat="47.18687" lon="-1.59537">
        <ele>59</ele>
        <time>2022-04-03T10:47:56Z</time>
      </trkpt>
      <trkpt lat="47.18688" lon="-1.59521">
        <ele>59</ele>
        <time>2022-04-03T10:47:58Z</time>
      </trkpt>
      <trkpt lat="47.1869" lon="-1.59504">
        <ele>59</ele>
        <time>2022-04-03T10:48:00Z</time>
      </trkpt>
      <trkpt lat="47.18692" lon="-1.59488">
        <ele>59</ele>
        <time>2022-04-03T10:48:02Z</time>
      </trkpt>
      <trkpt lat="47.18694" lon="-1.59472">
        <ele>60</ele>
        <time>2022-04-03T10:48:04Z</time>
      </trkpt>
      <trkpt lat="47.18695" lon="-1.59456">
        <ele>60</ele>
        <time>2022-04-03T10:48:06Z</time>
      </trkpt>
      <trkpt lat="47.18697" lon="-1.5944">
        <ele>59</ele>
        <time>2022-04-03T10:48:08Z</time>
      </trkpt>
      <trkpt lat="47.18699" lon="-1.59423">
        <ele>59</ele>
        <time>2022-04-03T10:48:10Z</time>
      </trkpt>
      <trkpt lat="47.18701" lon="-1.59406">
        <ele>59</ele>
        <time>2022-04-03T10:48:12Z</time>
      </trkpt>
      <trkpt lat="47.18703" lon="-1.59389">
        <ele>59</ele>
        <time>2022-04-03T10:48:14Z</time>
      </trkpt>
      <trkpt lat="47.18705" lon="-1.59372">
        <ele>59</ele>
        <time>2022-04-03T10:48:16Z</time>
      </trkpt>
      <trkpt lat="47.18706" lon="-1.59356">
        <ele>59</ele>
        <time>2022-04-03T10:48:18Z</time>
      </trkpt>
      <trkpt lat="47.18708" lon="-1.59339">
        <ele>59</ele>
        <time>2022-04-03T10:48:20Z</time>
      </trkpt>
      <trkpt lat="47.1871" lon="-1.59323">
        <ele>59</ele>
        <time>2022-04-03T10:48:22Z</time>
      </trkpt>
      <trkpt lat="47.18712" lon="-1.59305">
        <ele>59</ele>
        <time>2022-04-03T10:48:24Z</time>
      </trkpt>
      <trkpt lat="47.18713" lon="-1.59289">
        <ele>59</ele>
        <time>2022-04-03T10:48:26Z</time>
      </trkpt>
      <trkpt lat="47.18715" lon="-1.59272">
        <ele>59</ele>
        <time>2022-04-03T10:48:28Z</time>
      </trkpt>
      <trkpt lat="47.18717" lon="-1.59256">
        <ele>60</ele>
        <time>2022-04-03T10:48:30Z</time>
      </trkpt>
      <trkpt lat="47.18719" lon="-1.59239">
        <ele>59</ele>
        <time>2022-04-03T10:48:32Z</time>
      </trkpt>
      <trkpt lat="47.1872" lon="-1.59222">
        <ele>59</ele>
        <time>2022-04-03T10:48:34Z</time>
      </trkpt>
      <trkpt lat="47.18722" lon="-1.59205">
        <ele>59</ele>
        <time>2022-04-03T10:48:36Z</time>
      </trkpt>
      <trkpt lat="47.18724" lon="-1.59188">
        <ele>59</ele>
        <time>2022-04-03T10:48:38Z</time>
      </trkpt>
      <trkpt lat="47.18726" lon="-1.59172">
        <ele>59</ele>
        <time>2022-04-03T10:48:40Z</time>
      </trkpt>
      <trkpt lat="47.18728" lon="-1.59155">
        <ele>59</ele>
        <time>2022-04-03T10:48:42Z</time>
      </trkpt>
      <trkpt lat="47.18729" lon="-1.59138">
        <ele>58</ele>
        <time>2022-04-03T10:48:44Z</time>
      </trkpt>
      <trkpt lat="47.18731" lon="-1.5912">
        <ele>58</ele>
        <time>2022-04-03T10:48:46Z</time>
      </trkpt>
      <trkpt lat="47.18733" lon="-1.59103">
        <ele>58</ele>
        <time>2022-04-03T10:48:48Z</time>
      </trkpt>
      <trkpt lat="47.18735" lon="-1.59086">
        <ele>58</ele>
        <time>2022-04-03T10:48:50Z</time>
      </trkpt>
      <trkpt lat="47.18737" lon="-1.5907">
        <ele>58</ele>
        <time>2022-04-03T10:48:52Z</time>
      </trkpt>
      <trkpt lat="47.18739" lon="-1.59053">
        <ele>58</ele>
        <time>2022-04-03T10:48:54Z</time>
      </trkpt>
      <trkpt lat="47.18741" lon="-1.59037">
        <ele>58</ele>
        <time>2022-04-03T10:48:56Z</time>
      </trkpt>
      <trkpt lat="47.18742" lon="-1.59022">
        <ele>58</ele>
        <time>2022-04-03T10:48:58Z</time>
      </trkpt>
      <trkpt lat="47.18744" lon="-1.59005">
        <ele>58</ele>
        <time>2022-04-03T10:49:00Z</time>
      </trkpt>
      <trkpt lat="47.18746" lon="-1.58989">
        <ele>59</ele>
        <time>2022-04-03T10:49:02Z</time>
      </trkpt>
      <trkpt lat="47.18747" lon="-1.58973">
        <ele>60</ele>
        <time>2022-04-03T10:49:04Z</time>
      </trkpt>
      <trkpt lat="47.18749" lon="-1.58957">
        <ele>60</ele>
        <time>2022-04-03T10:49:06Z</time>
      </trkpt>
      <trkpt lat="47.18751" lon="-1.5894">
        <ele>60</ele>
        <time>2022-04-03T10:49:08Z</time>
      </trkpt>
      <trkpt lat="47.18753" lon="-1.58923">
        <ele>61</ele>
        <time>2022-04-03T10:49:10Z</time>
      </trkpt>
      <trkpt lat="47.18755" lon="-1.58907">
        <ele>61</ele>
        <time>2022-04-03T10:49:12Z</time>
      </trkpt>
      <trkpt lat="47.18757" lon="-1.58891">
        <ele>60</ele>
        <time>2022-04-03T10:49:14Z</time>
      </trkpt>
      <trkpt lat="47.18759" lon="-1.58876">
        <ele>60</ele>
        <time>2022-04-03T10:49:16Z</time>
      </trkpt>
      <trkpt lat="47.1876" lon="-1.5886">
        <ele>60</ele>
        <time>2022-04-03T10:49:18Z</time>
      </trkpt>
      <trkpt lat="47.18762" lon="-1.58843">
        <ele>60</ele>
        <time>2022-04-03T10:49:20Z</time>
      </trkpt>
      <trkpt lat="47.18764" lon="-1.58827">
        <ele>60</ele>
        <time>2022-04-03T10:49:22Z</time>
      </trkpt>
      <trkpt lat="47.18765" lon="-1.58811">
        <ele>60</ele>
        <time>2022-04-03T10:49:24Z</time>
      </trkpt>
      <trkpt lat="47.18764" lon="-1.58796">
        <ele>59</ele>
        <time>2022-04-03T10:49:26Z</time>
      </trkpt>
      <trkpt lat="47.18761" lon="-1.5878">
        <ele>59</ele>
        <time>2022-04-03T10:49:28Z</time>
      </trkpt>
      <trkpt lat="47.18757" lon="-1.58764">
        <ele>58</ele>
        <time>2022-04-03T10:49:30Z</time>
      </trkpt>
      <trkpt lat="47.18756" lon="-1.58747">
        <ele>58</ele>
        <time>2022-04-03T10:49:32Z</time>
      </trkpt>
      <trkpt lat="47.18759" lon="-1.58729">
        <ele>57</ele>
        <time>2022-04-03T10:49:34Z</time>
      </trkpt>
      <trkpt lat="47.18767" lon="-1.58715">
        <ele>57</ele>
        <time>2022-04-03T10:49:36Z</time>
      </trkpt>
      <trkpt lat="47.18776" lon="-1.58702">
        <ele>57</ele>
        <time>2022-04-03T10:49:38Z</time>
      </trkpt>
      <trkpt lat="47.18782" lon="-1.58689">
        <ele>57</ele>
        <time>2022-04-03T10:49:40Z</time>
      </trkpt>
      <trkpt lat="47.18786" lon="-1.58673">
        <ele>57</ele>
        <time>2022-04-03T10:49:42Z</time>
      </trkpt>
      <trkpt lat="47.1879" lon="-1.58655">
        <ele>57</ele>
        <time>2022-04-03T10:49:44Z</time>
      </trkpt>
      <trkpt lat="47.18794" lon="-1.5864">
        <ele>57</ele>
        <time>2022-04-03T10:49:46Z</time>
      </trkpt>
      <trkpt lat="47.18798" lon="-1.58624">
        <ele>57</ele>
        <time>2022-04-03T10:49:48Z</time>
      </trkpt>
      <trkpt lat="47.18802" lon="-1.58609">
        <ele>58</ele>
        <time>2022-04-03T10:49:50Z</time>
      </trkpt>
      <trkpt lat="47.18806" lon="-1.58594">
        <ele>58</ele>
        <time>2022-04-03T10:49:52Z</time>
      </trkpt>
      <trkpt lat="47.1881" lon="-1.58578">
        <ele>58</ele>
        <time>2022-04-03T10:49:54Z</time>
      </trkpt>
      <trkpt lat="47.18815" lon="-1.58562">
        <ele>58</ele>
        <time>2022-04-03T10:49:56Z</time>
      </trkpt>
      <trkpt lat="47.18819" lon="-1.58547">
        <ele>58</ele>
        <time>2022-04-03T10:49:58Z</time>
      </trkpt>
      <trkpt lat="47.18823" lon="-1.58532">
        <ele>58</ele>
        <time>2022-04-03T10:50:00Z</time>
      </trkpt>
      <trkpt lat="47.18828" lon="-1.58516">
        <ele>58</ele>
        <time>2022-04-03T10:50:02Z</time>
      </trkpt>
      <trkpt lat="47.18832" lon="-1.585">
        <ele>58</ele>
        <time>2022-04-03T10:50:04Z</time>
      </trkpt>
      <trkpt lat="47.18837" lon="-1.58485">
        <ele>59</ele>
        <time>2022-04-03T10:50:06Z</time>
      </trkpt>
      <trkpt lat="47.18841" lon="-1.58469">
        <ele>59</ele>
        <time>2022-04-03T10:50:08Z</time>
      </trkpt>
      <trkpt lat="47.18845" lon="-1.58454">
        <ele>59</ele>
        <time>2022-04-03T10:50:10Z</time>
      </trkpt>
      <trkpt lat="47.1885" lon="-1.58438">
        <ele>59</ele>
        <time>2022-04-03T10:50:12Z</time>
      </trkpt>
      <trkpt lat="47.18855" lon="-1.58423">
        <ele>59</ele>
        <time>2022-04-03T10:50:14Z</time>
      </trkpt>
      <trkpt lat="47.1886" lon="-1.58407">
        <ele>58</ele>
        <time>2022-04-03T10:50:16Z</time>
      </trkpt>
      <trkpt lat="47.18865" lon="-1.58392">
        <ele>58</ele>
        <time>2022-04-03T10:50:18Z</time>
      </trkpt>
      <trkpt lat="47.18871" lon="-1.58376">
        <ele>58</ele>
        <time>2022-04-03T10:50:20Z</time>
      </trkpt>
      <trkpt lat="47.18876" lon="-1.58361">
        <ele>58</ele>
        <time>2022-04-03T10:50:22Z</time>
      </trkpt>
      <trkpt lat="47.18881" lon="-1.58345">
        <ele>59</ele>
        <time>2022-04-03T10:50:24Z</time>
      </trkpt>
      <trkpt lat="47.18887" lon="-1.5833">
        <ele>59</ele>
        <time>2022-04-03T10:50:26Z</time>
      </trkpt>
      <trkpt lat="47.18892" lon="-1.58314">
        <ele>59</ele>
        <time>2022-04-03T10:50:28Z</time>
      </trkpt>
      <trkpt lat="47.18897" lon="-1.58298">
        <ele>60</ele>
        <time>2022-04-03T10:50:30Z</time>
      </trkpt>
      <trkpt lat="47.18903" lon="-1.58282">
        <ele>59</ele>
        <time>2022-04-03T10:50:32Z</time>
      </trkpt>
      <trkpt lat="47.18909" lon="-1.58267">
        <ele>59</ele>
        <time>2022-04-03T10:50:34Z</time>
      </trkpt>
      <trkpt lat="47.18914" lon="-1.58251">
        <ele>60</ele>
        <time>2022-04-03T10:50:36Z</time>
      </trkpt>
      <trkpt lat="47.1892" lon="-1.58235">
        <ele>59</ele>
        <time>2022-04-03T10:50:38Z</time>
      </trkpt>
      <trkpt lat="47.18925" lon="-1.5822">
        <ele>59</ele>
        <time>2022-04-03T10:50:40Z</time>
      </trkpt>
      <trkpt lat="47.18931" lon="-1.58204">
        <ele>60</ele>
        <time>2022-04-03T10:50:42Z</time>
      </trkpt>
      <trkpt lat="47.18936" lon="-1.58188">
        <ele>60</ele>
        <time>2022-04-03T10:50:44Z</time>
      </trkpt>
      <trkpt lat="47.18942" lon="-1.58173">
        <ele>59</ele>
        <time>2022-04-03T10:50:46Z</time>
      </trkpt>
      <trkpt lat="47.18948" lon="-1.58157">
        <ele>59</ele>
        <time>2022-04-03T10:50:48Z</time>
      </trkpt>
      <trkpt lat="47.18953" lon="-1.58141">
        <ele>59</ele>
        <time>2022-04-03T10:50:50Z</time>
      </trkpt>
      <trkpt lat="47.18959" lon="-1.58126">
        <ele>59</ele>
        <time>2022-04-03T10:50:52Z</time>
      </trkpt>
      <trkpt lat="47.18964" lon="-1.5811">
        <ele>60</ele>
        <time>2022-04-03T10:50:54Z</time>
      </trkpt>
      <trkpt lat="47.1897" lon="-1.58093">
        <ele>60</ele>
        <time>2022-04-03T10:50:56Z</time>
      </trkpt>
      <trkpt lat="47.18976" lon="-1.58077">
        <ele>60</ele>
        <time>2022-04-03T10:50:58Z</time>
      </trkpt>
      <trkpt lat="47.18982" lon="-1.58061">
        <ele>60</ele>
        <time>2022-04-03T10:51:00Z</time>
      </trkpt>
      <trkpt lat="47.18988" lon="-1.58045">
        <ele>60</ele>
        <time>2022-04-03T10:51:02Z</time>
      </trkpt>
      <trkpt lat="47.18993" lon="-1.58029">
        <ele>59</ele>
        <time>2022-04-03T10:51:04Z</time>
      </trkpt>
      <trkpt lat="47.18999" lon="-1.58012">
        <ele>59</ele>
        <time>2022-04-03T10:51:06Z</time>
      </trkpt>
      <trkpt lat="47.19005" lon="-1.57995">
        <ele>59</ele>
        <time>2022-04-03T10:51:08Z</time>
      </trkpt>
      <trkpt lat="47.19011" lon="-1.57979">
        <ele>59</ele>
        <time>2022-04-03T10:51:10Z</time>
      </trkpt>
      <trkpt lat="47.19017" lon="-1.57963">
        <ele>59</ele>
        <time>2022-04-03T10:51:12Z</time>
      </trkpt>
      <trkpt lat="47.19022" lon="-1.57946">
        <ele>59</ele>
        <time>2022-04-03T10:51:14Z</time>
      </trkpt>
      <trkpt lat="47.19028" lon="-1.57931">
        <ele>59</ele>
        <time>2022-04-03T10:51:16Z</time>
      </trkpt>
      <trkpt lat="47.19034" lon="-1.57915">
        <ele>59</ele>
        <time>2022-04-03T10:51:18Z</time>
      </trkpt>
      <trkpt lat="47.1904" lon="-1.57898">
        <ele>60</ele>
        <time>2022-04-03T10:51:20Z</time>
      </trkpt>
      <trkpt lat="47.19046" lon="-1.57882">
        <ele>60</ele>
        <time>2022-04-03T10:51:22Z</time>
      </trkpt>
      <trkpt lat="47.19051" lon="-1.57865">
        <ele>60</ele>
        <time>2022-04-03T10:51:24Z</time>
      </trkpt>
      <trkpt lat="47.19057" lon="-1.57849">
        <ele>59</ele>
        <time>2022-04-03T10:51:26Z</time>
      </trkpt>
      <trkpt lat="47.19063" lon="-1.57833">
        <ele>59</ele>
        <time>2022-04-03T10:51:28Z</time>
      </trkpt>
      <trkpt lat="47.19069" lon="-1.57817">
        <ele>59</ele>
        <time>2022-04-03T10:51:30Z</time>
      </trkpt>
      <trkpt lat="47.19074" lon="-1.578">
        <ele>58</ele>
        <time>2022-04-03T10:51:32Z</time>
      </trkpt>
      <trkpt lat="47.1908" lon="-1.57785">
        <ele>58</ele>
        <time>2022-04-03T10:51:34Z</time>
      </trkpt>
      <trkpt lat="47.19085" lon="-1.57769">
        <ele>58</ele>
        <time>2022-04-03T10:51:36Z</time>
      </trkpt>
      <trkpt lat="47.19091" lon="-1.57753">
        <ele>58</ele>
        <time>2022-04-03T10:51:38Z</time>
      </trkpt>
      <trkpt lat="47.19096" lon="-1.57737">
        <ele>59</ele>
        <time>2022-04-03T10:51:40Z</time>
      </trkpt>
      <trkpt lat="47.19102" lon="-1.57722">
        <ele>59</ele>
        <time>2022-04-03T10:51:42Z</time>
      </trkpt>
      <trkpt lat="47.19108" lon="-1.57706">
        <ele>59</ele>
        <time>2022-04-03T10:51:44Z</time>
      </trkpt>
      <trkpt lat="47.19114" lon="-1.5769">
        <ele>59</ele>
        <time>2022-04-03T10:51:46Z</time>
      </trkpt>
      <trkpt lat="47.19119" lon="-1.57674">
        <ele>59</ele>
        <time>2022-04-03T10:51:48Z</time>
      </trkpt>
      <trkpt lat="47.19125" lon="-1.57658">
        <ele>59</ele>
        <time>2022-04-03T10:51:50Z</time>
      </trkpt>
      <trkpt lat="47.19131" lon="-1.57642">
        <ele>58</ele>
        <time>2022-04-03T10:51:52Z</time>
      </trkpt>
      <trkpt lat="47.19136" lon="-1.57626">
        <ele>58</ele>
        <time>2022-04-03T10:51:54Z</time>
      </trkpt>
      <trkpt lat="47.19142" lon="-1.5761">
        <ele>58</ele>
        <time>2022-04-03T10:51:56Z</time>
      </trkpt>
      <trkpt lat="47.19148" lon="-1.57594">
        <ele>58</ele>
        <time>2022-04-03T10:51:58Z</time>
      </trkpt>
      <trkpt lat="47.19154" lon="-1.57578">
        <ele>58</ele>
        <time>2022-04-03T10:52:00Z</time>
      </trkpt>
      <trkpt lat="47.1916" lon="-1.57562">
        <ele>58</ele>
        <time>2022-04-03T10:52:02Z</time>
      </trkpt>
      <trkpt lat="47.19166" lon="-1.57546">
        <ele>58</ele>
        <time>2022-04-03T10:52:04Z</time>
      </trkpt>
      <trkpt lat="47.19171" lon="-1.57529">
        <ele>58</ele>
        <time>2022-04-03T10:52:06Z</time>
      </trkpt>
      <trkpt lat="47.19176" lon="-1.57513">
        <ele>58</ele>
        <time>2022-04-03T10:52:08Z</time>
      </trkpt>
      <trkpt lat="47.19181" lon="-1.57497">
        <ele>58</ele>
        <time>2022-04-03T10:52:10Z</time>
      </trkpt>
      <trkpt lat="47.19186" lon="-1.57481">
        <ele>58</ele>
        <time>2022-04-03T10:52:12Z</time>
      </trkpt>
      <trkpt lat="47.1919" lon="-1.57464">
        <ele>59</ele>
        <time>2022-04-03T10:52:14Z</time>
      </trkpt>
      <trkpt lat="47.19195" lon="-1.57447">
        <ele>59</ele>
        <time>2022-04-03T10:52:16Z</time>
      </trkpt>
      <trkpt lat="47.19199" lon="-1.57432">
        <ele>59</ele>
        <time>2022-04-03T10:52:18Z</time>
      </trkpt>
      <trkpt lat="47.19204" lon="-1.57416">
        <ele>59</ele>
        <time>2022-04-03T10:52:20Z</time>
      </trkpt>
      <trkpt lat="47.19209" lon="-1.574">
        <ele>60</ele>
        <time>2022-04-03T10:52:22Z</time>
      </trkpt>
      <trkpt lat="47.19214" lon="-1.57384">
        <ele>60</ele>
        <time>2022-04-03T10:52:24Z</time>
      </trkpt>
      <trkpt lat="47.19218" lon="-1.57367">
        <ele>60</ele>
        <time>2022-04-03T10:52:26Z</time>
      </trkpt>
      <trkpt lat="47.19221" lon="-1.57351">
        <ele>61</ele>
        <time>2022-04-03T10:52:28Z</time>
      </trkpt>
      <trkpt lat="47.19225" lon="-1.57334">
        <ele>61</ele>
        <time>2022-04-03T10:52:30Z</time>
      </trkpt>
      <trkpt lat="47.19229" lon="-1.57317">
        <ele>61</ele>
        <time>2022-04-03T10:52:32Z</time>
      </trkpt>
      <trkpt lat="47.19231" lon="-1.573">
        <ele>61</ele>
        <time>2022-04-03T10:52:34Z</time>
      </trkpt>
      <trkpt lat="47.19233" lon="-1.57282">
        <ele>61</ele>
        <time>2022-04-03T10:52:36Z</time>
      </trkpt>
      <trkpt lat="47.19236" lon="-1.57265">
        <ele>60</ele>
        <time>2022-04-03T10:52:38Z</time>
      </trkpt>
      <trkpt lat="47.19238" lon="-1.57248">
        <ele>60</ele>
        <time>2022-04-03T10:52:40Z</time>
      </trkpt>
      <trkpt lat="47.1924" lon="-1.5723">
        <ele>60</ele>
        <time>2022-04-03T10:52:42Z</time>
      </trkpt>
      <trkpt lat="47.19242" lon="-1.57212">
        <ele>60</ele>
        <time>2022-04-03T10:52:44Z</time>
      </trkpt>
      <trkpt lat="47.19244" lon="-1.57194">
        <ele>60</ele>
        <time>2022-04-03T10:52:46Z</time>
      </trkpt>
      <trkpt lat="47.19246" lon="-1.57178">
        <ele>60</ele>
        <time>2022-04-03T10:52:48Z</time>
      </trkpt>
      <trkpt lat="47.19249" lon="-1.5716">
        <ele>59</ele>
        <time>2022-04-03T10:52:50Z</time>
      </trkpt>
      <trkpt lat="47.19252" lon="-1.57143">
        <ele>58</ele>
        <time>2022-04-03T10:52:52Z</time>
      </trkpt>
      <trkpt lat="47.19255" lon="-1.57125">
        <ele>58</ele>
        <time>2022-04-03T10:52:54Z</time>
      </trkpt>
      <trkpt lat="47.19258" lon="-1.57108">
        <ele>58</ele>
        <time>2022-04-03T10:52:56Z</time>
      </trkpt>
      <trkpt lat="47.19259" lon="-1.57091">
        <ele>58</ele>
        <time>2022-04-03T10:52:58Z</time>
      </trkpt>
      <trkpt lat="47.1926" lon="-1.57074">
        <ele>57</ele>
        <time>2022-04-03T10:53:00Z</time>
      </trkpt>
      <trkpt lat="47.19257" lon="-1.57058">
        <ele>56</ele>
        <time>2022-04-03T10:53:02Z</time>
      </trkpt>
      <trkpt lat="47.19257" lon="-1.5704">
        <ele>56</ele>
        <time>2022-04-03T10:53:04Z</time>
      </trkpt>
      <trkpt lat="47.19264" lon="-1.57024">
        <ele>56</ele>
        <time>2022-04-03T10:53:06Z</time>
      </trkpt>
      <trkpt lat="47.1927" lon="-1.57008">
        <ele>56</ele>
        <time>2022-04-03T10:53:08Z</time>
      </trkpt>
      <trkpt lat="47.19272" lon="-1.56991">
        <ele>57</ele>
        <time>2022-04-03T10:53:10Z</time>
      </trkpt>
      <trkpt lat="47.19274" lon="-1.56974">
        <ele>57</ele>
        <time>2022-04-03T10:53:12Z</time>
      </trkpt>
      <trkpt lat="47.19275" lon="-1.56957">
        <ele>57</ele>
        <time>2022-04-03T10:53:14Z</time>
      </trkpt>
      <trkpt lat="47.19277" lon="-1.56941">
        <ele>57</ele>
        <time>2022-04-03T10:53:16Z</time>
      </trkpt>
      <trkpt lat="47.19277" lon="-1.56923">
        <ele>57</ele>
        <time>2022-04-03T10:53:18Z</time>
      </trkpt>
      <trkpt lat="47.19278" lon="-1.56906">
        <ele>58</ele>
        <time>2022-04-03T10:53:20Z</time>
      </trkpt>
      <trkpt lat="47.1928" lon="-1.56889">
        <ele>58</ele>
        <time>2022-04-03T10:53:22Z</time>
      </trkpt>
      <trkpt lat="47.19282" lon="-1.56873">
        <ele>58</ele>
        <time>2022-04-03T10:53:24Z</time>
      </trkpt>
      <trkpt lat="47.19284" lon="-1.56856">
        <ele>58</ele>
        <time>2022-04-03T10:53:26Z</time>
      </trkpt>
      <trkpt lat="47.19285" lon="-1.5684">
        <ele>58</ele>
        <time>2022-04-03T10:53:28Z</time>
      </trkpt>
      <trkpt lat="47.19286" lon="-1.56823">
        <ele>59</ele>
        <time>2022-04-03T10:53:30Z</time>
      </trkpt>
      <trkpt lat="47.19287" lon="-1.56806">
        <ele>58</ele>
        <time>2022-04-03T10:53:32Z</time>
      </trkpt>
      <trkpt lat="47.19287" lon="-1.5679">
        <ele>58</ele>
        <time>2022-04-03T10:53:34Z</time>
      </trkpt>
      <trkpt lat="47.19288" lon="-1.56774">
        <ele>58</ele>
        <time>2022-04-03T10:53:36Z</time>
      </trkpt>
      <trkpt lat="47.19288" lon="-1.5676">
        <ele>58</ele>
        <time>2022-04-03T10:53:38Z</time>
      </trkpt>
      <trkpt lat="47.19287" lon="-1.56745">
        <ele>58</ele>
        <time>2022-04-03T10:53:40Z</time>
      </trkpt>
      <trkpt lat="47.19287" lon="-1.56729">
        <ele>58</ele>
        <time>2022-04-03T10:53:42Z</time>
      </trkpt>
      <trkpt lat="47.19287" lon="-1.56714">
        <ele>58</ele>
        <time>2022-04-03T10:53:44Z</time>
      </trkpt>
      <trkpt lat="47.19287" lon="-1.56699">
        <ele>58</ele>
        <time>2022-04-03T10:53:46Z</time>
      </trkpt>
      <trkpt lat="47.19286" lon="-1.56684">
        <ele>58</ele>
        <time>2022-04-03T10:53:48Z</time>
      </trkpt>
      <trkpt lat="47.19286" lon="-1.5667">
        <ele>58</ele>
        <time>2022-04-03T10:53:50Z</time>
      </trkpt>
      <trkpt lat="47.19285" lon="-1.56655">
        <ele>58</ele>
        <time>2022-04-03T10:53:52Z</time>
      </trkpt>
      <trkpt lat="47.19284" lon="-1.5664">
        <ele>58</ele>
        <time>2022-04-03T10:53:54Z</time>
      </trkpt>
      <trkpt lat="47.19282" lon="-1.56625">
        <ele>58</ele>
        <time>2022-04-03T10:53:56Z</time>
      </trkpt>
      <trkpt lat="47.19281" lon="-1.5661">
        <ele>58</ele>
        <time>2022-04-03T10:53:58Z</time>
      </trkpt>
      <trkpt lat="47.1928" lon="-1.56595">
        <ele>59</ele>
        <time>2022-04-03T10:54:00Z</time>
      </trkpt>
      <trkpt lat="47.19279" lon="-1.56579">
        <ele>59</ele>
        <time>2022-04-03T10:54:02Z</time>
      </trkpt>
      <trkpt lat="47.19277" lon="-1.56564">
        <ele>59</ele>
        <time>2022-04-03T10:54:04Z</time>
      </trkpt>
      <trkpt lat="47.19276" lon="-1.56548">
        <ele>59</ele>
        <time>2022-04-03T10:54:06Z</time>
      </trkpt>
      <trkpt lat="47.19275" lon="-1.56532">
        <ele>59</ele>
        <time>2022-04-03T10:54:08Z</time>
      </trkpt>
      <trkpt lat="47.19273" lon="-1.56516">
        <ele>58</ele>
        <time>2022-04-03T10:54:10Z</time>
      </trkpt>
      <trkpt lat="47.19272" lon="-1.56499">
        <ele>58</ele>
        <time>2022-04-03T10:54:12Z</time>
      </trkpt>
      <trkpt lat="47.19269" lon="-1.56483">
        <ele>58</ele>
        <time>2022-04-03T10:54:14Z</time>
      </trkpt>
      <trkpt lat="47.19268" lon="-1.56468">
        <ele>58</ele>
        <time>2022-04-03T10:54:16Z</time>
      </trkpt>
      <trkpt lat="47.19266" lon="-1.56452">
        <ele>58</ele>
        <time>2022-04-03T10:54:18Z</time>
      </trkpt>
      <trkpt lat="47.19265" lon="-1.56436">
        <ele>58</ele>
        <time>2022-04-03T10:54:20Z</time>
      </trkpt>
      <trkpt lat="47.19264" lon="-1.56421">
        <ele>58</ele>
        <time>2022-04-03T10:54:22Z</time>
      </trkpt>
      <trkpt lat="47.19263" lon="-1.56406">
        <ele>58</ele>
        <time>2022-04-03T10:54:24Z</time>
      </trkpt>
      <trkpt lat="47.19262" lon="-1.56391">
        <ele>58</ele>
        <time>2022-04-03T10:54:26Z</time>
      </trkpt>
      <trkpt lat="47.1926" lon="-1.56376">
        <ele>59</ele>
        <time>2022-04-03T10:54:28Z</time>
      </trkpt>
      <trkpt lat="47.19257" lon="-1.5636">
        <ele>59</ele>
        <time>2022-04-03T10:54:30Z</time>
      </trkpt>
      <trkpt lat="47.19254" lon="-1.56345">
        <ele>59</ele>
        <time>2022-04-03T10:54:32Z</time>
      </trkpt>
      <trkpt lat="47.19249" lon="-1.56331">
        <ele>59</ele>
        <time>2022-04-03T10:54:34Z</time>
      </trkpt>
      <trkpt lat="47.19243" lon="-1.56319">
        <ele>58</ele>
        <time>2022-04-03T10:54:36Z</time>
      </trkpt>
      <trkpt lat="47.19236" lon="-1.56307">
        <ele>58</ele>
        <time>2022-04-03T10:54:38Z</time>
      </trkpt>
      <trkpt lat="47.19232" lon="-1.56293">
        <ele>57</ele>
        <time>2022-04-03T10:54:40Z</time>
      </trkpt>
      <trkpt lat="47.19235" lon="-1.56269">
        <ele>57</ele>
        <time>2022-04-03T10:54:43Z</time>
      </trkpt>
      <trkpt lat="47.19241" lon="-1.56255">
        <ele>57</ele>
        <time>2022-04-03T10:54:45Z</time>
      </trkpt>
      <trkpt lat="47.19244" lon="-1.56239">
        <ele>57</ele>
        <time>2022-04-03T10:54:47Z</time>
      </trkpt>
      <trkpt lat="47.19243" lon="-1.56223">
        <ele>57</ele>
        <time>2022-04-03T10:54:49Z</time>
      </trkpt>
      <trkpt lat="47.19242" lon="-1.56207">
        <ele>58</ele>
        <time>2022-04-03T10:54:51Z</time>
      </trkpt>
      <trkpt lat="47.19243" lon="-1.5619">
        <ele>57</ele>
        <time>2022-04-03T10:54:53Z</time>
      </trkpt>
      <trkpt lat="47.19243" lon="-1.56166">
        <ele>57</ele>
        <time>2022-04-03T10:54:56Z</time>
      </trkpt>
      <trkpt lat="47.19243" lon="-1.56149">
        <ele>57</ele>
        <time>2022-04-03T10:54:58Z</time>
      </trkpt>
      <trkpt lat="47.19242" lon="-1.56132">
        <ele>57</ele>
        <time>2022-04-03T10:55:00Z</time>
      </trkpt>
      <trkpt lat="47.19242" lon="-1.56115">
        <ele>57</ele>
        <time>2022-04-03T10:55:02Z</time>
      </trkpt>
      <trkpt lat="47.19241" lon="-1.56098">
        <ele>57</ele>
        <time>2022-04-03T10:55:04Z</time>
      </trkpt>
      <trkpt lat="47.1924" lon="-1.5608">
        <ele>57</ele>
        <time>2022-04-03T10:55:06Z</time>
      </trkpt>
      <trkpt lat="47.1924" lon="-1.56063">
        <ele>56</ele>
        <time>2022-04-03T10:55:08Z</time>
      </trkpt>
      <trkpt lat="47.19238" lon="-1.56046">
        <ele>56</ele>
        <time>2022-04-03T10:55:10Z</time>
      </trkpt>
      <trkpt lat="47.19237" lon="-1.56029">
        <ele>56</ele>
        <time>2022-04-03T10:55:12Z</time>
      </trkpt>
      <trkpt lat="47.19235" lon="-1.56012">
        <ele>57</ele>
        <time>2022-04-03T10:55:14Z</time>
      </trkpt>
      <trkpt lat="47.19233" lon="-1.55995">
        <ele>57</ele>
        <time>2022-04-03T10:55:16Z</time>
      </trkpt>
      <trkpt lat="47.19231" lon="-1.55979">
        <ele>57</ele>
        <time>2022-04-03T10:55:18Z</time>
      </trkpt>
      <trkpt lat="47.19229" lon="-1.55962">
        <ele>57</ele>
        <time>2022-04-03T10:55:20Z</time>
      </trkpt>
      <trkpt lat="47.19227" lon="-1.55946">
        <ele>57</ele>
        <time>2022-04-03T10:55:22Z</time>
      </trkpt>
      <trkpt lat="47.19226" lon="-1.5593">
        <ele>58</ele>
        <time>2022-04-03T10:55:24Z</time>
      </trkpt>
      <trkpt lat="47.19225" lon="-1.55914">
        <ele>58</ele>
        <time>2022-04-03T10:55:26Z</time>
      </trkpt>
      <trkpt lat="47.19223" lon="-1.55896">
        <ele>58</ele>
        <time>2022-04-03T10:55:28Z</time>
      </trkpt>
      <trkpt lat="47.19222" lon="-1.5588">
        <ele>58</ele>
        <time>2022-04-03T10:55:30Z</time>
      </trkpt>
      <trkpt lat="47.19221" lon="-1.55863">
        <ele>58</ele>
        <time>2022-04-03T10:55:32Z</time>
      </trkpt>
      <trkpt lat="47.1922" lon="-1.55845">
        <ele>58</ele>
        <time>2022-04-03T10:55:34Z</time>
      </trkpt>
      <trkpt lat="47.1922" lon="-1.55828">
        <ele>58</ele>
        <time>2022-04-03T10:55:36Z</time>
      </trkpt>
      <trkpt lat="47.19219" lon="-1.55811">
        <ele>58</ele>
        <time>2022-04-03T10:55:38Z</time>
      </trkpt>
      <trkpt lat="47.19218" lon="-1.55795">
        <ele>58</ele>
        <time>2022-04-03T10:55:40Z</time>
      </trkpt>
      <trkpt lat="47.19218" lon="-1.55778">
        <ele>58</ele>
        <time>2022-04-03T10:55:42Z</time>
      </trkpt>
      <trkpt lat="47.19218" lon="-1.5576">
        <ele>58</ele>
        <time>2022-04-03T10:55:44Z</time>
      </trkpt>
      <trkpt lat="47.19219" lon="-1.55744">
        <ele>58</ele>
        <time>2022-04-03T10:55:46Z</time>
      </trkpt>
      <trkpt lat="47.19219" lon="-1.55727">
        <ele>58</ele>
        <time>2022-04-03T10:55:48Z</time>
      </trkpt>
      <trkpt lat="47.19219" lon="-1.55711">
        <ele>58</ele>
        <time>2022-04-03T10:55:50Z</time>
      </trkpt>
      <trkpt lat="47.19219" lon="-1.55694">
        <ele>58</ele>
        <time>2022-04-03T10:55:52Z</time>
      </trkpt>
      <trkpt lat="47.19219" lon="-1.55677">
        <ele>58</ele>
        <time>2022-04-03T10:55:54Z</time>
      </trkpt>
      <trkpt lat="47.1922" lon="-1.5566">
        <ele>58</ele>
        <time>2022-04-03T10:55:56Z</time>
      </trkpt>
      <trkpt lat="47.1922" lon="-1.55643">
        <ele>58</ele>
        <time>2022-04-03T10:55:58Z</time>
      </trkpt>
      <trkpt lat="47.19221" lon="-1.55625">
        <ele>58</ele>
        <time>2022-04-03T10:56:00Z</time>
      </trkpt>
      <trkpt lat="47.19222" lon="-1.55608">
        <ele>58</ele>
        <time>2022-04-03T10:56:02Z</time>
      </trkpt>
      <trkpt lat="47.19224" lon="-1.55592">
        <ele>57</ele>
        <time>2022-04-03T10:56:04Z</time>
      </trkpt>
      <trkpt lat="47.19225" lon="-1.55577">
        <ele>57</ele>
        <time>2022-04-03T10:56:06Z</time>
      </trkpt>
      <trkpt lat="47.19226" lon="-1.55561">
        <ele>57</ele>
        <time>2022-04-03T10:56:08Z</time>
      </trkpt>
      <trkpt lat="47.19228" lon="-1.55545">
        <ele>57</ele>
        <time>2022-04-03T10:56:10Z</time>
      </trkpt>
      <trkpt lat="47.19229" lon="-1.5553">
        <ele>57</ele>
        <time>2022-04-03T10:56:12Z</time>
      </trkpt>
      <trkpt lat="47.1923" lon="-1.55514">
        <ele>57</ele>
        <time>2022-04-03T10:56:14Z</time>
      </trkpt>
      <trkpt lat="47.1923" lon="-1.55498">
        <ele>57</ele>
        <time>2022-04-03T10:56:16Z</time>
      </trkpt>
      <trkpt lat="47.1923" lon="-1.55483">
        <ele>57</ele>
        <time>2022-04-03T10:56:18Z</time>
      </trkpt>
      <trkpt lat="47.19229" lon="-1.55468">
        <ele>57</ele>
        <time>2022-04-03T10:56:20Z</time>
      </trkpt>
      <trkpt lat="47.1922" lon="-1.55457">
        <ele>57</ele>
        <time>2022-04-03T10:56:22Z</time>
      </trkpt>
      <trkpt lat="47.19214" lon="-1.55444">
        <ele>57</ele>
        <time>2022-04-03T10:56:24Z</time>
      </trkpt>
      <trkpt lat="47.19214" lon="-1.55426">
        <ele>57</ele>
        <time>2022-04-03T10:56:26Z</time>
      </trkpt>
      <trkpt lat="47.1922" lon="-1.55411">
        <ele>57</ele>
        <time>2022-04-03T10:56:28Z</time>
      </trkpt>
      <trkpt lat="47.19228" lon="-1.55401">
        <ele>57</ele>
        <time>2022-04-03T10:56:30Z</time>
      </trkpt>
      <trkpt lat="47.19236" lon="-1.55392">
        <ele>58</ele>
        <time>2022-04-03T10:56:32Z</time>
      </trkpt>
      <trkpt lat="47.19241" lon="-1.55378">
        <ele>59</ele>
        <time>2022-04-03T10:56:34Z</time>
      </trkpt>
      <trkpt lat="47.19246" lon="-1.55364">
        <ele>59</ele>
        <time>2022-04-03T10:56:36Z</time>
      </trkpt>
      <trkpt lat="47.19251" lon="-1.55349">
        <ele>59</ele>
        <time>2022-04-03T10:56:38Z</time>
      </trkpt>
      <trkpt lat="47.19255" lon="-1.55333">
        <ele>59</ele>
        <time>2022-04-03T10:56:40Z</time>
      </trkpt>
      <trkpt lat="47.19258" lon="-1.55317">
        <ele>59</ele>
        <time>2022-04-03T10:56:42Z</time>
      </trkpt>
      <trkpt lat="47.19262" lon="-1.55301">
        <ele>59</ele>
        <time>2022-04-03T10:56:44Z</time>
      </trkpt>
      <trkpt lat="47.19265" lon="-1.55286">
        <ele>59</ele>
        <time>2022-04-03T10:56:46Z</time>
      </trkpt>
      <trkpt lat="47.19268" lon="-1.5527">
        <ele>59</ele>
        <time>2022-04-03T10:56:48Z</time>
      </trkpt>
      <trkpt lat="47.19272" lon="-1.55255">
        <ele>59</ele>
        <time>2022-04-03T10:56:50Z</time>
      </trkpt>
      <trkpt lat="47.19275" lon="-1.5524">
        <ele>59</ele>
        <time>2022-04-03T10:56:52Z</time>
      </trkpt>
      <trkpt lat="47.19278" lon="-1.55224">
        <ele>59</ele>
        <time>2022-04-03T10:56:54Z</time>
      </trkpt>
      <trkpt lat="47.19283" lon="-1.55208">
        <ele>59</ele>
        <time>2022-04-03T10:56:56Z</time>
      </trkpt>
      <trkpt lat="47.19287" lon="-1.55193">
        <ele>59</ele>
        <time>2022-04-03T10:56:58Z</time>
      </trkpt>
      <trkpt lat="47.1929" lon="-1.55178">
        <ele>59</ele>
        <time>2022-04-03T10:57:00Z</time>
      </trkpt>
      <trkpt lat="47.19294" lon="-1.55164">
        <ele>60</ele>
        <time>2022-04-03T10:57:02Z</time>
      </trkpt>
      <trkpt lat="47.19298" lon="-1.55149">
        <ele>60</ele>
        <time>2022-04-03T10:57:04Z</time>
      </trkpt>
      <trkpt lat="47.19301" lon="-1.55135">
        <ele>60</ele>
        <time>2022-04-03T10:57:06Z</time>
      </trkpt>
      <trkpt lat="47.19305" lon="-1.5512">
        <ele>61</ele>
        <time>2022-04-03T10:57:08Z</time>
      </trkpt>
      <trkpt lat="47.19309" lon="-1.55104">
        <ele>61</ele>
        <time>2022-04-03T10:57:10Z</time>
      </trkpt>
      <trkpt lat="47.19313" lon="-1.55087">
        <ele>62</ele>
        <time>2022-04-03T10:57:12Z</time>
      </trkpt>
      <trkpt lat="47.19318" lon="-1.55071">
        <ele>63</ele>
        <time>2022-04-03T10:57:14Z</time>
      </trkpt>
      <trkpt lat="47.19322" lon="-1.55054">
        <ele>63</ele>
        <time>2022-04-03T10:57:16Z</time>
      </trkpt>
      <trkpt lat="47.19326" lon="-1.55039">
        <ele>64</ele>
        <time>2022-04-03T10:57:18Z</time>
      </trkpt>
      <trkpt lat="47.1933" lon="-1.55024">
        <ele>64</ele>
        <time>2022-04-03T10:57:20Z</time>
      </trkpt>
      <trkpt lat="47.19334" lon="-1.5501">
        <ele>64</ele>
        <time>2022-04-03T10:57:22Z</time>
      </trkpt>
      <trkpt lat="47.19337" lon="-1.54996">
        <ele>65</ele>
        <time>2022-04-03T10:57:24Z</time>
      </trkpt>
      <trkpt lat="47.19341" lon="-1.54981">
        <ele>65</ele>
        <time>2022-04-03T10:57:26Z</time>
      </trkpt>
      <trkpt lat="47.19345" lon="-1.54966">
        <ele>65</ele>
        <time>2022-04-03T10:57:28Z</time>
      </trkpt>
      <trkpt lat="47.19349" lon="-1.54951">
        <ele>65</ele>
        <time>2022-04-03T10:57:30Z</time>
      </trkpt>
      <trkpt lat="47.19353" lon="-1.54937">
        <ele>65</ele>
        <time>2022-04-03T10:57:32Z</time>
      </trkpt>
      <trkpt lat="47.19356" lon="-1.54922">
        <ele>65</ele>
        <time>2022-04-03T10:57:34Z</time>
      </trkpt>
      <trkpt lat="47.19359" lon="-1.54907">
        <ele>65</ele>
        <time>2022-04-03T10:57:36Z</time>
      </trkpt>
      <trkpt lat="47.19363" lon="-1.54891">
        <ele>65</ele>
        <time>2022-04-03T10:57:38Z</time>
      </trkpt>
      <trkpt lat="47.19366" lon="-1.54876">
        <ele>65</ele>
        <time>2022-04-03T10:57:40Z</time>
      </trkpt>
      <trkpt lat="47.1937" lon="-1.5486">
        <ele>65</ele>
        <time>2022-04-03T10:57:42Z</time>
      </trkpt>
      <trkpt lat="47.19374" lon="-1.54844">
        <ele>65</ele>
        <time>2022-04-03T10:57:44Z</time>
      </trkpt>
      <trkpt lat="47.19378" lon="-1.54828">
        <ele>65</ele>
        <time>2022-04-03T10:57:46Z</time>
      </trkpt>
      <trkpt lat="47.19382" lon="-1.5481">
        <ele>64</ele>
        <time>2022-04-03T10:57:48Z</time>
      </trkpt>
      <trkpt lat="47.19387" lon="-1.54791">
        <ele>63</ele>
        <time>2022-04-03T10:57:50Z</time>
      </trkpt>
      <trkpt lat="47.19392" lon="-1.54771">
        <ele>63</ele>
        <time>2022-04-03T10:57:52Z</time>
      </trkpt>
      <trkpt lat="47.19397" lon="-1.54752">
        <ele>62</ele>
        <time>2022-04-03T10:57:54Z</time>
      </trkpt>
      <trkpt lat="47.19401" lon="-1.54732">
        <ele>62</ele>
        <time>2022-04-03T10:57:56Z</time>
      </trkpt>
      <trkpt lat="47.19406" lon="-1.54714">
        <ele>61</ele>
        <time>2022-04-03T10:57:58Z</time>
      </trkpt>
      <trkpt lat="47.19409" lon="-1.54696">
        <ele>61</ele>
        <time>2022-04-03T10:58:00Z</time>
      </trkpt>
      <trkpt lat="47.19413" lon="-1.54679">
        <ele>60</ele>
        <time>2022-04-03T10:58:02Z</time>
      </trkpt>
      <trkpt lat="47.19418" lon="-1.54662">
        <ele>60</ele>
        <time>2022-04-03T10:58:04Z</time>
      </trkpt>
      <trkpt lat="47.19423" lon="-1.54646">
        <ele>60</ele>
        <time>2022-04-03T10:58:06Z</time>
      </trkpt>
      <trkpt lat="47.19427" lon="-1.54631">
        <ele>60</ele>
        <time>2022-04-03T10:58:08Z</time>
      </trkpt>
      <trkpt lat="47.19429" lon="-1.54616">
        <ele>60</ele>
        <time>2022-04-03T10:58:10Z</time>
      </trkpt>
      <trkpt lat="47.19422" lon="-1.54602">
        <ele>60</ele>
        <time>2022-04-03T10:58:12Z</time>
      </trkpt>
      <trkpt lat="47.19421" lon="-1.54585">
        <ele>60</ele>
        <time>2022-04-03T10:58:14Z</time>
      </trkpt>
      <trkpt lat="47.19427" lon="-1.54569">
        <ele>59</ele>
        <time>2022-04-03T10:58:16Z</time>
      </trkpt>
      <trkpt lat="47.19436" lon="-1.54558">
        <ele>59</ele>
        <time>2022-04-03T10:58:18Z</time>
      </trkpt>
      <trkpt lat="47.19446" lon="-1.54548">
        <ele>59</ele>
        <time>2022-04-03T10:58:20Z</time>
      </trkpt>
      <trkpt lat="47.19453" lon="-1.54533">
        <ele>59</ele>
        <time>2022-04-03T10:58:22Z</time>
      </trkpt>
      <trkpt lat="47.19458" lon="-1.54517">
        <ele>58</ele>
        <time>2022-04-03T10:58:24Z</time>
      </trkpt>
      <trkpt lat="47.19463" lon="-1.54502">
        <ele>58</ele>
        <time>2022-04-03T10:58:26Z</time>
      </trkpt>
      <trkpt lat="47.19468" lon="-1.54487">
        <ele>58</ele>
        <time>2022-04-03T10:58:28Z</time>
      </trkpt>
      <trkpt lat="47.19472" lon="-1.54472">
        <ele>58</ele>
        <time>2022-04-03T10:58:30Z</time>
      </trkpt>
      <trkpt lat="47.1948" lon="-1.54461">
        <ele>58</ele>
        <time>2022-04-03T10:58:32Z</time>
      </trkpt>
      <trkpt lat="47.1949" lon="-1.54453">
        <ele>58</ele>
        <time>2022-04-03T10:58:34Z</time>
      </trkpt>
      <trkpt lat="47.19499" lon="-1.54446">
        <ele>58</ele>
        <time>2022-04-03T10:58:36Z</time>
      </trkpt>
      <trkpt lat="47.19508" lon="-1.54439">
        <ele>58</ele>
        <time>2022-04-03T10:58:38Z</time>
      </trkpt>
      <trkpt lat="47.19518" lon="-1.54431">
        <ele>58</ele>
        <time>2022-04-03T10:58:40Z</time>
      </trkpt>
      <trkpt lat="47.19527" lon="-1.54424">
        <ele>58</ele>
        <time>2022-04-03T10:58:42Z</time>
      </trkpt>
      <trkpt lat="47.19537" lon="-1.54416">
        <ele>57</ele>
        <time>2022-04-03T10:58:44Z</time>
      </trkpt>
      <trkpt lat="47.19547" lon="-1.54409">
        <ele>57</ele>
        <time>2022-04-03T10:58:46Z</time>
      </trkpt>
      <trkpt lat="47.19557" lon="-1.54401">
        <ele>57</ele>
        <time>2022-04-03T10:58:48Z</time>
      </trkpt>
      <trkpt lat="47.19567" lon="-1.54394">
        <ele>57</ele>
        <time>2022-04-03T10:58:50Z</time>
      </trkpt>
      <trkpt lat="47.19577" lon="-1.54386">
        <ele>57</ele>
        <time>2022-04-03T10:58:52Z</time>
      </trkpt>
      <trkpt lat="47.19587" lon="-1.54379">
        <ele>57</ele>
        <time>2022-04-03T10:58:54Z</time>
      </trkpt>
      <trkpt lat="47.19596" lon="-1.5437">
        <ele>56</ele>
        <time>2022-04-03T10:58:56Z</time>
      </trkpt>
      <trkpt lat="47.19605" lon="-1.54362">
        <ele>56</ele>
        <time>2022-04-03T10:58:58Z</time>
      </trkpt>
      <trkpt lat="47.19614" lon="-1.54352">
        <ele>56</ele>
        <time>2022-04-03T10:59:00Z</time>
      </trkpt>
      <trkpt lat="47.19622" lon="-1.54341">
        <ele>56</ele>
        <time>2022-04-03T10:59:02Z</time>
      </trkpt>
      <trkpt lat="47.19629" lon="-1.54329">
        <ele>56</ele>
        <time>2022-04-03T10:59:04Z</time>
      </trkpt>
      <trkpt lat="47.19637" lon="-1.54319">
        <ele>56</ele>
        <time>2022-04-03T10:59:06Z</time>
      </trkpt>
      <trkpt lat="47.19646" lon="-1.54308">
        <ele>56</ele>
        <time>2022-04-03T10:59:08Z</time>
      </trkpt>
      <trkpt lat="47.19655" lon="-1.54299">
        <ele>56</ele>
        <time>2022-04-03T10:59:10Z</time>
      </trkpt>
      <trkpt lat="47.19665" lon="-1.54292">
        <ele>57</ele>
        <time>2022-04-03T10:59:12Z</time>
      </trkpt>
      <trkpt lat="47.19675" lon="-1.54284">
        <ele>56</ele>
        <time>2022-04-03T10:59:14Z</time>
      </trkpt>
      <trkpt lat="47.19684" lon="-1.54277">
        <ele>57</ele>
        <time>2022-04-03T10:59:16Z</time>
      </trkpt>
      <trkpt lat="47.19694" lon="-1.5427">
        <ele>57</ele>
        <time>2022-04-03T10:59:18Z</time>
      </trkpt>
      <trkpt lat="47.19704" lon="-1.54264">
        <ele>58</ele>
        <time>2022-04-03T10:59:20Z</time>
      </trkpt>
      <trkpt lat="47.19714" lon="-1.54257">
        <ele>58</ele>
        <time>2022-04-03T10:59:22Z</time>
      </trkpt>
      <trkpt lat="47.19723" lon="-1.5425">
        <ele>59</ele>
        <time>2022-04-03T10:59:24Z</time>
      </trkpt>
      <trkpt lat="47.19731" lon="-1.54242">
        <ele>59</ele>
        <time>2022-04-03T10:59:26Z</time>
      </trkpt>
      <trkpt lat="47.19739" lon="-1.54235">
        <ele>59</ele>
        <time>2022-04-03T10:59:28Z</time>
      </trkpt>
      <trkpt lat="47.19747" lon="-1.54227">
        <ele>59</ele>
        <time>2022-04-03T10:59:30Z</time>
      </trkpt>
      <trkpt lat="47.19755" lon="-1.54219">
        <ele>58</ele>
        <time>2022-04-03T10:59:32Z</time>
      </trkpt>
      <trkpt lat="47.19763" lon="-1.54211">
        <ele>58</ele>
        <time>2022-04-03T10:59:34Z</time>
      </trkpt>
      <trkpt lat="47.1977" lon="-1.54203">
        <ele>59</ele>
        <time>2022-04-03T10:59:36Z</time>
      </trkpt>
      <trkpt lat="47.19779" lon="-1.54198">
        <ele>59</ele>
        <time>2022-04-03T10:59:38Z</time>
      </trkpt>
      <trkpt lat="47.19784" lon="-1.54187">
        <ele>59</ele>
        <time>2022-04-03T10:59:40Z</time>
      </trkpt>
      <trkpt lat="47.19788" lon="-1.54173">
        <ele>59</ele>
        <time>2022-04-03T10:59:42Z</time>
      </trkpt>
      <trkpt lat="47.19792" lon="-1.5416">
        <ele>59</ele>
        <time>2022-04-03T10:59:44Z</time>
      </trkpt>
      <trkpt lat="47.19794" lon="-1.54147">
        <ele>59</ele>
        <time>2022-04-03T10:59:46Z</time>
      </trkpt>
      <trkpt lat="47.19795" lon="-1.54133">
        <ele>59</ele>
        <time>2022-04-03T10:59:48Z</time>
      </trkpt>
      <trkpt lat="47.198" lon="-1.5412">
        <ele>59</ele>
        <time>2022-04-03T10:59:50Z</time>
      </trkpt>
      <trkpt lat="47.19808" lon="-1.5411">
        <ele>59</ele>
        <time>2022-04-03T10:59:52Z</time>
      </trkpt>
      <trkpt lat="47.19819" lon="-1.54103">
        <ele>58</ele>
        <time>2022-04-03T10:59:54Z</time>
      </trkpt>
      <trkpt lat="47.19828" lon="-1.54092">
        <ele>57</ele>
        <time>2022-04-03T10:59:56Z</time>
      </trkpt>
      <trkpt lat="47.19833" lon="-1.54078">
        <ele>57</ele>
        <time>2022-04-03T10:59:58Z</time>
      </trkpt>
      <trkpt lat="47.19841" lon="-1.54066">
        <ele>57</ele>
        <time>2022-04-03T11:00:00Z</time>
      </trkpt>
      <trkpt lat="47.19847" lon="-1.5405">
        <ele>56</ele>
        <time>2022-04-03T11:00:02Z</time>
      </trkpt>
      <trkpt lat="47.19852" lon="-1.54033">
        <ele>56</ele>
        <time>2022-04-03T11:00:04Z</time>
      </trkpt>
      <trkpt lat="47.19857" lon="-1.54017">
        <ele>57</ele>
        <time>2022-04-03T11:00:06Z</time>
      </trkpt>
      <trkpt lat="47.19862" lon="-1.54001">
        <ele>57</ele>
        <time>2022-04-03T11:00:08Z</time>
      </trkpt>
      <trkpt lat="47.19867" lon="-1.53985">
        <ele>57</ele>
        <time>2022-04-03T11:00:10Z</time>
      </trkpt>
      <trkpt lat="47.19872" lon="-1.53968">
        <ele>58</ele>
        <time>2022-04-03T11:00:12Z</time>
      </trkpt>
      <trkpt lat="47.19877" lon="-1.53953">
        <ele>58</ele>
        <time>2022-04-03T11:00:14Z</time>
      </trkpt>
      <trkpt lat="47.19882" lon="-1.53936">
        <ele>57</ele>
        <time>2022-04-03T11:00:16Z</time>
      </trkpt>
      <trkpt lat="47.19886" lon="-1.53918">
        <ele>56</ele>
        <time>2022-04-03T11:00:18Z</time>
      </trkpt>
      <trkpt lat="47.1989" lon="-1.53901">
        <ele>56</ele>
        <time>2022-04-03T11:00:20Z</time>
      </trkpt>
      <trkpt lat="47.19894" lon="-1.53884">
        <ele>56</ele>
        <time>2022-04-03T11:00:22Z</time>
      </trkpt>
      <trkpt lat="47.19898" lon="-1.53867">
        <ele>56</ele>
        <time>2022-04-03T11:00:24Z</time>
      </trkpt>
      <trkpt lat="47.19902" lon="-1.5385">
        <ele>56</ele>
        <time>2022-04-03T11:00:26Z</time>
      </trkpt>
      <trkpt lat="47.19906" lon="-1.53833">
        <ele>58</ele>
        <time>2022-04-03T11:00:28Z</time>
      </trkpt>
      <trkpt lat="47.19911" lon="-1.53815">
        <ele>58</ele>
        <time>2022-04-03T11:00:30Z</time>
      </trkpt>
      <trkpt lat="47.19914" lon="-1.53799">
        <ele>58</ele>
        <time>2022-04-03T11:00:32Z</time>
      </trkpt>
      <trkpt lat="47.19918" lon="-1.53781">
        <ele>58</ele>
        <time>2022-04-03T11:00:34Z</time>
      </trkpt>
      <trkpt lat="47.19922" lon="-1.53763">
        <ele>59</ele>
        <time>2022-04-03T11:00:36Z</time>
      </trkpt>
      <trkpt lat="47.19924" lon="-1.53743">
        <ele>57</ele>
        <time>2022-04-03T11:00:38Z</time>
      </trkpt>
      <trkpt lat="47.19927" lon="-1.53724">
        <ele>56</ele>
        <time>2022-04-03T11:00:40Z</time>
      </trkpt>
      <trkpt lat="47.19931" lon="-1.53706">
        <ele>55</ele>
        <time>2022-04-03T11:00:42Z</time>
      </trkpt>
      <trkpt lat="47.19935" lon="-1.53688">
        <ele>55</ele>
        <time>2022-04-03T11:00:44Z</time>
      </trkpt>
      <trkpt lat="47.19939" lon="-1.53671">
        <ele>55</ele>
        <time>2022-04-03T11:00:46Z</time>
      </trkpt>
      <trkpt lat="47.19943" lon="-1.53654">
        <ele>55</ele>
        <time>2022-04-03T11:00:48Z</time>
      </trkpt>
      <trkpt lat="47.19947" lon="-1.53637">
        <ele>55</ele>
        <time>2022-04-03T11:00:50Z</time>
      </trkpt>
      <trkpt lat="47.19952" lon="-1.5362">
        <ele>55</ele>
        <time>2022-04-03T11:00:52Z</time>
      </trkpt>
      <trkpt lat="47.19956" lon="-1.53603">
        <ele>55</ele>
        <time>2022-04-03T11:00:54Z</time>
      </trkpt>
      <trkpt lat="47.19961" lon="-1.53587">
        <ele>55</ele>
        <time>2022-04-03T11:00:56Z</time>
      </trkpt>
      <trkpt lat="47.19965" lon="-1.53571">
        <ele>55</ele>
        <time>2022-04-03T11:00:58Z</time>
      </trkpt>
      <trkpt lat="47.19972" lon="-1.53546">
        <ele>56</ele>
        <time>2022-04-03T11:01:01Z</time>
      </trkpt>
      <trkpt lat="47.19977" lon="-1.5353">
        <ele>56</ele>
        <time>2022-04-03T11:01:03Z</time>
      </trkpt>
      <trkpt lat="47.19982" lon="-1.53514">
        <ele>56</ele>
        <time>2022-04-03T11:01:05Z</time>
      </trkpt>
      <trkpt lat="47.19984" lon="-1.53499">
        <ele>56</ele>
        <time>2022-04-03T11:01:07Z</time>
      </trkpt>
      <trkpt lat="47.19985" lon="-1.53485">
        <ele>55</ele>
        <time>2022-04-03T11:01:09Z</time>
      </trkpt>
      <trkpt lat="47.19991" lon="-1.53473">
        <ele>55</ele>
        <time>2022-04-03T11:01:11Z</time>
      </trkpt>
      <trkpt lat="47.20008" lon="-1.53471">
        <ele>54</ele>
        <time>2022-04-03T11:01:14Z</time>
      </trkpt>
      <trkpt lat="47.20019" lon="-1.53465">
        <ele>54</ele>
        <time>2022-04-03T11:01:16Z</time>
      </trkpt>
      <trkpt lat="47.20025" lon="-1.53451">
        <ele>54</ele>
        <time>2022-04-03T11:01:18Z</time>
      </trkpt>
      <trkpt lat="47.20031" lon="-1.53436">
        <ele>54</ele>
        <time>2022-04-03T11:01:20Z</time>
      </trkpt>
      <trkpt lat="47.20037" lon="-1.53421">
        <ele>54</ele>
        <time>2022-04-03T11:01:22Z</time>
      </trkpt>
      <trkpt lat="47.20042" lon="-1.53406">
        <ele>54</ele>
        <time>2022-04-03T11:01:24Z</time>
      </trkpt>
      <trkpt lat="47.20048" lon="-1.53391">
        <ele>53</ele>
        <time>2022-04-03T11:01:26Z</time>
      </trkpt>
      <trkpt lat="47.20055" lon="-1.53378">
        <ele>53</ele>
        <time>2022-04-03T11:01:28Z</time>
      </trkpt>
      <trkpt lat="47.20065" lon="-1.53365">
        <ele>52</ele>
        <time>2022-04-03T11:01:30Z</time>
      </trkpt>
      <trkpt lat="47.20074" lon="-1.53354">
        <ele>52</ele>
        <time>2022-04-03T11:01:32Z</time>
      </trkpt>
      <trkpt lat="47.20081" lon="-1.53338">
        <ele>52</ele>
        <time>2022-04-03T11:01:34Z</time>
      </trkpt>
      <trkpt lat="47.20087" lon="-1.53322">
        <ele>52</ele>
        <time>2022-04-03T11:01:36Z</time>
      </trkpt>
      <trkpt lat="47.20094" lon="-1.53305">
        <ele>52</ele>
        <time>2022-04-03T11:01:38Z</time>
      </trkpt>
      <trkpt lat="47.201" lon="-1.53289">
        <ele>52</ele>
        <time>2022-04-03T11:01:40Z</time>
      </trkpt>
      <trkpt lat="47.20105" lon="-1.53273">
        <ele>52</ele>
        <time>2022-04-03T11:01:42Z</time>
      </trkpt>
      <trkpt lat="47.2011" lon="-1.53256">
        <ele>52</ele>
        <time>2022-04-03T11:01:44Z</time>
      </trkpt>
      <trkpt lat="47.20115" lon="-1.53238">
        <ele>52</ele>
        <time>2022-04-03T11:01:46Z</time>
      </trkpt>
      <trkpt lat="47.20118" lon="-1.53221">
        <ele>52</ele>
        <time>2022-04-03T11:01:48Z</time>
      </trkpt>
      <trkpt lat="47.20122" lon="-1.53203">
        <ele>52</ele>
        <time>2022-04-03T11:01:50Z</time>
      </trkpt>
      <trkpt lat="47.20127" lon="-1.53186">
        <ele>53</ele>
        <time>2022-04-03T11:01:52Z</time>
      </trkpt>
      <trkpt lat="47.20132" lon="-1.5317">
        <ele>53</ele>
        <time>2022-04-03T11:01:54Z</time>
      </trkpt>
      <trkpt lat="47.20137" lon="-1.53154">
        <ele>53</ele>
        <time>2022-04-03T11:01:56Z</time>
      </trkpt>
      <trkpt lat="47.20143" lon="-1.53138">
        <ele>54</ele>
        <time>2022-04-03T11:01:58Z</time>
      </trkpt>
      <trkpt lat="47.20149" lon="-1.53123">
        <ele>53</ele>
        <time>2022-04-03T11:02:00Z</time>
      </trkpt>
      <trkpt lat="47.20157" lon="-1.53108">
        <ele>53</ele>
        <time>2022-04-03T11:02:02Z</time>
      </trkpt>
      <trkpt lat="47.20164" lon="-1.53094">
        <ele>53</ele>
        <time>2022-04-03T11:02:04Z</time>
      </trkpt>
      <trkpt lat="47.20171" lon="-1.53079">
        <ele>53</ele>
        <time>2022-04-03T11:02:06Z</time>
      </trkpt>
      <trkpt lat="47.20179" lon="-1.53066">
        <ele>53</ele>
        <time>2022-04-03T11:02:08Z</time>
      </trkpt>
      <trkpt lat="47.20188" lon="-1.53053">
        <ele>54</ele>
        <time>2022-04-03T11:02:10Z</time>
      </trkpt>
      <trkpt lat="47.20197" lon="-1.53041">
        <ele>53</ele>
        <time>2022-04-03T11:02:12Z</time>
      </trkpt>
      <trkpt lat="47.20207" lon="-1.53031">
        <ele>53</ele>
        <time>2022-04-03T11:02:14Z</time>
      </trkpt>
      <trkpt lat="47.20216" lon="-1.5302">
        <ele>53</ele>
        <time>2022-04-03T11:02:16Z</time>
      </trkpt>
      <trkpt lat="47.20226" lon="-1.53009">
        <ele>53</ele>
        <time>2022-04-03T11:02:18Z</time>
      </trkpt>
      <trkpt lat="47.20234" lon="-1.52996">
        <ele>53</ele>
        <time>2022-04-03T11:02:20Z</time>
      </trkpt>
      <trkpt lat="47.20241" lon="-1.52982">
        <ele>53</ele>
        <time>2022-04-03T11:02:22Z</time>
      </trkpt>
      <trkpt lat="47.20248" lon="-1.52967">
        <ele>54</ele>
        <time>2022-04-03T11:02:24Z</time>
      </trkpt>
      <trkpt lat="47.20256" lon="-1.52954">
        <ele>54</ele>
        <time>2022-04-03T11:02:26Z</time>
      </trkpt>
      <trkpt lat="47.20264" lon="-1.5294">
        <ele>54</ele>
        <time>2022-04-03T11:02:28Z</time>
      </trkpt>
      <trkpt lat="47.20271" lon="-1.52926">
        <ele>54</ele>
        <time>2022-04-03T11:02:30Z</time>
      </trkpt>
      <trkpt lat="47.20278" lon="-1.52912">
        <ele>54</ele>
        <time>2022-04-03T11:02:32Z</time>
      </trkpt>
      <trkpt lat="47.20285" lon="-1.52897">
        <ele>53</ele>
        <time>2022-04-03T11:02:34Z</time>
      </trkpt>
      <trkpt lat="47.20291" lon="-1.52881">
        <ele>53</ele>
        <time>2022-04-03T11:02:36Z</time>
      </trkpt>
      <trkpt lat="47.20297" lon="-1.52865">
        <ele>53</ele>
        <time>2022-04-03T11:02:38Z</time>
      </trkpt>
      <trkpt lat="47.20303" lon="-1.5285">
        <ele>53</ele>
        <time>2022-04-03T11:02:40Z</time>
      </trkpt>
      <trkpt lat="47.20309" lon="-1.52835">
        <ele>53</ele>
        <time>2022-04-03T11:02:42Z</time>
      </trkpt>
      <trkpt lat="47.20316" lon="-1.52821">
        <ele>53</ele>
        <time>2022-04-03T11:02:44Z</time>
      </trkpt>
      <trkpt lat="47.20323" lon="-1.52806">
        <ele>53</ele>
        <time>2022-04-03T11:02:46Z</time>
      </trkpt>
      <trkpt lat="47.2033" lon="-1.52792">
        <ele>53</ele>
        <time>2022-04-03T11:02:48Z</time>
      </trkpt>
      <trkpt lat="47.20337" lon="-1.52777">
        <ele>54</ele>
        <time>2022-04-03T11:02:50Z</time>
      </trkpt>
      <trkpt lat="47.20344" lon="-1.52762">
        <ele>54</ele>
        <time>2022-04-03T11:02:52Z</time>
      </trkpt>
      <trkpt lat="47.20351" lon="-1.52747">
        <ele>54</ele>
        <time>2022-04-03T11:02:54Z</time>
      </trkpt>
      <trkpt lat="47.20358" lon="-1.52733">
        <ele>54</ele>
        <time>2022-04-03T11:02:56Z</time>
      </trkpt>
      <trkpt lat="47.20365" lon="-1.5272">
        <ele>53</ele>
        <time>2022-04-03T11:02:58Z</time>
      </trkpt>
      <trkpt lat="47.20373" lon="-1.52706">
        <ele>53</ele>
        <time>2022-04-03T11:03:00Z</time>
      </trkpt>
      <trkpt lat="47.20381" lon="-1.52692">
        <ele>53</ele>
        <time>2022-04-03T11:03:02Z</time>
      </trkpt>
      <trkpt lat="47.20388" lon="-1.52677">
        <ele>53</ele>
        <time>2022-04-03T11:03:04Z</time>
      </trkpt>
      <trkpt lat="47.20394" lon="-1.52663">
        <ele>53</ele>
        <time>2022-04-03T11:03:06Z</time>
      </trkpt>
      <trkpt lat="47.20401" lon="-1.52648">
        <ele>54</ele>
        <time>2022-04-03T11:03:08Z</time>
      </trkpt>
      <trkpt lat="47.20407" lon="-1.52632">
        <ele>54</ele>
        <time>2022-04-03T11:03:10Z</time>
      </trkpt>
      <trkpt lat="47.20412" lon="-1.52617">
        <ele>53</ele>
        <time>2022-04-03T11:03:12Z</time>
      </trkpt>
      <trkpt lat="47.20416" lon="-1.526">
        <ele>53</ele>
        <time>2022-04-03T11:03:14Z</time>
      </trkpt>
      <trkpt lat="47.20421" lon="-1.52583">
        <ele>53</ele>
        <time>2022-04-03T11:03:16Z</time>
      </trkpt>
      <trkpt lat="47.20425" lon="-1.52567">
        <ele>53</ele>
        <time>2022-04-03T11:03:18Z</time>
      </trkpt>
      <trkpt lat="47.2043" lon="-1.52552">
        <ele>53</ele>
        <time>2022-04-03T11:03:20Z</time>
      </trkpt>
      <trkpt lat="47.20436" lon="-1.52536">
        <ele>53</ele>
        <time>2022-04-03T11:03:22Z</time>
      </trkpt>
      <trkpt lat="47.20442" lon="-1.52522">
        <ele>54</ele>
        <time>2022-04-03T11:03:24Z</time>
      </trkpt>
      <trkpt lat="47.20448" lon="-1.52507">
        <ele>54</ele>
        <time>2022-04-03T11:03:26Z</time>
      </trkpt>
      <trkpt lat="47.20453" lon="-1.52492">
        <ele>54</ele>
        <time>2022-04-03T11:03:28Z</time>
      </trkpt>
      <trkpt lat="47.20458" lon="-1.52477">
        <ele>53</ele>
        <time>2022-04-03T11:03:30Z</time>
      </trkpt>
      <trkpt lat="47.20463" lon="-1.52463">
        <ele>54</ele>
        <time>2022-04-03T11:03:32Z</time>
      </trkpt>
      <trkpt lat="47.2047" lon="-1.5245">
        <ele>54</ele>
        <time>2022-04-03T11:03:34Z</time>
      </trkpt>
      <trkpt lat="47.20476" lon="-1.52435">
        <ele>53</ele>
        <time>2022-04-03T11:03:36Z</time>
      </trkpt>
      <trkpt lat="47.20483" lon="-1.52419">
        <ele>53</ele>
        <time>2022-04-03T11:03:38Z</time>
      </trkpt>
      <trkpt lat="47.20489" lon="-1.52403">
        <ele>53</ele>
        <time>2022-04-03T11:03:40Z</time>
      </trkpt>
      <trkpt lat="47.20495" lon="-1.52386">
        <ele>52</ele>
        <time>2022-04-03T11:03:42Z</time>
      </trkpt>
      <trkpt lat="47.20501" lon="-1.52369">
        <ele>52</ele>
        <time>2022-04-03T11:03:44Z</time>
      </trkpt>
      <trkpt lat="47.20506" lon="-1.52352">
        <ele>52</ele>
        <time>2022-04-03T11:03:46Z</time>
      </trkpt>
      <trkpt lat="47.2051" lon="-1.52335">
        <ele>52</ele>
        <time>2022-04-03T11:03:48Z</time>
      </trkpt>
      <trkpt lat="47.20514" lon="-1.52319">
        <ele>53</ele>
        <time>2022-04-03T11:03:50Z</time>
      </trkpt>
      <trkpt lat="47.20519" lon="-1.52305">
        <ele>53</ele>
        <time>2022-04-03T11:03:52Z</time>
      </trkpt>
      <trkpt lat="47.20521" lon="-1.5229">
        <ele>53</ele>
        <time>2022-04-03T11:03:54Z</time>
      </trkpt>
      <trkpt lat="47.20525" lon="-1.52274">
        <ele>53</ele>
        <time>2022-04-03T11:03:56Z</time>
      </trkpt>
      <trkpt lat="47.20531" lon="-1.52259">
        <ele>53</ele>
        <time>2022-04-03T11:03:58Z</time>
      </trkpt>
      <trkpt lat="47.20538" lon="-1.52244">
        <ele>54</ele>
        <time>2022-04-03T11:04:00Z</time>
      </trkpt>
      <trkpt lat="47.20545" lon="-1.5223">
        <ele>54</ele>
        <time>2022-04-03T11:04:02Z</time>
      </trkpt>
      <trkpt lat="47.20552" lon="-1.52217">
        <ele>54</ele>
        <time>2022-04-03T11:04:04Z</time>
      </trkpt>
      <trkpt lat="47.20559" lon="-1.52203">
        <ele>54</ele>
        <time>2022-04-03T11:04:06Z</time>
      </trkpt>
      <trkpt lat="47.20566" lon="-1.5219">
        <ele>54</ele>
        <time>2022-04-03T11:04:08Z</time>
      </trkpt>
      <trkpt lat="47.20574" lon="-1.52177">
        <ele>54</ele>
        <time>2022-04-03T11:04:10Z</time>
      </trkpt>
      <trkpt lat="47.20581" lon="-1.52164">
        <ele>54</ele>
        <time>2022-04-03T11:04:12Z</time>
      </trkpt>
      <trkpt lat="47.20589" lon="-1.52151">
        <ele>54</ele>
        <time>2022-04-03T11:04:14Z</time>
      </trkpt>
      <trkpt lat="47.20596" lon="-1.52136">
        <ele>53</ele>
        <time>2022-04-03T11:04:16Z</time>
      </trkpt>
      <trkpt lat="47.20604" lon="-1.52122">
        <ele>53</ele>
        <time>2022-04-03T11:04:18Z</time>
      </trkpt>
      <trkpt lat="47.20611" lon="-1.52109">
        <ele>53</ele>
        <time>2022-04-03T11:04:20Z</time>
      </trkpt>
      <trkpt lat="47.20619" lon="-1.52095">
        <ele>53</ele>
        <time>2022-04-03T11:04:22Z</time>
      </trkpt>
      <trkpt lat="47.20626" lon="-1.52082">
        <ele>53</ele>
        <time>2022-04-03T11:04:24Z</time>
      </trkpt>
      <trkpt lat="47.20634" lon="-1.52068">
        <ele>53</ele>
        <time>2022-04-03T11:04:26Z</time>
      </trkpt>
      <trkpt lat="47.20643" lon="-1.52055">
        <ele>53</ele>
        <time>2022-04-03T11:04:28Z</time>
      </trkpt>
      <trkpt lat="47.20652" lon="-1.52042">
        <ele>54</ele>
        <time>2022-04-03T11:04:30Z</time>
      </trkpt>
      <trkpt lat="47.2066" lon="-1.52029">
        <ele>53</ele>
        <time>2022-04-03T11:04:32Z</time>
      </trkpt>
      <trkpt lat="47.20668" lon="-1.52014">
        <ele>54</ele>
        <time>2022-04-03T11:04:34Z</time>
      </trkpt>
      <trkpt lat="47.20675" lon="-1.52">
        <ele>54</ele>
        <time>2022-04-03T11:04:36Z</time>
      </trkpt>
      <trkpt lat="47.20683" lon="-1.51986">
        <ele>54</ele>
        <time>2022-04-03T11:04:38Z</time>
      </trkpt>
      <trkpt lat="47.2069" lon="-1.51973">
        <ele>54</ele>
        <time>2022-04-03T11:04:40Z</time>
      </trkpt>
      <trkpt lat="47.20698" lon="-1.5196">
        <ele>54</ele>
        <time>2022-04-03T11:04:42Z</time>
      </trkpt>
      <trkpt lat="47.20706" lon="-1.51946">
        <ele>54</ele>
        <time>2022-04-03T11:04:44Z</time>
      </trkpt>
      <trkpt lat="47.20713" lon="-1.51932">
        <ele>54</ele>
        <time>2022-04-03T11:04:46Z</time>
      </trkpt>
      <trkpt lat="47.2072" lon="-1.51917">
        <ele>53</ele>
        <time>2022-04-03T11:04:48Z</time>
      </trkpt>
      <trkpt lat="47.20726" lon="-1.51903">
        <ele>54</ele>
        <time>2022-04-03T11:04:50Z</time>
      </trkpt>
      <trkpt lat="47.20733" lon="-1.51887">
        <ele>54</ele>
        <time>2022-04-03T11:04:52Z</time>
      </trkpt>
      <trkpt lat="47.20739" lon="-1.51872">
        <ele>54</ele>
        <time>2022-04-03T11:04:54Z</time>
      </trkpt>
      <trkpt lat="47.20746" lon="-1.51856">
        <ele>53</ele>
        <time>2022-04-03T11:04:56Z</time>
      </trkpt>
      <trkpt lat="47.20753" lon="-1.51841">
        <ele>54</ele>
        <time>2022-04-03T11:04:58Z</time>
      </trkpt>
      <trkpt lat="47.20759" lon="-1.51826">
        <ele>53</ele>
        <time>2022-04-03T11:05:00Z</time>
      </trkpt>
      <trkpt lat="47.20763" lon="-1.5181">
        <ele>53</ele>
        <time>2022-04-03T11:05:02Z</time>
      </trkpt>
      <trkpt lat="47.20767" lon="-1.51791">
        <ele>53</ele>
        <time>2022-04-03T11:05:04Z</time>
      </trkpt>
      <trkpt lat="47.20769" lon="-1.51772">
        <ele>53</ele>
        <time>2022-04-03T11:05:06Z</time>
      </trkpt>
      <trkpt lat="47.20774" lon="-1.51754">
        <ele>53</ele>
        <time>2022-04-03T11:05:08Z</time>
      </trkpt>
      <trkpt lat="47.20778" lon="-1.51737">
        <ele>53</ele>
        <time>2022-04-03T11:05:10Z</time>
      </trkpt>
      <trkpt lat="47.20782" lon="-1.5172">
        <ele>53</ele>
        <time>2022-04-03T11:05:12Z</time>
      </trkpt>
      <trkpt lat="47.20786" lon="-1.51703">
        <ele>53</ele>
        <time>2022-04-03T11:05:14Z</time>
      </trkpt>
      <trkpt lat="47.20789" lon="-1.51686">
        <ele>53</ele>
        <time>2022-04-03T11:05:16Z</time>
      </trkpt>
      <trkpt lat="47.20792" lon="-1.51669">
        <ele>53</ele>
        <time>2022-04-03T11:05:18Z</time>
      </trkpt>
      <trkpt lat="47.20794" lon="-1.51652">
        <ele>53</ele>
        <time>2022-04-03T11:05:20Z</time>
      </trkpt>
      <trkpt lat="47.20797" lon="-1.51635">
        <ele>53</ele>
        <time>2022-04-03T11:05:22Z</time>
      </trkpt>
      <trkpt lat="47.208" lon="-1.51618">
        <ele>53</ele>
        <time>2022-04-03T11:05:24Z</time>
      </trkpt>
      <trkpt lat="47.20803" lon="-1.516">
        <ele>53</ele>
        <time>2022-04-03T11:05:26Z</time>
      </trkpt>
      <trkpt lat="47.20804" lon="-1.51582">
        <ele>53</ele>
        <time>2022-04-03T11:05:28Z</time>
      </trkpt>
      <trkpt lat="47.20806" lon="-1.51564">
        <ele>53</ele>
        <time>2022-04-03T11:05:30Z</time>
      </trkpt>
      <trkpt lat="47.20808" lon="-1.51547">
        <ele>53</ele>
        <time>2022-04-03T11:05:32Z</time>
      </trkpt>
      <trkpt lat="47.2081" lon="-1.51529">
        <ele>54</ele>
        <time>2022-04-03T11:05:34Z</time>
      </trkpt>
      <trkpt lat="47.20813" lon="-1.51511">
        <ele>54</ele>
        <time>2022-04-03T11:05:36Z</time>
      </trkpt>
      <trkpt lat="47.20816" lon="-1.51494">
        <ele>54</ele>
        <time>2022-04-03T11:05:38Z</time>
      </trkpt>
      <trkpt lat="47.20819" lon="-1.51477">
        <ele>54</ele>
        <time>2022-04-03T11:05:40Z</time>
      </trkpt>
      <trkpt lat="47.20822" lon="-1.5146">
        <ele>54</ele>
        <time>2022-04-03T11:05:42Z</time>
      </trkpt>
      <trkpt lat="47.20825" lon="-1.51444">
        <ele>54</ele>
        <time>2022-04-03T11:05:44Z</time>
      </trkpt>
      <trkpt lat="47.20828" lon="-1.51426">
        <ele>54</ele>
        <time>2022-04-03T11:05:46Z</time>
      </trkpt>
      <trkpt lat="47.20831" lon="-1.51409">
        <ele>54</ele>
        <time>2022-04-03T11:05:48Z</time>
      </trkpt>
      <trkpt lat="47.20835" lon="-1.51392">
        <ele>54</ele>
        <time>2022-04-03T11:05:50Z</time>
      </trkpt>
      <trkpt lat="47.2084" lon="-1.51375">
        <ele>54</ele>
        <time>2022-04-03T11:05:52Z</time>
      </trkpt>
      <trkpt lat="47.20844" lon="-1.51359">
        <ele>54</ele>
        <time>2022-04-03T11:05:54Z</time>
      </trkpt>
      <trkpt lat="47.20848" lon="-1.51343">
        <ele>54</ele>
        <time>2022-04-03T11:05:56Z</time>
      </trkpt>
      <trkpt lat="47.20853" lon="-1.51327">
        <ele>54</ele>
        <time>2022-04-03T11:05:58Z</time>
      </trkpt>
      <trkpt lat="47.20859" lon="-1.51311">
        <ele>54</ele>
        <time>2022-04-03T11:06:00Z</time>
      </trkpt>
      <trkpt lat="47.20866" lon="-1.51297">
        <ele>54</ele>
        <time>2022-04-03T11:06:02Z</time>
      </trkpt>
      <trkpt lat="47.20873" lon="-1.51282">
        <ele>54</ele>
        <time>2022-04-03T11:06:04Z</time>
      </trkpt>
      <trkpt lat="47.20879" lon="-1.51268">
        <ele>54</ele>
        <time>2022-04-03T11:06:06Z</time>
      </trkpt>
      <trkpt lat="47.20884" lon="-1.51252">
        <ele>54</ele>
        <time>2022-04-03T11:06:08Z</time>
      </trkpt>
      <trkpt lat="47.2089" lon="-1.51237">
        <ele>54</ele>
        <time>2022-04-03T11:06:10Z</time>
      </trkpt>
      <trkpt lat="47.20896" lon="-1.51221">
        <ele>54</ele>
        <time>2022-04-03T11:06:12Z</time>
      </trkpt>
      <trkpt lat="47.20902" lon="-1.51205">
        <ele>54</ele>
        <time>2022-04-03T11:06:14Z</time>
      </trkpt>
      <trkpt lat="47.20907" lon="-1.51191">
        <ele>55</ele>
        <time>2022-04-03T11:06:16Z</time>
      </trkpt>
      <trkpt lat="47.20912" lon="-1.51176">
        <ele>54</ele>
        <time>2022-04-03T11:06:18Z</time>
      </trkpt>
      <trkpt lat="47.20918" lon="-1.51161">
        <ele>54</ele>
        <time>2022-04-03T11:06:20Z</time>
      </trkpt>
      <trkpt lat="47.20923" lon="-1.51145">
        <ele>54</ele>
        <time>2022-04-03T11:06:22Z</time>
      </trkpt>
      <trkpt lat="47.20928" lon="-1.5113">
        <ele>55</ele>
        <time>2022-04-03T11:06:24Z</time>
      </trkpt>
      <trkpt lat="47.20933" lon="-1.51114">
        <ele>55</ele>
        <time>2022-04-03T11:06:26Z</time>
      </trkpt>
      <trkpt lat="47.20938" lon="-1.51099">
        <ele>55</ele>
        <time>2022-04-03T11:06:28Z</time>
      </trkpt>
      <trkpt lat="47.20942" lon="-1.51083">
        <ele>55</ele>
        <time>2022-04-03T11:06:30Z</time>
      </trkpt>
      <trkpt lat="47.20945" lon="-1.51066">
        <ele>55</ele>
        <time>2022-04-03T11:06:32Z</time>
      </trkpt>
      <trkpt lat="47.20947" lon="-1.51049">
        <ele>55</ele>
        <time>2022-04-03T11:06:34Z</time>
      </trkpt>
      <trkpt lat="47.2095" lon="-1.51031">
        <ele>54</ele>
        <time>2022-04-03T11:06:36Z</time>
      </trkpt>
      <trkpt lat="47.20955" lon="-1.51015">
        <ele>54</ele>
        <time>2022-04-03T11:06:38Z</time>
      </trkpt>
      <trkpt lat="47.20961" lon="-1.51">
        <ele>54</ele>
        <time>2022-04-03T11:06:40Z</time>
      </trkpt>
      <trkpt lat="47.20964" lon="-1.50984">
        <ele>54</ele>
        <time>2022-04-03T11:06:42Z</time>
      </trkpt>
      <trkpt lat="47.20965" lon="-1.50967">
        <ele>54</ele>
        <time>2022-04-03T11:06:44Z</time>
      </trkpt>
      <trkpt lat="47.20966" lon="-1.5095">
        <ele>54</ele>
        <time>2022-04-03T11:06:46Z</time>
      </trkpt>
      <trkpt lat="47.20969" lon="-1.50932">
        <ele>54</ele>
        <time>2022-04-03T11:06:48Z</time>
      </trkpt>
      <trkpt lat="47.20971" lon="-1.50915">
        <ele>53</ele>
        <time>2022-04-03T11:06:50Z</time>
      </trkpt>
      <trkpt lat="47.20973" lon="-1.50898">
        <ele>54</ele>
        <time>2022-04-03T11:06:52Z</time>
      </trkpt>
      <trkpt lat="47.20975" lon="-1.5088">
        <ele>54</ele>
        <time>2022-04-03T11:06:54Z</time>
      </trkpt>
      <trkpt lat="47.20977" lon="-1.50863">
        <ele>54</ele>
        <time>2022-04-03T11:06:56Z</time>
      </trkpt>
      <trkpt lat="47.20979" lon="-1.50845">
        <ele>54</ele>
        <time>2022-04-03T11:06:58Z</time>
      </trkpt>
      <trkpt lat="47.20982" lon="-1.50827">
        <ele>54</ele>
        <time>2022-04-03T11:07:00Z</time>
      </trkpt>
      <trkpt lat="47.20984" lon="-1.5081">
        <ele>54</ele>
        <time>2022-04-03T11:07:02Z</time>
      </trkpt>
      <trkpt lat="47.20986" lon="-1.50792">
        <ele>53</ele>
        <time>2022-04-03T11:07:04Z</time>
      </trkpt>
      <trkpt lat="47.20988" lon="-1.50774">
        <ele>54</ele>
        <time>2022-04-03T11:07:06Z</time>
      </trkpt>
      <trkpt lat="47.2099" lon="-1.50756">
        <ele>54</ele>
        <time>2022-04-03T11:07:08Z</time>
      </trkpt>
      <trkpt lat="47.20991" lon="-1.50739">
        <ele>54</ele>
        <time>2022-04-03T11:07:10Z</time>
      </trkpt>
      <trkpt lat="47.20993" lon="-1.50722">
        <ele>54</ele>
        <time>2022-04-03T11:07:12Z</time>
      </trkpt>
      <trkpt lat="47.20995" lon="-1.50705">
        <ele>55</ele>
        <time>2022-04-03T11:07:14Z</time>
      </trkpt>
      <trkpt lat="47.20996" lon="-1.50688">
        <ele>55</ele>
        <time>2022-04-03T11:07:16Z</time>
      </trkpt>
      <trkpt lat="47.20998" lon="-1.50671">
        <ele>55</ele>
        <time>2022-04-03T11:07:18Z</time>
      </trkpt>
      <trkpt lat="47.20999" lon="-1.50654">
        <ele>54</ele>
        <time>2022-04-03T11:07:20Z</time>
      </trkpt>
      <trkpt lat="47.21" lon="-1.50636">
        <ele>54</ele>
        <time>2022-04-03T11:07:22Z</time>
      </trkpt>
      <trkpt lat="47.21" lon="-1.50619">
        <ele>54</ele>
        <time>2022-04-03T11:07:24Z</time>
      </trkpt>
      <trkpt lat="47.21001" lon="-1.50602">
        <ele>54</ele>
        <time>2022-04-03T11:07:26Z</time>
      </trkpt>
      <trkpt lat="47.21001" lon="-1.50586">
        <ele>54</ele>
        <time>2022-04-03T11:07:28Z</time>
      </trkpt>
      <trkpt lat="47.21001" lon="-1.50569">
        <ele>54</ele>
        <time>2022-04-03T11:07:30Z</time>
      </trkpt>
      <trkpt lat="47.21001" lon="-1.50552">
        <ele>54</ele>
        <time>2022-04-03T11:07:32Z</time>
      </trkpt>
      <trkpt lat="47.21001" lon="-1.50535">
        <ele>54</ele>
        <time>2022-04-03T11:07:34Z</time>
      </trkpt>
      <trkpt lat="47.21001" lon="-1.50518">
        <ele>54</ele>
        <time>2022-04-03T11:07:36Z</time>
      </trkpt>
      <trkpt lat="47.21" lon="-1.50501">
        <ele>54</ele>
        <time>2022-04-03T11:07:38Z</time>
      </trkpt>
      <trkpt lat="47.21" lon="-1.50484">
        <ele>54</ele>
        <time>2022-04-03T11:07:40Z</time>
      </trkpt>
      <trkpt lat="47.21" lon="-1.50467">
        <ele>54</ele>
        <time>2022-04-03T11:07:42Z</time>
      </trkpt>
      <trkpt lat="47.20999" lon="-1.50449">
        <ele>54</ele>
        <time>2022-04-03T11:07:44Z</time>
      </trkpt>
      <trkpt lat="47.20999" lon="-1.50431">
        <ele>54</ele>
        <time>2022-04-03T11:07:46Z</time>
      </trkpt>
      <trkpt lat="47.20999" lon="-1.50413">
        <ele>54</ele>
        <time>2022-04-03T11:07:48Z</time>
      </trkpt>
      <trkpt lat="47.20998" lon="-1.50395">
        <ele>54</ele>
        <time>2022-04-03T11:07:50Z</time>
      </trkpt>
      <trkpt lat="47.20998" lon="-1.50378">
        <ele>54</ele>
        <time>2022-04-03T11:07:52Z</time>
      </trkpt>
      <trkpt lat="47.20998" lon="-1.5036">
        <ele>54</ele>
        <time>2022-04-03T11:07:54Z</time>
      </trkpt>
      <trkpt lat="47.20998" lon="-1.50343">
        <ele>54</ele>
        <time>2022-04-03T11:07:56Z</time>
      </trkpt>
      <trkpt lat="47.20999" lon="-1.50326">
        <ele>54</ele>
        <time>2022-04-03T11:07:58Z</time>
      </trkpt>
      <trkpt lat="47.20999" lon="-1.50309">
        <ele>54</ele>
        <time>2022-04-03T11:08:00Z</time>
      </trkpt>
      <trkpt lat="47.21" lon="-1.50293">
        <ele>54</ele>
        <time>2022-04-03T11:08:02Z</time>
      </trkpt>
      <trkpt lat="47.21002" lon="-1.50277">
        <ele>54</ele>
        <time>2022-04-03T11:08:04Z</time>
      </trkpt>
      <trkpt lat="47.21004" lon="-1.50262">
        <ele>54</ele>
        <time>2022-04-03T11:08:06Z</time>
      </trkpt>
      <trkpt lat="47.21009" lon="-1.50248">
        <ele>53</ele>
        <time>2022-04-03T11:08:08Z</time>
      </trkpt>
      <trkpt lat="47.21016" lon="-1.50236">
        <ele>53</ele>
        <time>2022-04-03T11:08:10Z</time>
      </trkpt>
      <trkpt lat="47.21016" lon="-1.50221">
        <ele>53</ele>
        <time>2022-04-03T11:08:12Z</time>
      </trkpt>
      <trkpt lat="47.21013" lon="-1.50206">
        <ele>54</ele>
        <time>2022-04-03T11:08:14Z</time>
      </trkpt>
      <trkpt lat="47.21014" lon="-1.5019">
        <ele>54</ele>
        <time>2022-04-03T11:08:16Z</time>
      </trkpt>
      <trkpt lat="47.21017" lon="-1.50174">
        <ele>54</ele>
        <time>2022-04-03T11:08:18Z</time>
      </trkpt>
      <trkpt lat="47.21021" lon="-1.50157">
        <ele>54</ele>
        <time>2022-04-03T11:08:20Z</time>
      </trkpt>
      <trkpt lat="47.21024" lon="-1.50141">
        <ele>53</ele>
        <time>2022-04-03T11:08:22Z</time>
      </trkpt>
      <trkpt lat="47.21028" lon="-1.50124">
        <ele>54</ele>
        <time>2022-04-03T11:08:24Z</time>
      </trkpt>
      <trkpt lat="47.21032" lon="-1.50107">
        <ele>54</ele>
        <time>2022-04-03T11:08:26Z</time>
      </trkpt>
      <trkpt lat="47.21037" lon="-1.50091">
        <ele>54</ele>
        <time>2022-04-03T11:08:28Z</time>
      </trkpt>
      <trkpt lat="47.21041" lon="-1.50074">
        <ele>55</ele>
        <time>2022-04-03T11:08:30Z</time>
      </trkpt>
      <trkpt lat="47.21045" lon="-1.50057">
        <ele>55</ele>
        <time>2022-04-03T11:08:32Z</time>
      </trkpt>
      <trkpt lat="47.21049" lon="-1.50041">
        <ele>55</ele>
        <time>2022-04-03T11:08:34Z</time>
      </trkpt>
      <trkpt lat="47.21054" lon="-1.50024">
        <ele>55</ele>
        <time>2022-04-03T11:08:36Z</time>
      </trkpt>
      <trkpt lat="47.21058" lon="-1.50007">
        <ele>55</ele>
        <time>2022-04-03T11:08:38Z</time>
      </trkpt>
      <trkpt lat="47.21062" lon="-1.4999">
        <ele>55</ele>
        <time>2022-04-03T11:08:40Z</time>
      </trkpt>
      <trkpt lat="47.21066" lon="-1.49974">
        <ele>55</ele>
        <time>2022-04-03T11:08:42Z</time>
      </trkpt>
      <trkpt lat="47.2107" lon="-1.49958">
        <ele>54</ele>
        <time>2022-04-03T11:08:44Z</time>
      </trkpt>
      <trkpt lat="47.21075" lon="-1.49941">
        <ele>54</ele>
        <time>2022-04-03T11:08:46Z</time>
      </trkpt>
      <trkpt lat="47.21079" lon="-1.49925">
        <ele>54</ele>
        <time>2022-04-03T11:08:48Z</time>
      </trkpt>
      <trkpt lat="47.21084" lon="-1.4991">
        <ele>54</ele>
        <time>2022-04-03T11:08:50Z</time>
      </trkpt>
      <trkpt lat="47.21089" lon="-1.49895">
        <ele>54</ele>
        <time>2022-04-03T11:08:52Z</time>
      </trkpt>
      <trkpt lat="47.21094" lon="-1.4988">
        <ele>54</ele>
        <time>2022-04-03T11:08:54Z</time>
      </trkpt>
      <trkpt lat="47.21097" lon="-1.49863">
        <ele>54</ele>
        <time>2022-04-03T11:08:56Z</time>
      </trkpt>
      <trkpt lat="47.21098" lon="-1.49846">
        <ele>54</ele>
        <time>2022-04-03T11:08:58Z</time>
      </trkpt>
      <trkpt lat="47.21101" lon="-1.49829">
        <ele>54</ele>
        <time>2022-04-03T11:09:00Z</time>
      </trkpt>
      <trkpt lat="47.21104" lon="-1.49813">
        <ele>54</ele>
        <time>2022-04-03T11:09:02Z</time>
      </trkpt>
      <trkpt lat="47.21107" lon="-1.49796">
        <ele>54</ele>
        <time>2022-04-03T11:09:04Z</time>
      </trkpt>
      <trkpt lat="47.21109" lon="-1.49779">
        <ele>54</ele>
        <time>2022-04-03T11:09:06Z</time>
      </trkpt>
      <trkpt lat="47.21111" lon="-1.49762">
        <ele>54</ele>
        <time>2022-04-03T11:09:08Z</time>
      </trkpt>
      <trkpt lat="47.21113" lon="-1.49745">
        <ele>54</ele>
        <time>2022-04-03T11:09:10Z</time>
      </trkpt>
      <trkpt lat="47.21114" lon="-1.49728">
        <ele>54</ele>
        <time>2022-04-03T11:09:12Z</time>
      </trkpt>
      <trkpt lat="47.21115" lon="-1.4971">
        <ele>54</ele>
        <time>2022-04-03T11:09:14Z</time>
      </trkpt>
      <trkpt lat="47.21117" lon="-1.49692">
        <ele>54</ele>
        <time>2022-04-03T11:09:16Z</time>
      </trkpt>
      <trkpt lat="47.21118" lon="-1.49674">
        <ele>54</ele>
        <time>2022-04-03T11:09:18Z</time>
      </trkpt>
      <trkpt lat="47.21119" lon="-1.49656">
        <ele>53</ele>
        <time>2022-04-03T11:09:20Z</time>
      </trkpt>
      <trkpt lat="47.21121" lon="-1.49638">
        <ele>53</ele>
        <time>2022-04-03T11:09:22Z</time>
      </trkpt>
      <trkpt lat="47.21122" lon="-1.49621">
        <ele>53</ele>
        <time>2022-04-03T11:09:24Z</time>
      </trkpt>
      <trkpt lat="47.21124" lon="-1.49604">
        <ele>53</ele>
        <time>2022-04-03T11:09:26Z</time>
      </trkpt>
      <trkpt lat="47.21132" lon="-1.49593">
        <ele>53</ele>
        <time>2022-04-03T11:09:28Z</time>
      </trkpt>
      <trkpt lat="47.21136" lon="-1.49578">
        <ele>53</ele>
        <time>2022-04-03T11:09:31Z</time>
      </trkpt>
      <trkpt lat="47.21133" lon="-1.49564">
        <ele>53</ele>
        <time>2022-04-03T11:09:34Z</time>
      </trkpt>
      <trkpt lat="47.21129" lon="-1.49549">
        <ele>53</ele>
        <time>2022-04-03T11:09:36Z</time>
      </trkpt>
      <trkpt lat="47.21125" lon="-1.49531">
        <ele>53</ele>
        <time>2022-04-03T11:09:38Z</time>
      </trkpt>
      <trkpt lat="47.21125" lon="-1.49512">
        <ele>53</ele>
        <time>2022-04-03T11:09:40Z</time>
      </trkpt>
      <trkpt lat="47.21126" lon="-1.49493">
        <ele>53</ele>
        <time>2022-04-03T11:09:42Z</time>
      </trkpt>
      <trkpt lat="47.21126" lon="-1.49474">
        <ele>52</ele>
        <time>2022-04-03T11:09:44Z</time>
      </trkpt>
      <trkpt lat="47.21127" lon="-1.49454">
        <ele>52</ele>
        <time>2022-04-03T11:09:46Z</time>
      </trkpt>
      <trkpt lat="47.21127" lon="-1.49436">
        <ele>53</ele>
        <time>2022-04-03T11:09:48Z</time>
      </trkpt>
      <trkpt lat="47.21127" lon="-1.49417">
        <ele>53</ele>
        <time>2022-04-03T11:09:50Z</time>
      </trkpt>
      <trkpt lat="47.21128" lon="-1.49398">
        <ele>53</ele>
        <time>2022-04-03T11:09:52Z</time>
      </trkpt>
      <trkpt lat="47.21128" lon="-1.4938">
        <ele>53</ele>
        <time>2022-04-03T11:09:54Z</time>
      </trkpt>
      <trkpt lat="47.21129" lon="-1.49361">
        <ele>53</ele>
        <time>2022-04-03T11:09:56Z</time>
      </trkpt>
      <trkpt lat="47.2113" lon="-1.49343">
        <ele>53</ele>
        <time>2022-04-03T11:09:58Z</time>
      </trkpt>
      <trkpt lat="47.21132" lon="-1.49325">
        <ele>52</ele>
        <time>2022-04-03T11:10:00Z</time>
      </trkpt>
      <trkpt lat="47.21133" lon="-1.49307">
        <ele>52</ele>
        <time>2022-04-03T11:10:02Z</time>
      </trkpt>
      <trkpt lat="47.21133" lon="-1.49288">
        <ele>52</ele>
        <time>2022-04-03T11:10:04Z</time>
      </trkpt>
      <trkpt lat="47.21134" lon="-1.49271">
        <ele>52</ele>
        <time>2022-04-03T11:10:06Z</time>
      </trkpt>
      <trkpt lat="47.21135" lon="-1.49253">
        <ele>52</ele>
        <time>2022-04-03T11:10:08Z</time>
      </trkpt>
      <trkpt lat="47.21136" lon="-1.49234">
        <ele>51</ele>
        <time>2022-04-03T11:10:10Z</time>
      </trkpt>
      <trkpt lat="47.21138" lon="-1.49216">
        <ele>52</ele>
        <time>2022-04-03T11:10:12Z</time>
      </trkpt>
      <trkpt lat="47.21139" lon="-1.49197">
        <ele>52</ele>
        <time>2022-04-03T11:10:14Z</time>
      </trkpt>
      <trkpt lat="47.21141" lon="-1.49179">
        <ele>52</ele>
        <time>2022-04-03T11:10:16Z</time>
      </trkpt>
      <trkpt lat="47.21143" lon="-1.49162">
        <ele>52</ele>
        <time>2022-04-03T11:10:18Z</time>
      </trkpt>
      <trkpt lat="47.21146" lon="-1.49145">
        <ele>52</ele>
        <time>2022-04-03T11:10:20Z</time>
      </trkpt>
      <trkpt lat="47.21148" lon="-1.49128">
        <ele>52</ele>
        <time>2022-04-03T11:10:22Z</time>
      </trkpt>
      <trkpt lat="47.21152" lon="-1.49111">
        <ele>52</ele>
        <time>2022-04-03T11:10:24Z</time>
      </trkpt>
      <trkpt lat="47.21157" lon="-1.49096">
        <ele>51</ele>
        <time>2022-04-03T11:10:26Z</time>
      </trkpt>
      <trkpt lat="47.21162" lon="-1.49081">
        <ele>52</ele>
        <time>2022-04-03T11:10:28Z</time>
      </trkpt>
      <trkpt lat="47.21159" lon="-1.49064">
        <ele>52</ele>
        <time>2022-04-03T11:10:30Z</time>
      </trkpt>
      <trkpt lat="47.21153" lon="-1.49049">
        <ele>53</ele>
        <time>2022-04-03T11:10:32Z</time>
      </trkpt>
      <trkpt lat="47.21154" lon="-1.49033">
        <ele>53</ele>
        <time>2022-04-03T11:10:34Z</time>
      </trkpt>
      <trkpt lat="47.21156" lon="-1.49015">
        <ele>53</ele>
        <time>2022-04-03T11:10:36Z</time>
      </trkpt>
      <trkpt lat="47.21159" lon="-1.48997">
        <ele>53</ele>
        <time>2022-04-03T11:10:38Z</time>
      </trkpt>
      <trkpt lat="47.21162" lon="-1.4898">
        <ele>53</ele>
        <time>2022-04-03T11:10:40Z</time>
      </trkpt>
      <trkpt lat="47.21165" lon="-1.48962">
        <ele>53</ele>
        <time>2022-04-03T11:10:42Z</time>
      </trkpt>
      <trkpt lat="47.21168" lon="-1.48945">
        <ele>53</ele>
        <time>2022-04-03T11:10:44Z</time>
      </trkpt>
      <trkpt lat="47.21172" lon="-1.48928">
        <ele>53</ele>
        <time>2022-04-03T11:10:46Z</time>
      </trkpt>
      <trkpt lat="47.21175" lon="-1.48911">
        <ele>53</ele>
        <time>2022-04-03T11:10:48Z</time>
      </trkpt>
      <trkpt lat="47.21179" lon="-1.48894">
        <ele>54</ele>
        <time>2022-04-03T11:10:50Z</time>
      </trkpt>
      <trkpt lat="47.21182" lon="-1.48877">
        <ele>54</ele>
        <time>2022-04-03T11:10:52Z</time>
      </trkpt>
      <trkpt lat="47.21185" lon="-1.4886">
        <ele>54</ele>
        <time>2022-04-03T11:10:54Z</time>
      </trkpt>
      <trkpt lat="47.21187" lon="-1.48843">
        <ele>53</ele>
        <time>2022-04-03T11:10:56Z</time>
      </trkpt>
      <trkpt lat="47.2119" lon="-1.48825">
        <ele>54</ele>
        <time>2022-04-03T11:10:58Z</time>
      </trkpt>
      <trkpt lat="47.21193" lon="-1.48808">
        <ele>54</ele>
        <time>2022-04-03T11:11:00Z</time>
      </trkpt>
      <trkpt lat="47.21197" lon="-1.48791">
        <ele>54</ele>
        <time>2022-04-03T11:11:02Z</time>
      </trkpt>
      <trkpt lat="47.21201" lon="-1.48773">
        <ele>54</ele>
        <time>2022-04-03T11:11:04Z</time>
      </trkpt>
      <trkpt lat="47.21205" lon="-1.48756">
        <ele>54</ele>
        <time>2022-04-03T11:11:06Z</time>
      </trkpt>
      <trkpt lat="47.21209" lon="-1.48739">
        <ele>54</ele>
        <time>2022-04-03T11:11:08Z</time>
      </trkpt>
      <trkpt lat="47.21213" lon="-1.48722">
        <ele>54</ele>
        <time>2022-04-03T11:11:10Z</time>
      </trkpt>
      <trkpt lat="47.21217" lon="-1.48706">
        <ele>54</ele>
        <time>2022-04-03T11:11:12Z</time>
      </trkpt>
      <trkpt lat="47.21222" lon="-1.48689">
        <ele>54</ele>
        <time>2022-04-03T11:11:14Z</time>
      </trkpt>
      <trkpt lat="47.21226" lon="-1.48672">
        <ele>54</ele>
        <time>2022-04-03T11:11:16Z</time>
      </trkpt>
      <trkpt lat="47.21231" lon="-1.48655">
        <ele>54</ele>
        <time>2022-04-03T11:11:18Z</time>
      </trkpt>
      <trkpt lat="47.21236" lon="-1.48639">
        <ele>54</ele>
        <time>2022-04-03T11:11:20Z</time>
      </trkpt>
      <trkpt lat="47.21241" lon="-1.48624">
        <ele>53</ele>
        <time>2022-04-03T11:11:22Z</time>
      </trkpt>
      <trkpt lat="47.21245" lon="-1.48608">
        <ele>53</ele>
        <time>2022-04-03T11:11:24Z</time>
      </trkpt>
      <trkpt lat="47.21249" lon="-1.48592">
        <ele>53</ele>
        <time>2022-04-03T11:11:26Z</time>
      </trkpt>
      <trkpt lat="47.21253" lon="-1.48576">
        <ele>53</ele>
        <time>2022-04-03T11:11:28Z</time>
      </trkpt>
      <trkpt lat="47.21257" lon="-1.48559">
        <ele>53</ele>
        <time>2022-04-03T11:11:30Z</time>
      </trkpt>
      <trkpt lat="47.21262" lon="-1.48542">
        <ele>53</ele>
        <time>2022-04-03T11:11:32Z</time>
      </trkpt>
      <trkpt lat="47.21268" lon="-1.48527">
        <ele>53</ele>
        <time>2022-04-03T11:11:34Z</time>
      </trkpt>
      <trkpt lat="47.21278" lon="-1.48517">
        <ele>53</ele>
        <time>2022-04-03T11:11:36Z</time>
      </trkpt>
      <trkpt lat="47.21288" lon="-1.48512">
        <ele>52</ele>
        <time>2022-04-03T11:11:38Z</time>
      </trkpt>
      <trkpt lat="47.21294" lon="-1.48497">
        <ele>52</ele>
        <time>2022-04-03T11:11:40Z</time>
      </trkpt>
      <trkpt lat="47.21299" lon="-1.48471">
        <ele>53</ele>
        <time>2022-04-03T11:11:43Z</time>
      </trkpt>
      <trkpt lat="47.21302" lon="-1.48453">
        <ele>53</ele>
        <time>2022-04-03T11:11:45Z</time>
      </trkpt>
      <trkpt lat="47.21306" lon="-1.48437">
        <ele>53</ele>
        <time>2022-04-03T11:11:47Z</time>
      </trkpt>
      <trkpt lat="47.21313" lon="-1.48413">
        <ele>52</ele>
        <time>2022-04-03T11:11:50Z</time>
      </trkpt>
      <trkpt lat="47.21318" lon="-1.48397">
        <ele>53</ele>
        <time>2022-04-03T11:11:52Z</time>
      </trkpt>
      <trkpt lat="47.21326" lon="-1.48372">
        <ele>53</ele>
        <time>2022-04-03T11:11:55Z</time>
      </trkpt>
      <trkpt lat="47.21331" lon="-1.48355">
        <ele>53</ele>
        <time>2022-04-03T11:11:57Z</time>
      </trkpt>
      <trkpt lat="47.21337" lon="-1.48338">
        <ele>52</ele>
        <time>2022-04-03T11:11:59Z</time>
      </trkpt>
      <trkpt lat="47.21342" lon="-1.48322">
        <ele>52</ele>
        <time>2022-04-03T11:12:01Z</time>
      </trkpt>
      <trkpt lat="47.21347" lon="-1.48305">
        <ele>52</ele>
        <time>2022-04-03T11:12:03Z</time>
      </trkpt>
      <trkpt lat="47.21353" lon="-1.48288">
        <ele>52</ele>
        <time>2022-04-03T11:12:05Z</time>
      </trkpt>
      <trkpt lat="47.21358" lon="-1.48271">
        <ele>52</ele>
        <time>2022-04-03T11:12:07Z</time>
      </trkpt>
      <trkpt lat="47.21363" lon="-1.48254">
        <ele>53</ele>
        <time>2022-04-03T11:12:09Z</time>
      </trkpt>
      <trkpt lat="47.21368" lon="-1.48237">
        <ele>53</ele>
        <time>2022-04-03T11:12:11Z</time>
      </trkpt>
      <trkpt lat="47.21374" lon="-1.48222">
        <ele>53</ele>
        <time>2022-04-03T11:12:13Z</time>
      </trkpt>
      <trkpt lat="47.21379" lon="-1.48208">
        <ele>53</ele>
        <time>2022-04-03T11:12:15Z</time>
      </trkpt>
      <trkpt lat="47.21386" lon="-1.48194">
        <ele>53</ele>
        <time>2022-04-03T11:12:17Z</time>
      </trkpt>
      <trkpt lat="47.21392" lon="-1.4818">
        <ele>53</ele>
        <time>2022-04-03T11:12:19Z</time>
      </trkpt>
      <trkpt lat="47.21399" lon="-1.48166">
        <ele>53</ele>
        <time>2022-04-03T11:12:21Z</time>
      </trkpt>
      <trkpt lat="47.21406" lon="-1.48152">
        <ele>53</ele>
        <time>2022-04-03T11:12:23Z</time>
      </trkpt>
      <trkpt lat="47.21413" lon="-1.48139">
        <ele>53</ele>
        <time>2022-04-03T11:12:25Z</time>
      </trkpt>
      <trkpt lat="47.2142" lon="-1.48125">
        <ele>53</ele>
        <time>2022-04-03T11:12:27Z</time>
      </trkpt>
      <trkpt lat="47.21428" lon="-1.48111">
        <ele>53</ele>
        <time>2022-04-03T11:12:29Z</time>
      </trkpt>
      <trkpt lat="47.21435" lon="-1.48098">
        <ele>53</ele>
        <time>2022-04-03T11:12:31Z</time>
      </trkpt>
      <trkpt lat="47.21443" lon="-1.48085">
        <ele>53</ele>
        <time>2022-04-03T11:12:33Z</time>
      </trkpt>
      <trkpt lat="47.21451" lon="-1.48073">
        <ele>53</ele>
        <time>2022-04-03T11:12:35Z</time>
      </trkpt>
      <trkpt lat="47.21459" lon="-1.48061">
        <ele>53</ele>
        <time>2022-04-03T11:12:37Z</time>
      </trkpt>
      <trkpt lat="47.21468" lon="-1.48049">
        <ele>53</ele>
        <time>2022-04-03T11:12:39Z</time>
      </trkpt>
      <trkpt lat="47.21476" lon="-1.48039">
        <ele>54</ele>
        <time>2022-04-03T11:12:41Z</time>
      </trkpt>
      <trkpt lat="47.21485" lon="-1.48028">
        <ele>54</ele>
        <time>2022-04-03T11:12:43Z</time>
      </trkpt>
      <trkpt lat="47.21494" lon="-1.48017">
        <ele>54</ele>
        <time>2022-04-03T11:12:45Z</time>
      </trkpt>
      <trkpt lat="47.21503" lon="-1.48007">
        <ele>54</ele>
        <time>2022-04-03T11:12:47Z</time>
      </trkpt>
      <trkpt lat="47.21511" lon="-1.47997">
        <ele>54</ele>
        <time>2022-04-03T11:12:49Z</time>
      </trkpt>
      <trkpt lat="47.2152" lon="-1.47988">
        <ele>55</ele>
        <time>2022-04-03T11:12:51Z</time>
      </trkpt>
      <trkpt lat="47.21527" lon="-1.47979">
        <ele>55</ele>
        <time>2022-04-03T11:12:53Z</time>
      </trkpt>
      <trkpt lat="47.21535" lon="-1.4797">
        <ele>56</ele>
        <time>2022-04-03T11:12:55Z</time>
      </trkpt>
      <trkpt lat="47.21544" lon="-1.47961">
        <ele>56</ele>
        <time>2022-04-03T11:12:57Z</time>
      </trkpt>
      <trkpt lat="47.21554" lon="-1.47952">
        <ele>56</ele>
        <time>2022-04-03T11:12:59Z</time>
      </trkpt>
      <trkpt lat="47.21564" lon="-1.47943">
        <ele>56</ele>
        <time>2022-04-03T11:13:01Z</time>
      </trkpt>
      <trkpt lat="47.21573" lon="-1.47935">
        <ele>55</ele>
        <time>2022-04-03T11:13:03Z</time>
      </trkpt>
      <trkpt lat="47.21582" lon="-1.47927">
        <ele>55</ele>
        <time>2022-04-03T11:13:05Z</time>
      </trkpt>
      <trkpt lat="47.2159" lon="-1.47919">
        <ele>55</ele>
        <time>2022-04-03T11:13:07Z</time>
      </trkpt>
      <trkpt lat="47.21598" lon="-1.47911">
        <ele>55</ele>
        <time>2022-04-03T11:13:09Z</time>
      </trkpt>
      <trkpt lat="47.21607" lon="-1.47903">
        <ele>55</ele>
        <time>2022-04-03T11:13:11Z</time>
      </trkpt>
      <trkpt lat="47.21615" lon="-1.47895">
        <ele>55</ele>
        <time>2022-04-03T11:13:13Z</time>
      </trkpt>
      <trkpt lat="47.21624" lon="-1.47887">
        <ele>55</ele>
        <time>2022-04-03T11:13:15Z</time>
      </trkpt>
      <trkpt lat="47.21632" lon="-1.47879">
        <ele>55</ele>
        <time>2022-04-03T11:13:17Z</time>
      </trkpt>
      <trkpt lat="47.21641" lon="-1.47872">
        <ele>55</ele>
        <time>2022-04-03T11:13:19Z</time>
      </trkpt>
      <trkpt lat="47.2165" lon="-1.47864">
        <ele>55</ele>
        <time>2022-04-03T11:13:21Z</time>
      </trkpt>
      <trkpt lat="47.21659" lon="-1.47855">
        <ele>55</ele>
        <time>2022-04-03T11:13:23Z</time>
      </trkpt>
      <trkpt lat="47.21668" lon="-1.47847">
        <ele>55</ele>
        <time>2022-04-03T11:13:25Z</time>
      </trkpt>
      <trkpt lat="47.21677" lon="-1.47839">
        <ele>55</ele>
        <time>2022-04-03T11:13:27Z</time>
      </trkpt>
      <trkpt lat="47.21685" lon="-1.47831">
        <ele>55</ele>
        <time>2022-04-03T11:13:29Z</time>
      </trkpt>
      <trkpt lat="47.21693" lon="-1.47824">
        <ele>55</ele>
        <time>2022-04-03T11:13:31Z</time>
      </trkpt>
      <trkpt lat="47.21701" lon="-1.47816">
        <ele>55</ele>
        <time>2022-04-03T11:13:33Z</time>
      </trkpt>
      <trkpt lat="47.21709" lon="-1.47808">
        <ele>55</ele>
        <time>2022-04-03T11:13:35Z</time>
      </trkpt>
      <trkpt lat="47.21718" lon="-1.47801">
        <ele>55</ele>
        <time>2022-04-03T11:13:37Z</time>
      </trkpt>
      <trkpt lat="47.21726" lon="-1.47793">
        <ele>55</ele>
        <time>2022-04-03T11:13:39Z</time>
      </trkpt>
      <trkpt lat="47.21734" lon="-1.47786">
        <ele>55</ele>
        <time>2022-04-03T11:13:41Z</time>
      </trkpt>
      <trkpt lat="47.21746" lon="-1.47775">
        <ele>56</ele>
        <time>2022-04-03T11:13:44Z</time>
      </trkpt>
      <trkpt lat="47.21754" lon="-1.47768">
        <ele>55</ele>
        <time>2022-04-03T11:13:46Z</time>
      </trkpt>
      <trkpt lat="47.21763" lon="-1.4776">
        <ele>55</ele>
        <time>2022-04-03T11:13:48Z</time>
      </trkpt>
      <trkpt lat="47.21771" lon="-1.47752">
        <ele>55</ele>
        <time>2022-04-03T11:13:50Z</time>
      </trkpt>
      <trkpt lat="47.2178" lon="-1.47745">
        <ele>55</ele>
        <time>2022-04-03T11:13:52Z</time>
      </trkpt>
      <trkpt lat="47.21789" lon="-1.47738">
        <ele>55</ele>
        <time>2022-04-03T11:13:54Z</time>
      </trkpt>
      <trkpt lat="47.21797" lon="-1.47732">
        <ele>55</ele>
        <time>2022-04-03T11:13:56Z</time>
      </trkpt>
      <trkpt lat="47.21806" lon="-1.47725">
        <ele>55</ele>
        <time>2022-04-03T11:13:58Z</time>
      </trkpt>
      <trkpt lat="47.21815" lon="-1.47719">
        <ele>55</ele>
        <time>2022-04-03T11:14:00Z</time>
      </trkpt>
      <trkpt lat="47.21824" lon="-1.47712">
        <ele>55</ele>
        <time>2022-04-03T11:14:02Z</time>
      </trkpt>
      <trkpt lat="47.21833" lon="-1.47704">
        <ele>55</ele>
        <time>2022-04-03T11:14:04Z</time>
      </trkpt>
      <trkpt lat="47.21842" lon="-1.47696">
        <ele>55</ele>
        <time>2022-04-03T11:14:06Z</time>
      </trkpt>
      <trkpt lat="47.21851" lon="-1.47688">
        <ele>54</ele>
        <time>2022-04-03T11:14:08Z</time>
      </trkpt>
      <trkpt lat="47.2186" lon="-1.4768">
        <ele>54</ele>
        <time>2022-04-03T11:14:10Z</time>
      </trkpt>
      <trkpt lat="47.21869" lon="-1.47671">
        <ele>54</ele>
        <time>2022-04-03T11:14:12Z</time>
      </trkpt>
      <trkpt lat="47.21879" lon="-1.47662">
        <ele>54</ele>
        <time>2022-04-03T11:14:14Z</time>
      </trkpt>
      <trkpt lat="47.21888" lon="-1.47654">
        <ele>54</ele>
        <time>2022-04-03T11:14:16Z</time>
      </trkpt>
      <trkpt lat="47.21896" lon="-1.47646">
        <ele>53</ele>
        <time>2022-04-03T11:14:18Z</time>
      </trkpt>
      <trkpt lat="47.21905" lon="-1.47638">
        <ele>53</ele>
        <time>2022-04-03T11:14:20Z</time>
      </trkpt>
      <trkpt lat="47.21914" lon="-1.4763">
        <ele>53</ele>
        <time>2022-04-03T11:14:22Z</time>
      </trkpt>
      <trkpt lat="47.21923" lon="-1.47622">
        <ele>53</ele>
        <time>2022-04-03T11:14:24Z</time>
      </trkpt>
      <trkpt lat="47.21932" lon="-1.47614">
        <ele>53</ele>
        <time>2022-04-03T11:14:26Z</time>
      </trkpt>
      <trkpt lat="47.2194" lon="-1.47606">
        <ele>53</ele>
        <time>2022-04-03T11:14:28Z</time>
      </trkpt>
      <trkpt lat="47.21949" lon="-1.47598">
        <ele>53</ele>
        <time>2022-04-03T11:14:30Z</time>
      </trkpt>
      <trkpt lat="47.21958" lon="-1.4759">
        <ele>53</ele>
        <time>2022-04-03T11:14:32Z</time>
      </trkpt>
      <trkpt lat="47.21967" lon="-1.47582">
        <ele>54</ele>
        <time>2022-04-03T11:14:34Z</time>
      </trkpt>
      <trkpt lat="47.21976" lon="-1.47573">
        <ele>54</ele>
        <time>2022-04-03T11:14:36Z</time>
      </trkpt>
      <trkpt lat="47.21984" lon="-1.47565">
        <ele>54</ele>
        <time>2022-04-03T11:14:38Z</time>
      </trkpt>
      <trkpt lat="47.21993" lon="-1.47557">
        <ele>54</ele>
        <time>2022-04-03T11:14:40Z</time>
      </trkpt>
      <trkpt lat="47.22002" lon="-1.47549">
        <ele>54</ele>
        <time>2022-04-03T11:14:42Z</time>
      </trkpt>
      <trkpt lat="47.2201" lon="-1.47542">
        <ele>54</ele>
        <time>2022-04-03T11:14:44Z</time>
      </trkpt>
      <trkpt lat="47.22019" lon="-1.47534">
        <ele>54</ele>
        <time>2022-04-03T11:14:46Z</time>
      </trkpt>
      <trkpt lat="47.22027" lon="-1.47526">
        <ele>54</ele>
        <time>2022-04-03T11:14:48Z</time>
      </trkpt>
      <trkpt lat="47.22036" lon="-1.47519">
        <ele>54</ele>
        <time>2022-04-03T11:14:50Z</time>
      </trkpt>
      <trkpt lat="47.22044" lon="-1.47511">
        <ele>54</ele>
        <time>2022-04-03T11:14:52Z</time>
      </trkpt>
      <trkpt lat="47.22053" lon="-1.47503">
        <ele>53</ele>
        <time>2022-04-03T11:14:54Z</time>
      </trkpt>
      <trkpt lat="47.22061" lon="-1.47495">
        <ele>53</ele>
        <time>2022-04-03T11:14:56Z</time>
      </trkpt>
      <trkpt lat="47.2207" lon="-1.47487">
        <ele>54</ele>
        <time>2022-04-03T11:14:58Z</time>
      </trkpt>
      <trkpt lat="47.22079" lon="-1.4748">
        <ele>54</ele>
        <time>2022-04-03T11:15:00Z</time>
      </trkpt>
      <trkpt lat="47.22087" lon="-1.47472">
        <ele>54</ele>
        <time>2022-04-03T11:15:02Z</time>
      </trkpt>
      <trkpt lat="47.22096" lon="-1.47464">
        <ele>54</ele>
        <time>2022-04-03T11:15:04Z</time>
      </trkpt>
      <trkpt lat="47.22105" lon="-1.47456">
        <ele>54</ele>
        <time>2022-04-03T11:15:06Z</time>
      </trkpt>
      <trkpt lat="47.22114" lon="-1.47449">
        <ele>53</ele>
        <time>2022-04-03T11:15:08Z</time>
      </trkpt>
      <trkpt lat="47.22123" lon="-1.47442">
        <ele>53</ele>
        <time>2022-04-03T11:15:10Z</time>
      </trkpt>
      <trkpt lat="47.22131" lon="-1.47435">
        <ele>53</ele>
        <time>2022-04-03T11:15:12Z</time>
      </trkpt>
      <trkpt lat="47.2214" lon="-1.47428">
        <ele>54</ele>
        <time>2022-04-03T11:15:14Z</time>
      </trkpt>
      <trkpt lat="47.22148" lon="-1.47421">
        <ele>54</ele>
        <time>2022-04-03T11:15:16Z</time>
      </trkpt>
      <trkpt lat="47.22157" lon="-1.47413">
        <ele>54</ele>
        <time>2022-04-03T11:15:18Z</time>
      </trkpt>
      <trkpt lat="47.22165" lon="-1.47406">
        <ele>54</ele>
        <time>2022-04-03T11:15:20Z</time>
      </trkpt>
      <trkpt lat="47.22174" lon="-1.47399">
        <ele>54</ele>
        <time>2022-04-03T11:15:22Z</time>
      </trkpt>
      <trkpt lat="47.22183" lon="-1.47392">
        <ele>54</ele>
        <time>2022-04-03T11:15:24Z</time>
      </trkpt>
      <trkpt lat="47.22192" lon="-1.47384">
        <ele>54</ele>
        <time>2022-04-03T11:15:26Z</time>
      </trkpt>
      <trkpt lat="47.222" lon="-1.47376">
        <ele>54</ele>
        <time>2022-04-03T11:15:28Z</time>
      </trkpt>
      <trkpt lat="47.22209" lon="-1.47369">
        <ele>54</ele>
        <time>2022-04-03T11:15:30Z</time>
      </trkpt>
      <trkpt lat="47.22218" lon="-1.47362">
        <ele>54</ele>
        <time>2022-04-03T11:15:32Z</time>
      </trkpt>
      <trkpt lat="47.22227" lon="-1.47356">
        <ele>54</ele>
        <time>2022-04-03T11:15:34Z</time>
      </trkpt>
      <trkpt lat="47.22237" lon="-1.4735">
        <ele>54</ele>
        <time>2022-04-03T11:15:36Z</time>
      </trkpt>
      <trkpt lat="47.22247" lon="-1.47344">
        <ele>54</ele>
        <time>2022-04-03T11:15:38Z</time>
      </trkpt>
      <trkpt lat="47.22256" lon="-1.47338">
        <ele>54</ele>
        <time>2022-04-03T11:15:40Z</time>
      </trkpt>
      <trkpt lat="47.22265" lon="-1.47332">
        <ele>54</ele>
        <time>2022-04-03T11:15:42Z</time>
      </trkpt>
      <trkpt lat="47.22273" lon="-1.47325">
        <ele>54</ele>
        <time>2022-04-03T11:15:44Z</time>
      </trkpt>
      <trkpt lat="47.22281" lon="-1.47318">
        <ele>54</ele>
        <time>2022-04-03T11:15:46Z</time>
      </trkpt>
      <trkpt lat="47.2229" lon="-1.47311">
        <ele>54</ele>
        <time>2022-04-03T11:15:48Z</time>
      </trkpt>
      <trkpt lat="47.22298" lon="-1.47304">
        <ele>54</ele>
        <time>2022-04-03T11:15:50Z</time>
      </trkpt>
      <trkpt lat="47.22306" lon="-1.47298">
        <ele>54</ele>
        <time>2022-04-03T11:15:52Z</time>
      </trkpt>
      <trkpt lat="47.22315" lon="-1.47291">
        <ele>54</ele>
        <time>2022-04-03T11:15:54Z</time>
      </trkpt>
      <trkpt lat="47.22324" lon="-1.47284">
        <ele>54</ele>
        <time>2022-04-03T11:15:56Z</time>
      </trkpt>
      <trkpt lat="47.22332" lon="-1.47277">
        <ele>53</ele>
        <time>2022-04-03T11:15:58Z</time>
      </trkpt>
      <trkpt lat="47.2234" lon="-1.4727">
        <ele>53</ele>
        <time>2022-04-03T11:16:00Z</time>
      </trkpt>
      <trkpt lat="47.22349" lon="-1.47263">
        <ele>53</ele>
        <time>2022-04-03T11:16:02Z</time>
      </trkpt>
      <trkpt lat="47.22358" lon="-1.47256">
        <ele>53</ele>
        <time>2022-04-03T11:16:04Z</time>
      </trkpt>
      <trkpt lat="47.22366" lon="-1.47248">
        <ele>54</ele>
        <time>2022-04-03T11:16:06Z</time>
      </trkpt>
      <trkpt lat="47.22374" lon="-1.4724">
        <ele>54</ele>
        <time>2022-04-03T11:16:08Z</time>
      </trkpt>
      <trkpt lat="47.22382" lon="-1.47232">
        <ele>54</ele>
        <time>2022-04-03T11:16:10Z</time>
      </trkpt>
      <trkpt lat="47.2239" lon="-1.47225">
        <ele>54</ele>
        <time>2022-04-03T11:16:12Z</time>
      </trkpt>
      <trkpt lat="47.22398" lon="-1.47215">
        <ele>54</ele>
        <time>2022-04-03T11:16:14Z</time>
      </trkpt>
      <trkpt lat="47.22406" lon="-1.47205">
        <ele>55</ele>
        <time>2022-04-03T11:16:16Z</time>
      </trkpt>
      <trkpt lat="47.22415" lon="-1.47196">
        <ele>55</ele>
        <time>2022-04-03T11:16:18Z</time>
      </trkpt>
      <trkpt lat="47.22423" lon="-1.47187">
        <ele>55</ele>
        <time>2022-04-03T11:16:20Z</time>
      </trkpt>
      <trkpt lat="47.22431" lon="-1.47179">
        <ele>56</ele>
        <time>2022-04-03T11:16:22Z</time>
      </trkpt>
      <trkpt lat="47.22439" lon="-1.47172">
        <ele>56</ele>
        <time>2022-04-03T11:16:24Z</time>
      </trkpt>
      <trkpt lat="47.22448" lon="-1.47164">
        <ele>56</ele>
        <time>2022-04-03T11:16:26Z</time>
      </trkpt>
      <trkpt lat="47.22456" lon="-1.47157">
        <ele>56</ele>
        <time>2022-04-03T11:16:28Z</time>
      </trkpt>
      <trkpt lat="47.22465" lon="-1.4715">
        <ele>56</ele>
        <time>2022-04-03T11:16:30Z</time>
      </trkpt>
      <trkpt lat="47.22474" lon="-1.47143">
        <ele>56</ele>
        <time>2022-04-03T11:16:32Z</time>
      </trkpt>
      <trkpt lat="47.22483" lon="-1.47139">
        <ele>56</ele>
        <time>2022-04-03T11:16:34Z</time>
      </trkpt>
      <trkpt lat="47.22492" lon="-1.47134">
        <ele>56</ele>
        <time>2022-04-03T11:16:36Z</time>
      </trkpt>
      <trkpt lat="47.22502" lon="-1.4713">
        <ele>56</ele>
        <time>2022-04-03T11:16:38Z</time>
      </trkpt>
      <trkpt lat="47.22512" lon="-1.47128">
        <ele>56</ele>
        <time>2022-04-03T11:16:40Z</time>
      </trkpt>
      <trkpt lat="47.22522" lon="-1.47126">
        <ele>56</ele>
        <time>2022-04-03T11:16:42Z</time>
      </trkpt>
      <trkpt lat="47.22531" lon="-1.47124">
        <ele>56</ele>
        <time>2022-04-03T11:16:44Z</time>
      </trkpt>
      <trkpt lat="47.22541" lon="-1.47121">
        <ele>56</ele>
        <time>2022-04-03T11:16:46Z</time>
      </trkpt>
      <trkpt lat="47.2255" lon="-1.47119">
        <ele>55</ele>
        <time>2022-04-03T11:16:48Z</time>
      </trkpt>
      <trkpt lat="47.22561" lon="-1.47117">
        <ele>55</ele>
        <time>2022-04-03T11:16:50Z</time>
      </trkpt>
      <trkpt lat="47.22571" lon="-1.47113">
        <ele>55</ele>
        <time>2022-04-03T11:16:52Z</time>
      </trkpt>
      <trkpt lat="47.22581" lon="-1.47106">
        <ele>55</ele>
        <time>2022-04-03T11:16:54Z</time>
      </trkpt>
      <trkpt lat="47.2259" lon="-1.47098">
        <ele>55</ele>
        <time>2022-04-03T11:16:56Z</time>
      </trkpt>
      <trkpt lat="47.22598" lon="-1.47088">
        <ele>54</ele>
        <time>2022-04-03T11:16:58Z</time>
      </trkpt>
      <trkpt lat="47.22605" lon="-1.47075">
        <ele>54</ele>
        <time>2022-04-03T11:17:00Z</time>
      </trkpt>
      <trkpt lat="47.22611" lon="-1.47062">
        <ele>54</ele>
        <time>2022-04-03T11:17:02Z</time>
      </trkpt>
      <trkpt lat="47.22618" lon="-1.4705">
        <ele>54</ele>
        <time>2022-04-03T11:17:04Z</time>
      </trkpt>
      <trkpt lat="47.22625" lon="-1.47038">
        <ele>54</ele>
        <time>2022-04-03T11:17:06Z</time>
      </trkpt>
      <trkpt lat="47.22632" lon="-1.47026">
        <ele>54</ele>
        <time>2022-04-03T11:17:08Z</time>
      </trkpt>
      <trkpt lat="47.2264" lon="-1.47016">
        <ele>54</ele>
        <time>2022-04-03T11:17:10Z</time>
      </trkpt>
      <trkpt lat="47.22649" lon="-1.47006">
        <ele>54</ele>
        <time>2022-04-03T11:17:12Z</time>
      </trkpt>
      <trkpt lat="47.22657" lon="-1.46997">
        <ele>54</ele>
        <time>2022-04-03T11:17:14Z</time>
      </trkpt>
      <trkpt lat="47.22666" lon="-1.46989">
        <ele>53</ele>
        <time>2022-04-03T11:17:16Z</time>
      </trkpt>
      <trkpt lat="47.22675" lon="-1.46981">
        <ele>53</ele>
        <time>2022-04-03T11:17:18Z</time>
      </trkpt>
      <trkpt lat="47.22685" lon="-1.46975">
        <ele>54</ele>
        <time>2022-04-03T11:17:20Z</time>
      </trkpt>
      <trkpt lat="47.22694" lon="-1.46969">
        <ele>54</ele>
        <time>2022-04-03T11:17:22Z</time>
      </trkpt>
      <trkpt lat="47.22704" lon="-1.46964">
        <ele>54</ele>
        <time>2022-04-03T11:17:24Z</time>
      </trkpt>
      <trkpt lat="47.22715" lon="-1.4696">
        <ele>54</ele>
        <time>2022-04-03T11:17:26Z</time>
      </trkpt>
      <trkpt lat="47.22725" lon="-1.46956">
        <ele>53</ele>
        <time>2022-04-03T11:17:28Z</time>
      </trkpt>
      <trkpt lat="47.22735" lon="-1.46954">
        <ele>53</ele>
        <time>2022-04-03T11:17:30Z</time>
      </trkpt>
      <trkpt lat="47.22746" lon="-1.46953">
        <ele>53</ele>
        <time>2022-04-03T11:17:32Z</time>
      </trkpt>
      <trkpt lat="47.22756" lon="-1.46952">
        <ele>53</ele>
        <time>2022-04-03T11:17:34Z</time>
      </trkpt>
      <trkpt lat="47.22767" lon="-1.46952">
        <ele>54</ele>
        <time>2022-04-03T11:17:36Z</time>
      </trkpt>
      <trkpt lat="47.22778" lon="-1.46953">
        <ele>54</ele>
        <time>2022-04-03T11:17:38Z</time>
      </trkpt>
      <trkpt lat="47.22788" lon="-1.46955">
        <ele>54</ele>
        <time>2022-04-03T11:17:40Z</time>
      </trkpt>
      <trkpt lat="47.22798" lon="-1.46958">
        <ele>53</ele>
        <time>2022-04-03T11:17:42Z</time>
      </trkpt>
      <trkpt lat="47.22809" lon="-1.46962">
        <ele>53</ele>
        <time>2022-04-03T11:17:44Z</time>
      </trkpt>
      <trkpt lat="47.22819" lon="-1.46967">
        <ele>53</ele>
        <time>2022-04-03T11:17:46Z</time>
      </trkpt>
      <trkpt lat="47.22829" lon="-1.46972">
        <ele>54</ele>
        <time>2022-04-03T11:17:48Z</time>
      </trkpt>
      <trkpt lat="47.22839" lon="-1.46977">
        <ele>54</ele>
        <time>2022-04-03T11:17:50Z</time>
      </trkpt>
      <trkpt lat="47.22849" lon="-1.46982">
        <ele>54</ele>
        <time>2022-04-03T11:17:52Z</time>
      </trkpt>
      <trkpt lat="47.22859" lon="-1.46988">
        <ele>54</ele>
        <time>2022-04-03T11:17:54Z</time>
      </trkpt>
      <trkpt lat="47.22869" lon="-1.46993">
        <ele>53</ele>
        <time>2022-04-03T11:17:56Z</time>
      </trkpt>
      <trkpt lat="47.2288" lon="-1.46998">
        <ele>53</ele>
        <time>2022-04-03T11:17:58Z</time>
      </trkpt>
      <trkpt lat="47.22891" lon="-1.47001">
        <ele>53</ele>
        <time>2022-04-03T11:18:00Z</time>
      </trkpt>
      <trkpt lat="47.22901" lon="-1.46996">
        <ele>52</ele>
        <time>2022-04-03T11:18:02Z</time>
      </trkpt>
      <trkpt lat="47.22908" lon="-1.46982">
        <ele>52</ele>
        <time>2022-04-03T11:18:04Z</time>
      </trkpt>
      <trkpt lat="47.22911" lon="-1.46967">
        <ele>52</ele>
        <time>2022-04-03T11:18:06Z</time>
      </trkpt>
      <trkpt lat="47.22915" lon="-1.46952">
        <ele>52</ele>
        <time>2022-04-03T11:18:08Z</time>
      </trkpt>
      <trkpt lat="47.22919" lon="-1.46937">
        <ele>52</ele>
        <time>2022-04-03T11:18:10Z</time>
      </trkpt>
      <trkpt lat="47.22923" lon="-1.46923">
        <ele>53</ele>
        <time>2022-04-03T11:18:12Z</time>
      </trkpt>
      <trkpt lat="47.22926" lon="-1.46908">
        <ele>53</ele>
        <time>2022-04-03T11:18:14Z</time>
      </trkpt>
      <trkpt lat="47.22928" lon="-1.46893">
        <ele>53</ele>
        <time>2022-04-03T11:18:16Z</time>
      </trkpt>
      <trkpt lat="47.22932" lon="-1.46876">
        <ele>53</ele>
        <time>2022-04-03T11:18:18Z</time>
      </trkpt>
      <trkpt lat="47.22936" lon="-1.46863">
        <ele>53</ele>
        <time>2022-04-03T11:18:20Z</time>
      </trkpt>
      <trkpt lat="47.22941" lon="-1.46849">
        <ele>53</ele>
        <time>2022-04-03T11:18:22Z</time>
      </trkpt>
      <trkpt lat="47.22946" lon="-1.46838">
        <ele>53</ele>
        <time>2022-04-03T11:18:24Z</time>
      </trkpt>
      <trkpt lat="47.22955" lon="-1.4683">
        <ele>54</ele>
        <time>2022-04-03T11:18:26Z</time>
      </trkpt>
      <trkpt lat="47.22964" lon="-1.46821">
        <ele>53</ele>
        <time>2022-04-03T11:18:28Z</time>
      </trkpt>
      <trkpt lat="47.22969" lon="-1.46807">
        <ele>53</ele>
        <time>2022-04-03T11:18:30Z</time>
      </trkpt>
      <trkpt lat="47.22974" lon="-1.46793">
        <ele>54</ele>
        <time>2022-04-03T11:18:32Z</time>
      </trkpt>
      <trkpt lat="47.2298" lon="-1.46781">
        <ele>55</ele>
        <time>2022-04-03T11:18:34Z</time>
      </trkpt>
      <trkpt lat="47.22986" lon="-1.4677">
        <ele>55</ele>
        <time>2022-04-03T11:18:36Z</time>
      </trkpt>
      <trkpt lat="47.22995" lon="-1.46761">
        <ele>55</ele>
        <time>2022-04-03T11:18:38Z</time>
      </trkpt>
      <trkpt lat="47.23004" lon="-1.46753">
        <ele>55</ele>
        <time>2022-04-03T11:18:40Z</time>
      </trkpt>
      <trkpt lat="47.23013" lon="-1.46747">
        <ele>55</ele>
        <time>2022-04-03T11:18:42Z</time>
      </trkpt>
      <trkpt lat="47.23024" lon="-1.46743">
        <ele>55</ele>
        <time>2022-04-03T11:18:44Z</time>
      </trkpt>
      <trkpt lat="47.23034" lon="-1.46738">
        <ele>54</ele>
        <time>2022-04-03T11:18:46Z</time>
      </trkpt>
      <trkpt lat="47.23042" lon="-1.46726">
        <ele>54</ele>
        <time>2022-04-03T11:18:48Z</time>
      </trkpt>
      <trkpt lat="47.23044" lon="-1.4671">
        <ele>55</ele>
        <time>2022-04-03T11:18:50Z</time>
      </trkpt>
      <trkpt lat="47.23046" lon="-1.46693">
        <ele>55</ele>
        <time>2022-04-03T11:18:52Z</time>
      </trkpt>
      <trkpt lat="47.23048" lon="-1.46677">
        <ele>55</ele>
        <time>2022-04-03T11:18:54Z</time>
      </trkpt>
      <trkpt lat="47.23052" lon="-1.46663">
        <ele>55</ele>
        <time>2022-04-03T11:18:56Z</time>
      </trkpt>
      <trkpt lat="47.23058" lon="-1.46651">
        <ele>54</ele>
        <time>2022-04-03T11:18:58Z</time>
      </trkpt>
      <trkpt lat="47.23063" lon="-1.46638">
        <ele>54</ele>
        <time>2022-04-03T11:19:00Z</time>
      </trkpt>
      <trkpt lat="47.2307" lon="-1.46628">
        <ele>55</ele>
        <time>2022-04-03T11:19:02Z</time>
      </trkpt>
      <trkpt lat="47.23078" lon="-1.46619">
        <ele>55</ele>
        <time>2022-04-03T11:19:04Z</time>
      </trkpt>
      <trkpt lat="47.23086" lon="-1.4661">
        <ele>55</ele>
        <time>2022-04-03T11:19:06Z</time>
      </trkpt>
      <trkpt lat="47.23095" lon="-1.466">
        <ele>55</ele>
        <time>2022-04-03T11:19:08Z</time>
      </trkpt>
      <trkpt lat="47.23104" lon="-1.46591">
        <ele>55</ele>
        <time>2022-04-03T11:19:10Z</time>
      </trkpt>
      <trkpt lat="47.23113" lon="-1.46581">
        <ele>55</ele>
        <time>2022-04-03T11:19:12Z</time>
      </trkpt>
      <trkpt lat="47.23121" lon="-1.46572">
        <ele>54</ele>
        <time>2022-04-03T11:19:14Z</time>
      </trkpt>
      <trkpt lat="47.2313" lon="-1.46562">
        <ele>54</ele>
        <time>2022-04-03T11:19:16Z</time>
      </trkpt>
      <trkpt lat="47.23138" lon="-1.46552">
        <ele>54</ele>
        <time>2022-04-03T11:19:18Z</time>
      </trkpt>
      <trkpt lat="47.23147" lon="-1.46542">
        <ele>55</ele>
        <time>2022-04-03T11:19:20Z</time>
      </trkpt>
      <trkpt lat="47.23155" lon="-1.46532">
        <ele>55</ele>
        <time>2022-04-03T11:19:22Z</time>
      </trkpt>
      <trkpt lat="47.23163" lon="-1.46522">
        <ele>55</ele>
        <time>2022-04-03T11:19:24Z</time>
      </trkpt>
      <trkpt lat="47.23171" lon="-1.46513">
        <ele>55</ele>
        <time>2022-04-03T11:19:26Z</time>
      </trkpt>
      <trkpt lat="47.23179" lon="-1.46503">
        <ele>55</ele>
        <time>2022-04-03T11:19:28Z</time>
      </trkpt>
      <trkpt lat="47.23187" lon="-1.46493">
        <ele>54</ele>
        <time>2022-04-03T11:19:30Z</time>
      </trkpt>
      <trkpt lat="47.23196" lon="-1.46483">
        <ele>54</ele>
        <time>2022-04-03T11:19:32Z</time>
      </trkpt>
      <trkpt lat="47.23204" lon="-1.46472">
        <ele>54</ele>
        <time>2022-04-03T11:19:34Z</time>
      </trkpt>
      <trkpt lat="47.23212" lon="-1.46461">
        <ele>54</ele>
        <time>2022-04-03T11:19:36Z</time>
      </trkpt>
      <trkpt lat="47.2322" lon="-1.46451">
        <ele>54</ele>
        <time>2022-04-03T11:19:38Z</time>
      </trkpt>
      <trkpt lat="47.23228" lon="-1.46441">
        <ele>54</ele>
        <time>2022-04-03T11:19:40Z</time>
      </trkpt>
      <trkpt lat="47.23236" lon="-1.46431">
        <ele>54</ele>
        <time>2022-04-03T11:19:42Z</time>
      </trkpt>
      <trkpt lat="47.23244" lon="-1.46421">
        <ele>54</ele>
        <time>2022-04-03T11:19:44Z</time>
      </trkpt>
      <trkpt lat="47.23252" lon="-1.46411">
        <ele>54</ele>
        <time>2022-04-03T11:19:46Z</time>
      </trkpt>
      <trkpt lat="47.23259" lon="-1.46401">
        <ele>54</ele>
        <time>2022-04-03T11:19:48Z</time>
      </trkpt>
      <trkpt lat="47.23267" lon="-1.46391">
        <ele>54</ele>
        <time>2022-04-03T11:19:50Z</time>
      </trkpt>
      <trkpt lat="47.23276" lon="-1.46381">
        <ele>54</ele>
        <time>2022-04-03T11:19:52Z</time>
      </trkpt>
      <trkpt lat="47.23285" lon="-1.46372">
        <ele>54</ele>
        <time>2022-04-03T11:19:54Z</time>
      </trkpt>
      <trkpt lat="47.23293" lon="-1.46363">
        <ele>54</ele>
        <time>2022-04-03T11:19:56Z</time>
      </trkpt>
      <trkpt lat="47.233" lon="-1.46352">
        <ele>54</ele>
        <time>2022-04-03T11:19:58Z</time>
      </trkpt>
      <trkpt lat="47.23307" lon="-1.46339">
        <ele>54</ele>
        <time>2022-04-03T11:20:00Z</time>
      </trkpt>
      <trkpt lat="47.23314" lon="-1.46329">
        <ele>54</ele>
        <time>2022-04-03T11:20:02Z</time>
      </trkpt>
      <trkpt lat="47.23322" lon="-1.46319">
        <ele>54</ele>
        <time>2022-04-03T11:20:04Z</time>
      </trkpt>
      <trkpt lat="47.23329" lon="-1.46309">
        <ele>53</ele>
        <time>2022-04-03T11:20:06Z</time>
      </trkpt>
      <trkpt lat="47.23337" lon="-1.46299">
        <ele>54</ele>
        <time>2022-04-03T11:20:08Z</time>
      </trkpt>
      <trkpt lat="47.23345" lon="-1.46289">
        <ele>54</ele>
        <time>2022-04-03T11:20:10Z</time>
      </trkpt>
      <trkpt lat="47.23353" lon="-1.46279">
        <ele>54</ele>
        <time>2022-04-03T11:20:12Z</time>
      </trkpt>
      <trkpt lat="47.2336" lon="-1.46269">
        <ele>54</ele>
        <time>2022-04-03T11:20:14Z</time>
      </trkpt>
      <trkpt lat="47.23368" lon="-1.46259">
        <ele>54</ele>
        <time>2022-04-03T11:20:16Z</time>
      </trkpt>
      <trkpt lat="47.23376" lon="-1.46249">
        <ele>54</ele>
        <time>2022-04-03T11:20:18Z</time>
      </trkpt>
      <trkpt lat="47.23384" lon="-1.46239">
        <ele>54</ele>
        <time>2022-04-03T11:20:20Z</time>
      </trkpt>
      <trkpt lat="47.23391" lon="-1.46229">
        <ele>54</ele>
        <time>2022-04-03T11:20:22Z</time>
      </trkpt>
      <trkpt lat="47.23399" lon="-1.46218">
        <ele>54</ele>
        <time>2022-04-03T11:20:24Z</time>
      </trkpt>
      <trkpt lat="47.23407" lon="-1.46209">
        <ele>54</ele>
        <time>2022-04-03T11:20:26Z</time>
      </trkpt>
      <trkpt lat="47.23414" lon="-1.462">
        <ele>54</ele>
        <time>2022-04-03T11:20:28Z</time>
      </trkpt>
      <trkpt lat="47.23423" lon="-1.46191">
        <ele>54</ele>
        <time>2022-04-03T11:20:30Z</time>
      </trkpt>
      <trkpt lat="47.23431" lon="-1.46182">
        <ele>54</ele>
        <time>2022-04-03T11:20:32Z</time>
      </trkpt>
      <trkpt lat="47.23439" lon="-1.46173">
        <ele>54</ele>
        <time>2022-04-03T11:20:34Z</time>
      </trkpt>
      <trkpt lat="47.23447" lon="-1.46165">
        <ele>54</ele>
        <time>2022-04-03T11:20:36Z</time>
      </trkpt>
      <trkpt lat="47.23456" lon="-1.46157">
        <ele>54</ele>
        <time>2022-04-03T11:20:38Z</time>
      </trkpt>
      <trkpt lat="47.23465" lon="-1.46149">
        <ele>54</ele>
        <time>2022-04-03T11:20:40Z</time>
      </trkpt>
      <trkpt lat="47.23473" lon="-1.46141">
        <ele>54</ele>
        <time>2022-04-03T11:20:42Z</time>
      </trkpt>
      <trkpt lat="47.23482" lon="-1.46132">
        <ele>53</ele>
        <time>2022-04-03T11:20:44Z</time>
      </trkpt>
      <trkpt lat="47.2349" lon="-1.46124">
        <ele>53</ele>
        <time>2022-04-03T11:20:46Z</time>
      </trkpt>
      <trkpt lat="47.23501" lon="-1.46112">
        <ele>55</ele>
        <time>2022-04-03T11:20:49Z</time>
      </trkpt>
      <trkpt lat="47.23512" lon="-1.46101">
        <ele>55</ele>
        <time>2022-04-03T11:20:52Z</time>
      </trkpt>
      <trkpt lat="47.23519" lon="-1.46093">
        <ele>56</ele>
        <time>2022-04-03T11:20:54Z</time>
      </trkpt>
      <trkpt lat="47.23528" lon="-1.46085">
        <ele>56</ele>
        <time>2022-04-03T11:20:56Z</time>
      </trkpt>
      <trkpt lat="47.23537" lon="-1.46077">
        <ele>56</ele>
        <time>2022-04-03T11:20:58Z</time>
      </trkpt>
      <trkpt lat="47.23546" lon="-1.46069">
        <ele>56</ele>
        <time>2022-04-03T11:21:00Z</time>
      </trkpt>
      <trkpt lat="47.23555" lon="-1.46061">
        <ele>55</ele>
        <time>2022-04-03T11:21:02Z</time>
      </trkpt>
      <trkpt lat="47.23565" lon="-1.46057">
        <ele>55</ele>
        <time>2022-04-03T11:21:04Z</time>
      </trkpt>
      <trkpt lat="47.23577" lon="-1.46054">
        <ele>54</ele>
        <time>2022-04-03T11:21:06Z</time>
      </trkpt>
      <trkpt lat="47.23588" lon="-1.46043">
        <ele>53</ele>
        <time>2022-04-03T11:21:08Z</time>
      </trkpt>
      <trkpt lat="47.23599" lon="-1.46033">
        <ele>53</ele>
        <time>2022-04-03T11:21:10Z</time>
      </trkpt>
      <trkpt lat="47.23609" lon="-1.46024">
        <ele>53</ele>
        <time>2022-04-03T11:21:12Z</time>
      </trkpt>
      <trkpt lat="47.23619" lon="-1.46018">
        <ele>53</ele>
        <time>2022-04-03T11:21:14Z</time>
      </trkpt>
      <trkpt lat="47.2363" lon="-1.46013">
        <ele>53</ele>
        <time>2022-04-03T11:21:16Z</time>
      </trkpt>
      <trkpt lat="47.23641" lon="-1.46009">
        <ele>53</ele>
        <time>2022-04-03T11:21:18Z</time>
      </trkpt>
      <trkpt lat="47.23652" lon="-1.46006">
        <ele>53</ele>
        <time>2022-04-03T11:21:20Z</time>
      </trkpt>
      <trkpt lat="47.23663" lon="-1.46004">
        <ele>53</ele>
        <time>2022-04-03T11:21:22Z</time>
      </trkpt>
      <trkpt lat="47.23673" lon="-1.46002">
        <ele>53</ele>
        <time>2022-04-03T11:21:24Z</time>
      </trkpt>
      <trkpt lat="47.23684" lon="-1.45999">
        <ele>54</ele>
        <time>2022-04-03T11:21:26Z</time>
      </trkpt>
      <trkpt lat="47.23694" lon="-1.45996">
        <ele>54</ele>
        <time>2022-04-03T11:21:28Z</time>
      </trkpt>
      <trkpt lat="47.23705" lon="-1.45994">
        <ele>54</ele>
        <time>2022-04-03T11:21:30Z</time>
      </trkpt>
      <trkpt lat="47.23715" lon="-1.45991">
        <ele>54</ele>
        <time>2022-04-03T11:21:32Z</time>
      </trkpt>
      <trkpt lat="47.23725" lon="-1.45989">
        <ele>54</ele>
        <time>2022-04-03T11:21:34Z</time>
      </trkpt>
      <trkpt lat="47.23735" lon="-1.45986">
        <ele>54</ele>
        <time>2022-04-03T11:21:36Z</time>
      </trkpt>
      <trkpt lat="47.23746" lon="-1.45983">
        <ele>54</ele>
        <time>2022-04-03T11:21:38Z</time>
      </trkpt>
      <trkpt lat="47.23756" lon="-1.45981">
        <ele>54</ele>
        <time>2022-04-03T11:21:40Z</time>
      </trkpt>
      <trkpt lat="47.23766" lon="-1.45977">
        <ele>54</ele>
        <time>2022-04-03T11:21:42Z</time>
      </trkpt>
      <trkpt lat="47.23775" lon="-1.45973">
        <ele>55</ele>
        <time>2022-04-03T11:21:44Z</time>
      </trkpt>
      <trkpt lat="47.23785" lon="-1.4597">
        <ele>55</ele>
        <time>2022-04-03T11:21:46Z</time>
      </trkpt>
      <trkpt lat="47.23795" lon="-1.45967">
        <ele>55</ele>
        <time>2022-04-03T11:21:48Z</time>
      </trkpt>
      <trkpt lat="47.23805" lon="-1.45962">
        <ele>55</ele>
        <time>2022-04-03T11:21:50Z</time>
      </trkpt>
      <trkpt lat="47.23815" lon="-1.45958">
        <ele>54</ele>
        <time>2022-04-03T11:21:52Z</time>
      </trkpt>
      <trkpt lat="47.23825" lon="-1.45955">
        <ele>54</ele>
        <time>2022-04-03T11:21:54Z</time>
      </trkpt>
      <trkpt lat="47.23835" lon="-1.45953">
        <ele>55</ele>
        <time>2022-04-03T11:21:56Z</time>
      </trkpt>
      <trkpt lat="47.23845" lon="-1.45951">
        <ele>55</ele>
        <time>2022-04-03T11:21:58Z</time>
      </trkpt>
      <trkpt lat="47.2386" lon="-1.45947">
        <ele>55</ele>
        <time>2022-04-03T11:22:01Z</time>
      </trkpt>
      <trkpt lat="47.23876" lon="-1.45943">
        <ele>55</ele>
        <time>2022-04-03T11:22:04Z</time>
      </trkpt>
      <trkpt lat="47.23886" lon="-1.45941">
        <ele>55</ele>
        <time>2022-04-03T11:22:06Z</time>
      </trkpt>
      <trkpt lat="47.23896" lon="-1.45938">
        <ele>54</ele>
        <time>2022-04-03T11:22:08Z</time>
      </trkpt>
      <trkpt lat="47.23906" lon="-1.45936">
        <ele>55</ele>
        <time>2022-04-03T11:22:10Z</time>
      </trkpt>
      <trkpt lat="47.23915" lon="-1.45933">
        <ele>54</ele>
        <time>2022-04-03T11:22:12Z</time>
      </trkpt>
      <trkpt lat="47.23925" lon="-1.4593">
        <ele>55</ele>
        <time>2022-04-03T11:22:14Z</time>
      </trkpt>
      <trkpt lat="47.23936" lon="-1.45927">
        <ele>55</ele>
        <time>2022-04-03T11:22:16Z</time>
      </trkpt>
      <trkpt lat="47.23946" lon="-1.45922">
        <ele>55</ele>
        <time>2022-04-03T11:22:18Z</time>
      </trkpt>
      <trkpt lat="47.23955" lon="-1.45915">
        <ele>54</ele>
        <time>2022-04-03T11:22:20Z</time>
      </trkpt>
      <trkpt lat="47.23963" lon="-1.45905">
        <ele>54</ele>
        <time>2022-04-03T11:22:22Z</time>
      </trkpt>
      <trkpt lat="47.2397" lon="-1.45893">
        <ele>54</ele>
        <time>2022-04-03T11:22:24Z</time>
      </trkpt>
      <trkpt lat="47.23978" lon="-1.45882">
        <ele>54</ele>
        <time>2022-04-03T11:22:26Z</time>
      </trkpt>
      <trkpt lat="47.23985" lon="-1.4587">
        <ele>54</ele>
        <time>2022-04-03T11:22:28Z</time>
      </trkpt>
      <trkpt lat="47.23992" lon="-1.45858">
        <ele>54</ele>
        <time>2022-04-03T11:22:30Z</time>
      </trkpt>
      <trkpt lat="47.24" lon="-1.45846">
        <ele>54</ele>
        <time>2022-04-03T11:22:32Z</time>
      </trkpt>
      <trkpt lat="47.24007" lon="-1.45835">
        <ele>54</ele>
        <time>2022-04-03T11:22:34Z</time>
      </trkpt>
      <trkpt lat="47.24015" lon="-1.45823">
        <ele>53</ele>
        <time>2022-04-03T11:22:36Z</time>
      </trkpt>
      <trkpt lat="47.24023" lon="-1.45811">
        <ele>53</ele>
        <time>2022-04-03T11:22:38Z</time>
      </trkpt>
      <trkpt lat="47.2403" lon="-1.458">
        <ele>53</ele>
        <time>2022-04-03T11:22:40Z</time>
      </trkpt>
      <trkpt lat="47.24037" lon="-1.45789">
        <ele>53</ele>
        <time>2022-04-03T11:22:42Z</time>
      </trkpt>
      <trkpt lat="47.24044" lon="-1.45778">
        <ele>53</ele>
        <time>2022-04-03T11:22:44Z</time>
      </trkpt>
      <trkpt lat="47.24051" lon="-1.45767">
        <ele>53</ele>
        <time>2022-04-03T11:22:46Z</time>
      </trkpt>
      <trkpt lat="47.24057" lon="-1.45756">
        <ele>53</ele>
        <time>2022-04-03T11:22:48Z</time>
      </trkpt>
      <trkpt lat="47.24064" lon="-1.45745">
        <ele>53</ele>
        <time>2022-04-03T11:22:50Z</time>
      </trkpt>
      <trkpt lat="47.24071" lon="-1.45734">
        <ele>53</ele>
        <time>2022-04-03T11:22:52Z</time>
      </trkpt>
      <trkpt lat="47.24078" lon="-1.45723">
        <ele>53</ele>
        <time>2022-04-03T11:22:54Z</time>
      </trkpt>
      <trkpt lat="47.24085" lon="-1.45712">
        <ele>54</ele>
        <time>2022-04-03T11:22:56Z</time>
      </trkpt>
      <trkpt lat="47.24091" lon="-1.45701">
        <ele>53</ele>
        <time>2022-04-03T11:22:58Z</time>
      </trkpt>
      <trkpt lat="47.24098" lon="-1.4569">
        <ele>53</ele>
        <time>2022-04-03T11:23:00Z</time>
      </trkpt>
      <trkpt lat="47.24105" lon="-1.45678">
        <ele>53</ele>
        <time>2022-04-03T11:23:02Z</time>
      </trkpt>
      <trkpt lat="47.24111" lon="-1.45666">
        <ele>53</ele>
        <time>2022-04-03T11:23:04Z</time>
      </trkpt>
      <trkpt lat="47.24117" lon="-1.45654">
        <ele>53</ele>
        <time>2022-04-03T11:23:06Z</time>
      </trkpt>
      <trkpt lat="47.24122" lon="-1.45641">
        <ele>53</ele>
        <time>2022-04-03T11:23:08Z</time>
      </trkpt>
      <trkpt lat="47.24127" lon="-1.45628">
        <ele>53</ele>
        <time>2022-04-03T11:23:10Z</time>
      </trkpt>
      <trkpt lat="47.24133" lon="-1.45614">
        <ele>53</ele>
        <time>2022-04-03T11:23:12Z</time>
      </trkpt>
      <trkpt lat="47.24138" lon="-1.456">
        <ele>53</ele>
        <time>2022-04-03T11:23:14Z</time>
      </trkpt>
      <trkpt lat="47.24143" lon="-1.45586">
        <ele>53</ele>
        <time>2022-04-03T11:23:16Z</time>
      </trkpt>
      <trkpt lat="47.24147" lon="-1.45572">
        <ele>53</ele>
        <time>2022-04-03T11:23:18Z</time>
      </trkpt>
      <trkpt lat="47.24151" lon="-1.45558">
        <ele>53</ele>
        <time>2022-04-03T11:23:20Z</time>
      </trkpt>
      <trkpt lat="47.24156" lon="-1.45544">
        <ele>53</ele>
        <time>2022-04-03T11:23:22Z</time>
      </trkpt>
      <trkpt lat="47.2416" lon="-1.4553">
        <ele>53</ele>
        <time>2022-04-03T11:23:24Z</time>
      </trkpt>
      <trkpt lat="47.24165" lon="-1.45516">
        <ele>53</ele>
        <time>2022-04-03T11:23:26Z</time>
      </trkpt>
      <trkpt lat="47.24169" lon="-1.45501">
        <ele>53</ele>
        <time>2022-04-03T11:23:28Z</time>
      </trkpt>
      <trkpt lat="47.24173" lon="-1.45488">
        <ele>54</ele>
        <time>2022-04-03T11:23:30Z</time>
      </trkpt>
      <trkpt lat="47.24176" lon="-1.45474">
        <ele>55</ele>
        <time>2022-04-03T11:23:32Z</time>
      </trkpt>
      <trkpt lat="47.24181" lon="-1.45457">
        <ele>55</ele>
        <time>2022-04-03T11:23:35Z</time>
      </trkpt>
      <trkpt lat="47.24185" lon="-1.45444">
        <ele>55</ele>
        <time>2022-04-03T11:23:37Z</time>
      </trkpt>
      <trkpt lat="47.2419" lon="-1.4543">
        <ele>55</ele>
        <time>2022-04-03T11:23:39Z</time>
      </trkpt>
      <trkpt lat="47.24196" lon="-1.45415">
        <ele>54</ele>
        <time>2022-04-03T11:23:41Z</time>
      </trkpt>
      <trkpt lat="47.24201" lon="-1.454">
        <ele>54</ele>
        <time>2022-04-03T11:23:43Z</time>
      </trkpt>
      <trkpt lat="47.24206" lon="-1.45385">
        <ele>54</ele>
        <time>2022-04-03T11:23:45Z</time>
      </trkpt>
      <trkpt lat="47.2421" lon="-1.45371">
        <ele>55</ele>
        <time>2022-04-03T11:23:47Z</time>
      </trkpt>
      <trkpt lat="47.24214" lon="-1.45357">
        <ele>55</ele>
        <time>2022-04-03T11:23:49Z</time>
      </trkpt>
      <trkpt lat="47.24219" lon="-1.45342">
        <ele>55</ele>
        <time>2022-04-03T11:23:51Z</time>
      </trkpt>
      <trkpt lat="47.24224" lon="-1.45327">
        <ele>55</ele>
        <time>2022-04-03T11:23:53Z</time>
      </trkpt>
      <trkpt lat="47.24229" lon="-1.45313">
        <ele>55</ele>
        <time>2022-04-03T11:23:55Z</time>
      </trkpt>
      <trkpt lat="47.24233" lon="-1.45299">
        <ele>56</ele>
        <time>2022-04-03T11:23:57Z</time>
      </trkpt>
      <trkpt lat="47.24238" lon="-1.45285">
        <ele>56</ele>
        <time>2022-04-03T11:23:59Z</time>
      </trkpt>
      <trkpt lat="47.24243" lon="-1.45271">
        <ele>56</ele>
        <time>2022-04-03T11:24:01Z</time>
      </trkpt>
      <trkpt lat="47.24251" lon="-1.4526">
        <ele>56</ele>
        <time>2022-04-03T11:24:03Z</time>
      </trkpt>
      <trkpt lat="47.24256" lon="-1.45246">
        <ele>55</ele>
        <time>2022-04-03T11:24:05Z</time>
      </trkpt>
      <trkpt lat="47.2426" lon="-1.45229">
        <ele>55</ele>
        <time>2022-04-03T11:24:07Z</time>
      </trkpt>
      <trkpt lat="47.24261" lon="-1.45211">
        <ele>55</ele>
        <time>2022-04-03T11:24:09Z</time>
      </trkpt>
      <trkpt lat="47.24262" lon="-1.45194">
        <ele>55</ele>
        <time>2022-04-03T11:24:11Z</time>
      </trkpt>
      <trkpt lat="47.24264" lon="-1.45177">
        <ele>55</ele>
        <time>2022-04-03T11:24:13Z</time>
      </trkpt>
      <trkpt lat="47.24265" lon="-1.4516">
        <ele>55</ele>
        <time>2022-04-03T11:24:15Z</time>
      </trkpt>
      <trkpt lat="47.24267" lon="-1.45143">
        <ele>54</ele>
        <time>2022-04-03T11:24:17Z</time>
      </trkpt>
      <trkpt lat="47.24268" lon="-1.45127">
        <ele>55</ele>
        <time>2022-04-03T11:24:19Z</time>
      </trkpt>
      <trkpt lat="47.2427" lon="-1.45111">
        <ele>55</ele>
        <time>2022-04-03T11:24:21Z</time>
      </trkpt>
      <trkpt lat="47.24271" lon="-1.45095">
        <ele>55</ele>
        <time>2022-04-03T11:24:23Z</time>
      </trkpt>
      <trkpt lat="47.24272" lon="-1.45079">
        <ele>55</ele>
        <time>2022-04-03T11:24:25Z</time>
      </trkpt>
      <trkpt lat="47.24273" lon="-1.45064">
        <ele>55</ele>
        <time>2022-04-03T11:24:27Z</time>
      </trkpt>
      <trkpt lat="47.24274" lon="-1.45048">
        <ele>55</ele>
        <time>2022-04-03T11:24:29Z</time>
      </trkpt>
      <trkpt lat="47.24276" lon="-1.45032">
        <ele>54</ele>
        <time>2022-04-03T11:24:31Z</time>
      </trkpt>
      <trkpt lat="47.24278" lon="-1.45016">
        <ele>54</ele>
        <time>2022-04-03T11:24:33Z</time>
      </trkpt>
      <trkpt lat="47.24279" lon="-1.44999">
        <ele>54</ele>
        <time>2022-04-03T11:24:35Z</time>
      </trkpt>
      <trkpt lat="47.2428" lon="-1.44983">
        <ele>54</ele>
        <time>2022-04-03T11:24:37Z</time>
      </trkpt>
      <trkpt lat="47.24282" lon="-1.44966">
        <ele>54</ele>
        <time>2022-04-03T11:24:39Z</time>
      </trkpt>
      <trkpt lat="47.24283" lon="-1.4495">
        <ele>54</ele>
        <time>2022-04-03T11:24:41Z</time>
      </trkpt>
      <trkpt lat="47.24284" lon="-1.44934">
        <ele>54</ele>
        <time>2022-04-03T11:24:43Z</time>
      </trkpt>
      <trkpt lat="47.24285" lon="-1.44918">
        <ele>54</ele>
        <time>2022-04-03T11:24:45Z</time>
      </trkpt>
      <trkpt lat="47.24286" lon="-1.44902">
        <ele>54</ele>
        <time>2022-04-03T11:24:47Z</time>
      </trkpt>
      <trkpt lat="47.24287" lon="-1.44887">
        <ele>54</ele>
        <time>2022-04-03T11:24:49Z</time>
      </trkpt>
      <trkpt lat="47.24289" lon="-1.44872">
        <ele>54</ele>
        <time>2022-04-03T11:24:51Z</time>
      </trkpt>
      <trkpt lat="47.2429" lon="-1.44856">
        <ele>54</ele>
        <time>2022-04-03T11:24:53Z</time>
      </trkpt>
      <trkpt lat="47.24291" lon="-1.44839">
        <ele>54</ele>
        <time>2022-04-03T11:24:55Z</time>
      </trkpt>
      <trkpt lat="47.24292" lon="-1.44822">
        <ele>54</ele>
        <time>2022-04-03T11:24:57Z</time>
      </trkpt>
      <trkpt lat="47.24293" lon="-1.44805">
        <ele>54</ele>
        <time>2022-04-03T11:24:59Z</time>
      </trkpt>
      <trkpt lat="47.24295" lon="-1.44789">
        <ele>54</ele>
        <time>2022-04-03T11:25:01Z</time>
      </trkpt>
      <trkpt lat="47.24296" lon="-1.44772">
        <ele>54</ele>
        <time>2022-04-03T11:25:03Z</time>
      </trkpt>
      <trkpt lat="47.24297" lon="-1.44756">
        <ele>54</ele>
        <time>2022-04-03T11:25:05Z</time>
      </trkpt>
      <trkpt lat="47.24299" lon="-1.4474">
        <ele>53</ele>
        <time>2022-04-03T11:25:07Z</time>
      </trkpt>
      <trkpt lat="47.243" lon="-1.44725">
        <ele>53</ele>
        <time>2022-04-03T11:25:09Z</time>
      </trkpt>
      <trkpt lat="47.24301" lon="-1.4471">
        <ele>54</ele>
        <time>2022-04-03T11:25:11Z</time>
      </trkpt>
      <trkpt lat="47.24303" lon="-1.44695">
        <ele>54</ele>
        <time>2022-04-03T11:25:13Z</time>
      </trkpt>
      <trkpt lat="47.24304" lon="-1.4468">
        <ele>53</ele>
        <time>2022-04-03T11:25:15Z</time>
      </trkpt>
      <trkpt lat="47.24305" lon="-1.44664">
        <ele>54</ele>
        <time>2022-04-03T11:25:17Z</time>
      </trkpt>
      <trkpt lat="47.24306" lon="-1.44649">
        <ele>53</ele>
        <time>2022-04-03T11:25:19Z</time>
      </trkpt>
      <trkpt lat="47.24309" lon="-1.44634">
        <ele>53</ele>
        <time>2022-04-03T11:25:21Z</time>
      </trkpt>
      <trkpt lat="47.24311" lon="-1.44619">
        <ele>53</ele>
        <time>2022-04-03T11:25:23Z</time>
      </trkpt>
      <trkpt lat="47.24313" lon="-1.44604">
        <ele>53</ele>
        <time>2022-04-03T11:25:25Z</time>
      </trkpt>
      <trkpt lat="47.24314" lon="-1.44589">
        <ele>53</ele>
        <time>2022-04-03T11:25:27Z</time>
      </trkpt>
      <trkpt lat="47.24314" lon="-1.44573">
        <ele>53</ele>
        <time>2022-04-03T11:25:29Z</time>
      </trkpt>
      <trkpt lat="47.24314" lon="-1.44557">
        <ele>53</ele>
        <time>2022-04-03T11:25:31Z</time>
      </trkpt>
      <trkpt lat="47.24315" lon="-1.44541">
        <ele>53</ele>
        <time>2022-04-03T11:25:33Z</time>
      </trkpt>
      <trkpt lat="47.24316" lon="-1.44525">
        <ele>53</ele>
        <time>2022-04-03T11:25:35Z</time>
      </trkpt>
      <trkpt lat="47.24317" lon="-1.44509">
        <ele>53</ele>
        <time>2022-04-03T11:25:37Z</time>
      </trkpt>
      <trkpt lat="47.24319" lon="-1.44494">
        <ele>53</ele>
        <time>2022-04-03T11:25:39Z</time>
      </trkpt>
      <trkpt lat="47.2432" lon="-1.44478">
        <ele>52</ele>
        <time>2022-04-03T11:25:41Z</time>
      </trkpt>
      <trkpt lat="47.24322" lon="-1.44462">
        <ele>52</ele>
        <time>2022-04-03T11:25:43Z</time>
      </trkpt>
      <trkpt lat="47.24324" lon="-1.44446">
        <ele>52</ele>
        <time>2022-04-03T11:25:45Z</time>
      </trkpt>
      <trkpt lat="47.24325" lon="-1.44431">
        <ele>53</ele>
        <time>2022-04-03T11:25:47Z</time>
      </trkpt>
      <trkpt lat="47.24326" lon="-1.44415">
        <ele>53</ele>
        <time>2022-04-03T11:25:49Z</time>
      </trkpt>
      <trkpt lat="47.24326" lon="-1.44398">
        <ele>53</ele>
        <time>2022-04-03T11:25:51Z</time>
      </trkpt>
      <trkpt lat="47.24327" lon="-1.44382">
        <ele>53</ele>
        <time>2022-04-03T11:25:53Z</time>
      </trkpt>
      <trkpt lat="47.24328" lon="-1.44366">
        <ele>53</ele>
        <time>2022-04-03T11:25:55Z</time>
      </trkpt>
      <trkpt lat="47.24329" lon="-1.44349">
        <ele>53</ele>
        <time>2022-04-03T11:25:57Z</time>
      </trkpt>
      <trkpt lat="47.2433" lon="-1.44332">
        <ele>53</ele>
        <time>2022-04-03T11:25:59Z</time>
      </trkpt>
      <trkpt lat="47.24332" lon="-1.44316">
        <ele>53</ele>
        <time>2022-04-03T11:26:01Z</time>
      </trkpt>
      <trkpt lat="47.24336" lon="-1.443">
        <ele>53</ele>
        <time>2022-04-03T11:26:03Z</time>
      </trkpt>
      <trkpt lat="47.24339" lon="-1.44285">
        <ele>53</ele>
        <time>2022-04-03T11:26:05Z</time>
      </trkpt>
      <trkpt lat="47.24339" lon="-1.4427">
        <ele>53</ele>
        <time>2022-04-03T11:26:07Z</time>
      </trkpt>
      <trkpt lat="47.24339" lon="-1.44254">
        <ele>53</ele>
        <time>2022-04-03T11:26:09Z</time>
      </trkpt>
      <trkpt lat="47.24338" lon="-1.44238">
        <ele>54</ele>
        <time>2022-04-03T11:26:11Z</time>
      </trkpt>
      <trkpt lat="47.24339" lon="-1.44223">
        <ele>54</ele>
        <time>2022-04-03T11:26:13Z</time>
      </trkpt>
      <trkpt lat="47.24341" lon="-1.44207">
        <ele>53</ele>
        <time>2022-04-03T11:26:15Z</time>
      </trkpt>
      <trkpt lat="47.24344" lon="-1.44192">
        <ele>54</ele>
        <time>2022-04-03T11:26:17Z</time>
      </trkpt>
      <trkpt lat="47.24349" lon="-1.44178">
        <ele>54</ele>
        <time>2022-04-03T11:26:19Z</time>
      </trkpt>
      <trkpt lat="47.24353" lon="-1.44163">
        <ele>54</ele>
        <time>2022-04-03T11:26:21Z</time>
      </trkpt>
      <trkpt lat="47.24359" lon="-1.44149">
        <ele>54</ele>
        <time>2022-04-03T11:26:23Z</time>
      </trkpt>
      <trkpt lat="47.24365" lon="-1.44135">
        <ele>54</ele>
        <time>2022-04-03T11:26:25Z</time>
      </trkpt>
      <trkpt lat="47.24371" lon="-1.44123">
        <ele>53</ele>
        <time>2022-04-03T11:26:27Z</time>
      </trkpt>
      <trkpt lat="47.24378" lon="-1.4411">
        <ele>53</ele>
        <time>2022-04-03T11:26:29Z</time>
      </trkpt>
      <trkpt lat="47.24385" lon="-1.44097">
        <ele>53</ele>
        <time>2022-04-03T11:26:31Z</time>
      </trkpt>
      <trkpt lat="47.24392" lon="-1.44084">
        <ele>53</ele>
        <time>2022-04-03T11:26:33Z</time>
      </trkpt>
      <trkpt lat="47.24399" lon="-1.44072">
        <ele>53</ele>
        <time>2022-04-03T11:26:35Z</time>
      </trkpt>
      <trkpt lat="47.24405" lon="-1.44058">
        <ele>53</ele>
        <time>2022-04-03T11:26:37Z</time>
      </trkpt>
      <trkpt lat="47.24411" lon="-1.44044">
        <ele>53</ele>
        <time>2022-04-03T11:26:39Z</time>
      </trkpt>
      <trkpt lat="47.24418" lon="-1.44031">
        <ele>53</ele>
        <time>2022-04-03T11:26:41Z</time>
      </trkpt>
      <trkpt lat="47.24424" lon="-1.44018">
        <ele>53</ele>
        <time>2022-04-03T11:26:43Z</time>
      </trkpt>
      <trkpt lat="47.24432" lon="-1.44005">
        <ele>53</ele>
        <time>2022-04-03T11:26:45Z</time>
      </trkpt>
      <trkpt lat="47.2444" lon="-1.43994">
        <ele>53</ele>
        <time>2022-04-03T11:26:47Z</time>
      </trkpt>
      <trkpt lat="47.24447" lon="-1.43983">
        <ele>53</ele>
        <time>2022-04-03T11:26:49Z</time>
      </trkpt>
      <trkpt lat="47.24452" lon="-1.4397">
        <ele>53</ele>
        <time>2022-04-03T11:26:51Z</time>
      </trkpt>
      <trkpt lat="47.24457" lon="-1.43956">
        <ele>53</ele>
        <time>2022-04-03T11:26:53Z</time>
      </trkpt>
      <trkpt lat="47.24462" lon="-1.43942">
        <ele>53</ele>
        <time>2022-04-03T11:26:55Z</time>
      </trkpt>
      <trkpt lat="47.24467" lon="-1.43928">
        <ele>53</ele>
        <time>2022-04-03T11:26:57Z</time>
      </trkpt>
      <trkpt lat="47.24474" lon="-1.43914">
        <ele>53</ele>
        <time>2022-04-03T11:26:59Z</time>
      </trkpt>
      <trkpt lat="47.24479" lon="-1.43899">
        <ele>53</ele>
        <time>2022-04-03T11:27:01Z</time>
      </trkpt>
      <trkpt lat="47.24484" lon="-1.43885">
        <ele>53</ele>
        <time>2022-04-03T11:27:03Z</time>
      </trkpt>
      <trkpt lat="47.24489" lon="-1.4387">
        <ele>53</ele>
        <time>2022-04-03T11:27:05Z</time>
      </trkpt>
      <trkpt lat="47.24494" lon="-1.43856">
        <ele>53</ele>
        <time>2022-04-03T11:27:07Z</time>
      </trkpt>
      <trkpt lat="47.24498" lon="-1.43842">
        <ele>53</ele>
        <time>2022-04-03T11:27:09Z</time>
      </trkpt>
      <trkpt lat="47.24502" lon="-1.43828">
        <ele>53</ele>
        <time>2022-04-03T11:27:11Z</time>
      </trkpt>
      <trkpt lat="47.24507" lon="-1.43813">
        <ele>53</ele>
        <time>2022-04-03T11:27:13Z</time>
      </trkpt>
      <trkpt lat="47.24511" lon="-1.43798">
        <ele>53</ele>
        <time>2022-04-03T11:27:15Z</time>
      </trkpt>
      <trkpt lat="47.24515" lon="-1.43783">
        <ele>53</ele>
        <time>2022-04-03T11:27:17Z</time>
      </trkpt>
      <trkpt lat="47.2452" lon="-1.43769">
        <ele>53</ele>
        <time>2022-04-03T11:27:19Z</time>
      </trkpt>
      <trkpt lat="47.24524" lon="-1.43755">
        <ele>53</ele>
        <time>2022-04-03T11:27:21Z</time>
      </trkpt>
      <trkpt lat="47.24529" lon="-1.4374">
        <ele>53</ele>
        <time>2022-04-03T11:27:23Z</time>
      </trkpt>
      <trkpt lat="47.24534" lon="-1.43726">
        <ele>53</ele>
        <time>2022-04-03T11:27:25Z</time>
      </trkpt>
      <trkpt lat="47.24541" lon="-1.43714">
        <ele>53</ele>
        <time>2022-04-03T11:27:27Z</time>
      </trkpt>
      <trkpt lat="47.24549" lon="-1.43703">
        <ele>53</ele>
        <time>2022-04-03T11:27:29Z</time>
      </trkpt>
      <trkpt lat="47.24558" lon="-1.43696">
        <ele>52</ele>
        <time>2022-04-03T11:27:31Z</time>
      </trkpt>
      <trkpt lat="47.24567" lon="-1.43687">
        <ele>52</ele>
        <time>2022-04-03T11:27:33Z</time>
      </trkpt>
      <trkpt lat="47.24575" lon="-1.43678">
        <ele>52</ele>
        <time>2022-04-03T11:27:35Z</time>
      </trkpt>
      <trkpt lat="47.24584" lon="-1.43668">
        <ele>52</ele>
        <time>2022-04-03T11:27:37Z</time>
      </trkpt>
      <trkpt lat="47.24591" lon="-1.43657">
        <ele>51</ele>
        <time>2022-04-03T11:27:39Z</time>
      </trkpt>
      <trkpt lat="47.24599" lon="-1.43645">
        <ele>52</ele>
        <time>2022-04-03T11:27:41Z</time>
      </trkpt>
      <trkpt lat="47.24608" lon="-1.43635">
        <ele>52</ele>
        <time>2022-04-03T11:27:43Z</time>
      </trkpt>
      <trkpt lat="47.24617" lon="-1.43627">
        <ele>52</ele>
        <time>2022-04-03T11:27:45Z</time>
      </trkpt>
      <trkpt lat="47.24627" lon="-1.43619">
        <ele>52</ele>
        <time>2022-04-03T11:27:47Z</time>
      </trkpt>
      <trkpt lat="47.24636" lon="-1.43612">
        <ele>52</ele>
        <time>2022-04-03T11:27:49Z</time>
      </trkpt>
      <trkpt lat="47.24645" lon="-1.43604">
        <ele>52</ele>
        <time>2022-04-03T11:27:51Z</time>
      </trkpt>
      <trkpt lat="47.24654" lon="-1.43594">
        <ele>51</ele>
        <time>2022-04-03T11:27:53Z</time>
      </trkpt>
      <trkpt lat="47.24663" lon="-1.43586">
        <ele>51</ele>
        <time>2022-04-03T11:27:55Z</time>
      </trkpt>
      <trkpt lat="47.24671" lon="-1.43578">
        <ele>51</ele>
        <time>2022-04-03T11:27:57Z</time>
      </trkpt>
      <trkpt lat="47.24679" lon="-1.43571">
        <ele>51</ele>
        <time>2022-04-03T11:27:59Z</time>
      </trkpt>
      <trkpt lat="47.24687" lon="-1.4356">
        <ele>51</ele>
        <time>2022-04-03T11:28:01Z</time>
      </trkpt>
      <trkpt lat="47.24692" lon="-1.43546">
        <ele>51</ele>
        <time>2022-04-03T11:28:03Z</time>
      </trkpt>
      <trkpt lat="47.24697" lon="-1.43531">
        <ele>51</ele>
        <time>2022-04-03T11:28:05Z</time>
      </trkpt>
      <trkpt lat="47.24701" lon="-1.43517">
        <ele>51</ele>
        <time>2022-04-03T11:28:07Z</time>
      </trkpt>
      <trkpt lat="47.24704" lon="-1.43503">
        <ele>52</ele>
        <time>2022-04-03T11:28:09Z</time>
      </trkpt>
      <trkpt lat="47.2471" lon="-1.43491">
        <ele>52</ele>
        <time>2022-04-03T11:28:11Z</time>
      </trkpt>
      <trkpt lat="47.24714" lon="-1.43478">
        <ele>52</ele>
        <time>2022-04-03T11:28:13Z</time>
      </trkpt>
      <trkpt lat="47.24721" lon="-1.43466">
        <ele>52</ele>
        <time>2022-04-03T11:28:15Z</time>
      </trkpt>
      <trkpt lat="47.24727" lon="-1.43454">
        <ele>52</ele>
        <time>2022-04-03T11:28:17Z</time>
      </trkpt>
      <trkpt lat="47.24734" lon="-1.43442">
        <ele>52</ele>
        <time>2022-04-03T11:28:19Z</time>
      </trkpt>
      <trkpt lat="47.24741" lon="-1.43431">
        <ele>52</ele>
        <time>2022-04-03T11:28:21Z</time>
      </trkpt>
      <trkpt lat="47.24748" lon="-1.4342">
        <ele>53</ele>
        <time>2022-04-03T11:28:23Z</time>
      </trkpt>
      <trkpt lat="47.24756" lon="-1.4341">
        <ele>53</ele>
        <time>2022-04-03T11:28:25Z</time>
      </trkpt>
      <trkpt lat="47.24764" lon="-1.434">
        <ele>52</ele>
        <time>2022-04-03T11:28:27Z</time>
      </trkpt>
      <trkpt lat="47.24771" lon="-1.43391">
        <ele>53</ele>
        <time>2022-04-03T11:28:29Z</time>
      </trkpt>
      <trkpt lat="47.24779" lon="-1.43382">
        <ele>53</ele>
        <time>2022-04-03T11:28:31Z</time>
      </trkpt>
      <trkpt lat="47.24787" lon="-1.43374">
        <ele>54</ele>
        <time>2022-04-03T11:28:33Z</time>
      </trkpt>
      <trkpt lat="47.24797" lon="-1.43364">
        <ele>54</ele>
        <time>2022-04-03T11:28:36Z</time>
      </trkpt>
      <trkpt lat="47.24809" lon="-1.43355">
        <ele>54</ele>
        <time>2022-04-03T11:28:39Z</time>
      </trkpt>
      <trkpt lat="47.24818" lon="-1.43349">
        <ele>54</ele>
        <time>2022-04-03T11:28:41Z</time>
      </trkpt>
      <trkpt lat="47.24827" lon="-1.43343">
        <ele>55</ele>
        <time>2022-04-03T11:28:43Z</time>
      </trkpt>
      <trkpt lat="47.24836" lon="-1.43336">
        <ele>55</ele>
        <time>2022-04-03T11:28:45Z</time>
      </trkpt>
      <trkpt lat="47.24844" lon="-1.43331">
        <ele>55</ele>
        <time>2022-04-03T11:28:47Z</time>
      </trkpt>
      <trkpt lat="47.24853" lon="-1.43325">
        <ele>55</ele>
        <time>2022-04-03T11:28:49Z</time>
      </trkpt>
      <trkpt lat="47.24862" lon="-1.43319">
        <ele>55</ele>
        <time>2022-04-03T11:28:51Z</time>
      </trkpt>
      <trkpt lat="47.24871" lon="-1.43313">
        <ele>55</ele>
        <time>2022-04-03T11:28:53Z</time>
      </trkpt>
      <trkpt lat="47.2488" lon="-1.43307">
        <ele>55</ele>
        <time>2022-04-03T11:28:55Z</time>
      </trkpt>
      <trkpt lat="47.24889" lon="-1.43301">
        <ele>55</ele>
        <time>2022-04-03T11:28:57Z</time>
      </trkpt>
      <trkpt lat="47.24898" lon="-1.43294">
        <ele>55</ele>
        <time>2022-04-03T11:28:59Z</time>
      </trkpt>
      <trkpt lat="47.24907" lon="-1.43288">
        <ele>55</ele>
        <time>2022-04-03T11:29:01Z</time>
      </trkpt>
      <trkpt lat="47.24917" lon="-1.43282">
        <ele>54</ele>
        <time>2022-04-03T11:29:03Z</time>
      </trkpt>
      <trkpt lat="47.24927" lon="-1.43275">
        <ele>53</ele>
        <time>2022-04-03T11:29:05Z</time>
      </trkpt>
      <trkpt lat="47.24938" lon="-1.43268">
        <ele>53</ele>
        <time>2022-04-03T11:29:07Z</time>
      </trkpt>
      <trkpt lat="47.24948" lon="-1.43261">
        <ele>52</ele>
        <time>2022-04-03T11:29:09Z</time>
      </trkpt>
      <trkpt lat="47.24959" lon="-1.43254">
        <ele>52</ele>
        <time>2022-04-03T11:29:11Z</time>
      </trkpt>
      <trkpt lat="47.2497" lon="-1.43249">
        <ele>52</ele>
        <time>2022-04-03T11:29:13Z</time>
      </trkpt>
      <trkpt lat="47.24979" lon="-1.43243">
        <ele>52</ele>
        <time>2022-04-03T11:29:15Z</time>
      </trkpt>
      <trkpt lat="47.24989" lon="-1.43237">
        <ele>52</ele>
        <time>2022-04-03T11:29:17Z</time>
      </trkpt>
      <trkpt lat="47.24998" lon="-1.4323">
        <ele>52</ele>
        <time>2022-04-03T11:29:19Z</time>
      </trkpt>
      <trkpt lat="47.25007" lon="-1.43223">
        <ele>52</ele>
        <time>2022-04-03T11:29:21Z</time>
      </trkpt>
      <trkpt lat="47.25016" lon="-1.43216">
        <ele>52</ele>
        <time>2022-04-03T11:29:23Z</time>
      </trkpt>
      <trkpt lat="47.25024" lon="-1.43208">
        <ele>52</ele>
        <time>2022-04-03T11:29:25Z</time>
      </trkpt>
      <trkpt lat="47.25032" lon="-1.43202">
        <ele>52</ele>
        <time>2022-04-03T11:29:27Z</time>
      </trkpt>
      <trkpt lat="47.25041" lon="-1.43194">
        <ele>52</ele>
        <time>2022-04-03T11:29:29Z</time>
      </trkpt>
      <trkpt lat="47.25049" lon="-1.43186">
        <ele>52</ele>
        <time>2022-04-03T11:29:31Z</time>
      </trkpt>
      <trkpt lat="47.25057" lon="-1.43178">
        <ele>52</ele>
        <time>2022-04-03T11:29:33Z</time>
      </trkpt>
      <trkpt lat="47.25065" lon="-1.43169">
        <ele>52</ele>
        <time>2022-04-03T11:29:35Z</time>
      </trkpt>
      <trkpt lat="47.25072" lon="-1.4316">
        <ele>52</ele>
        <time>2022-04-03T11:29:37Z</time>
      </trkpt>
      <trkpt lat="47.25079" lon="-1.43151">
        <ele>52</ele>
        <time>2022-04-03T11:29:39Z</time>
      </trkpt>
      <trkpt lat="47.25087" lon="-1.43142">
        <ele>52</ele>
        <time>2022-04-03T11:29:41Z</time>
      </trkpt>
      <trkpt lat="47.25095" lon="-1.43132">
        <ele>52</ele>
        <time>2022-04-03T11:29:43Z</time>
      </trkpt>
      <trkpt lat="47.25102" lon="-1.43123">
        <ele>52</ele>
        <time>2022-04-03T11:29:45Z</time>
      </trkpt>
      <trkpt lat="47.2511" lon="-1.43113">
        <ele>52</ele>
        <time>2022-04-03T11:29:47Z</time>
      </trkpt>
      <trkpt lat="47.25117" lon="-1.43104">
        <ele>52</ele>
        <time>2022-04-03T11:29:49Z</time>
      </trkpt>
      <trkpt lat="47.25125" lon="-1.43093">
        <ele>52</ele>
        <time>2022-04-03T11:29:51Z</time>
      </trkpt>
      <trkpt lat="47.25133" lon="-1.43084">
        <ele>52</ele>
        <time>2022-04-03T11:29:53Z</time>
      </trkpt>
      <trkpt lat="47.25141" lon="-1.43074">
        <ele>52</ele>
        <time>2022-04-03T11:29:55Z</time>
      </trkpt>
      <trkpt lat="47.25148" lon="-1.43065">
        <ele>52</ele>
        <time>2022-04-03T11:29:57Z</time>
      </trkpt>
      <trkpt lat="47.25155" lon="-1.43056">
        <ele>52</ele>
        <time>2022-04-03T11:29:59Z</time>
      </trkpt>
      <trkpt lat="47.25164" lon="-1.43049">
        <ele>52</ele>
        <time>2022-04-03T11:30:01Z</time>
      </trkpt>
      <trkpt lat="47.25173" lon="-1.43039">
        <ele>52</ele>
        <time>2022-04-03T11:30:03Z</time>
      </trkpt>
      <trkpt lat="47.25181" lon="-1.43029">
        <ele>52</ele>
        <time>2022-04-03T11:30:05Z</time>
      </trkpt>
      <trkpt lat="47.25189" lon="-1.43019">
        <ele>52</ele>
        <time>2022-04-03T11:30:07Z</time>
      </trkpt>
      <trkpt lat="47.25196" lon="-1.43009">
        <ele>52</ele>
        <time>2022-04-03T11:30:09Z</time>
      </trkpt>
      <trkpt lat="47.25205" lon="-1.42999">
        <ele>52</ele>
        <time>2022-04-03T11:30:11Z</time>
      </trkpt>
      <trkpt lat="47.25213" lon="-1.42991">
        <ele>52</ele>
        <time>2022-04-03T11:30:13Z</time>
      </trkpt>
      <trkpt lat="47.25222" lon="-1.42983">
        <ele>52</ele>
        <time>2022-04-03T11:30:15Z</time>
      </trkpt>
      <trkpt lat="47.25232" lon="-1.42976">
        <ele>53</ele>
        <time>2022-04-03T11:30:17Z</time>
      </trkpt>
      <trkpt lat="47.25241" lon="-1.4297">
        <ele>53</ele>
        <time>2022-04-03T11:30:19Z</time>
      </trkpt>
      <trkpt lat="47.25251" lon="-1.42965">
        <ele>52</ele>
        <time>2022-04-03T11:30:21Z</time>
      </trkpt>
      <trkpt lat="47.2526" lon="-1.4296">
        <ele>52</ele>
        <time>2022-04-03T11:30:23Z</time>
      </trkpt>
      <trkpt lat="47.25269" lon="-1.42955">
        <ele>52</ele>
        <time>2022-04-03T11:30:25Z</time>
      </trkpt>
      <trkpt lat="47.25278" lon="-1.42949">
        <ele>52</ele>
        <time>2022-04-03T11:30:27Z</time>
      </trkpt>
      <trkpt lat="47.25287" lon="-1.42944">
        <ele>52</ele>
        <time>2022-04-03T11:30:29Z</time>
      </trkpt>
      <trkpt lat="47.25296" lon="-1.42938">
        <ele>52</ele>
        <time>2022-04-03T11:30:31Z</time>
      </trkpt>
      <trkpt lat="47.25306" lon="-1.42933">
        <ele>52</ele>
        <time>2022-04-03T11:30:33Z</time>
      </trkpt>
      <trkpt lat="47.25315" lon="-1.42928">
        <ele>51</ele>
        <time>2022-04-03T11:30:35Z</time>
      </trkpt>
      <trkpt lat="47.25323" lon="-1.42923">
        <ele>51</ele>
        <time>2022-04-03T11:30:37Z</time>
      </trkpt>
      <trkpt lat="47.25332" lon="-1.42917">
        <ele>52</ele>
        <time>2022-04-03T11:30:39Z</time>
      </trkpt>
      <trkpt lat="47.2534" lon="-1.42912">
        <ele>52</ele>
        <time>2022-04-03T11:30:41Z</time>
      </trkpt>
      <trkpt lat="47.2535" lon="-1.42907">
        <ele>52</ele>
        <time>2022-04-03T11:30:43Z</time>
      </trkpt>
      <trkpt lat="47.25359" lon="-1.42903">
        <ele>52</ele>
        <time>2022-04-03T11:30:45Z</time>
      </trkpt>
      <trkpt lat="47.25369" lon="-1.42897">
        <ele>52</ele>
        <time>2022-04-03T11:30:47Z</time>
      </trkpt>
      <trkpt lat="47.25378" lon="-1.4289">
        <ele>52</ele>
        <time>2022-04-03T11:30:49Z</time>
      </trkpt>
      <trkpt lat="47.25387" lon="-1.42884">
        <ele>53</ele>
        <time>2022-04-03T11:30:51Z</time>
      </trkpt>
      <trkpt lat="47.25396" lon="-1.42878">
        <ele>53</ele>
        <time>2022-04-03T11:30:53Z</time>
      </trkpt>
      <trkpt lat="47.25405" lon="-1.42872">
        <ele>53</ele>
        <time>2022-04-03T11:30:55Z</time>
      </trkpt>
      <trkpt lat="47.25414" lon="-1.42866">
        <ele>53</ele>
        <time>2022-04-03T11:30:57Z</time>
      </trkpt>
      <trkpt lat="47.25423" lon="-1.4286">
        <ele>53</ele>
        <time>2022-04-03T11:30:59Z</time>
      </trkpt>
      <trkpt lat="47.25432" lon="-1.42855">
        <ele>53</ele>
        <time>2022-04-03T11:31:01Z</time>
      </trkpt>
      <trkpt lat="47.25441" lon="-1.42849">
        <ele>53</ele>
        <time>2022-04-03T11:31:03Z</time>
      </trkpt>
      <trkpt lat="47.2545" lon="-1.42843">
        <ele>53</ele>
        <time>2022-04-03T11:31:05Z</time>
      </trkpt>
      <trkpt lat="47.25458" lon="-1.42837">
        <ele>53</ele>
        <time>2022-04-03T11:31:07Z</time>
      </trkpt>
      <trkpt lat="47.25467" lon="-1.42829">
        <ele>53</ele>
        <time>2022-04-03T11:31:09Z</time>
      </trkpt>
      <trkpt lat="47.25476" lon="-1.42823">
        <ele>53</ele>
        <time>2022-04-03T11:31:11Z</time>
      </trkpt>
      <trkpt lat="47.25485" lon="-1.42816">
        <ele>53</ele>
        <time>2022-04-03T11:31:13Z</time>
      </trkpt>
      <trkpt lat="47.25494" lon="-1.42809">
        <ele>53</ele>
        <time>2022-04-03T11:31:15Z</time>
      </trkpt>
      <trkpt lat="47.25503" lon="-1.42802">
        <ele>53</ele>
        <time>2022-04-03T11:31:17Z</time>
      </trkpt>
      <trkpt lat="47.25512" lon="-1.42794">
        <ele>53</ele>
        <time>2022-04-03T11:31:19Z</time>
      </trkpt>
      <trkpt lat="47.25521" lon="-1.42786">
        <ele>54</ele>
        <time>2022-04-03T11:31:21Z</time>
      </trkpt>
      <trkpt lat="47.2553" lon="-1.42779">
        <ele>54</ele>
        <time>2022-04-03T11:31:23Z</time>
      </trkpt>
      <trkpt lat="47.25539" lon="-1.42772">
        <ele>54</ele>
        <time>2022-04-03T11:31:25Z</time>
      </trkpt>
      <trkpt lat="47.25548" lon="-1.42764">
        <ele>54</ele>
        <time>2022-04-03T11:31:27Z</time>
      </trkpt>
      <trkpt lat="47.25557" lon="-1.42757">
        <ele>54</ele>
        <time>2022-04-03T11:31:29Z</time>
      </trkpt>
      <trkpt lat="47.25566" lon="-1.42749">
        <ele>54</ele>
        <time>2022-04-03T11:31:31Z</time>
      </trkpt>
      <trkpt lat="47.25575" lon="-1.42741">
        <ele>54</ele>
        <time>2022-04-03T11:31:33Z</time>
      </trkpt>
      <trkpt lat="47.25585" lon="-1.42734">
        <ele>54</ele>
        <time>2022-04-03T11:31:35Z</time>
      </trkpt>
      <trkpt lat="47.25593" lon="-1.42726">
        <ele>55</ele>
        <time>2022-04-03T11:31:37Z</time>
      </trkpt>
      <trkpt lat="47.25602" lon="-1.42718">
        <ele>55</ele>
        <time>2022-04-03T11:31:39Z</time>
      </trkpt>
      <trkpt lat="47.25611" lon="-1.42711">
        <ele>54</ele>
        <time>2022-04-03T11:31:41Z</time>
      </trkpt>
      <trkpt lat="47.25621" lon="-1.42703">
        <ele>54</ele>
        <time>2022-04-03T11:31:43Z</time>
      </trkpt>
      <trkpt lat="47.25635" lon="-1.42692">
        <ele>54</ele>
        <time>2022-04-03T11:31:46Z</time>
      </trkpt>
      <trkpt lat="47.25645" lon="-1.42685">
        <ele>54</ele>
        <time>2022-04-03T11:31:48Z</time>
      </trkpt>
      <trkpt lat="47.25654" lon="-1.42678">
        <ele>54</ele>
        <time>2022-04-03T11:31:50Z</time>
      </trkpt>
      <trkpt lat="47.25661" lon="-1.42669">
        <ele>55</ele>
        <time>2022-04-03T11:31:52Z</time>
      </trkpt>
      <trkpt lat="47.2567" lon="-1.42659">
        <ele>56</ele>
        <time>2022-04-03T11:31:55Z</time>
      </trkpt>
      <trkpt lat="47.2568" lon="-1.42651">
        <ele>57</ele>
        <time>2022-04-03T11:31:58Z</time>
      </trkpt>
      <trkpt lat="47.25692" lon="-1.42644">
        <ele>57</ele>
        <time>2022-04-03T11:32:01Z</time>
      </trkpt>
      <trkpt lat="47.25703" lon="-1.42643">
        <ele>56</ele>
        <time>2022-04-03T11:32:03Z</time>
      </trkpt>
      <trkpt lat="47.25721" lon="-1.42644">
        <ele>56</ele>
        <time>2022-04-03T11:32:06Z</time>
      </trkpt>
      <trkpt lat="47.25734" lon="-1.42643">
        <ele>55</ele>
        <time>2022-04-03T11:32:08Z</time>
      </trkpt>
      <trkpt lat="47.25743" lon="-1.42635">
        <ele>55</ele>
        <time>2022-04-03T11:32:10Z</time>
      </trkpt>
      <trkpt lat="47.25749" lon="-1.42622">
        <ele>55</ele>
        <time>2022-04-03T11:32:12Z</time>
      </trkpt>
      <trkpt lat="47.25755" lon="-1.42609">
        <ele>55</ele>
        <time>2022-04-03T11:32:14Z</time>
      </trkpt>
      <trkpt lat="47.25765" lon="-1.42591">
        <ele>55</ele>
        <time>2022-04-03T11:32:17Z</time>
      </trkpt>
      <trkpt lat="47.25779" lon="-1.42575">
        <ele>55</ele>
        <time>2022-04-03T11:32:20Z</time>
      </trkpt>
      <trkpt lat="47.25789" lon="-1.42567">
        <ele>55</ele>
        <time>2022-04-03T11:32:22Z</time>
      </trkpt>
      <trkpt lat="47.25798" lon="-1.42559">
        <ele>55</ele>
        <time>2022-04-03T11:32:24Z</time>
      </trkpt>
      <trkpt lat="47.25807" lon="-1.42551">
        <ele>54</ele>
        <time>2022-04-03T11:32:26Z</time>
      </trkpt>
      <trkpt lat="47.25817" lon="-1.42544">
        <ele>54</ele>
        <time>2022-04-03T11:32:28Z</time>
      </trkpt>
      <trkpt lat="47.25826" lon="-1.42536">
        <ele>54</ele>
        <time>2022-04-03T11:32:30Z</time>
      </trkpt>
      <trkpt lat="47.25835" lon="-1.42529">
        <ele>54</ele>
        <time>2022-04-03T11:32:32Z</time>
      </trkpt>
      <trkpt lat="47.25844" lon="-1.42522">
        <ele>54</ele>
        <time>2022-04-03T11:32:34Z</time>
      </trkpt>
      <trkpt lat="47.25853" lon="-1.42515">
        <ele>54</ele>
        <time>2022-04-03T11:32:36Z</time>
      </trkpt>
      <trkpt lat="47.25862" lon="-1.42508">
        <ele>54</ele>
        <time>2022-04-03T11:32:38Z</time>
      </trkpt>
      <trkpt lat="47.25872" lon="-1.42501">
        <ele>54</ele>
        <time>2022-04-03T11:32:40Z</time>
      </trkpt>
      <trkpt lat="47.25882" lon="-1.42494">
        <ele>54</ele>
        <time>2022-04-03T11:32:42Z</time>
      </trkpt>
      <trkpt lat="47.25891" lon="-1.42487">
        <ele>54</ele>
        <time>2022-04-03T11:32:44Z</time>
      </trkpt>
      <trkpt lat="47.25899" lon="-1.42479">
        <ele>54</ele>
        <time>2022-04-03T11:32:46Z</time>
      </trkpt>
      <trkpt lat="47.25906" lon="-1.4247">
        <ele>54</ele>
        <time>2022-04-03T11:32:48Z</time>
      </trkpt>
      <trkpt lat="47.25913" lon="-1.42459">
        <ele>54</ele>
        <time>2022-04-03T11:32:50Z</time>
      </trkpt>
      <trkpt lat="47.25921" lon="-1.42449">
        <ele>54</ele>
        <time>2022-04-03T11:32:52Z</time>
      </trkpt>
      <trkpt lat="47.25929" lon="-1.4244">
        <ele>54</ele>
        <time>2022-04-03T11:32:54Z</time>
      </trkpt>
      <trkpt lat="47.25936" lon="-1.4243">
        <ele>54</ele>
        <time>2022-04-03T11:32:56Z</time>
      </trkpt>
      <trkpt lat="47.25944" lon="-1.4242">
        <ele>54</ele>
        <time>2022-04-03T11:32:58Z</time>
      </trkpt>
      <trkpt lat="47.25951" lon="-1.4241">
        <ele>54</ele>
        <time>2022-04-03T11:33:00Z</time>
      </trkpt>
      <trkpt lat="47.25959" lon="-1.424">
        <ele>54</ele>
        <time>2022-04-03T11:33:02Z</time>
      </trkpt>
      <trkpt lat="47.25967" lon="-1.42391">
        <ele>54</ele>
        <time>2022-04-03T11:33:04Z</time>
      </trkpt>
      <trkpt lat="47.25975" lon="-1.42381">
        <ele>54</ele>
        <time>2022-04-03T11:33:06Z</time>
      </trkpt>
      <trkpt lat="47.25983" lon="-1.42372">
        <ele>53</ele>
        <time>2022-04-03T11:33:08Z</time>
      </trkpt>
      <trkpt lat="47.25992" lon="-1.42362">
        <ele>53</ele>
        <time>2022-04-03T11:33:10Z</time>
      </trkpt>
      <trkpt lat="47.26" lon="-1.42354">
        <ele>54</ele>
        <time>2022-04-03T11:33:12Z</time>
      </trkpt>
      <trkpt lat="47.26007" lon="-1.42343">
        <ele>54</ele>
        <time>2022-04-03T11:33:14Z</time>
      </trkpt>
      <trkpt lat="47.26014" lon="-1.42332">
        <ele>54</ele>
        <time>2022-04-03T11:33:16Z</time>
      </trkpt>
      <trkpt lat="47.26021" lon="-1.42321">
        <ele>54</ele>
        <time>2022-04-03T11:33:18Z</time>
      </trkpt>
      <trkpt lat="47.26029" lon="-1.42311">
        <ele>54</ele>
        <time>2022-04-03T11:33:20Z</time>
      </trkpt>
      <trkpt lat="47.26037" lon="-1.42301">
        <ele>53</ele>
        <time>2022-04-03T11:33:22Z</time>
      </trkpt>
      <trkpt lat="47.26045" lon="-1.4229">
        <ele>54</ele>
        <time>2022-04-03T11:33:24Z</time>
      </trkpt>
      <trkpt lat="47.26054" lon="-1.4228">
        <ele>54</ele>
        <time>2022-04-03T11:33:26Z</time>
      </trkpt>
      <trkpt lat="47.26062" lon="-1.42269">
        <ele>54</ele>
        <time>2022-04-03T11:33:28Z</time>
      </trkpt>
      <trkpt lat="47.26069" lon="-1.42259">
        <ele>53</ele>
        <time>2022-04-03T11:33:30Z</time>
      </trkpt>
      <trkpt lat="47.26077" lon="-1.42249">
        <ele>53</ele>
        <time>2022-04-03T11:33:32Z</time>
      </trkpt>
      <trkpt lat="47.26085" lon="-1.42239">
        <ele>54</ele>
        <time>2022-04-03T11:33:34Z</time>
      </trkpt>
      <trkpt lat="47.26092" lon="-1.42229">
        <ele>54</ele>
        <time>2022-04-03T11:33:36Z</time>
      </trkpt>
      <trkpt lat="47.26099" lon="-1.42221">
        <ele>54</ele>
        <time>2022-04-03T11:33:38Z</time>
      </trkpt>
      <trkpt lat="47.26106" lon="-1.42211">
        <ele>54</ele>
        <time>2022-04-03T11:33:40Z</time>
      </trkpt>
      <trkpt lat="47.26114" lon="-1.42201">
        <ele>54</ele>
        <time>2022-04-03T11:33:42Z</time>
      </trkpt>
      <trkpt lat="47.26122" lon="-1.42191">
        <ele>54</ele>
        <time>2022-04-03T11:33:44Z</time>
      </trkpt>
      <trkpt lat="47.26129" lon="-1.42182">
        <ele>54</ele>
        <time>2022-04-03T11:33:46Z</time>
      </trkpt>
      <trkpt lat="47.26136" lon="-1.42171">
        <ele>54</ele>
        <time>2022-04-03T11:33:48Z</time>
      </trkpt>
      <trkpt lat="47.26142" lon="-1.4216">
        <ele>54</ele>
        <time>2022-04-03T11:33:50Z</time>
      </trkpt>
      <trkpt lat="47.26147" lon="-1.42149">
        <ele>55</ele>
        <time>2022-04-03T11:33:52Z</time>
      </trkpt>
      <trkpt lat="47.26154" lon="-1.42133">
        <ele>56</ele>
        <time>2022-04-03T11:33:55Z</time>
      </trkpt>
      <trkpt lat="47.26162" lon="-1.42122">
        <ele>56</ele>
        <time>2022-04-03T11:33:58Z</time>
      </trkpt>
      <trkpt lat="47.26171" lon="-1.42106">
        <ele>55</ele>
        <time>2022-04-03T11:34:01Z</time>
      </trkpt>
      <trkpt lat="47.26178" lon="-1.42094">
        <ele>55</ele>
        <time>2022-04-03T11:34:03Z</time>
      </trkpt>
      <trkpt lat="47.26186" lon="-1.42083">
        <ele>55</ele>
        <time>2022-04-03T11:34:05Z</time>
      </trkpt>
      <trkpt lat="47.26194" lon="-1.42074">
        <ele>55</ele>
        <time>2022-04-03T11:34:07Z</time>
      </trkpt>
      <trkpt lat="47.26203" lon="-1.42071">
        <ele>55</ele>
        <time>2022-04-03T11:34:09Z</time>
      </trkpt>
      <trkpt lat="47.2621" lon="-1.42059">
        <ele>54</ele>
        <time>2022-04-03T11:34:11Z</time>
      </trkpt>
      <trkpt lat="47.26216" lon="-1.42044">
        <ele>54</ele>
        <time>2022-04-03T11:34:13Z</time>
      </trkpt>
      <trkpt lat="47.26221" lon="-1.42031">
        <ele>54</ele>
        <time>2022-04-03T11:34:15Z</time>
      </trkpt>
      <trkpt lat="47.26226" lon="-1.42019">
        <ele>54</ele>
        <time>2022-04-03T11:34:17Z</time>
      </trkpt>
      <trkpt lat="47.26232" lon="-1.42008">
        <ele>54</ele>
        <time>2022-04-03T11:34:19Z</time>
      </trkpt>
      <trkpt lat="47.26238" lon="-1.41996">
        <ele>54</ele>
        <time>2022-04-03T11:34:21Z</time>
      </trkpt>
      <trkpt lat="47.26245" lon="-1.41985">
        <ele>54</ele>
        <time>2022-04-03T11:34:23Z</time>
      </trkpt>
      <trkpt lat="47.26251" lon="-1.41973">
        <ele>54</ele>
        <time>2022-04-03T11:34:25Z</time>
      </trkpt>
      <trkpt lat="47.26258" lon="-1.41962">
        <ele>54</ele>
        <time>2022-04-03T11:34:27Z</time>
      </trkpt>
      <trkpt lat="47.26265" lon="-1.41951">
        <ele>53</ele>
        <time>2022-04-03T11:34:29Z</time>
      </trkpt>
      <trkpt lat="47.26272" lon="-1.4194">
        <ele>54</ele>
        <time>2022-04-03T11:34:31Z</time>
      </trkpt>
      <trkpt lat="47.26278" lon="-1.41928">
        <ele>54</ele>
        <time>2022-04-03T11:34:33Z</time>
      </trkpt>
      <trkpt lat="47.26285" lon="-1.41916">
        <ele>54</ele>
        <time>2022-04-03T11:34:35Z</time>
      </trkpt>
      <trkpt lat="47.26292" lon="-1.41905">
        <ele>53</ele>
        <time>2022-04-03T11:34:37Z</time>
      </trkpt>
      <trkpt lat="47.26299" lon="-1.41893">
        <ele>53</ele>
        <time>2022-04-03T11:34:39Z</time>
      </trkpt>
      <trkpt lat="47.26305" lon="-1.41882">
        <ele>53</ele>
        <time>2022-04-03T11:34:41Z</time>
      </trkpt>
      <trkpt lat="47.26312" lon="-1.41871">
        <ele>53</ele>
        <time>2022-04-03T11:34:43Z</time>
      </trkpt>
      <trkpt lat="47.26318" lon="-1.41859">
        <ele>53</ele>
        <time>2022-04-03T11:34:45Z</time>
      </trkpt>
      <trkpt lat="47.26325" lon="-1.41848">
        <ele>53</ele>
        <time>2022-04-03T11:34:47Z</time>
      </trkpt>
      <trkpt lat="47.26331" lon="-1.41837">
        <ele>53</ele>
        <time>2022-04-03T11:34:49Z</time>
      </trkpt>
      <trkpt lat="47.26337" lon="-1.41826">
        <ele>53</ele>
        <time>2022-04-03T11:34:51Z</time>
      </trkpt>
      <trkpt lat="47.26343" lon="-1.41815">
        <ele>53</ele>
        <time>2022-04-03T11:34:53Z</time>
      </trkpt>
      <trkpt lat="47.2635" lon="-1.41804">
        <ele>53</ele>
        <time>2022-04-03T11:34:55Z</time>
      </trkpt>
      <trkpt lat="47.26357" lon="-1.41792">
        <ele>53</ele>
        <time>2022-04-03T11:34:57Z</time>
      </trkpt>
      <trkpt lat="47.26363" lon="-1.4178">
        <ele>53</ele>
        <time>2022-04-03T11:34:59Z</time>
      </trkpt>
      <trkpt lat="47.2637" lon="-1.41769">
        <ele>54</ele>
        <time>2022-04-03T11:35:01Z</time>
      </trkpt>
      <trkpt lat="47.26376" lon="-1.41758">
        <ele>53</ele>
        <time>2022-04-03T11:35:03Z</time>
      </trkpt>
      <trkpt lat="47.26382" lon="-1.41748">
        <ele>53</ele>
        <time>2022-04-03T11:35:05Z</time>
      </trkpt>
      <trkpt lat="47.26389" lon="-1.41736">
        <ele>53</ele>
        <time>2022-04-03T11:35:07Z</time>
      </trkpt>
      <trkpt lat="47.26395" lon="-1.41726">
        <ele>53</ele>
        <time>2022-04-03T11:35:09Z</time>
      </trkpt>
      <trkpt lat="47.26402" lon="-1.41715">
        <ele>53</ele>
        <time>2022-04-03T11:35:11Z</time>
      </trkpt>
      <trkpt lat="47.26408" lon="-1.41705">
        <ele>53</ele>
        <time>2022-04-03T11:35:13Z</time>
      </trkpt>
      <trkpt lat="47.26415" lon="-1.41694">
        <ele>53</ele>
        <time>2022-04-03T11:35:15Z</time>
      </trkpt>
      <trkpt lat="47.26421" lon="-1.41684">
        <ele>53</ele>
        <time>2022-04-03T11:35:17Z</time>
      </trkpt>
      <trkpt lat="47.26429" lon="-1.41669">
        <ele>53</ele>
        <time>2022-04-03T11:35:20Z</time>
      </trkpt>
      <trkpt lat="47.26438" lon="-1.41654">
        <ele>53</ele>
        <time>2022-04-03T11:35:23Z</time>
      </trkpt>
      <trkpt lat="47.26446" lon="-1.41638">
        <ele>53</ele>
        <time>2022-04-03T11:35:26Z</time>
      </trkpt>
      <trkpt lat="47.26452" lon="-1.41628">
        <ele>53</ele>
        <time>2022-04-03T11:35:28Z</time>
      </trkpt>
      <trkpt lat="47.26458" lon="-1.41618">
        <ele>54</ele>
        <time>2022-04-03T11:35:30Z</time>
      </trkpt>
      <trkpt lat="47.26465" lon="-1.41608">
        <ele>53</ele>
        <time>2022-04-03T11:35:32Z</time>
      </trkpt>
      <trkpt lat="47.26471" lon="-1.41597">
        <ele>53</ele>
        <time>2022-04-03T11:35:34Z</time>
      </trkpt>
      <trkpt lat="47.26477" lon="-1.41586">
        <ele>53</ele>
        <time>2022-04-03T11:35:36Z</time>
      </trkpt>
      <trkpt lat="47.26483" lon="-1.41575">
        <ele>53</ele>
        <time>2022-04-03T11:35:38Z</time>
      </trkpt>
      <trkpt lat="47.26489" lon="-1.41564">
        <ele>53</ele>
        <time>2022-04-03T11:35:40Z</time>
      </trkpt>
      <trkpt lat="47.26496" lon="-1.41554">
        <ele>53</ele>
        <time>2022-04-03T11:35:42Z</time>
      </trkpt>
      <trkpt lat="47.26502" lon="-1.41543">
        <ele>53</ele>
        <time>2022-04-03T11:35:44Z</time>
      </trkpt>
      <trkpt lat="47.26508" lon="-1.41532">
        <ele>53</ele>
        <time>2022-04-03T11:35:46Z</time>
      </trkpt>
      <trkpt lat="47.26515" lon="-1.41521">
        <ele>53</ele>
        <time>2022-04-03T11:35:48Z</time>
      </trkpt>
      <trkpt lat="47.26521" lon="-1.4151">
        <ele>53</ele>
        <time>2022-04-03T11:35:50Z</time>
      </trkpt>
      <trkpt lat="47.26528" lon="-1.41499">
        <ele>53</ele>
        <time>2022-04-03T11:35:52Z</time>
      </trkpt>
      <trkpt lat="47.26534" lon="-1.41488">
        <ele>53</ele>
        <time>2022-04-03T11:35:54Z</time>
      </trkpt>
      <trkpt lat="47.26541" lon="-1.41478">
        <ele>53</ele>
        <time>2022-04-03T11:35:56Z</time>
      </trkpt>
      <trkpt lat="47.26548" lon="-1.41469">
        <ele>53</ele>
        <time>2022-04-03T11:35:58Z</time>
      </trkpt>
      <trkpt lat="47.26554" lon="-1.41458">
        <ele>53</ele>
        <time>2022-04-03T11:36:00Z</time>
      </trkpt>
      <trkpt lat="47.26561" lon="-1.41447">
        <ele>53</ele>
        <time>2022-04-03T11:36:02Z</time>
      </trkpt>
      <trkpt lat="47.26566" lon="-1.41434">
        <ele>53</ele>
        <time>2022-04-03T11:36:04Z</time>
      </trkpt>
      <trkpt lat="47.26571" lon="-1.41423">
        <ele>53</ele>
        <time>2022-04-03T11:36:06Z</time>
      </trkpt>
      <trkpt lat="47.26577" lon="-1.41411">
        <ele>53</ele>
        <time>2022-04-03T11:36:08Z</time>
      </trkpt>
      <trkpt lat="47.26583" lon="-1.41394">
        <ele>53</ele>
        <time>2022-04-03T11:36:11Z</time>
      </trkpt>
      <trkpt lat="47.26588" lon="-1.41382">
        <ele>53</ele>
        <time>2022-04-03T11:36:13Z</time>
      </trkpt>
      <trkpt lat="47.26593" lon="-1.4137">
        <ele>54</ele>
        <time>2022-04-03T11:36:15Z</time>
      </trkpt>
      <trkpt lat="47.266" lon="-1.41353">
        <ele>54</ele>
        <time>2022-04-03T11:36:18Z</time>
      </trkpt>
      <trkpt lat="47.26605" lon="-1.41341">
        <ele>53</ele>
        <time>2022-04-03T11:36:20Z</time>
      </trkpt>
      <trkpt lat="47.2661" lon="-1.41329">
        <ele>53</ele>
        <time>2022-04-03T11:36:22Z</time>
      </trkpt>
      <trkpt lat="47.26616" lon="-1.41318">
        <ele>54</ele>
        <time>2022-04-03T11:36:24Z</time>
      </trkpt>
      <trkpt lat="47.26622" lon="-1.41308">
        <ele>54</ele>
        <time>2022-04-03T11:36:26Z</time>
      </trkpt>
      <trkpt lat="47.26629" lon="-1.41298">
        <ele>54</ele>
        <time>2022-04-03T11:36:28Z</time>
      </trkpt>
      <trkpt lat="47.26636" lon="-1.41288">
        <ele>54</ele>
        <time>2022-04-03T11:36:30Z</time>
      </trkpt>
      <trkpt lat="47.26643" lon="-1.41279">
        <ele>54</ele>
        <time>2022-04-03T11:36:32Z</time>
      </trkpt>
      <trkpt lat="47.26652" lon="-1.41265">
        <ele>53</ele>
        <time>2022-04-03T11:36:35Z</time>
      </trkpt>
      <trkpt lat="47.26658" lon="-1.41254">
        <ele>54</ele>
        <time>2022-04-03T11:36:37Z</time>
      </trkpt>
      <trkpt lat="47.26664" lon="-1.41242">
        <ele>54</ele>
        <time>2022-04-03T11:36:39Z</time>
      </trkpt>
      <trkpt lat="47.26671" lon="-1.41233">
        <ele>54</ele>
        <time>2022-04-03T11:36:41Z</time>
      </trkpt>
      <trkpt lat="47.26681" lon="-1.41219">
        <ele>54</ele>
        <time>2022-04-03T11:36:44Z</time>
      </trkpt>
      <trkpt lat="47.26688" lon="-1.4121">
        <ele>54</ele>
        <time>2022-04-03T11:36:46Z</time>
      </trkpt>
      <trkpt lat="47.26696" lon="-1.41202">
        <ele>54</ele>
        <time>2022-04-03T11:36:48Z</time>
      </trkpt>
      <trkpt lat="47.26706" lon="-1.4119">
        <ele>54</ele>
        <time>2022-04-03T11:36:51Z</time>
      </trkpt>
      <trkpt lat="47.26716" lon="-1.41179">
        <ele>53</ele>
        <time>2022-04-03T11:36:54Z</time>
      </trkpt>
      <trkpt lat="47.26723" lon="-1.4117">
        <ele>53</ele>
        <time>2022-04-03T11:36:56Z</time>
      </trkpt>
      <trkpt lat="47.26732" lon="-1.41158">
        <ele>53</ele>
        <time>2022-04-03T11:36:59Z</time>
      </trkpt>
      <trkpt lat="47.26743" lon="-1.41146">
        <ele>53</ele>
        <time>2022-04-03T11:37:02Z</time>
      </trkpt>
      <trkpt lat="47.2675" lon="-1.41138">
        <ele>53</ele>
        <time>2022-04-03T11:37:04Z</time>
      </trkpt>
      <trkpt lat="47.2676" lon="-1.41125">
        <ele>53</ele>
        <time>2022-04-03T11:37:07Z</time>
      </trkpt>
      <trkpt lat="47.26769" lon="-1.4111">
        <ele>53</ele>
        <time>2022-04-03T11:37:10Z</time>
      </trkpt>
      <trkpt lat="47.26773" lon="-1.41097">
        <ele>53</ele>
        <time>2022-04-03T11:37:12Z</time>
      </trkpt>
      <trkpt lat="47.26776" lon="-1.41084">
        <ele>54</ele>
        <time>2022-04-03T11:37:14Z</time>
      </trkpt>
      <trkpt lat="47.2678" lon="-1.41071">
        <ele>54</ele>
        <time>2022-04-03T11:37:16Z</time>
      </trkpt>
      <trkpt lat="47.26785" lon="-1.41059">
        <ele>54</ele>
        <time>2022-04-03T11:37:18Z</time>
      </trkpt>
      <trkpt lat="47.26789" lon="-1.41047">
        <ele>54</ele>
        <time>2022-04-03T11:37:20Z</time>
      </trkpt>
      <trkpt lat="47.26794" lon="-1.41035">
        <ele>54</ele>
        <time>2022-04-03T11:37:22Z</time>
      </trkpt>
      <trkpt lat="47.26799" lon="-1.41024">
        <ele>54</ele>
        <time>2022-04-03T11:37:24Z</time>
      </trkpt>
      <trkpt lat="47.26806" lon="-1.41014">
        <ele>53</ele>
        <time>2022-04-03T11:37:26Z</time>
      </trkpt>
      <trkpt lat="47.26814" lon="-1.41004">
        <ele>53</ele>
        <time>2022-04-03T11:37:28Z</time>
      </trkpt>
      <trkpt lat="47.26821" lon="-1.40995">
        <ele>54</ele>
        <time>2022-04-03T11:37:30Z</time>
      </trkpt>
      <trkpt lat="47.26827" lon="-1.40985">
        <ele>54</ele>
        <time>2022-04-03T11:37:32Z</time>
      </trkpt>
      <trkpt lat="47.26832" lon="-1.40973">
        <ele>55</ele>
        <time>2022-04-03T11:37:34Z</time>
      </trkpt>
      <trkpt lat="47.26836" lon="-1.4096">
        <ele>55</ele>
        <time>2022-04-03T11:37:36Z</time>
      </trkpt>
      <trkpt lat="47.26841" lon="-1.40949">
        <ele>55</ele>
        <time>2022-04-03T11:37:38Z</time>
      </trkpt>
      <trkpt lat="47.26849" lon="-1.40935">
        <ele>56</ele>
        <time>2022-04-03T11:37:41Z</time>
      </trkpt>
      <trkpt lat="47.2686" lon="-1.40923">
        <ele>55</ele>
        <time>2022-04-03T11:37:44Z</time>
      </trkpt>
      <trkpt lat="47.26866" lon="-1.40913">
        <ele>54</ele>
        <time>2022-04-03T11:37:46Z</time>
      </trkpt>
      <trkpt lat="47.26872" lon="-1.409">
        <ele>54</ele>
        <time>2022-04-03T11:37:48Z</time>
      </trkpt>
      <trkpt lat="47.26875" lon="-1.40885">
        <ele>53</ele>
        <time>2022-04-03T11:37:50Z</time>
      </trkpt>
      <trkpt lat="47.26881" lon="-1.40871">
        <ele>53</ele>
        <time>2022-04-03T11:37:52Z</time>
      </trkpt>
      <trkpt lat="47.26889" lon="-1.4086">
        <ele>53</ele>
        <time>2022-04-03T11:37:54Z</time>
      </trkpt>
      <trkpt lat="47.26896" lon="-1.4085">
        <ele>52</ele>
        <time>2022-04-03T11:37:56Z</time>
      </trkpt>
      <trkpt lat="47.26904" lon="-1.40835">
        <ele>53</ele>
        <time>2022-04-03T11:37:59Z</time>
      </trkpt>
      <trkpt lat="47.2691" lon="-1.40824">
        <ele>52</ele>
        <time>2022-04-03T11:38:01Z</time>
      </trkpt>
      <trkpt lat="47.26915" lon="-1.40812">
        <ele>52</ele>
        <time>2022-04-03T11:38:03Z</time>
      </trkpt>
      <trkpt lat="47.26921" lon="-1.40801">
        <ele>53</ele>
        <time>2022-04-03T11:38:05Z</time>
      </trkpt>
      <trkpt lat="47.26926" lon="-1.40789">
        <ele>53</ele>
        <time>2022-04-03T11:38:07Z</time>
      </trkpt>
      <trkpt lat="47.26929" lon="-1.4077">
        <ele>53</ele>
        <time>2022-04-03T11:38:10Z</time>
      </trkpt>
      <trkpt lat="47.2693" lon="-1.40756">
        <ele>53</ele>
        <time>2022-04-03T11:38:12Z</time>
      </trkpt>
      <trkpt lat="47.2693" lon="-1.4074">
        <ele>53</ele>
        <time>2022-04-03T11:38:14Z</time>
      </trkpt>
      <trkpt lat="47.26931" lon="-1.40723">
        <ele>53</ele>
        <time>2022-04-03T11:38:16Z</time>
      </trkpt>
      <trkpt lat="47.26931" lon="-1.40707">
        <ele>53</ele>
        <time>2022-04-03T11:38:18Z</time>
      </trkpt>
      <trkpt lat="47.26931" lon="-1.40691">
        <ele>53</ele>
        <time>2022-04-03T11:38:20Z</time>
      </trkpt>
      <trkpt lat="47.26932" lon="-1.40675">
        <ele>54</ele>
        <time>2022-04-03T11:38:22Z</time>
      </trkpt>
      <trkpt lat="47.26935" lon="-1.40661">
        <ele>54</ele>
        <time>2022-04-03T11:38:24Z</time>
      </trkpt>
      <trkpt lat="47.26935" lon="-1.40647">
        <ele>54</ele>
        <time>2022-04-03T11:38:26Z</time>
      </trkpt>
      <trkpt lat="47.26937" lon="-1.40634">
        <ele>54</ele>
        <time>2022-04-03T11:38:28Z</time>
      </trkpt>
      <trkpt lat="47.26939" lon="-1.4062">
        <ele>55</ele>
        <time>2022-04-03T11:38:30Z</time>
      </trkpt>
      <trkpt lat="47.26942" lon="-1.40606">
        <ele>55</ele>
        <time>2022-04-03T11:38:32Z</time>
      </trkpt>
      <trkpt lat="47.26945" lon="-1.40591">
        <ele>55</ele>
        <time>2022-04-03T11:38:34Z</time>
      </trkpt>
      <trkpt lat="47.26949" lon="-1.40577">
        <ele>56</ele>
        <time>2022-04-03T11:38:36Z</time>
      </trkpt>
      <trkpt lat="47.26954" lon="-1.40564">
        <ele>55</ele>
        <time>2022-04-03T11:38:38Z</time>
      </trkpt>
      <trkpt lat="47.26959" lon="-1.40551">
        <ele>55</ele>
        <time>2022-04-03T11:38:40Z</time>
      </trkpt>
      <trkpt lat="47.26965" lon="-1.40539">
        <ele>55</ele>
        <time>2022-04-03T11:38:42Z</time>
      </trkpt>
      <trkpt lat="47.26972" lon="-1.40527">
        <ele>55</ele>
        <time>2022-04-03T11:38:44Z</time>
      </trkpt>
      <trkpt lat="47.26978" lon="-1.40517">
        <ele>56</ele>
        <time>2022-04-03T11:38:46Z</time>
      </trkpt>
      <trkpt lat="47.26984" lon="-1.40507">
        <ele>56</ele>
        <time>2022-04-03T11:38:48Z</time>
      </trkpt>
      <trkpt lat="47.26991" lon="-1.40496">
        <ele>56</ele>
        <time>2022-04-03T11:38:50Z</time>
      </trkpt>
      <trkpt lat="47.26997" lon="-1.40485">
        <ele>55</ele>
        <time>2022-04-03T11:38:52Z</time>
      </trkpt>
      <trkpt lat="47.27004" lon="-1.40475">
        <ele>55</ele>
        <time>2022-04-03T11:38:54Z</time>
      </trkpt>
      <trkpt lat="47.27011" lon="-1.40464">
        <ele>55</ele>
        <time>2022-04-03T11:38:56Z</time>
      </trkpt>
      <trkpt lat="47.27018" lon="-1.40453">
        <ele>55</ele>
        <time>2022-04-03T11:38:58Z</time>
      </trkpt>
      <trkpt lat="47.27025" lon="-1.40442">
        <ele>55</ele>
        <time>2022-04-03T11:39:00Z</time>
      </trkpt>
      <trkpt lat="47.27031" lon="-1.40431">
        <ele>55</ele>
        <time>2022-04-03T11:39:02Z</time>
      </trkpt>
      <trkpt lat="47.27038" lon="-1.40421">
        <ele>55</ele>
        <time>2022-04-03T11:39:04Z</time>
      </trkpt>
      <trkpt lat="47.27045" lon="-1.4041">
        <ele>55</ele>
        <time>2022-04-03T11:39:06Z</time>
      </trkpt>
      <trkpt lat="47.27052" lon="-1.40399">
        <ele>55</ele>
        <time>2022-04-03T11:39:08Z</time>
      </trkpt>
      <trkpt lat="47.27059" lon="-1.40389">
        <ele>55</ele>
        <time>2022-04-03T11:39:10Z</time>
      </trkpt>
      <trkpt lat="47.27065" lon="-1.40379">
        <ele>55</ele>
        <time>2022-04-03T11:39:12Z</time>
      </trkpt>
      <trkpt lat="47.27072" lon="-1.40368">
        <ele>55</ele>
        <time>2022-04-03T11:39:14Z</time>
      </trkpt>
      <trkpt lat="47.27079" lon="-1.40357">
        <ele>54</ele>
        <time>2022-04-03T11:39:16Z</time>
      </trkpt>
      <trkpt lat="47.27086" lon="-1.40347">
        <ele>54</ele>
        <time>2022-04-03T11:39:18Z</time>
      </trkpt>
      <trkpt lat="47.27093" lon="-1.40336">
        <ele>54</ele>
        <time>2022-04-03T11:39:20Z</time>
      </trkpt>
      <trkpt lat="47.271" lon="-1.40325">
        <ele>54</ele>
        <time>2022-04-03T11:39:22Z</time>
      </trkpt>
      <trkpt lat="47.27107" lon="-1.40314">
        <ele>54</ele>
        <time>2022-04-03T11:39:24Z</time>
      </trkpt>
      <trkpt lat="47.27114" lon="-1.40303">
        <ele>54</ele>
        <time>2022-04-03T11:39:26Z</time>
      </trkpt>
      <trkpt lat="47.27121" lon="-1.40292">
        <ele>54</ele>
        <time>2022-04-03T11:39:28Z</time>
      </trkpt>
      <trkpt lat="47.27128" lon="-1.4028">
        <ele>54</ele>
        <time>2022-04-03T11:39:30Z</time>
      </trkpt>
      <trkpt lat="47.27135" lon="-1.4027">
        <ele>54</ele>
        <time>2022-04-03T11:39:32Z</time>
      </trkpt>
      <trkpt lat="47.27142" lon="-1.40258">
        <ele>54</ele>
        <time>2022-04-03T11:39:34Z</time>
      </trkpt>
      <trkpt lat="47.27149" lon="-1.40247">
        <ele>54</ele>
        <time>2022-04-03T11:39:36Z</time>
      </trkpt>
      <trkpt lat="47.27157" lon="-1.40237">
        <ele>54</ele>
        <time>2022-04-03T11:39:38Z</time>
      </trkpt>
      <trkpt lat="47.27164" lon="-1.40226">
        <ele>54</ele>
        <time>2022-04-03T11:39:40Z</time>
      </trkpt>
      <trkpt lat="47.27171" lon="-1.40214">
        <ele>54</ele>
        <time>2022-04-03T11:39:42Z</time>
      </trkpt>
      <trkpt lat="47.27178" lon="-1.40202">
        <ele>54</ele>
        <time>2022-04-03T11:39:44Z</time>
      </trkpt>
      <trkpt lat="47.27187" lon="-1.40191">
        <ele>54</ele>
        <time>2022-04-03T11:39:46Z</time>
      </trkpt>
      <trkpt lat="47.27195" lon="-1.40181">
        <ele>55</ele>
        <time>2022-04-03T11:39:48Z</time>
      </trkpt>
      <trkpt lat="47.27202" lon="-1.4017">
        <ele>55</ele>
        <time>2022-04-03T11:39:50Z</time>
      </trkpt>
      <trkpt lat="47.27209" lon="-1.40158">
        <ele>55</ele>
        <time>2022-04-03T11:39:52Z</time>
      </trkpt>
      <trkpt lat="47.27215" lon="-1.40147">
        <ele>55</ele>
        <time>2022-04-03T11:39:54Z</time>
      </trkpt>
      <trkpt lat="47.27221" lon="-1.40135">
        <ele>55</ele>
        <time>2022-04-03T11:39:56Z</time>
      </trkpt>
      <trkpt lat="47.27227" lon="-1.40125">
        <ele>55</ele>
        <time>2022-04-03T11:39:58Z</time>
      </trkpt>
      <trkpt lat="47.27234" lon="-1.40113">
        <ele>55</ele>
        <time>2022-04-03T11:40:00Z</time>
      </trkpt>
      <trkpt lat="47.27242" lon="-1.40102">
        <ele>55</ele>
        <time>2022-04-03T11:40:02Z</time>
      </trkpt>
      <trkpt lat="47.27249" lon="-1.40091">
        <ele>54</ele>
        <time>2022-04-03T11:40:04Z</time>
      </trkpt>
      <trkpt lat="47.27257" lon="-1.40079">
        <ele>54</ele>
        <time>2022-04-03T11:40:06Z</time>
      </trkpt>
      <trkpt lat="47.27264" lon="-1.40067">
        <ele>54</ele>
        <time>2022-04-03T11:40:08Z</time>
      </trkpt>
      <trkpt lat="47.27271" lon="-1.40056">
        <ele>54</ele>
        <time>2022-04-03T11:40:10Z</time>
      </trkpt>
      <trkpt lat="47.27278" lon="-1.40045">
        <ele>54</ele>
        <time>2022-04-03T11:40:12Z</time>
      </trkpt>
      <trkpt lat="47.27285" lon="-1.40034">
        <ele>54</ele>
        <time>2022-04-03T11:40:14Z</time>
      </trkpt>
      <trkpt lat="47.27292" lon="-1.40023">
        <ele>54</ele>
        <time>2022-04-03T11:40:16Z</time>
      </trkpt>
      <trkpt lat="47.27299" lon="-1.40012">
        <ele>54</ele>
        <time>2022-04-03T11:40:18Z</time>
      </trkpt>
      <trkpt lat="47.27306" lon="-1.40001">
        <ele>54</ele>
        <time>2022-04-03T11:40:20Z</time>
      </trkpt>
      <trkpt lat="47.27313" lon="-1.3999">
        <ele>54</ele>
        <time>2022-04-03T11:40:22Z</time>
      </trkpt>
      <trkpt lat="47.27319" lon="-1.39979">
        <ele>55</ele>
        <time>2022-04-03T11:40:24Z</time>
      </trkpt>
      <trkpt lat="47.27326" lon="-1.39968">
        <ele>55</ele>
        <time>2022-04-03T11:40:26Z</time>
      </trkpt>
      <trkpt lat="47.27333" lon="-1.39957">
        <ele>54</ele>
        <time>2022-04-03T11:40:28Z</time>
      </trkpt>
      <trkpt lat="47.2734" lon="-1.39946">
        <ele>54</ele>
        <time>2022-04-03T11:40:30Z</time>
      </trkpt>
      <trkpt lat="47.27347" lon="-1.39935">
        <ele>54</ele>
        <time>2022-04-03T11:40:32Z</time>
      </trkpt>
      <trkpt lat="47.27354" lon="-1.39924">
        <ele>54</ele>
        <time>2022-04-03T11:40:34Z</time>
      </trkpt>
      <trkpt lat="47.27361" lon="-1.39912">
        <ele>54</ele>
        <time>2022-04-03T11:40:36Z</time>
      </trkpt>
      <trkpt lat="47.27368" lon="-1.39901">
        <ele>54</ele>
        <time>2022-04-03T11:40:38Z</time>
      </trkpt>
      <trkpt lat="47.27375" lon="-1.39891">
        <ele>54</ele>
        <time>2022-04-03T11:40:40Z</time>
      </trkpt>
      <trkpt lat="47.27385" lon="-1.39885">
        <ele>54</ele>
        <time>2022-04-03T11:40:42Z</time>
      </trkpt>
      <trkpt lat="47.27396" lon="-1.39886">
        <ele>55</ele>
        <time>2022-04-03T11:40:44Z</time>
      </trkpt>
      <trkpt lat="47.27407" lon="-1.39888">
        <ele>55</ele>
        <time>2022-04-03T11:40:46Z</time>
      </trkpt>
      <trkpt lat="47.27416" lon="-1.39888">
        <ele>55</ele>
        <time>2022-04-03T11:40:48Z</time>
      </trkpt>
      <trkpt lat="47.27425" lon="-1.39874">
        <ele>56</ele>
        <time>2022-04-03T11:40:51Z</time>
      </trkpt>
      <trkpt lat="47.27429" lon="-1.39861">
        <ele>55</ele>
        <time>2022-04-03T11:40:53Z</time>
      </trkpt>
      <trkpt lat="47.27432" lon="-1.39846">
        <ele>55</ele>
        <time>2022-04-03T11:40:55Z</time>
      </trkpt>
      <trkpt lat="47.27436" lon="-1.39831">
        <ele>55</ele>
        <time>2022-04-03T11:40:57Z</time>
      </trkpt>
      <trkpt lat="47.2744" lon="-1.39816">
        <ele>55</ele>
        <time>2022-04-03T11:40:59Z</time>
      </trkpt>
      <trkpt lat="47.27447" lon="-1.39802">
        <ele>54</ele>
        <time>2022-04-03T11:41:01Z</time>
      </trkpt>
      <trkpt lat="47.27453" lon="-1.39787">
        <ele>54</ele>
        <time>2022-04-03T11:41:03Z</time>
      </trkpt>
      <trkpt lat="47.27461" lon="-1.39772">
        <ele>54</ele>
        <time>2022-04-03T11:41:05Z</time>
      </trkpt>
      <trkpt lat="47.27469" lon="-1.39757">
        <ele>54</ele>
        <time>2022-04-03T11:41:07Z</time>
      </trkpt>
      <trkpt lat="47.27475" lon="-1.39745">
        <ele>54</ele>
        <time>2022-04-03T11:41:09Z</time>
      </trkpt>
      <trkpt lat="47.2748" lon="-1.39733">
        <ele>55</ele>
        <time>2022-04-03T11:41:11Z</time>
      </trkpt>
      <trkpt lat="47.27485" lon="-1.3972">
        <ele>55</ele>
        <time>2022-04-03T11:41:13Z</time>
      </trkpt>
      <trkpt lat="47.27493" lon="-1.39706">
        <ele>55</ele>
        <time>2022-04-03T11:41:15Z</time>
      </trkpt>
      <trkpt lat="47.27501" lon="-1.39694">
        <ele>56</ele>
        <time>2022-04-03T11:41:17Z</time>
      </trkpt>
      <trkpt lat="47.27509" lon="-1.39681">
        <ele>55</ele>
        <time>2022-04-03T11:41:19Z</time>
      </trkpt>
      <trkpt lat="47.27517" lon="-1.39669">
        <ele>55</ele>
        <time>2022-04-03T11:41:21Z</time>
      </trkpt>
      <trkpt lat="47.27525" lon="-1.39656">
        <ele>55</ele>
        <time>2022-04-03T11:41:23Z</time>
      </trkpt>
      <trkpt lat="47.27533" lon="-1.39644">
        <ele>55</ele>
        <time>2022-04-03T11:41:25Z</time>
      </trkpt>
      <trkpt lat="47.27541" lon="-1.39631">
        <ele>55</ele>
        <time>2022-04-03T11:41:27Z</time>
      </trkpt>
      <trkpt lat="47.27549" lon="-1.39619">
        <ele>55</ele>
        <time>2022-04-03T11:41:29Z</time>
      </trkpt>
      <trkpt lat="47.27557" lon="-1.39607">
        <ele>55</ele>
        <time>2022-04-03T11:41:31Z</time>
      </trkpt>
      <trkpt lat="47.27564" lon="-1.39595">
        <ele>55</ele>
        <time>2022-04-03T11:41:33Z</time>
      </trkpt>
      <trkpt lat="47.27572" lon="-1.39583">
        <ele>55</ele>
        <time>2022-04-03T11:41:35Z</time>
      </trkpt>
      <trkpt lat="47.2758" lon="-1.3957">
        <ele>55</ele>
        <time>2022-04-03T11:41:37Z</time>
      </trkpt>
      <trkpt lat="47.27587" lon="-1.39558">
        <ele>55</ele>
        <time>2022-04-03T11:41:39Z</time>
      </trkpt>
      <trkpt lat="47.27595" lon="-1.39547">
        <ele>55</ele>
        <time>2022-04-03T11:41:41Z</time>
      </trkpt>
      <trkpt lat="47.27602" lon="-1.39534">
        <ele>54</ele>
        <time>2022-04-03T11:41:43Z</time>
      </trkpt>
      <trkpt lat="47.27611" lon="-1.39523">
        <ele>54</ele>
        <time>2022-04-03T11:41:45Z</time>
      </trkpt>
      <trkpt lat="47.27621" lon="-1.39517">
        <ele>54</ele>
        <time>2022-04-03T11:41:47Z</time>
      </trkpt>
      <trkpt lat="47.27627" lon="-1.39506">
        <ele>54</ele>
        <time>2022-04-03T11:41:49Z</time>
      </trkpt>
      <trkpt lat="47.27632" lon="-1.39493">
        <ele>55</ele>
        <time>2022-04-03T11:41:51Z</time>
      </trkpt>
      <trkpt lat="47.27639" lon="-1.3948">
        <ele>55</ele>
        <time>2022-04-03T11:41:53Z</time>
      </trkpt>
      <trkpt lat="47.27646" lon="-1.39467">
        <ele>55</ele>
        <time>2022-04-03T11:41:55Z</time>
      </trkpt>
      <trkpt lat="47.27654" lon="-1.39454">
        <ele>55</ele>
        <time>2022-04-03T11:41:57Z</time>
      </trkpt>
      <trkpt lat="47.27661" lon="-1.39441">
        <ele>55</ele>
        <time>2022-04-03T11:41:59Z</time>
      </trkpt>
      <trkpt lat="47.27668" lon="-1.39428">
        <ele>55</ele>
        <time>2022-04-03T11:42:01Z</time>
      </trkpt>
      <trkpt lat="47.27675" lon="-1.39414">
        <ele>55</ele>
        <time>2022-04-03T11:42:03Z</time>
      </trkpt>
      <trkpt lat="47.27682" lon="-1.39401">
        <ele>55</ele>
        <time>2022-04-03T11:42:05Z</time>
      </trkpt>
      <trkpt lat="47.27688" lon="-1.39387">
        <ele>55</ele>
        <time>2022-04-03T11:42:07Z</time>
      </trkpt>
      <trkpt lat="47.27694" lon="-1.39374">
        <ele>55</ele>
        <time>2022-04-03T11:42:09Z</time>
      </trkpt>
      <trkpt lat="47.277" lon="-1.39362">
        <ele>55</ele>
        <time>2022-04-03T11:42:11Z</time>
      </trkpt>
      <trkpt lat="47.2771" lon="-1.39343">
        <ele>55</ele>
        <time>2022-04-03T11:42:14Z</time>
      </trkpt>
      <trkpt lat="47.27719" lon="-1.39324">
        <ele>55</ele>
        <time>2022-04-03T11:42:17Z</time>
      </trkpt>
      <trkpt lat="47.27728" lon="-1.39304">
        <ele>55</ele>
        <time>2022-04-03T11:42:20Z</time>
      </trkpt>
      <trkpt lat="47.27734" lon="-1.39291">
        <ele>55</ele>
        <time>2022-04-03T11:42:22Z</time>
      </trkpt>
      <trkpt lat="47.2774" lon="-1.39278">
        <ele>55</ele>
        <time>2022-04-03T11:42:24Z</time>
      </trkpt>
      <trkpt lat="47.27746" lon="-1.39265">
        <ele>55</ele>
        <time>2022-04-03T11:42:26Z</time>
      </trkpt>
      <trkpt lat="47.27751" lon="-1.39252">
        <ele>55</ele>
        <time>2022-04-03T11:42:28Z</time>
      </trkpt>
      <trkpt lat="47.27757" lon="-1.39239">
        <ele>55</ele>
        <time>2022-04-03T11:42:30Z</time>
      </trkpt>
      <trkpt lat="47.27763" lon="-1.39227">
        <ele>55</ele>
        <time>2022-04-03T11:42:32Z</time>
      </trkpt>
      <trkpt lat="47.27769" lon="-1.39215">
        <ele>55</ele>
        <time>2022-04-03T11:42:34Z</time>
      </trkpt>
      <trkpt lat="47.27775" lon="-1.39203">
        <ele>55</ele>
        <time>2022-04-03T11:42:36Z</time>
      </trkpt>
      <trkpt lat="47.27781" lon="-1.39191">
        <ele>55</ele>
        <time>2022-04-03T11:42:38Z</time>
      </trkpt>
      <trkpt lat="47.27788" lon="-1.39179">
        <ele>56</ele>
        <time>2022-04-03T11:42:40Z</time>
      </trkpt>
      <trkpt lat="47.27794" lon="-1.39168">
        <ele>55</ele>
        <time>2022-04-03T11:42:42Z</time>
      </trkpt>
      <trkpt lat="47.27801" lon="-1.39156">
        <ele>55</ele>
        <time>2022-04-03T11:42:44Z</time>
      </trkpt>
      <trkpt lat="47.27809" lon="-1.39145">
        <ele>55</ele>
        <time>2022-04-03T11:42:46Z</time>
      </trkpt>
      <trkpt lat="47.27815" lon="-1.39134">
        <ele>55</ele>
        <time>2022-04-03T11:42:48Z</time>
      </trkpt>
      <trkpt lat="47.27823" lon="-1.39122">
        <ele>55</ele>
        <time>2022-04-03T11:42:50Z</time>
      </trkpt>
      <trkpt lat="47.2783" lon="-1.3911">
        <ele>55</ele>
        <time>2022-04-03T11:42:52Z</time>
      </trkpt>
      <trkpt lat="47.27837" lon="-1.39099">
        <ele>55</ele>
        <time>2022-04-03T11:42:54Z</time>
      </trkpt>
      <trkpt lat="47.27844" lon="-1.39087">
        <ele>55</ele>
        <time>2022-04-03T11:42:56Z</time>
      </trkpt>
      <trkpt lat="47.27851" lon="-1.39076">
        <ele>55</ele>
        <time>2022-04-03T11:42:58Z</time>
      </trkpt>
      <trkpt lat="47.27858" lon="-1.39065">
        <ele>55</ele>
        <time>2022-04-03T11:43:00Z</time>
      </trkpt>
      <trkpt lat="47.27864" lon="-1.39054">
        <ele>55</ele>
        <time>2022-04-03T11:43:02Z</time>
      </trkpt>
      <trkpt lat="47.27871" lon="-1.39043">
        <ele>55</ele>
        <time>2022-04-03T11:43:04Z</time>
      </trkpt>
      <trkpt lat="47.27878" lon="-1.39032">
        <ele>55</ele>
        <time>2022-04-03T11:43:06Z</time>
      </trkpt>
      <trkpt lat="47.27885" lon="-1.39021">
        <ele>55</ele>
        <time>2022-04-03T11:43:08Z</time>
      </trkpt>
      <trkpt lat="47.27892" lon="-1.3901">
        <ele>55</ele>
        <time>2022-04-03T11:43:10Z</time>
      </trkpt>
      <trkpt lat="47.27899" lon="-1.39001">
        <ele>55</ele>
        <time>2022-04-03T11:43:12Z</time>
      </trkpt>
      <trkpt lat="47.27907" lon="-1.3899">
        <ele>54</ele>
        <time>2022-04-03T11:43:14Z</time>
      </trkpt>
      <trkpt lat="47.27913" lon="-1.38979">
        <ele>55</ele>
        <time>2022-04-03T11:43:16Z</time>
      </trkpt>
      <trkpt lat="47.27919" lon="-1.38967">
        <ele>55</ele>
        <time>2022-04-03T11:43:18Z</time>
      </trkpt>
      <trkpt lat="47.27925" lon="-1.38956">
        <ele>55</ele>
        <time>2022-04-03T11:43:20Z</time>
      </trkpt>
      <trkpt lat="47.27932" lon="-1.38946">
        <ele>55</ele>
        <time>2022-04-03T11:43:22Z</time>
      </trkpt>
      <trkpt lat="47.27939" lon="-1.38935">
        <ele>55</ele>
        <time>2022-04-03T11:43:24Z</time>
      </trkpt>
      <trkpt lat="47.27946" lon="-1.38924">
        <ele>54</ele>
        <time>2022-04-03T11:43:26Z</time>
      </trkpt>
      <trkpt lat="47.27953" lon="-1.38914">
        <ele>54</ele>
        <time>2022-04-03T11:43:28Z</time>
      </trkpt>
      <trkpt lat="47.2796" lon="-1.38903">
        <ele>54</ele>
        <time>2022-04-03T11:43:30Z</time>
      </trkpt>
      <trkpt lat="47.27967" lon="-1.38892">
        <ele>54</ele>
        <time>2022-04-03T11:43:32Z</time>
      </trkpt>
      <trkpt lat="47.27974" lon="-1.38881">
        <ele>54</ele>
        <time>2022-04-03T11:43:34Z</time>
      </trkpt>
      <trkpt lat="47.27981" lon="-1.38871">
        <ele>54</ele>
        <time>2022-04-03T11:43:36Z</time>
      </trkpt>
      <trkpt lat="47.27989" lon="-1.38861">
        <ele>54</ele>
        <time>2022-04-03T11:43:38Z</time>
      </trkpt>
      <trkpt lat="47.27997" lon="-1.38851">
        <ele>54</ele>
        <time>2022-04-03T11:43:40Z</time>
      </trkpt>
      <trkpt lat="47.28005" lon="-1.38842">
        <ele>54</ele>
        <time>2022-04-03T11:43:42Z</time>
      </trkpt>
      <trkpt lat="47.28013" lon="-1.38834">
        <ele>54</ele>
        <time>2022-04-03T11:43:44Z</time>
      </trkpt>
      <trkpt lat="47.28021" lon="-1.38827">
        <ele>55</ele>
        <time>2022-04-03T11:43:46Z</time>
      </trkpt>
      <trkpt lat="47.2803" lon="-1.38819">
        <ele>54</ele>
        <time>2022-04-03T11:43:48Z</time>
      </trkpt>
      <trkpt lat="47.28038" lon="-1.38811">
        <ele>54</ele>
        <time>2022-04-03T11:43:50Z</time>
      </trkpt>
      <trkpt lat="47.28048" lon="-1.38805">
        <ele>54</ele>
        <time>2022-04-03T11:43:52Z</time>
      </trkpt>
      <trkpt lat="47.28058" lon="-1.38799">
        <ele>53</ele>
        <time>2022-04-03T11:43:54Z</time>
      </trkpt>
      <trkpt lat="47.28067" lon="-1.38792">
        <ele>53</ele>
        <time>2022-04-03T11:43:56Z</time>
      </trkpt>
      <trkpt lat="47.28076" lon="-1.38784">
        <ele>52</ele>
        <time>2022-04-03T11:43:58Z</time>
      </trkpt>
      <trkpt lat="47.28087" lon="-1.38782">
        <ele>52</ele>
        <time>2022-04-03T11:44:00Z</time>
      </trkpt>
      <trkpt lat="47.28097" lon="-1.38779">
        <ele>52</ele>
        <time>2022-04-03T11:44:02Z</time>
      </trkpt>
      <trkpt lat="47.28105" lon="-1.38773">
        <ele>53</ele>
        <time>2022-04-03T11:44:04Z</time>
      </trkpt>
      <trkpt lat="47.28116" lon="-1.38766">
        <ele>53</ele>
        <time>2022-04-03T11:44:07Z</time>
      </trkpt>
      <trkpt lat="47.28129" lon="-1.38757">
        <ele>53</ele>
        <time>2022-04-03T11:44:10Z</time>
      </trkpt>
      <trkpt lat="47.28136" lon="-1.38749">
        <ele>53</ele>
        <time>2022-04-03T11:44:12Z</time>
      </trkpt>
      <trkpt lat="47.28145" lon="-1.38741">
        <ele>53</ele>
        <time>2022-04-03T11:44:14Z</time>
      </trkpt>
      <trkpt lat="47.28152" lon="-1.38734">
        <ele>53</ele>
        <time>2022-04-03T11:44:16Z</time>
      </trkpt>
      <trkpt lat="47.2816" lon="-1.38725">
        <ele>53</ele>
        <time>2022-04-03T11:44:18Z</time>
      </trkpt>
      <trkpt lat="47.28167" lon="-1.38717">
        <ele>52</ele>
        <time>2022-04-03T11:44:20Z</time>
      </trkpt>
      <trkpt lat="47.28174" lon="-1.387">
        <ele>53</ele>
        <time>2022-04-03T11:44:23Z</time>
      </trkpt>
      <trkpt lat="47.28178" lon="-1.38688">
        <ele>52</ele>
        <time>2022-04-03T11:44:25Z</time>
      </trkpt>
      <trkpt lat="47.28181" lon="-1.38675">
        <ele>52</ele>
        <time>2022-04-03T11:44:27Z</time>
      </trkpt>
      <trkpt lat="47.28187" lon="-1.38657">
        <ele>52</ele>
        <time>2022-04-03T11:44:30Z</time>
      </trkpt>
      <trkpt lat="47.28191" lon="-1.38644">
        <ele>52</ele>
        <time>2022-04-03T11:44:32Z</time>
      </trkpt>
      <trkpt lat="47.28194" lon="-1.3863">
        <ele>52</ele>
        <time>2022-04-03T11:44:34Z</time>
      </trkpt>
      <trkpt lat="47.28196" lon="-1.38617">
        <ele>52</ele>
        <time>2022-04-03T11:44:36Z</time>
      </trkpt>
      <trkpt lat="47.28198" lon="-1.38604">
        <ele>53</ele>
        <time>2022-04-03T11:44:38Z</time>
      </trkpt>
      <trkpt lat="47.28198" lon="-1.38584">
        <ele>53</ele>
        <time>2022-04-03T11:44:41Z</time>
      </trkpt>
      <trkpt lat="47.28198" lon="-1.3857">
        <ele>53</ele>
        <time>2022-04-03T11:44:43Z</time>
      </trkpt>
      <trkpt lat="47.28199" lon="-1.38556">
        <ele>54</ele>
        <time>2022-04-03T11:44:45Z</time>
      </trkpt>
      <trkpt lat="47.282" lon="-1.38542">
        <ele>54</ele>
        <time>2022-04-03T11:44:47Z</time>
      </trkpt>
      <trkpt lat="47.28202" lon="-1.38528">
        <ele>54</ele>
        <time>2022-04-03T11:44:49Z</time>
      </trkpt>
      <trkpt lat="47.28205" lon="-1.38514">
        <ele>54</ele>
        <time>2022-04-03T11:44:51Z</time>
      </trkpt>
      <trkpt lat="47.28209" lon="-1.38501">
        <ele>54</ele>
        <time>2022-04-03T11:44:53Z</time>
      </trkpt>
      <trkpt lat="47.28214" lon="-1.38489">
        <ele>54</ele>
        <time>2022-04-03T11:44:55Z</time>
      </trkpt>
      <trkpt lat="47.2822" lon="-1.38476">
        <ele>53</ele>
        <time>2022-04-03T11:44:57Z</time>
      </trkpt>
      <trkpt lat="47.28225" lon="-1.38465">
        <ele>53</ele>
        <time>2022-04-03T11:44:59Z</time>
      </trkpt>
      <trkpt lat="47.28231" lon="-1.38453">
        <ele>53</ele>
        <time>2022-04-03T11:45:01Z</time>
      </trkpt>
      <trkpt lat="47.28238" lon="-1.38438">
        <ele>55</ele>
        <time>2022-04-03T11:45:04Z</time>
      </trkpt>
      <trkpt lat="47.28247" lon="-1.38421">
        <ele>53</ele>
        <time>2022-04-03T11:45:07Z</time>
      </trkpt>
      <trkpt lat="47.28253" lon="-1.38408">
        <ele>53</ele>
        <time>2022-04-03T11:45:09Z</time>
      </trkpt>
      <trkpt lat="47.28258" lon="-1.38395">
        <ele>53</ele>
        <time>2022-04-03T11:45:11Z</time>
      </trkpt>
      <trkpt lat="47.28263" lon="-1.38383">
        <ele>53</ele>
        <time>2022-04-03T11:45:13Z</time>
      </trkpt>
      <trkpt lat="47.28269" lon="-1.38371">
        <ele>53</ele>
        <time>2022-04-03T11:45:15Z</time>
      </trkpt>
      <trkpt lat="47.28274" lon="-1.38358">
        <ele>53</ele>
        <time>2022-04-03T11:45:17Z</time>
      </trkpt>
      <trkpt lat="47.28279" lon="-1.38346">
        <ele>53</ele>
        <time>2022-04-03T11:45:19Z</time>
      </trkpt>
      <trkpt lat="47.28285" lon="-1.38334">
        <ele>53</ele>
        <time>2022-04-03T11:45:21Z</time>
      </trkpt>
      <trkpt lat="47.28291" lon="-1.38322">
        <ele>53</ele>
        <time>2022-04-03T11:45:23Z</time>
      </trkpt>
      <trkpt lat="47.28297" lon="-1.38311">
        <ele>53</ele>
        <time>2022-04-03T11:45:25Z</time>
      </trkpt>
      <trkpt lat="47.28304" lon="-1.38301">
        <ele>53</ele>
        <time>2022-04-03T11:45:27Z</time>
      </trkpt>
      <trkpt lat="47.28311" lon="-1.38291">
        <ele>52</ele>
        <time>2022-04-03T11:45:29Z</time>
      </trkpt>
      <trkpt lat="47.28318" lon="-1.38281">
        <ele>52</ele>
        <time>2022-04-03T11:45:31Z</time>
      </trkpt>
      <trkpt lat="47.28325" lon="-1.38272">
        <ele>52</ele>
        <time>2022-04-03T11:45:33Z</time>
      </trkpt>
      <trkpt lat="47.28331" lon="-1.38263">
        <ele>52</ele>
        <time>2022-04-03T11:45:35Z</time>
      </trkpt>
      <trkpt lat="47.28338" lon="-1.38252">
        <ele>52</ele>
        <time>2022-04-03T11:45:37Z</time>
      </trkpt>
      <trkpt lat="47.28344" lon="-1.3824">
        <ele>52</ele>
        <time>2022-04-03T11:45:39Z</time>
      </trkpt>
      <trkpt lat="47.28348" lon="-1.38227">
        <ele>52</ele>
        <time>2022-04-03T11:45:41Z</time>
      </trkpt>
      <trkpt lat="47.2835" lon="-1.38214">
        <ele>53</ele>
        <time>2022-04-03T11:45:43Z</time>
      </trkpt>
      <trkpt lat="47.28353" lon="-1.38201">
        <ele>53</ele>
        <time>2022-04-03T11:45:45Z</time>
      </trkpt>
      <trkpt lat="47.28356" lon="-1.38187">
        <ele>53</ele>
        <time>2022-04-03T11:45:47Z</time>
      </trkpt>
      <trkpt lat="47.2836" lon="-1.38174">
        <ele>54</ele>
        <time>2022-04-03T11:45:49Z</time>
      </trkpt>
      <trkpt lat="47.28364" lon="-1.38161">
        <ele>54</ele>
        <time>2022-04-03T11:45:51Z</time>
      </trkpt>
      <trkpt lat="47.28369" lon="-1.38149">
        <ele>54</ele>
        <time>2022-04-03T11:45:53Z</time>
      </trkpt>
      <trkpt lat="47.28374" lon="-1.38137">
        <ele>54</ele>
        <time>2022-04-03T11:45:55Z</time>
      </trkpt>
      <trkpt lat="47.2838" lon="-1.38127">
        <ele>55</ele>
        <time>2022-04-03T11:45:57Z</time>
      </trkpt>
      <trkpt lat="47.28389" lon="-1.38113">
        <ele>54</ele>
        <time>2022-04-03T11:46:00Z</time>
      </trkpt>
      <trkpt lat="47.28396" lon="-1.38104">
        <ele>54</ele>
        <time>2022-04-03T11:46:02Z</time>
      </trkpt>
      <trkpt lat="47.28404" lon="-1.38096">
        <ele>54</ele>
        <time>2022-04-03T11:46:04Z</time>
      </trkpt>
      <trkpt lat="47.28411" lon="-1.38087">
        <ele>54</ele>
        <time>2022-04-03T11:46:06Z</time>
      </trkpt>
      <trkpt lat="47.28418" lon="-1.38078">
        <ele>54</ele>
        <time>2022-04-03T11:46:08Z</time>
      </trkpt>
      <trkpt lat="47.28425" lon="-1.38069">
        <ele>54</ele>
        <time>2022-04-03T11:46:10Z</time>
      </trkpt>
      <trkpt lat="47.28433" lon="-1.38061">
        <ele>54</ele>
        <time>2022-04-03T11:46:12Z</time>
      </trkpt>
      <trkpt lat="47.2844" lon="-1.38053">
        <ele>54</ele>
        <time>2022-04-03T11:46:14Z</time>
      </trkpt>
      <trkpt lat="47.2845" lon="-1.38041">
        <ele>54</ele>
        <time>2022-04-03T11:46:17Z</time>
      </trkpt>
      <trkpt lat="47.28457" lon="-1.38032">
        <ele>54</ele>
        <time>2022-04-03T11:46:19Z</time>
      </trkpt>
      <trkpt lat="47.2847" lon="-1.38028">
        <ele>54</ele>
        <time>2022-04-03T11:46:22Z</time>
      </trkpt>
      <trkpt lat="47.28482" lon="-1.38029">
        <ele>53</ele>
        <time>2022-04-03T11:46:24Z</time>
      </trkpt>
      <trkpt lat="47.28492" lon="-1.38025">
        <ele>53</ele>
        <time>2022-04-03T11:46:26Z</time>
      </trkpt>
      <trkpt lat="47.28501" lon="-1.38018">
        <ele>53</ele>
        <time>2022-04-03T11:46:28Z</time>
      </trkpt>
      <trkpt lat="47.28507" lon="-1.38008">
        <ele>53</ele>
        <time>2022-04-03T11:46:30Z</time>
      </trkpt>
      <trkpt lat="47.28514" lon="-1.38">
        <ele>53</ele>
        <time>2022-04-03T11:46:32Z</time>
      </trkpt>
      <trkpt lat="47.28521" lon="-1.3799">
        <ele>53</ele>
        <time>2022-04-03T11:46:34Z</time>
      </trkpt>
      <trkpt lat="47.28525" lon="-1.37974">
        <ele>53</ele>
        <time>2022-04-03T11:46:37Z</time>
      </trkpt>
      <trkpt lat="47.28525" lon="-1.3796">
        <ele>54</ele>
        <time>2022-04-03T11:46:39Z</time>
      </trkpt>
      <trkpt lat="47.28533" lon="-1.37944">
        <ele>53</ele>
        <time>2022-04-03T11:46:42Z</time>
      </trkpt>
      <trkpt lat="47.28539" lon="-1.37935">
        <ele>54</ele>
        <time>2022-04-03T11:46:44Z</time>
      </trkpt>
      <trkpt lat="47.28547" lon="-1.37926">
        <ele>54</ele>
        <time>2022-04-03T11:46:46Z</time>
      </trkpt>
      <trkpt lat="47.28554" lon="-1.37918">
        <ele>54</ele>
        <time>2022-04-03T11:46:48Z</time>
      </trkpt>
      <trkpt lat="47.28565" lon="-1.37906">
        <ele>53</ele>
        <time>2022-04-03T11:46:51Z</time>
      </trkpt>
      <trkpt lat="47.28572" lon="-1.37898">
        <ele>53</ele>
        <time>2022-04-03T11:46:53Z</time>
      </trkpt>
      <trkpt lat="47.2858" lon="-1.37889">
        <ele>53</ele>
        <time>2022-04-03T11:46:55Z</time>
      </trkpt>
      <trkpt lat="47.28587" lon="-1.37881">
        <ele>53</ele>
        <time>2022-04-03T11:46:57Z</time>
      </trkpt>
      <trkpt lat="47.28595" lon="-1.37872">
        <ele>53</ele>
        <time>2022-04-03T11:46:59Z</time>
      </trkpt>
      <trkpt lat="47.28602" lon="-1.37863">
        <ele>53</ele>
        <time>2022-04-03T11:47:01Z</time>
      </trkpt>
      <trkpt lat="47.2861" lon="-1.37854">
        <ele>53</ele>
        <time>2022-04-03T11:47:03Z</time>
      </trkpt>
      <trkpt lat="47.28617" lon="-1.37846">
        <ele>53</ele>
        <time>2022-04-03T11:47:05Z</time>
      </trkpt>
      <trkpt lat="47.28625" lon="-1.37837">
        <ele>53</ele>
        <time>2022-04-03T11:47:07Z</time>
      </trkpt>
      <trkpt lat="47.28632" lon="-1.37828">
        <ele>54</ele>
        <time>2022-04-03T11:47:09Z</time>
      </trkpt>
      <trkpt lat="47.2864" lon="-1.37819">
        <ele>53</ele>
        <time>2022-04-03T11:47:11Z</time>
      </trkpt>
      <trkpt lat="47.28648" lon="-1.3781">
        <ele>53</ele>
        <time>2022-04-03T11:47:13Z</time>
      </trkpt>
      <trkpt lat="47.28655" lon="-1.37802">
        <ele>53</ele>
        <time>2022-04-03T11:47:15Z</time>
      </trkpt>
      <trkpt lat="47.28663" lon="-1.37793">
        <ele>53</ele>
        <time>2022-04-03T11:47:17Z</time>
      </trkpt>
      <trkpt lat="47.28673" lon="-1.3778">
        <ele>53</ele>
        <time>2022-04-03T11:47:20Z</time>
      </trkpt>
      <trkpt lat="47.28681" lon="-1.37771">
        <ele>53</ele>
        <time>2022-04-03T11:47:22Z</time>
      </trkpt>
      <trkpt lat="47.28691" lon="-1.37759">
        <ele>53</ele>
        <time>2022-04-03T11:47:25Z</time>
      </trkpt>
      <trkpt lat="47.28699" lon="-1.37751">
        <ele>53</ele>
        <time>2022-04-03T11:47:27Z</time>
      </trkpt>
      <trkpt lat="47.28708" lon="-1.37745">
        <ele>53</ele>
        <time>2022-04-03T11:47:29Z</time>
      </trkpt>
      <trkpt lat="47.28716" lon="-1.37737">
        <ele>53</ele>
        <time>2022-04-03T11:47:31Z</time>
      </trkpt>
      <trkpt lat="47.28724" lon="-1.37728">
        <ele>53</ele>
        <time>2022-04-03T11:47:33Z</time>
      </trkpt>
      <trkpt lat="47.28731" lon="-1.37719">
        <ele>53</ele>
        <time>2022-04-03T11:47:35Z</time>
      </trkpt>
      <trkpt lat="47.28737" lon="-1.37709">
        <ele>53</ele>
        <time>2022-04-03T11:47:37Z</time>
      </trkpt>
      <trkpt lat="47.28744" lon="-1.37699">
        <ele>53</ele>
        <time>2022-04-03T11:47:39Z</time>
      </trkpt>
      <trkpt lat="47.28751" lon="-1.3769">
        <ele>53</ele>
        <time>2022-04-03T11:47:41Z</time>
      </trkpt>
      <trkpt lat="47.28759" lon="-1.3768">
        <ele>53</ele>
        <time>2022-04-03T11:47:43Z</time>
      </trkpt>
      <trkpt lat="47.28767" lon="-1.37671">
        <ele>53</ele>
        <time>2022-04-03T11:47:45Z</time>
      </trkpt>
      <trkpt lat="47.28774" lon="-1.37662">
        <ele>53</ele>
        <time>2022-04-03T11:47:47Z</time>
      </trkpt>
      <trkpt lat="47.28782" lon="-1.37654">
        <ele>53</ele>
        <time>2022-04-03T11:47:49Z</time>
      </trkpt>
      <trkpt lat="47.28794" lon="-1.37645">
        <ele>53</ele>
        <time>2022-04-03T11:47:52Z</time>
      </trkpt>
      <trkpt lat="47.28802" lon="-1.37639">
        <ele>53</ele>
        <time>2022-04-03T11:47:54Z</time>
      </trkpt>
      <trkpt lat="47.28813" lon="-1.37628">
        <ele>53</ele>
        <time>2022-04-03T11:47:57Z</time>
      </trkpt>
      <trkpt lat="47.28821" lon="-1.37618">
        <ele>53</ele>
        <time>2022-04-03T11:48:00Z</time>
      </trkpt>
      <trkpt lat="47.2881" lon="-1.37622">
        <ele>55</ele>
        <time>2022-04-03T11:48:08Z</time>
      </trkpt>
      <trkpt lat="47.28799" lon="-1.37631">
        <ele>56</ele>
        <time>2022-04-03T11:48:11Z</time>
      </trkpt>
      <trkpt lat="47.28791" lon="-1.3764">
        <ele>56</ele>
        <time>2022-04-03T11:48:14Z</time>
      </trkpt>
      <trkpt lat="47.28791" lon="-1.37626">
        <ele>57</ele>
        <time>2022-04-03T11:48:20Z</time>
      </trkpt>
      <trkpt lat="47.28802" lon="-1.37615">
        <ele>57</ele>
        <time>2022-04-03T11:48:23Z</time>
      </trkpt>
      <trkpt lat="47.28811" lon="-1.37603">
        <ele>57</ele>
        <time>2022-04-03T11:48:26Z</time>
      </trkpt>
      <trkpt lat="47.28818" lon="-1.37591">
        <ele>57</ele>
        <time>2022-04-03T11:48:29Z</time>
      </trkpt>
      <trkpt lat="47.28825" lon="-1.37576">
        <ele>57</ele>
        <time>2022-04-03T11:48:32Z</time>
      </trkpt>
      <trkpt lat="47.28835" lon="-1.37572">
        <ele>57</ele>
        <time>2022-04-03T11:48:35Z</time>
      </trkpt>
      <trkpt lat="47.28841" lon="-1.37582">
        <ele>57</ele>
        <time>2022-04-03T11:48:37Z</time>
      </trkpt>
      <trkpt lat="47.28849" lon="-1.37597">
        <ele>58</ele>
        <time>2022-04-03T11:48:40Z</time>
      </trkpt>
      <trkpt lat="47.28857" lon="-1.37607">
        <ele>59</ele>
        <time>2022-04-03T11:48:42Z</time>
      </trkpt>
      <trkpt lat="47.28866" lon="-1.37617">
        <ele>60</ele>
        <time>2022-04-03T11:48:44Z</time>
      </trkpt>
      <trkpt lat="47.28875" lon="-1.37628">
        <ele>60</ele>
        <time>2022-04-03T11:48:46Z</time>
      </trkpt>
      <trkpt lat="47.28884" lon="-1.37639">
        <ele>60</ele>
        <time>2022-04-03T11:48:48Z</time>
      </trkpt>
      <trkpt lat="47.28894" lon="-1.37651">
        <ele>61</ele>
        <time>2022-04-03T11:48:50Z</time>
      </trkpt>
      <trkpt lat="47.28902" lon="-1.37661">
        <ele>61</ele>
        <time>2022-04-03T11:48:52Z</time>
      </trkpt>
      <trkpt lat="47.2891" lon="-1.37672">
        <ele>61</ele>
        <time>2022-04-03T11:48:54Z</time>
      </trkpt>
      <trkpt lat="47.28918" lon="-1.37683">
        <ele>61</ele>
        <time>2022-04-03T11:48:56Z</time>
      </trkpt>
      <trkpt lat="47.28927" lon="-1.37695">
        <ele>60</ele>
        <time>2022-04-03T11:48:58Z</time>
      </trkpt>
      <trkpt lat="47.28938" lon="-1.37708">
        <ele>59</ele>
        <time>2022-04-03T11:49:00Z</time>
      </trkpt>
      <trkpt lat="47.28948" lon="-1.37721">
        <ele>59</ele>
        <time>2022-04-03T11:49:02Z</time>
      </trkpt>
      <trkpt lat="47.28959" lon="-1.37733">
        <ele>58</ele>
        <time>2022-04-03T11:49:04Z</time>
      </trkpt>
      <trkpt lat="47.28968" lon="-1.37745">
        <ele>59</ele>
        <time>2022-04-03T11:49:06Z</time>
      </trkpt>
      <trkpt lat="47.28978" lon="-1.37757">
        <ele>58</ele>
        <time>2022-04-03T11:49:08Z</time>
      </trkpt>
      <trkpt lat="47.28988" lon="-1.37769">
        <ele>58</ele>
        <time>2022-04-03T11:49:10Z</time>
      </trkpt>
      <trkpt lat="47.28997" lon="-1.3778">
        <ele>58</ele>
        <time>2022-04-03T11:49:12Z</time>
      </trkpt>
      <trkpt lat="47.29007" lon="-1.37792">
        <ele>58</ele>
        <time>2022-04-03T11:49:14Z</time>
      </trkpt>
      <trkpt lat="47.29016" lon="-1.37803">
        <ele>58</ele>
        <time>2022-04-03T11:49:16Z</time>
      </trkpt>
      <trkpt lat="47.29026" lon="-1.37815">
        <ele>58</ele>
        <time>2022-04-03T11:49:18Z</time>
      </trkpt>
      <trkpt lat="47.29035" lon="-1.37826">
        <ele>58</ele>
        <time>2022-04-03T11:49:20Z</time>
      </trkpt>
      <trkpt lat="47.29044" lon="-1.37838">
        <ele>58</ele>
        <time>2022-04-03T11:49:22Z</time>
      </trkpt>
      <trkpt lat="47.29054" lon="-1.3785">
        <ele>58</ele>
        <time>2022-04-03T11:49:24Z</time>
      </trkpt>
      <trkpt lat="47.29063" lon="-1.37861">
        <ele>58</ele>
        <time>2022-04-03T11:49:26Z</time>
      </trkpt>
      <trkpt lat="47.29072" lon="-1.37872">
        <ele>58</ele>
        <time>2022-04-03T11:49:28Z</time>
      </trkpt>
      <trkpt lat="47.2908" lon="-1.37883">
        <ele>58</ele>
        <time>2022-04-03T11:49:30Z</time>
      </trkpt>
      <trkpt lat="47.29089" lon="-1.37892">
        <ele>59</ele>
        <time>2022-04-03T11:49:32Z</time>
      </trkpt>
      <trkpt lat="47.29098" lon="-1.379">
        <ele>60</ele>
        <time>2022-04-03T11:49:34Z</time>
      </trkpt>
      <trkpt lat="47.29107" lon="-1.3791">
        <ele>60</ele>
        <time>2022-04-03T11:49:36Z</time>
      </trkpt>
      <trkpt lat="47.29116" lon="-1.37922">
        <ele>61</ele>
        <time>2022-04-03T11:49:38Z</time>
      </trkpt>
      <trkpt lat="47.29125" lon="-1.37933">
        <ele>61</ele>
        <time>2022-04-03T11:49:40Z</time>
      </trkpt>
      <trkpt lat="47.29134" lon="-1.37945">
        <ele>61</ele>
        <time>2022-04-03T11:49:42Z</time>
      </trkpt>
      <trkpt lat="47.29143" lon="-1.37955">
        <ele>61</ele>
        <time>2022-04-03T11:49:44Z</time>
      </trkpt>
      <trkpt lat="47.29152" lon="-1.37966">
        <ele>62</ele>
        <time>2022-04-03T11:49:46Z</time>
      </trkpt>
      <trkpt lat="47.29161" lon="-1.37977">
        <ele>62</ele>
        <time>2022-04-03T11:49:48Z</time>
      </trkpt>
      <trkpt lat="47.2917" lon="-1.37988">
        <ele>63</ele>
        <time>2022-04-03T11:49:50Z</time>
      </trkpt>
      <trkpt lat="47.29179" lon="-1.37998">
        <ele>63</ele>
        <time>2022-04-03T11:49:52Z</time>
      </trkpt>
      <trkpt lat="47.29187" lon="-1.38009">
        <ele>63</ele>
        <time>2022-04-03T11:49:54Z</time>
      </trkpt>
      <trkpt lat="47.29196" lon="-1.3802">
        <ele>63</ele>
        <time>2022-04-03T11:49:56Z</time>
      </trkpt>
      <trkpt lat="47.29205" lon="-1.38031">
        <ele>63</ele>
        <time>2022-04-03T11:49:58Z</time>
      </trkpt>
      <trkpt lat="47.29214" lon="-1.38041">
        <ele>63</ele>
        <time>2022-04-03T11:50:00Z</time>
      </trkpt>
      <trkpt lat="47.29222" lon="-1.38052">
        <ele>63</ele>
        <time>2022-04-03T11:50:02Z</time>
      </trkpt>
      <trkpt lat="47.29232" lon="-1.38063">
        <ele>64</ele>
        <time>2022-04-03T11:50:04Z</time>
      </trkpt>
      <trkpt lat="47.2924" lon="-1.38074">
        <ele>64</ele>
        <time>2022-04-03T11:50:06Z</time>
      </trkpt>
      <trkpt lat="47.29249" lon="-1.38084">
        <ele>64</ele>
        <time>2022-04-03T11:50:08Z</time>
      </trkpt>
      <trkpt lat="47.29258" lon="-1.38095">
        <ele>64</ele>
        <time>2022-04-03T11:50:10Z</time>
      </trkpt>
      <trkpt lat="47.29267" lon="-1.38106">
        <ele>64</ele>
        <time>2022-04-03T11:50:12Z</time>
      </trkpt>
      <trkpt lat="47.29276" lon="-1.38117">
        <ele>64</ele>
        <time>2022-04-03T11:50:14Z</time>
      </trkpt>
      <trkpt lat="47.29285" lon="-1.38129">
        <ele>64</ele>
        <time>2022-04-03T11:50:16Z</time>
      </trkpt>
      <trkpt lat="47.29294" lon="-1.3814">
        <ele>64</ele>
        <time>2022-04-03T11:50:18Z</time>
      </trkpt>
      <trkpt lat="47.29304" lon="-1.38152">
        <ele>64</ele>
        <time>2022-04-03T11:50:20Z</time>
      </trkpt>
      <trkpt lat="47.29313" lon="-1.38164">
        <ele>64</ele>
        <time>2022-04-03T11:50:22Z</time>
      </trkpt>
      <trkpt lat="47.29323" lon="-1.38175">
        <ele>64</ele>
        <time>2022-04-03T11:50:24Z</time>
      </trkpt>
      <trkpt lat="47.29334" lon="-1.38188">
        <ele>64</ele>
        <time>2022-04-03T11:50:26Z</time>
      </trkpt>
      <trkpt lat="47.29344" lon="-1.382">
        <ele>64</ele>
        <time>2022-04-03T11:50:28Z</time>
      </trkpt>
      <trkpt lat="47.29354" lon="-1.38213">
        <ele>64</ele>
        <time>2022-04-03T11:50:30Z</time>
      </trkpt>
      <trkpt lat="47.29363" lon="-1.38225">
        <ele>64</ele>
        <time>2022-04-03T11:50:32Z</time>
      </trkpt>
      <trkpt lat="47.29373" lon="-1.38237">
        <ele>63</ele>
        <time>2022-04-03T11:50:34Z</time>
      </trkpt>
      <trkpt lat="47.29383" lon="-1.38248">
        <ele>63</ele>
        <time>2022-04-03T11:50:36Z</time>
      </trkpt>
      <trkpt lat="47.29392" lon="-1.3826">
        <ele>63</ele>
        <time>2022-04-03T11:50:38Z</time>
      </trkpt>
      <trkpt lat="47.29402" lon="-1.38272">
        <ele>63</ele>
        <time>2022-04-03T11:50:40Z</time>
      </trkpt>
      <trkpt lat="47.29412" lon="-1.38284">
        <ele>62</ele>
        <time>2022-04-03T11:50:42Z</time>
      </trkpt>
      <trkpt lat="47.29422" lon="-1.38296">
        <ele>62</ele>
        <time>2022-04-03T11:50:44Z</time>
      </trkpt>
      <trkpt lat="47.29432" lon="-1.38308">
        <ele>62</ele>
        <time>2022-04-03T11:50:46Z</time>
      </trkpt>
      <trkpt lat="47.29442" lon="-1.38318">
        <ele>61</ele>
        <time>2022-04-03T11:50:48Z</time>
      </trkpt>
      <trkpt lat="47.29441" lon="-1.38332">
        <ele>60</ele>
        <time>2022-04-03T11:50:50Z</time>
      </trkpt>
      <trkpt lat="47.29437" lon="-1.38344">
        <ele>60</ele>
        <time>2022-04-03T11:50:52Z</time>
      </trkpt>
      <trkpt lat="47.29436" lon="-1.38362">
        <ele>60</ele>
        <time>2022-04-03T11:50:54Z</time>
      </trkpt>
      <trkpt lat="47.29432" lon="-1.38381">
        <ele>59</ele>
        <time>2022-04-03T11:50:56Z</time>
      </trkpt>
      <trkpt lat="47.29427" lon="-1.384">
        <ele>58</ele>
        <time>2022-04-03T11:50:58Z</time>
      </trkpt>
      <trkpt lat="47.29422" lon="-1.38419">
        <ele>57</ele>
        <time>2022-04-03T11:51:00Z</time>
      </trkpt>
      <trkpt lat="47.29417" lon="-1.38439">
        <ele>57</ele>
        <time>2022-04-03T11:51:02Z</time>
      </trkpt>
      <trkpt lat="47.29412" lon="-1.38457">
        <ele>56</ele>
        <time>2022-04-03T11:51:04Z</time>
      </trkpt>
      <trkpt lat="47.29408" lon="-1.38475">
        <ele>56</ele>
        <time>2022-04-03T11:51:06Z</time>
      </trkpt>
      <trkpt lat="47.29401" lon="-1.38492">
        <ele>56</ele>
        <time>2022-04-03T11:51:08Z</time>
      </trkpt>
      <trkpt lat="47.29394" lon="-1.38509">
        <ele>56</ele>
        <time>2022-04-03T11:51:10Z</time>
      </trkpt>
      <trkpt lat="47.29387" lon="-1.38525">
        <ele>56</ele>
        <time>2022-04-03T11:51:12Z</time>
      </trkpt>
      <trkpt lat="47.2938" lon="-1.38542">
        <ele>56</ele>
        <time>2022-04-03T11:51:14Z</time>
      </trkpt>
      <trkpt lat="47.29375" lon="-1.3856">
        <ele>55</ele>
        <time>2022-04-03T11:51:16Z</time>
      </trkpt>
      <trkpt lat="47.29368" lon="-1.38579">
        <ele>54</ele>
        <time>2022-04-03T11:51:18Z</time>
      </trkpt>
      <trkpt lat="47.29361" lon="-1.38598">
        <ele>54</ele>
        <time>2022-04-03T11:51:20Z</time>
      </trkpt>
      <trkpt lat="47.29355" lon="-1.38618">
        <ele>54</ele>
        <time>2022-04-03T11:51:22Z</time>
      </trkpt>
      <trkpt lat="47.2935" lon="-1.38638">
        <ele>53</ele>
        <time>2022-04-03T11:51:24Z</time>
      </trkpt>
      <trkpt lat="47.29344" lon="-1.38658">
        <ele>53</ele>
        <time>2022-04-03T11:51:26Z</time>
      </trkpt>
      <trkpt lat="47.29338" lon="-1.38677">
        <ele>53</ele>
        <time>2022-04-03T11:51:28Z</time>
      </trkpt>
      <trkpt lat="47.29332" lon="-1.38695">
        <ele>53</ele>
        <time>2022-04-03T11:51:30Z</time>
      </trkpt>
      <trkpt lat="47.29325" lon="-1.38714">
        <ele>53</ele>
        <time>2022-04-03T11:51:32Z</time>
      </trkpt>
      <trkpt lat="47.29321" lon="-1.38734">
        <ele>52</ele>
        <time>2022-04-03T11:51:34Z</time>
      </trkpt>
      <trkpt lat="47.29318" lon="-1.38752">
        <ele>53</ele>
        <time>2022-04-03T11:51:36Z</time>
      </trkpt>
      <trkpt lat="47.29313" lon="-1.3877">
        <ele>54</ele>
        <time>2022-04-03T11:51:38Z</time>
      </trkpt>
      <trkpt lat="47.29309" lon="-1.38788">
        <ele>54</ele>
        <time>2022-04-03T11:51:40Z</time>
      </trkpt>
      <trkpt lat="47.29304" lon="-1.38806">
        <ele>54</ele>
        <time>2022-04-03T11:51:42Z</time>
      </trkpt>
      <trkpt lat="47.29299" lon="-1.38823">
        <ele>54</ele>
        <time>2022-04-03T11:51:44Z</time>
      </trkpt>
      <trkpt lat="47.29294" lon="-1.3884">
        <ele>54</ele>
        <time>2022-04-03T11:51:46Z</time>
      </trkpt>
      <trkpt lat="47.2929" lon="-1.38857">
        <ele>54</ele>
        <time>2022-04-03T11:51:48Z</time>
      </trkpt>
      <trkpt lat="47.29285" lon="-1.38875">
        <ele>54</ele>
        <time>2022-04-03T11:51:50Z</time>
      </trkpt>
      <trkpt lat="47.2928" lon="-1.38893">
        <ele>54</ele>
        <time>2022-04-03T11:51:52Z</time>
      </trkpt>
      <trkpt lat="47.29276" lon="-1.3891">
        <ele>54</ele>
        <time>2022-04-03T11:51:54Z</time>
      </trkpt>
      <trkpt lat="47.29271" lon="-1.38927">
        <ele>54</ele>
        <time>2022-04-03T11:51:56Z</time>
      </trkpt>
      <trkpt lat="47.29266" lon="-1.38945">
        <ele>54</ele>
        <time>2022-04-03T11:51:58Z</time>
      </trkpt>
      <trkpt lat="47.29261" lon="-1.38963">
        <ele>55</ele>
        <time>2022-04-03T11:52:00Z</time>
      </trkpt>
      <trkpt lat="47.29256" lon="-1.38981">
        <ele>55</ele>
        <time>2022-04-03T11:52:02Z</time>
      </trkpt>
      <trkpt lat="47.29252" lon="-1.38999">
        <ele>55</ele>
        <time>2022-04-03T11:52:04Z</time>
      </trkpt>
      <trkpt lat="47.29247" lon="-1.39016">
        <ele>55</ele>
        <time>2022-04-03T11:52:06Z</time>
      </trkpt>
      <trkpt lat="47.29243" lon="-1.39033">
        <ele>55</ele>
        <time>2022-04-03T11:52:08Z</time>
      </trkpt>
      <trkpt lat="47.29238" lon="-1.39051">
        <ele>55</ele>
        <time>2022-04-03T11:52:10Z</time>
      </trkpt>
      <trkpt lat="47.29233" lon="-1.39068">
        <ele>55</ele>
        <time>2022-04-03T11:52:12Z</time>
      </trkpt>
      <trkpt lat="47.29227" lon="-1.39084">
        <ele>55</ele>
        <time>2022-04-03T11:52:14Z</time>
      </trkpt>
      <trkpt lat="47.2922" lon="-1.391">
        <ele>55</ele>
        <time>2022-04-03T11:52:16Z</time>
      </trkpt>
      <trkpt lat="47.29211" lon="-1.39115">
        <ele>55</ele>
        <time>2022-04-03T11:52:18Z</time>
      </trkpt>
      <trkpt lat="47.29202" lon="-1.39129">
        <ele>55</ele>
        <time>2022-04-03T11:52:20Z</time>
      </trkpt>
      <trkpt lat="47.29192" lon="-1.39142">
        <ele>56</ele>
        <time>2022-04-03T11:52:22Z</time>
      </trkpt>
      <trkpt lat="47.29182" lon="-1.39154">
        <ele>56</ele>
        <time>2022-04-03T11:52:24Z</time>
      </trkpt>
      <trkpt lat="47.29167" lon="-1.39172">
        <ele>55</ele>
        <time>2022-04-03T11:52:27Z</time>
      </trkpt>
      <trkpt lat="47.29157" lon="-1.39184">
        <ele>55</ele>
        <time>2022-04-03T11:52:29Z</time>
      </trkpt>
      <trkpt lat="47.29147" lon="-1.39197">
        <ele>55</ele>
        <time>2022-04-03T11:52:31Z</time>
      </trkpt>
      <trkpt lat="47.29137" lon="-1.39209">
        <ele>55</ele>
        <time>2022-04-03T11:52:33Z</time>
      </trkpt>
      <trkpt lat="47.29126" lon="-1.39221">
        <ele>55</ele>
        <time>2022-04-03T11:52:35Z</time>
      </trkpt>
      <trkpt lat="47.29117" lon="-1.39233">
        <ele>55</ele>
        <time>2022-04-03T11:52:37Z</time>
      </trkpt>
      <trkpt lat="47.29107" lon="-1.39247">
        <ele>55</ele>
        <time>2022-04-03T11:52:39Z</time>
      </trkpt>
      <trkpt lat="47.29099" lon="-1.39259">
        <ele>55</ele>
        <time>2022-04-03T11:52:41Z</time>
      </trkpt>
      <trkpt lat="47.29091" lon="-1.39273">
        <ele>56</ele>
        <time>2022-04-03T11:52:43Z</time>
      </trkpt>
      <trkpt lat="47.29084" lon="-1.39286">
        <ele>56</ele>
        <time>2022-04-03T11:52:45Z</time>
      </trkpt>
      <trkpt lat="47.29074" lon="-1.39298">
        <ele>56</ele>
        <time>2022-04-03T11:52:47Z</time>
      </trkpt>
      <trkpt lat="47.29065" lon="-1.39308">
        <ele>56</ele>
        <time>2022-04-03T11:52:49Z</time>
      </trkpt>
      <trkpt lat="47.29055" lon="-1.39318">
        <ele>56</ele>
        <time>2022-04-03T11:52:51Z</time>
      </trkpt>
      <trkpt lat="47.29045" lon="-1.39328">
        <ele>56</ele>
        <time>2022-04-03T11:52:53Z</time>
      </trkpt>
      <trkpt lat="47.29037" lon="-1.39339">
        <ele>55</ele>
        <time>2022-04-03T11:52:55Z</time>
      </trkpt>
      <trkpt lat="47.29027" lon="-1.3935">
        <ele>55</ele>
        <time>2022-04-03T11:52:57Z</time>
      </trkpt>
      <trkpt lat="47.29018" lon="-1.39362">
        <ele>55</ele>
        <time>2022-04-03T11:52:59Z</time>
      </trkpt>
      <trkpt lat="47.29011" lon="-1.39375">
        <ele>55</ele>
        <time>2022-04-03T11:53:01Z</time>
      </trkpt>
      <trkpt lat="47.29002" lon="-1.39387">
        <ele>56</ele>
        <time>2022-04-03T11:53:03Z</time>
      </trkpt>
      <trkpt lat="47.28993" lon="-1.39398">
        <ele>56</ele>
        <time>2022-04-03T11:53:05Z</time>
      </trkpt>
      <trkpt lat="47.28984" lon="-1.3941">
        <ele>56</ele>
        <time>2022-04-03T11:53:07Z</time>
      </trkpt>
      <trkpt lat="47.28974" lon="-1.39422">
        <ele>56</ele>
        <time>2022-04-03T11:53:09Z</time>
      </trkpt>
      <trkpt lat="47.28965" lon="-1.39434">
        <ele>56</ele>
        <time>2022-04-03T11:53:11Z</time>
      </trkpt>
      <trkpt lat="47.28956" lon="-1.39445">
        <ele>56</ele>
        <time>2022-04-03T11:53:13Z</time>
      </trkpt>
      <trkpt lat="47.28946" lon="-1.39456">
        <ele>56</ele>
        <time>2022-04-03T11:53:15Z</time>
      </trkpt>
      <trkpt lat="47.28937" lon="-1.39468">
        <ele>56</ele>
        <time>2022-04-03T11:53:17Z</time>
      </trkpt>
      <trkpt lat="47.28927" lon="-1.3948">
        <ele>56</ele>
        <time>2022-04-03T11:53:19Z</time>
      </trkpt>
      <trkpt lat="47.28917" lon="-1.39492">
        <ele>56</ele>
        <time>2022-04-03T11:53:21Z</time>
      </trkpt>
      <trkpt lat="47.28907" lon="-1.39503">
        <ele>56</ele>
        <time>2022-04-03T11:53:23Z</time>
      </trkpt>
      <trkpt lat="47.28898" lon="-1.39515">
        <ele>56</ele>
        <time>2022-04-03T11:53:25Z</time>
      </trkpt>
      <trkpt lat="47.28888" lon="-1.39527">
        <ele>56</ele>
        <time>2022-04-03T11:53:27Z</time>
      </trkpt>
      <trkpt lat="47.28879" lon="-1.39539">
        <ele>56</ele>
        <time>2022-04-03T11:53:29Z</time>
      </trkpt>
      <trkpt lat="47.28869" lon="-1.3955">
        <ele>56</ele>
        <time>2022-04-03T11:53:31Z</time>
      </trkpt>
      <trkpt lat="47.2886" lon="-1.39562">
        <ele>56</ele>
        <time>2022-04-03T11:53:33Z</time>
      </trkpt>
      <trkpt lat="47.2885" lon="-1.39574">
        <ele>56</ele>
        <time>2022-04-03T11:53:35Z</time>
      </trkpt>
      <trkpt lat="47.2884" lon="-1.39585">
        <ele>56</ele>
        <time>2022-04-03T11:53:37Z</time>
      </trkpt>
      <trkpt lat="47.2883" lon="-1.39597">
        <ele>56</ele>
        <time>2022-04-03T11:53:39Z</time>
      </trkpt>
      <trkpt lat="47.28821" lon="-1.39608">
        <ele>56</ele>
        <time>2022-04-03T11:53:41Z</time>
      </trkpt>
      <trkpt lat="47.28811" lon="-1.3962">
        <ele>56</ele>
        <time>2022-04-03T11:53:43Z</time>
      </trkpt>
      <trkpt lat="47.28801" lon="-1.39631">
        <ele>56</ele>
        <time>2022-04-03T11:53:45Z</time>
      </trkpt>
      <trkpt lat="47.28791" lon="-1.39643">
        <ele>56</ele>
        <time>2022-04-03T11:53:47Z</time>
      </trkpt>
      <trkpt lat="47.28782" lon="-1.39655">
        <ele>56</ele>
        <time>2022-04-03T11:53:49Z</time>
      </trkpt>
      <trkpt lat="47.28772" lon="-1.39666">
        <ele>56</ele>
        <time>2022-04-03T11:53:51Z</time>
      </trkpt>
      <trkpt lat="47.28761" lon="-1.39677">
        <ele>56</ele>
        <time>2022-04-03T11:53:53Z</time>
      </trkpt>
      <trkpt lat="47.28752" lon="-1.39689">
        <ele>56</ele>
        <time>2022-04-03T11:53:55Z</time>
      </trkpt>
      <trkpt lat="47.28743" lon="-1.39702">
        <ele>56</ele>
        <time>2022-04-03T11:53:57Z</time>
      </trkpt>
      <trkpt lat="47.28734" lon="-1.39712">
        <ele>56</ele>
        <time>2022-04-03T11:53:59Z</time>
      </trkpt>
      <trkpt lat="47.28724" lon="-1.39724">
        <ele>56</ele>
        <time>2022-04-03T11:54:01Z</time>
      </trkpt>
      <trkpt lat="47.28715" lon="-1.39735">
        <ele>57</ele>
        <time>2022-04-03T11:54:03Z</time>
      </trkpt>
      <trkpt lat="47.28706" lon="-1.39746">
        <ele>56</ele>
        <time>2022-04-03T11:54:05Z</time>
      </trkpt>
      <trkpt lat="47.28696" lon="-1.39758">
        <ele>57</ele>
        <time>2022-04-03T11:54:07Z</time>
      </trkpt>
      <trkpt lat="47.28686" lon="-1.39769">
        <ele>57</ele>
        <time>2022-04-03T11:54:09Z</time>
      </trkpt>
      <trkpt lat="47.28677" lon="-1.39781">
        <ele>57</ele>
        <time>2022-04-03T11:54:11Z</time>
      </trkpt>
      <trkpt lat="47.28668" lon="-1.39793">
        <ele>57</ele>
        <time>2022-04-03T11:54:13Z</time>
      </trkpt>
      <trkpt lat="47.28659" lon="-1.39806">
        <ele>57</ele>
        <time>2022-04-03T11:54:15Z</time>
      </trkpt>
      <trkpt lat="47.2865" lon="-1.39819">
        <ele>57</ele>
        <time>2022-04-03T11:54:17Z</time>
      </trkpt>
      <trkpt lat="47.28642" lon="-1.39832">
        <ele>57</ele>
        <time>2022-04-03T11:54:19Z</time>
      </trkpt>
      <trkpt lat="47.28633" lon="-1.39844">
        <ele>58</ele>
        <time>2022-04-03T11:54:21Z</time>
      </trkpt>
      <trkpt lat="47.28625" lon="-1.39858">
        <ele>58</ele>
        <time>2022-04-03T11:54:23Z</time>
      </trkpt>
      <trkpt lat="47.28617" lon="-1.39871">
        <ele>58</ele>
        <time>2022-04-03T11:54:25Z</time>
      </trkpt>
      <trkpt lat="47.28608" lon="-1.39884">
        <ele>57</ele>
        <time>2022-04-03T11:54:27Z</time>
      </trkpt>
      <trkpt lat="47.286" lon="-1.39897">
        <ele>57</ele>
        <time>2022-04-03T11:54:29Z</time>
      </trkpt>
      <trkpt lat="47.28592" lon="-1.3991">
        <ele>57</ele>
        <time>2022-04-03T11:54:31Z</time>
      </trkpt>
      <trkpt lat="47.28583" lon="-1.39923">
        <ele>57</ele>
        <time>2022-04-03T11:54:33Z</time>
      </trkpt>
      <trkpt lat="47.28574" lon="-1.39937">
        <ele>57</ele>
        <time>2022-04-03T11:54:35Z</time>
      </trkpt>
      <trkpt lat="47.28565" lon="-1.39949">
        <ele>57</ele>
        <time>2022-04-03T11:54:37Z</time>
      </trkpt>
      <trkpt lat="47.28557" lon="-1.39962">
        <ele>57</ele>
        <time>2022-04-03T11:54:39Z</time>
      </trkpt>
      <trkpt lat="47.28549" lon="-1.39974">
        <ele>57</ele>
        <time>2022-04-03T11:54:41Z</time>
      </trkpt>
      <trkpt lat="47.2854" lon="-1.39986">
        <ele>56</ele>
        <time>2022-04-03T11:54:43Z</time>
      </trkpt>
      <trkpt lat="47.2853" lon="-1.39998">
        <ele>56</ele>
        <time>2022-04-03T11:54:45Z</time>
      </trkpt>
      <trkpt lat="47.28521" lon="-1.4001">
        <ele>56</ele>
        <time>2022-04-03T11:54:47Z</time>
      </trkpt>
      <trkpt lat="47.28512" lon="-1.40023">
        <ele>56</ele>
        <time>2022-04-03T11:54:49Z</time>
      </trkpt>
      <trkpt lat="47.28505" lon="-1.40039">
        <ele>56</ele>
        <time>2022-04-03T11:54:51Z</time>
      </trkpt>
      <trkpt lat="47.28498" lon="-1.40053">
        <ele>56</ele>
        <time>2022-04-03T11:54:53Z</time>
      </trkpt>
      <trkpt lat="47.2849" lon="-1.40068">
        <ele>56</ele>
        <time>2022-04-03T11:54:55Z</time>
      </trkpt>
      <trkpt lat="47.28484" lon="-1.40083">
        <ele>56</ele>
        <time>2022-04-03T11:54:57Z</time>
      </trkpt>
      <trkpt lat="47.28477" lon="-1.40099">
        <ele>56</ele>
        <time>2022-04-03T11:54:59Z</time>
      </trkpt>
      <trkpt lat="47.2847" lon="-1.40114">
        <ele>56</ele>
        <time>2022-04-03T11:55:01Z</time>
      </trkpt>
      <trkpt lat="47.28464" lon="-1.4013">
        <ele>55</ele>
        <time>2022-04-03T11:55:03Z</time>
      </trkpt>
      <trkpt lat="47.28458" lon="-1.40145">
        <ele>55</ele>
        <time>2022-04-03T11:55:05Z</time>
      </trkpt>
      <trkpt lat="47.28452" lon="-1.40161">
        <ele>55</ele>
        <time>2022-04-03T11:55:07Z</time>
      </trkpt>
      <trkpt lat="47.28446" lon="-1.40177">
        <ele>55</ele>
        <time>2022-04-03T11:55:09Z</time>
      </trkpt>
      <trkpt lat="47.28439" lon="-1.40192">
        <ele>55</ele>
        <time>2022-04-03T11:55:11Z</time>
      </trkpt>
      <trkpt lat="47.28433" lon="-1.40208">
        <ele>55</ele>
        <time>2022-04-03T11:55:13Z</time>
      </trkpt>
      <trkpt lat="47.28427" lon="-1.40223">
        <ele>55</ele>
        <time>2022-04-03T11:55:15Z</time>
      </trkpt>
      <trkpt lat="47.28421" lon="-1.40238">
        <ele>55</ele>
        <time>2022-04-03T11:55:17Z</time>
      </trkpt>
      <trkpt lat="47.28414" lon="-1.40253">
        <ele>55</ele>
        <time>2022-04-03T11:55:19Z</time>
      </trkpt>
      <trkpt lat="47.28408" lon="-1.40268">
        <ele>55</ele>
        <time>2022-04-03T11:55:21Z</time>
      </trkpt>
      <trkpt lat="47.28401" lon="-1.40284">
        <ele>55</ele>
        <time>2022-04-03T11:55:23Z</time>
      </trkpt>
      <trkpt lat="47.28394" lon="-1.40298">
        <ele>55</ele>
        <time>2022-04-03T11:55:25Z</time>
      </trkpt>
      <trkpt lat="47.28386" lon="-1.40312">
        <ele>55</ele>
        <time>2022-04-03T11:55:27Z</time>
      </trkpt>
      <trkpt lat="47.28378" lon="-1.40325">
        <ele>55</ele>
        <time>2022-04-03T11:55:29Z</time>
      </trkpt>
      <trkpt lat="47.28369" lon="-1.40338">
        <ele>55</ele>
        <time>2022-04-03T11:55:31Z</time>
      </trkpt>
      <trkpt lat="47.28361" lon="-1.40351">
        <ele>56</ele>
        <time>2022-04-03T11:55:33Z</time>
      </trkpt>
      <trkpt lat="47.28352" lon="-1.40362">
        <ele>56</ele>
        <time>2022-04-03T11:55:35Z</time>
      </trkpt>
      <trkpt lat="47.28344" lon="-1.40375">
        <ele>56</ele>
        <time>2022-04-03T11:55:37Z</time>
      </trkpt>
      <trkpt lat="47.28335" lon="-1.40387">
        <ele>56</ele>
        <time>2022-04-03T11:55:39Z</time>
      </trkpt>
      <trkpt lat="47.28326" lon="-1.40399">
        <ele>56</ele>
        <time>2022-04-03T11:55:41Z</time>
      </trkpt>
      <trkpt lat="47.28316" lon="-1.40411">
        <ele>56</ele>
        <time>2022-04-03T11:55:43Z</time>
      </trkpt>
      <trkpt lat="47.28306" lon="-1.40422">
        <ele>56</ele>
        <time>2022-04-03T11:55:45Z</time>
      </trkpt>
      <trkpt lat="47.28296" lon="-1.40433">
        <ele>56</ele>
        <time>2022-04-03T11:55:47Z</time>
      </trkpt>
      <trkpt lat="47.28286" lon="-1.40443">
        <ele>56</ele>
        <time>2022-04-03T11:55:49Z</time>
      </trkpt>
      <trkpt lat="47.28275" lon="-1.40452">
        <ele>56</ele>
        <time>2022-04-03T11:55:51Z</time>
      </trkpt>
      <trkpt lat="47.28265" lon="-1.40461">
        <ele>56</ele>
        <time>2022-04-03T11:55:53Z</time>
      </trkpt>
      <trkpt lat="47.28255" lon="-1.40471">
        <ele>56</ele>
        <time>2022-04-03T11:55:55Z</time>
      </trkpt>
      <trkpt lat="47.28245" lon="-1.40481">
        <ele>56</ele>
        <time>2022-04-03T11:55:57Z</time>
      </trkpt>
      <trkpt lat="47.28234" lon="-1.40491">
        <ele>56</ele>
        <time>2022-04-03T11:55:59Z</time>
      </trkpt>
      <trkpt lat="47.28225" lon="-1.40502">
        <ele>56</ele>
        <time>2022-04-03T11:56:01Z</time>
      </trkpt>
      <trkpt lat="47.28215" lon="-1.40512">
        <ele>56</ele>
        <time>2022-04-03T11:56:03Z</time>
      </trkpt>
      <trkpt lat="47.28204" lon="-1.40522">
        <ele>56</ele>
        <time>2022-04-03T11:56:05Z</time>
      </trkpt>
      <trkpt lat="47.28194" lon="-1.40531">
        <ele>56</ele>
        <time>2022-04-03T11:56:07Z</time>
      </trkpt>
      <trkpt lat="47.28184" lon="-1.40541">
        <ele>56</ele>
        <time>2022-04-03T11:56:09Z</time>
      </trkpt>
      <trkpt lat="47.28174" lon="-1.4055">
        <ele>56</ele>
        <time>2022-04-03T11:56:11Z</time>
      </trkpt>
      <trkpt lat="47.28164" lon="-1.40561">
        <ele>56</ele>
        <time>2022-04-03T11:56:13Z</time>
      </trkpt>
      <trkpt lat="47.28153" lon="-1.40571">
        <ele>56</ele>
        <time>2022-04-03T11:56:15Z</time>
      </trkpt>
      <trkpt lat="47.28143" lon="-1.40581">
        <ele>56</ele>
        <time>2022-04-03T11:56:17Z</time>
      </trkpt>
      <trkpt lat="47.28133" lon="-1.40591">
        <ele>56</ele>
        <time>2022-04-03T11:56:19Z</time>
      </trkpt>
      <trkpt lat="47.28123" lon="-1.406">
        <ele>56</ele>
        <time>2022-04-03T11:56:21Z</time>
      </trkpt>
      <trkpt lat="47.28112" lon="-1.4061">
        <ele>56</ele>
        <time>2022-04-03T11:56:23Z</time>
      </trkpt>
      <trkpt lat="47.28102" lon="-1.4062">
        <ele>55</ele>
        <time>2022-04-03T11:56:25Z</time>
      </trkpt>
      <trkpt lat="47.28092" lon="-1.4063">
        <ele>55</ele>
        <time>2022-04-03T11:56:27Z</time>
      </trkpt>
      <trkpt lat="47.28082" lon="-1.4064">
        <ele>55</ele>
        <time>2022-04-03T11:56:29Z</time>
      </trkpt>
      <trkpt lat="47.28071" lon="-1.4065">
        <ele>56</ele>
        <time>2022-04-03T11:56:31Z</time>
      </trkpt>
      <trkpt lat="47.28061" lon="-1.40659">
        <ele>56</ele>
        <time>2022-04-03T11:56:33Z</time>
      </trkpt>
      <trkpt lat="47.2805" lon="-1.40669">
        <ele>56</ele>
        <time>2022-04-03T11:56:35Z</time>
      </trkpt>
      <trkpt lat="47.2804" lon="-1.4068">
        <ele>56</ele>
        <time>2022-04-03T11:56:37Z</time>
      </trkpt>
      <trkpt lat="47.28031" lon="-1.4069">
        <ele>56</ele>
        <time>2022-04-03T11:56:39Z</time>
      </trkpt>
      <trkpt lat="47.28021" lon="-1.407">
        <ele>56</ele>
        <time>2022-04-03T11:56:41Z</time>
      </trkpt>
      <trkpt lat="47.28011" lon="-1.40711">
        <ele>57</ele>
        <time>2022-04-03T11:56:43Z</time>
      </trkpt>
      <trkpt lat="47.28002" lon="-1.4072">
        <ele>56</ele>
        <time>2022-04-03T11:56:45Z</time>
      </trkpt>
      <trkpt lat="47.27991" lon="-1.4073">
        <ele>56</ele>
        <time>2022-04-03T11:56:47Z</time>
      </trkpt>
      <trkpt lat="47.27981" lon="-1.40739">
        <ele>56</ele>
        <time>2022-04-03T11:56:49Z</time>
      </trkpt>
      <trkpt lat="47.27971" lon="-1.40749">
        <ele>56</ele>
        <time>2022-04-03T11:56:51Z</time>
      </trkpt>
      <trkpt lat="47.27961" lon="-1.40759">
        <ele>56</ele>
        <time>2022-04-03T11:56:53Z</time>
      </trkpt>
      <trkpt lat="47.27951" lon="-1.40768">
        <ele>56</ele>
        <time>2022-04-03T11:56:55Z</time>
      </trkpt>
      <trkpt lat="47.2794" lon="-1.40777">
        <ele>55</ele>
        <time>2022-04-03T11:56:57Z</time>
      </trkpt>
      <trkpt lat="47.2793" lon="-1.40787">
        <ele>55</ele>
        <time>2022-04-03T11:56:59Z</time>
      </trkpt>
      <trkpt lat="47.27919" lon="-1.40796">
        <ele>55</ele>
        <time>2022-04-03T11:57:01Z</time>
      </trkpt>
      <trkpt lat="47.27908" lon="-1.40806">
        <ele>55</ele>
        <time>2022-04-03T11:57:03Z</time>
      </trkpt>
      <trkpt lat="47.27898" lon="-1.40816">
        <ele>55</ele>
        <time>2022-04-03T11:57:05Z</time>
      </trkpt>
      <trkpt lat="47.27889" lon="-1.40827">
        <ele>55</ele>
        <time>2022-04-03T11:57:07Z</time>
      </trkpt>
      <trkpt lat="47.2788" lon="-1.4084">
        <ele>55</ele>
        <time>2022-04-03T11:57:09Z</time>
      </trkpt>
      <trkpt lat="47.27873" lon="-1.40854">
        <ele>55</ele>
        <time>2022-04-03T11:57:11Z</time>
      </trkpt>
      <trkpt lat="47.27866" lon="-1.40869">
        <ele>56</ele>
        <time>2022-04-03T11:57:13Z</time>
      </trkpt>
      <trkpt lat="47.27859" lon="-1.40884">
        <ele>56</ele>
        <time>2022-04-03T11:57:15Z</time>
      </trkpt>
      <trkpt lat="47.27852" lon="-1.40898">
        <ele>56</ele>
        <time>2022-04-03T11:57:17Z</time>
      </trkpt>
      <trkpt lat="47.27845" lon="-1.40913">
        <ele>56</ele>
        <time>2022-04-03T11:57:19Z</time>
      </trkpt>
      <trkpt lat="47.27838" lon="-1.40927">
        <ele>56</ele>
        <time>2022-04-03T11:57:21Z</time>
      </trkpt>
      <trkpt lat="47.27832" lon="-1.40942">
        <ele>57</ele>
        <time>2022-04-03T11:57:23Z</time>
      </trkpt>
      <trkpt lat="47.27824" lon="-1.40956">
        <ele>57</ele>
        <time>2022-04-03T11:57:25Z</time>
      </trkpt>
      <trkpt lat="47.27816" lon="-1.40972">
        <ele>56</ele>
        <time>2022-04-03T11:57:27Z</time>
      </trkpt>
      <trkpt lat="47.27807" lon="-1.40988">
        <ele>56</ele>
        <time>2022-04-03T11:57:29Z</time>
      </trkpt>
      <trkpt lat="47.27797" lon="-1.41002">
        <ele>56</ele>
        <time>2022-04-03T11:57:31Z</time>
      </trkpt>
      <trkpt lat="47.27787" lon="-1.41016">
        <ele>56</ele>
        <time>2022-04-03T11:57:33Z</time>
      </trkpt>
      <trkpt lat="47.27778" lon="-1.4103">
        <ele>56</ele>
        <time>2022-04-03T11:57:35Z</time>
      </trkpt>
      <trkpt lat="47.27772" lon="-1.41047">
        <ele>56</ele>
        <time>2022-04-03T11:57:37Z</time>
      </trkpt>
      <trkpt lat="47.27766" lon="-1.41064">
        <ele>56</ele>
        <time>2022-04-03T11:57:39Z</time>
      </trkpt>
      <trkpt lat="47.27757" lon="-1.41078">
        <ele>56</ele>
        <time>2022-04-03T11:57:41Z</time>
      </trkpt>
      <trkpt lat="47.27746" lon="-1.41089">
        <ele>56</ele>
        <time>2022-04-03T11:57:43Z</time>
      </trkpt>
      <trkpt lat="47.27735" lon="-1.41099">
        <ele>56</ele>
        <time>2022-04-03T11:57:45Z</time>
      </trkpt>
      <trkpt lat="47.27724" lon="-1.4111">
        <ele>56</ele>
        <time>2022-04-03T11:57:47Z</time>
      </trkpt>
      <trkpt lat="47.27714" lon="-1.41121">
        <ele>56</ele>
        <time>2022-04-03T11:57:49Z</time>
      </trkpt>
      <trkpt lat="47.27704" lon="-1.41132">
        <ele>56</ele>
        <time>2022-04-03T11:57:51Z</time>
      </trkpt>
      <trkpt lat="47.27693" lon="-1.41142">
        <ele>56</ele>
        <time>2022-04-03T11:57:53Z</time>
      </trkpt>
      <trkpt lat="47.27684" lon="-1.41153">
        <ele>55</ele>
        <time>2022-04-03T11:57:55Z</time>
      </trkpt>
      <trkpt lat="47.27674" lon="-1.41165">
        <ele>56</ele>
        <time>2022-04-03T11:57:57Z</time>
      </trkpt>
      <trkpt lat="47.27665" lon="-1.41177">
        <ele>56</ele>
        <time>2022-04-03T11:57:59Z</time>
      </trkpt>
      <trkpt lat="47.27654" lon="-1.41187">
        <ele>56</ele>
        <time>2022-04-03T11:58:01Z</time>
      </trkpt>
      <trkpt lat="47.27644" lon="-1.41198">
        <ele>56</ele>
        <time>2022-04-03T11:58:03Z</time>
      </trkpt>
      <trkpt lat="47.27633" lon="-1.41208">
        <ele>55</ele>
        <time>2022-04-03T11:58:05Z</time>
      </trkpt>
      <trkpt lat="47.27623" lon="-1.41218">
        <ele>55</ele>
        <time>2022-04-03T11:58:07Z</time>
      </trkpt>
      <trkpt lat="47.27613" lon="-1.41228">
        <ele>55</ele>
        <time>2022-04-03T11:58:09Z</time>
      </trkpt>
      <trkpt lat="47.27603" lon="-1.41239">
        <ele>55</ele>
        <time>2022-04-03T11:58:11Z</time>
      </trkpt>
      <trkpt lat="47.27593" lon="-1.4125">
        <ele>55</ele>
        <time>2022-04-03T11:58:13Z</time>
      </trkpt>
      <trkpt lat="47.27583" lon="-1.41262">
        <ele>55</ele>
        <time>2022-04-03T11:58:15Z</time>
      </trkpt>
      <trkpt lat="47.27573" lon="-1.41273">
        <ele>55</ele>
        <time>2022-04-03T11:58:17Z</time>
      </trkpt>
      <trkpt lat="47.27563" lon="-1.41285">
        <ele>55</ele>
        <time>2022-04-03T11:58:19Z</time>
      </trkpt>
      <trkpt lat="47.27553" lon="-1.41297">
        <ele>55</ele>
        <time>2022-04-03T11:58:21Z</time>
      </trkpt>
      <trkpt lat="47.27544" lon="-1.41309">
        <ele>54</ele>
        <time>2022-04-03T11:58:23Z</time>
      </trkpt>
      <trkpt lat="47.27534" lon="-1.41321">
        <ele>55</ele>
        <time>2022-04-03T11:58:25Z</time>
      </trkpt>
      <trkpt lat="47.27526" lon="-1.41333">
        <ele>55</ele>
        <time>2022-04-03T11:58:27Z</time>
      </trkpt>
      <trkpt lat="47.27517" lon="-1.41346">
        <ele>55</ele>
        <time>2022-04-03T11:58:29Z</time>
      </trkpt>
      <trkpt lat="47.27507" lon="-1.41359">
        <ele>55</ele>
        <time>2022-04-03T11:58:31Z</time>
      </trkpt>
      <trkpt lat="47.27499" lon="-1.41373">
        <ele>55</ele>
        <time>2022-04-03T11:58:33Z</time>
      </trkpt>
      <trkpt lat="47.2749" lon="-1.41386">
        <ele>55</ele>
        <time>2022-04-03T11:58:35Z</time>
      </trkpt>
      <trkpt lat="47.27482" lon="-1.41401">
        <ele>55</ele>
        <time>2022-04-03T11:58:37Z</time>
      </trkpt>
      <trkpt lat="47.27473" lon="-1.41415">
        <ele>55</ele>
        <time>2022-04-03T11:58:39Z</time>
      </trkpt>
      <trkpt lat="47.27465" lon="-1.41429">
        <ele>54</ele>
        <time>2022-04-03T11:58:41Z</time>
      </trkpt>
      <trkpt lat="47.27457" lon="-1.41443">
        <ele>54</ele>
        <time>2022-04-03T11:58:43Z</time>
      </trkpt>
      <trkpt lat="47.27449" lon="-1.41457">
        <ele>54</ele>
        <time>2022-04-03T11:58:45Z</time>
      </trkpt>
      <trkpt lat="47.27441" lon="-1.41472">
        <ele>54</ele>
        <time>2022-04-03T11:58:47Z</time>
      </trkpt>
      <trkpt lat="47.27433" lon="-1.41486">
        <ele>55</ele>
        <time>2022-04-03T11:58:49Z</time>
      </trkpt>
      <trkpt lat="47.27424" lon="-1.415">
        <ele>55</ele>
        <time>2022-04-03T11:58:51Z</time>
      </trkpt>
      <trkpt lat="47.27416" lon="-1.41513">
        <ele>55</ele>
        <time>2022-04-03T11:58:53Z</time>
      </trkpt>
      <trkpt lat="47.27408" lon="-1.41527">
        <ele>55</ele>
        <time>2022-04-03T11:58:55Z</time>
      </trkpt>
      <trkpt lat="47.274" lon="-1.4154">
        <ele>55</ele>
        <time>2022-04-03T11:58:57Z</time>
      </trkpt>
      <trkpt lat="47.27391" lon="-1.41553">
        <ele>55</ele>
        <time>2022-04-03T11:58:59Z</time>
      </trkpt>
      <trkpt lat="47.27382" lon="-1.41566">
        <ele>55</ele>
        <time>2022-04-03T11:59:01Z</time>
      </trkpt>
      <trkpt lat="47.27374" lon="-1.41579">
        <ele>55</ele>
        <time>2022-04-03T11:59:03Z</time>
      </trkpt>
      <trkpt lat="47.27366" lon="-1.41593">
        <ele>55</ele>
        <time>2022-04-03T11:59:05Z</time>
      </trkpt>
      <trkpt lat="47.27358" lon="-1.41605">
        <ele>55</ele>
        <time>2022-04-03T11:59:07Z</time>
      </trkpt>
      <trkpt lat="47.27349" lon="-1.41619">
        <ele>55</ele>
        <time>2022-04-03T11:59:09Z</time>
      </trkpt>
      <trkpt lat="47.27341" lon="-1.41631">
        <ele>55</ele>
        <time>2022-04-03T11:59:11Z</time>
      </trkpt>
      <trkpt lat="47.27332" lon="-1.41644">
        <ele>55</ele>
        <time>2022-04-03T11:59:13Z</time>
      </trkpt>
      <trkpt lat="47.27324" lon="-1.41658">
        <ele>55</ele>
        <time>2022-04-03T11:59:15Z</time>
      </trkpt>
      <trkpt lat="47.27316" lon="-1.41673">
        <ele>55</ele>
        <time>2022-04-03T11:59:17Z</time>
      </trkpt>
      <trkpt lat="47.27308" lon="-1.41686">
        <ele>55</ele>
        <time>2022-04-03T11:59:19Z</time>
      </trkpt>
      <trkpt lat="47.273" lon="-1.41701">
        <ele>55</ele>
        <time>2022-04-03T11:59:21Z</time>
      </trkpt>
      <trkpt lat="47.27293" lon="-1.41716">
        <ele>55</ele>
        <time>2022-04-03T11:59:23Z</time>
      </trkpt>
      <trkpt lat="47.27286" lon="-1.41731">
        <ele>56</ele>
        <time>2022-04-03T11:59:25Z</time>
      </trkpt>
      <trkpt lat="47.27278" lon="-1.41746">
        <ele>56</ele>
        <time>2022-04-03T11:59:27Z</time>
      </trkpt>
      <trkpt lat="47.2727" lon="-1.41761">
        <ele>55</ele>
        <time>2022-04-03T11:59:29Z</time>
      </trkpt>
      <trkpt lat="47.27262" lon="-1.41776">
        <ele>55</ele>
        <time>2022-04-03T11:59:31Z</time>
      </trkpt>
      <trkpt lat="47.27255" lon="-1.4179">
        <ele>55</ele>
        <time>2022-04-03T11:59:33Z</time>
      </trkpt>
      <trkpt lat="47.27246" lon="-1.41804">
        <ele>55</ele>
        <time>2022-04-03T11:59:35Z</time>
      </trkpt>
      <trkpt lat="47.27239" lon="-1.41819">
        <ele>55</ele>
        <time>2022-04-03T11:59:37Z</time>
      </trkpt>
      <trkpt lat="47.27231" lon="-1.41833">
        <ele>55</ele>
        <time>2022-04-03T11:59:39Z</time>
      </trkpt>
      <trkpt lat="47.27224" lon="-1.41848">
        <ele>55</ele>
        <time>2022-04-03T11:59:41Z</time>
      </trkpt>
      <trkpt lat="47.27216" lon="-1.41862">
        <ele>55</ele>
        <time>2022-04-03T11:59:43Z</time>
      </trkpt>
      <trkpt lat="47.27208" lon="-1.41876">
        <ele>55</ele>
        <time>2022-04-03T11:59:45Z</time>
      </trkpt>
      <trkpt lat="47.272" lon="-1.4189">
        <ele>55</ele>
        <time>2022-04-03T11:59:47Z</time>
      </trkpt>
      <trkpt lat="47.27192" lon="-1.41905">
        <ele>55</ele>
        <time>2022-04-03T11:59:49Z</time>
      </trkpt>
      <trkpt lat="47.27183" lon="-1.41919">
        <ele>55</ele>
        <time>2022-04-03T11:59:51Z</time>
      </trkpt>
      <trkpt lat="47.27175" lon="-1.41932">
        <ele>55</ele>
        <time>2022-04-03T11:59:53Z</time>
      </trkpt>
      <trkpt lat="47.27166" lon="-1.41947">
        <ele>55</ele>
        <time>2022-04-03T11:59:55Z</time>
      </trkpt>
      <trkpt lat="47.27158" lon="-1.41961">
        <ele>55</ele>
        <time>2022-04-03T11:59:57Z</time>
      </trkpt>
      <trkpt lat="47.2715" lon="-1.41976">
        <ele>55</ele>
        <time>2022-04-03T11:59:59Z</time>
      </trkpt>
      <trkpt lat="47.27142" lon="-1.41991">
        <ele>55</ele>
        <time>2022-04-03T12:00:01Z</time>
      </trkpt>
      <trkpt lat="47.27134" lon="-1.42006">
        <ele>55</ele>
        <time>2022-04-03T12:00:03Z</time>
      </trkpt>
      <trkpt lat="47.27126" lon="-1.4202">
        <ele>55</ele>
        <time>2022-04-03T12:00:05Z</time>
      </trkpt>
      <trkpt lat="47.27117" lon="-1.42034">
        <ele>55</ele>
        <time>2022-04-03T12:00:07Z</time>
      </trkpt>
      <trkpt lat="47.27108" lon="-1.42047">
        <ele>55</ele>
        <time>2022-04-03T12:00:09Z</time>
      </trkpt>
      <trkpt lat="47.27099" lon="-1.4206">
        <ele>55</ele>
        <time>2022-04-03T12:00:11Z</time>
      </trkpt>
      <trkpt lat="47.2709" lon="-1.42074">
        <ele>55</ele>
        <time>2022-04-03T12:00:13Z</time>
      </trkpt>
      <trkpt lat="47.27082" lon="-1.42087">
        <ele>55</ele>
        <time>2022-04-03T12:00:15Z</time>
      </trkpt>
      <trkpt lat="47.27074" lon="-1.42101">
        <ele>55</ele>
        <time>2022-04-03T12:00:17Z</time>
      </trkpt>
      <trkpt lat="47.27066" lon="-1.42115">
        <ele>55</ele>
        <time>2022-04-03T12:00:19Z</time>
      </trkpt>
      <trkpt lat="47.27058" lon="-1.42129">
        <ele>55</ele>
        <time>2022-04-03T12:00:21Z</time>
      </trkpt>
      <trkpt lat="47.27049" lon="-1.42143">
        <ele>55</ele>
        <time>2022-04-03T12:00:23Z</time>
      </trkpt>
      <trkpt lat="47.27042" lon="-1.42158">
        <ele>55</ele>
        <time>2022-04-03T12:00:25Z</time>
      </trkpt>
      <trkpt lat="47.27034" lon="-1.42173">
        <ele>55</ele>
        <time>2022-04-03T12:00:27Z</time>
      </trkpt>
      <trkpt lat="47.27026" lon="-1.42188">
        <ele>55</ele>
        <time>2022-04-03T12:00:29Z</time>
      </trkpt>
      <trkpt lat="47.27017" lon="-1.42202">
        <ele>55</ele>
        <time>2022-04-03T12:00:31Z</time>
      </trkpt>
      <trkpt lat="47.27009" lon="-1.42218">
        <ele>55</ele>
        <time>2022-04-03T12:00:33Z</time>
      </trkpt>
      <trkpt lat="47.27" lon="-1.42232">
        <ele>55</ele>
        <time>2022-04-03T12:00:35Z</time>
      </trkpt>
      <trkpt lat="47.26992" lon="-1.42246">
        <ele>55</ele>
        <time>2022-04-03T12:00:37Z</time>
      </trkpt>
      <trkpt lat="47.26984" lon="-1.42261">
        <ele>55</ele>
        <time>2022-04-03T12:00:39Z</time>
      </trkpt>
      <trkpt lat="47.26976" lon="-1.42275">
        <ele>55</ele>
        <time>2022-04-03T12:00:41Z</time>
      </trkpt>
      <trkpt lat="47.26969" lon="-1.4229">
        <ele>55</ele>
        <time>2022-04-03T12:00:43Z</time>
      </trkpt>
      <trkpt lat="47.26961" lon="-1.42304">
        <ele>56</ele>
        <time>2022-04-03T12:00:45Z</time>
      </trkpt>
      <trkpt lat="47.26954" lon="-1.42319">
        <ele>56</ele>
        <time>2022-04-03T12:00:47Z</time>
      </trkpt>
      <trkpt lat="47.26946" lon="-1.42334">
        <ele>56</ele>
        <time>2022-04-03T12:00:49Z</time>
      </trkpt>
      <trkpt lat="47.26939" lon="-1.42348">
        <ele>56</ele>
        <time>2022-04-03T12:00:51Z</time>
      </trkpt>
      <trkpt lat="47.26932" lon="-1.42363">
        <ele>56</ele>
        <time>2022-04-03T12:00:53Z</time>
      </trkpt>
      <trkpt lat="47.26925" lon="-1.42378">
        <ele>55</ele>
        <time>2022-04-03T12:00:55Z</time>
      </trkpt>
      <trkpt lat="47.26918" lon="-1.42392">
        <ele>56</ele>
        <time>2022-04-03T12:00:57Z</time>
      </trkpt>
      <trkpt lat="47.26911" lon="-1.42406">
        <ele>56</ele>
        <time>2022-04-03T12:00:59Z</time>
      </trkpt>
      <trkpt lat="47.26903" lon="-1.4242">
        <ele>56</ele>
        <time>2022-04-03T12:01:01Z</time>
      </trkpt>
      <trkpt lat="47.26896" lon="-1.42434">
        <ele>56</ele>
        <time>2022-04-03T12:01:03Z</time>
      </trkpt>
      <trkpt lat="47.26888" lon="-1.42449">
        <ele>56</ele>
        <time>2022-04-03T12:01:05Z</time>
      </trkpt>
      <trkpt lat="47.2688" lon="-1.42463">
        <ele>56</ele>
        <time>2022-04-03T12:01:07Z</time>
      </trkpt>
      <trkpt lat="47.26872" lon="-1.42477">
        <ele>56</ele>
        <time>2022-04-03T12:01:09Z</time>
      </trkpt>
      <trkpt lat="47.26864" lon="-1.42492">
        <ele>55</ele>
        <time>2022-04-03T12:01:11Z</time>
      </trkpt>
      <trkpt lat="47.26856" lon="-1.42506">
        <ele>55</ele>
        <time>2022-04-03T12:01:13Z</time>
      </trkpt>
      <trkpt lat="47.26848" lon="-1.42521">
        <ele>55</ele>
        <time>2022-04-03T12:01:15Z</time>
      </trkpt>
      <trkpt lat="47.2684" lon="-1.42536">
        <ele>55</ele>
        <time>2022-04-03T12:01:17Z</time>
      </trkpt>
      <trkpt lat="47.26833" lon="-1.42551">
        <ele>55</ele>
        <time>2022-04-03T12:01:19Z</time>
      </trkpt>
      <trkpt lat="47.26825" lon="-1.42566">
        <ele>55</ele>
        <time>2022-04-03T12:01:21Z</time>
      </trkpt>
      <trkpt lat="47.26818" lon="-1.42581">
        <ele>55</ele>
        <time>2022-04-03T12:01:23Z</time>
      </trkpt>
      <trkpt lat="47.26812" lon="-1.42596">
        <ele>55</ele>
        <time>2022-04-03T12:01:25Z</time>
      </trkpt>
      <trkpt lat="47.26805" lon="-1.42612">
        <ele>55</ele>
        <time>2022-04-03T12:01:27Z</time>
      </trkpt>
      <trkpt lat="47.26799" lon="-1.42629">
        <ele>54</ele>
        <time>2022-04-03T12:01:29Z</time>
      </trkpt>
      <trkpt lat="47.26792" lon="-1.42644">
        <ele>54</ele>
        <time>2022-04-03T12:01:31Z</time>
      </trkpt>
      <trkpt lat="47.26787" lon="-1.42661">
        <ele>54</ele>
        <time>2022-04-03T12:01:33Z</time>
      </trkpt>
      <trkpt lat="47.2678" lon="-1.42679">
        <ele>54</ele>
        <time>2022-04-03T12:01:35Z</time>
      </trkpt>
      <trkpt lat="47.26774" lon="-1.42695">
        <ele>54</ele>
        <time>2022-04-03T12:01:37Z</time>
      </trkpt>
      <trkpt lat="47.26768" lon="-1.42712">
        <ele>54</ele>
        <time>2022-04-03T12:01:39Z</time>
      </trkpt>
      <trkpt lat="47.26761" lon="-1.42728">
        <ele>54</ele>
        <time>2022-04-03T12:01:41Z</time>
      </trkpt>
      <trkpt lat="47.26753" lon="-1.42742">
        <ele>54</ele>
        <time>2022-04-03T12:01:43Z</time>
      </trkpt>
      <trkpt lat="47.26745" lon="-1.42757">
        <ele>55</ele>
        <time>2022-04-03T12:01:45Z</time>
      </trkpt>
      <trkpt lat="47.26738" lon="-1.42773">
        <ele>55</ele>
        <time>2022-04-03T12:01:47Z</time>
      </trkpt>
      <trkpt lat="47.26732" lon="-1.42789">
        <ele>55</ele>
        <time>2022-04-03T12:01:49Z</time>
      </trkpt>
      <trkpt lat="47.26729" lon="-1.42805">
        <ele>55</ele>
        <time>2022-04-03T12:01:51Z</time>
      </trkpt>
      <trkpt lat="47.26725" lon="-1.42822">
        <ele>55</ele>
        <time>2022-04-03T12:01:53Z</time>
      </trkpt>
      <trkpt lat="47.26718" lon="-1.42839">
        <ele>55</ele>
        <time>2022-04-03T12:01:55Z</time>
      </trkpt>
      <trkpt lat="47.26711" lon="-1.42857">
        <ele>55</ele>
        <time>2022-04-03T12:01:57Z</time>
      </trkpt>
      <trkpt lat="47.26703" lon="-1.42873">
        <ele>55</ele>
        <time>2022-04-03T12:01:59Z</time>
      </trkpt>
      <trkpt lat="47.26695" lon="-1.4289">
        <ele>55</ele>
        <time>2022-04-03T12:02:01Z</time>
      </trkpt>
      <trkpt lat="47.26687" lon="-1.42906">
        <ele>55</ele>
        <time>2022-04-03T12:02:03Z</time>
      </trkpt>
      <trkpt lat="47.26679" lon="-1.42922">
        <ele>54</ele>
        <time>2022-04-03T12:02:05Z</time>
      </trkpt>
      <trkpt lat="47.26672" lon="-1.42937">
        <ele>54</ele>
        <time>2022-04-03T12:02:07Z</time>
      </trkpt>
      <trkpt lat="47.26664" lon="-1.42953">
        <ele>54</ele>
        <time>2022-04-03T12:02:09Z</time>
      </trkpt>
      <trkpt lat="47.26657" lon="-1.42968">
        <ele>54</ele>
        <time>2022-04-03T12:02:11Z</time>
      </trkpt>
      <trkpt lat="47.26649" lon="-1.42983">
        <ele>54</ele>
        <time>2022-04-03T12:02:13Z</time>
      </trkpt>
      <trkpt lat="47.26641" lon="-1.42998">
        <ele>54</ele>
        <time>2022-04-03T12:02:15Z</time>
      </trkpt>
      <trkpt lat="47.26634" lon="-1.43014">
        <ele>54</ele>
        <time>2022-04-03T12:02:17Z</time>
      </trkpt>
      <trkpt lat="47.26627" lon="-1.43029">
        <ele>54</ele>
        <time>2022-04-03T12:02:19Z</time>
      </trkpt>
      <trkpt lat="47.2662" lon="-1.43044">
        <ele>53</ele>
        <time>2022-04-03T12:02:21Z</time>
      </trkpt>
      <trkpt lat="47.26612" lon="-1.43058">
        <ele>53</ele>
        <time>2022-04-03T12:02:23Z</time>
      </trkpt>
      <trkpt lat="47.26604" lon="-1.43073">
        <ele>53</ele>
        <time>2022-04-03T12:02:25Z</time>
      </trkpt>
      <trkpt lat="47.26596" lon="-1.43088">
        <ele>53</ele>
        <time>2022-04-03T12:02:27Z</time>
      </trkpt>
      <trkpt lat="47.26587" lon="-1.43102">
        <ele>53</ele>
        <time>2022-04-03T12:02:29Z</time>
      </trkpt>
      <trkpt lat="47.26578" lon="-1.43116">
        <ele>53</ele>
        <time>2022-04-03T12:02:31Z</time>
      </trkpt>
      <trkpt lat="47.2657" lon="-1.43131">
        <ele>53</ele>
        <time>2022-04-03T12:02:33Z</time>
      </trkpt>
      <trkpt lat="47.26561" lon="-1.43145">
        <ele>54</ele>
        <time>2022-04-03T12:02:35Z</time>
      </trkpt>
      <trkpt lat="47.26552" lon="-1.43159">
        <ele>54</ele>
        <time>2022-04-03T12:02:37Z</time>
      </trkpt>
      <trkpt lat="47.26544" lon="-1.43172">
        <ele>54</ele>
        <time>2022-04-03T12:02:39Z</time>
      </trkpt>
      <trkpt lat="47.26535" lon="-1.43185">
        <ele>55</ele>
        <time>2022-04-03T12:02:41Z</time>
      </trkpt>
      <trkpt lat="47.26525" lon="-1.43197">
        <ele>55</ele>
        <time>2022-04-03T12:02:43Z</time>
      </trkpt>
      <trkpt lat="47.26515" lon="-1.43209">
        <ele>56</ele>
        <time>2022-04-03T12:02:45Z</time>
      </trkpt>
      <trkpt lat="47.26502" lon="-1.43229">
        <ele>56</ele>
        <time>2022-04-03T12:02:48Z</time>
      </trkpt>
      <trkpt lat="47.26492" lon="-1.43241">
        <ele>56</ele>
        <time>2022-04-03T12:02:50Z</time>
      </trkpt>
      <trkpt lat="47.26484" lon="-1.43254">
        <ele>56</ele>
        <time>2022-04-03T12:02:52Z</time>
      </trkpt>
      <trkpt lat="47.26475" lon="-1.43267">
        <ele>57</ele>
        <time>2022-04-03T12:02:54Z</time>
      </trkpt>
      <trkpt lat="47.26466" lon="-1.4328">
        <ele>57</ele>
        <time>2022-04-03T12:02:56Z</time>
      </trkpt>
      <trkpt lat="47.26458" lon="-1.43292">
        <ele>57</ele>
        <time>2022-04-03T12:02:58Z</time>
      </trkpt>
      <trkpt lat="47.2645" lon="-1.43306">
        <ele>57</ele>
        <time>2022-04-03T12:03:00Z</time>
      </trkpt>
      <trkpt lat="47.26442" lon="-1.4332">
        <ele>57</ele>
        <time>2022-04-03T12:03:02Z</time>
      </trkpt>
      <trkpt lat="47.26432" lon="-1.43332">
        <ele>56</ele>
        <time>2022-04-03T12:03:04Z</time>
      </trkpt>
      <trkpt lat="47.26423" lon="-1.43345">
        <ele>56</ele>
        <time>2022-04-03T12:03:06Z</time>
      </trkpt>
      <trkpt lat="47.26413" lon="-1.43356">
        <ele>56</ele>
        <time>2022-04-03T12:03:08Z</time>
      </trkpt>
      <trkpt lat="47.26404" lon="-1.43368">
        <ele>56</ele>
        <time>2022-04-03T12:03:10Z</time>
      </trkpt>
      <trkpt lat="47.26395" lon="-1.43379">
        <ele>56</ele>
        <time>2022-04-03T12:03:12Z</time>
      </trkpt>
      <trkpt lat="47.26385" lon="-1.43391">
        <ele>55</ele>
        <time>2022-04-03T12:03:14Z</time>
      </trkpt>
      <trkpt lat="47.26375" lon="-1.43402">
        <ele>55</ele>
        <time>2022-04-03T12:03:16Z</time>
      </trkpt>
      <trkpt lat="47.26365" lon="-1.43412">
        <ele>55</ele>
        <time>2022-04-03T12:03:18Z</time>
      </trkpt>
      <trkpt lat="47.26354" lon="-1.43423">
        <ele>55</ele>
        <time>2022-04-03T12:03:20Z</time>
      </trkpt>
      <trkpt lat="47.26345" lon="-1.43434">
        <ele>54</ele>
        <time>2022-04-03T12:03:22Z</time>
      </trkpt>
      <trkpt lat="47.26335" lon="-1.43445">
        <ele>54</ele>
        <time>2022-04-03T12:03:24Z</time>
      </trkpt>
      <trkpt lat="47.26325" lon="-1.43455">
        <ele>54</ele>
        <time>2022-04-03T12:03:26Z</time>
      </trkpt>
      <trkpt lat="47.26315" lon="-1.43466">
        <ele>54</ele>
        <time>2022-04-03T12:03:28Z</time>
      </trkpt>
      <trkpt lat="47.26305" lon="-1.43476">
        <ele>54</ele>
        <time>2022-04-03T12:03:30Z</time>
      </trkpt>
      <trkpt lat="47.26295" lon="-1.43484">
        <ele>54</ele>
        <time>2022-04-03T12:03:32Z</time>
      </trkpt>
      <trkpt lat="47.26284" lon="-1.43489">
        <ele>55</ele>
        <time>2022-04-03T12:03:34Z</time>
      </trkpt>
      <trkpt lat="47.26272" lon="-1.43491">
        <ele>55</ele>
        <time>2022-04-03T12:03:36Z</time>
      </trkpt>
      <trkpt lat="47.26261" lon="-1.43496">
        <ele>55</ele>
        <time>2022-04-03T12:03:38Z</time>
      </trkpt>
      <trkpt lat="47.2625" lon="-1.43506">
        <ele>55</ele>
        <time>2022-04-03T12:03:40Z</time>
      </trkpt>
      <trkpt lat="47.2624" lon="-1.43517">
        <ele>55</ele>
        <time>2022-04-03T12:03:42Z</time>
      </trkpt>
      <trkpt lat="47.26231" lon="-1.43527">
        <ele>55</ele>
        <time>2022-04-03T12:03:44Z</time>
      </trkpt>
      <trkpt lat="47.26224" lon="-1.43535">
        <ele>55</ele>
        <time>2022-04-03T12:03:46Z</time>
      </trkpt>
      <trkpt lat="47.26216" lon="-1.43546">
        <ele>55</ele>
        <time>2022-04-03T12:03:48Z</time>
      </trkpt>
      <trkpt lat="47.26213" lon="-1.43566">
        <ele>55</ele>
        <time>2022-04-03T12:03:50Z</time>
      </trkpt>
      <trkpt lat="47.26207" lon="-1.43583">
        <ele>55</ele>
        <time>2022-04-03T12:03:52Z</time>
      </trkpt>
      <trkpt lat="47.26199" lon="-1.43598">
        <ele>55</ele>
        <time>2022-04-03T12:03:54Z</time>
      </trkpt>
      <trkpt lat="47.26191" lon="-1.43612">
        <ele>55</ele>
        <time>2022-04-03T12:03:56Z</time>
      </trkpt>
      <trkpt lat="47.26183" lon="-1.43626">
        <ele>54</ele>
        <time>2022-04-03T12:03:58Z</time>
      </trkpt>
      <trkpt lat="47.26175" lon="-1.43642">
        <ele>55</ele>
        <time>2022-04-03T12:04:00Z</time>
      </trkpt>
      <trkpt lat="47.26166" lon="-1.43656">
        <ele>55</ele>
        <time>2022-04-03T12:04:02Z</time>
      </trkpt>
      <trkpt lat="47.26156" lon="-1.4367">
        <ele>55</ele>
        <time>2022-04-03T12:04:04Z</time>
      </trkpt>
      <trkpt lat="47.26147" lon="-1.43684">
        <ele>55</ele>
        <time>2022-04-03T12:04:06Z</time>
      </trkpt>
      <trkpt lat="47.26139" lon="-1.43698">
        <ele>55</ele>
        <time>2022-04-03T12:04:08Z</time>
      </trkpt>
      <trkpt lat="47.2613" lon="-1.43712">
        <ele>55</ele>
        <time>2022-04-03T12:04:10Z</time>
      </trkpt>
      <trkpt lat="47.26121" lon="-1.43727">
        <ele>55</ele>
        <time>2022-04-03T12:04:12Z</time>
      </trkpt>
      <trkpt lat="47.26112" lon="-1.4374">
        <ele>55</ele>
        <time>2022-04-03T12:04:14Z</time>
      </trkpt>
      <trkpt lat="47.26101" lon="-1.43753">
        <ele>54</ele>
        <time>2022-04-03T12:04:16Z</time>
      </trkpt>
      <trkpt lat="47.26091" lon="-1.43765">
        <ele>54</ele>
        <time>2022-04-03T12:04:18Z</time>
      </trkpt>
      <trkpt lat="47.26082" lon="-1.43778">
        <ele>54</ele>
        <time>2022-04-03T12:04:20Z</time>
      </trkpt>
      <trkpt lat="47.26072" lon="-1.4379">
        <ele>54</ele>
        <time>2022-04-03T12:04:22Z</time>
      </trkpt>
      <trkpt lat="47.26062" lon="-1.43802">
        <ele>54</ele>
        <time>2022-04-03T12:04:24Z</time>
      </trkpt>
      <trkpt lat="47.26054" lon="-1.43817">
        <ele>55</ele>
        <time>2022-04-03T12:04:26Z</time>
      </trkpt>
      <trkpt lat="47.26047" lon="-1.43833">
        <ele>54</ele>
        <time>2022-04-03T12:04:28Z</time>
      </trkpt>
      <trkpt lat="47.26041" lon="-1.4385">
        <ele>54</ele>
        <time>2022-04-03T12:04:30Z</time>
      </trkpt>
      <trkpt lat="47.26033" lon="-1.43864">
        <ele>55</ele>
        <time>2022-04-03T12:04:32Z</time>
      </trkpt>
      <trkpt lat="47.26022" lon="-1.43875">
        <ele>55</ele>
        <time>2022-04-03T12:04:34Z</time>
      </trkpt>
      <trkpt lat="47.26011" lon="-1.43884">
        <ele>55</ele>
        <time>2022-04-03T12:04:36Z</time>
      </trkpt>
      <trkpt lat="47.26" lon="-1.43895">
        <ele>55</ele>
        <time>2022-04-03T12:04:38Z</time>
      </trkpt>
      <trkpt lat="47.25989" lon="-1.43906">
        <ele>56</ele>
        <time>2022-04-03T12:04:40Z</time>
      </trkpt>
      <trkpt lat="47.25979" lon="-1.43918">
        <ele>56</ele>
        <time>2022-04-03T12:04:42Z</time>
      </trkpt>
      <trkpt lat="47.25968" lon="-1.4393">
        <ele>56</ele>
        <time>2022-04-03T12:04:44Z</time>
      </trkpt>
      <trkpt lat="47.25959" lon="-1.43943">
        <ele>57</ele>
        <time>2022-04-03T12:04:46Z</time>
      </trkpt>
      <trkpt lat="47.25949" lon="-1.43955">
        <ele>57</ele>
        <time>2022-04-03T12:04:48Z</time>
      </trkpt>
      <trkpt lat="47.25938" lon="-1.43968">
        <ele>56</ele>
        <time>2022-04-03T12:04:50Z</time>
      </trkpt>
      <trkpt lat="47.25928" lon="-1.43979">
        <ele>55</ele>
        <time>2022-04-03T12:04:52Z</time>
      </trkpt>
      <trkpt lat="47.25918" lon="-1.43991">
        <ele>55</ele>
        <time>2022-04-03T12:04:54Z</time>
      </trkpt>
      <trkpt lat="47.25907" lon="-1.44002">
        <ele>56</ele>
        <time>2022-04-03T12:04:56Z</time>
      </trkpt>
      <trkpt lat="47.25896" lon="-1.44014">
        <ele>55</ele>
        <time>2022-04-03T12:04:58Z</time>
      </trkpt>
      <trkpt lat="47.25886" lon="-1.44026">
        <ele>55</ele>
        <time>2022-04-03T12:05:00Z</time>
      </trkpt>
      <trkpt lat="47.25877" lon="-1.44039">
        <ele>55</ele>
        <time>2022-04-03T12:05:02Z</time>
      </trkpt>
      <trkpt lat="47.25871" lon="-1.44055">
        <ele>55</ele>
        <time>2022-04-03T12:05:04Z</time>
      </trkpt>
      <trkpt lat="47.25867" lon="-1.44072">
        <ele>55</ele>
        <time>2022-04-03T12:05:06Z</time>
      </trkpt>
      <trkpt lat="47.2586" lon="-1.44087">
        <ele>55</ele>
        <time>2022-04-03T12:05:08Z</time>
      </trkpt>
      <trkpt lat="47.2585" lon="-1.44101">
        <ele>55</ele>
        <time>2022-04-03T12:05:10Z</time>
      </trkpt>
      <trkpt lat="47.2584" lon="-1.44113">
        <ele>55</ele>
        <time>2022-04-03T12:05:12Z</time>
      </trkpt>
      <trkpt lat="47.25829" lon="-1.44125">
        <ele>55</ele>
        <time>2022-04-03T12:05:14Z</time>
      </trkpt>
      <trkpt lat="47.25819" lon="-1.44136">
        <ele>55</ele>
        <time>2022-04-03T12:05:16Z</time>
      </trkpt>
      <trkpt lat="47.25808" lon="-1.44147">
        <ele>55</ele>
        <time>2022-04-03T12:05:18Z</time>
      </trkpt>
      <trkpt lat="47.25798" lon="-1.44159">
        <ele>55</ele>
        <time>2022-04-03T12:05:20Z</time>
      </trkpt>
      <trkpt lat="47.25788" lon="-1.44171">
        <ele>55</ele>
        <time>2022-04-03T12:05:22Z</time>
      </trkpt>
      <trkpt lat="47.25778" lon="-1.44182">
        <ele>55</ele>
        <time>2022-04-03T12:05:24Z</time>
      </trkpt>
      <trkpt lat="47.25767" lon="-1.44194">
        <ele>55</ele>
        <time>2022-04-03T12:05:26Z</time>
      </trkpt>
      <trkpt lat="47.25758" lon="-1.44205">
        <ele>55</ele>
        <time>2022-04-03T12:05:28Z</time>
      </trkpt>
      <trkpt lat="47.25748" lon="-1.44218">
        <ele>55</ele>
        <time>2022-04-03T12:05:30Z</time>
      </trkpt>
      <trkpt lat="47.25739" lon="-1.4423">
        <ele>55</ele>
        <time>2022-04-03T12:05:32Z</time>
      </trkpt>
      <trkpt lat="47.25729" lon="-1.44242">
        <ele>55</ele>
        <time>2022-04-03T12:05:34Z</time>
      </trkpt>
      <trkpt lat="47.2572" lon="-1.44254">
        <ele>54</ele>
        <time>2022-04-03T12:05:36Z</time>
      </trkpt>
      <trkpt lat="47.25711" lon="-1.44266">
        <ele>54</ele>
        <time>2022-04-03T12:05:38Z</time>
      </trkpt>
      <trkpt lat="47.257" lon="-1.44278">
        <ele>54</ele>
        <time>2022-04-03T12:05:40Z</time>
      </trkpt>
      <trkpt lat="47.25691" lon="-1.44289">
        <ele>54</ele>
        <time>2022-04-03T12:05:42Z</time>
      </trkpt>
      <trkpt lat="47.25681" lon="-1.44301">
        <ele>54</ele>
        <time>2022-04-03T12:05:44Z</time>
      </trkpt>
      <trkpt lat="47.25672" lon="-1.44313">
        <ele>54</ele>
        <time>2022-04-03T12:05:46Z</time>
      </trkpt>
      <trkpt lat="47.25662" lon="-1.44325">
        <ele>54</ele>
        <time>2022-04-03T12:05:48Z</time>
      </trkpt>
      <trkpt lat="47.25652" lon="-1.44336">
        <ele>54</ele>
        <time>2022-04-03T12:05:50Z</time>
      </trkpt>
      <trkpt lat="47.25642" lon="-1.44347">
        <ele>54</ele>
        <time>2022-04-03T12:05:52Z</time>
      </trkpt>
      <trkpt lat="47.25632" lon="-1.44358">
        <ele>54</ele>
        <time>2022-04-03T12:05:54Z</time>
      </trkpt>
      <trkpt lat="47.25622" lon="-1.4437">
        <ele>54</ele>
        <time>2022-04-03T12:05:56Z</time>
      </trkpt>
      <trkpt lat="47.25611" lon="-1.44382">
        <ele>54</ele>
        <time>2022-04-03T12:05:58Z</time>
      </trkpt>
      <trkpt lat="47.25601" lon="-1.44394">
        <ele>54</ele>
        <time>2022-04-03T12:06:00Z</time>
      </trkpt>
      <trkpt lat="47.25591" lon="-1.44406">
        <ele>54</ele>
        <time>2022-04-03T12:06:02Z</time>
      </trkpt>
      <trkpt lat="47.25581" lon="-1.44419">
        <ele>54</ele>
        <time>2022-04-03T12:06:04Z</time>
      </trkpt>
      <trkpt lat="47.25571" lon="-1.4443">
        <ele>54</ele>
        <time>2022-04-03T12:06:06Z</time>
      </trkpt>
      <trkpt lat="47.25561" lon="-1.44443">
        <ele>54</ele>
        <time>2022-04-03T12:06:08Z</time>
      </trkpt>
      <trkpt lat="47.25551" lon="-1.44457">
        <ele>54</ele>
        <time>2022-04-03T12:06:10Z</time>
      </trkpt>
      <trkpt lat="47.25542" lon="-1.4447">
        <ele>54</ele>
        <time>2022-04-03T12:06:12Z</time>
      </trkpt>
      <trkpt lat="47.25534" lon="-1.44484">
        <ele>54</ele>
        <time>2022-04-03T12:06:14Z</time>
      </trkpt>
      <trkpt lat="47.25525" lon="-1.44498">
        <ele>54</ele>
        <time>2022-04-03T12:06:16Z</time>
      </trkpt>
      <trkpt lat="47.25515" lon="-1.44512">
        <ele>54</ele>
        <time>2022-04-03T12:06:18Z</time>
      </trkpt>
      <trkpt lat="47.25506" lon="-1.44526">
        <ele>53</ele>
        <time>2022-04-03T12:06:20Z</time>
      </trkpt>
      <trkpt lat="47.25496" lon="-1.44539">
        <ele>53</ele>
        <time>2022-04-03T12:06:22Z</time>
      </trkpt>
      <trkpt lat="47.25486" lon="-1.44553">
        <ele>52</ele>
        <time>2022-04-03T12:06:24Z</time>
      </trkpt>
      <trkpt lat="47.25477" lon="-1.44567">
        <ele>53</ele>
        <time>2022-04-03T12:06:26Z</time>
      </trkpt>
      <trkpt lat="47.25467" lon="-1.44581">
        <ele>53</ele>
        <time>2022-04-03T12:06:28Z</time>
      </trkpt>
      <trkpt lat="47.25458" lon="-1.44596">
        <ele>53</ele>
        <time>2022-04-03T12:06:30Z</time>
      </trkpt>
      <trkpt lat="47.25449" lon="-1.4461">
        <ele>53</ele>
        <time>2022-04-03T12:06:32Z</time>
      </trkpt>
      <trkpt lat="47.25439" lon="-1.44623">
        <ele>53</ele>
        <time>2022-04-03T12:06:34Z</time>
      </trkpt>
      <trkpt lat="47.25429" lon="-1.44636">
        <ele>53</ele>
        <time>2022-04-03T12:06:36Z</time>
      </trkpt>
      <trkpt lat="47.25419" lon="-1.44649">
        <ele>53</ele>
        <time>2022-04-03T12:06:38Z</time>
      </trkpt>
      <trkpt lat="47.2541" lon="-1.44662">
        <ele>54</ele>
        <time>2022-04-03T12:06:40Z</time>
      </trkpt>
      <trkpt lat="47.25399" lon="-1.44674">
        <ele>54</ele>
        <time>2022-04-03T12:06:42Z</time>
      </trkpt>
      <trkpt lat="47.25389" lon="-1.44687">
        <ele>54</ele>
        <time>2022-04-03T12:06:44Z</time>
      </trkpt>
      <trkpt lat="47.2538" lon="-1.44699">
        <ele>54</ele>
        <time>2022-04-03T12:06:46Z</time>
      </trkpt>
      <trkpt lat="47.2537" lon="-1.44711">
        <ele>54</ele>
        <time>2022-04-03T12:06:48Z</time>
      </trkpt>
      <trkpt lat="47.2536" lon="-1.44723">
        <ele>54</ele>
        <time>2022-04-03T12:06:50Z</time>
      </trkpt>
      <trkpt lat="47.25349" lon="-1.44734">
        <ele>54</ele>
        <time>2022-04-03T12:06:52Z</time>
      </trkpt>
      <trkpt lat="47.25338" lon="-1.44744">
        <ele>54</ele>
        <time>2022-04-03T12:06:54Z</time>
      </trkpt>
      <trkpt lat="47.25328" lon="-1.44755">
        <ele>54</ele>
        <time>2022-04-03T12:06:56Z</time>
      </trkpt>
      <trkpt lat="47.25317" lon="-1.44765">
        <ele>54</ele>
        <time>2022-04-03T12:06:58Z</time>
      </trkpt>
      <trkpt lat="47.25306" lon="-1.44776">
        <ele>54</ele>
        <time>2022-04-03T12:07:00Z</time>
      </trkpt>
      <trkpt lat="47.25296" lon="-1.44788">
        <ele>54</ele>
        <time>2022-04-03T12:07:02Z</time>
      </trkpt>
      <trkpt lat="47.25286" lon="-1.448">
        <ele>54</ele>
        <time>2022-04-03T12:07:04Z</time>
      </trkpt>
      <trkpt lat="47.25276" lon="-1.44811">
        <ele>54</ele>
        <time>2022-04-03T12:07:06Z</time>
      </trkpt>
      <trkpt lat="47.25265" lon="-1.44823">
        <ele>54</ele>
        <time>2022-04-03T12:07:08Z</time>
      </trkpt>
      <trkpt lat="47.25256" lon="-1.44835">
        <ele>54</ele>
        <time>2022-04-03T12:07:10Z</time>
      </trkpt>
      <trkpt lat="47.25245" lon="-1.44847">
        <ele>54</ele>
        <time>2022-04-03T12:07:12Z</time>
      </trkpt>
      <trkpt lat="47.25234" lon="-1.44858">
        <ele>54</ele>
        <time>2022-04-03T12:07:14Z</time>
      </trkpt>
      <trkpt lat="47.25223" lon="-1.44869">
        <ele>54</ele>
        <time>2022-04-03T12:07:16Z</time>
      </trkpt>
      <trkpt lat="47.25212" lon="-1.44879">
        <ele>54</ele>
        <time>2022-04-03T12:07:18Z</time>
      </trkpt>
      <trkpt lat="47.252" lon="-1.44889">
        <ele>54</ele>
        <time>2022-04-03T12:07:20Z</time>
      </trkpt>
      <trkpt lat="47.25189" lon="-1.44899">
        <ele>54</ele>
        <time>2022-04-03T12:07:22Z</time>
      </trkpt>
      <trkpt lat="47.25178" lon="-1.44907">
        <ele>54</ele>
        <time>2022-04-03T12:07:24Z</time>
      </trkpt>
      <trkpt lat="47.25167" lon="-1.44916">
        <ele>54</ele>
        <time>2022-04-03T12:07:26Z</time>
      </trkpt>
      <trkpt lat="47.25156" lon="-1.44926">
        <ele>54</ele>
        <time>2022-04-03T12:07:28Z</time>
      </trkpt>
      <trkpt lat="47.25145" lon="-1.44936">
        <ele>54</ele>
        <time>2022-04-03T12:07:30Z</time>
      </trkpt>
      <trkpt lat="47.25135" lon="-1.44946">
        <ele>54</ele>
        <time>2022-04-03T12:07:32Z</time>
      </trkpt>
      <trkpt lat="47.25125" lon="-1.44956">
        <ele>54</ele>
        <time>2022-04-03T12:07:34Z</time>
      </trkpt>
      <trkpt lat="47.25114" lon="-1.44966">
        <ele>54</ele>
        <time>2022-04-03T12:07:36Z</time>
      </trkpt>
      <trkpt lat="47.25103" lon="-1.44976">
        <ele>54</ele>
        <time>2022-04-03T12:07:38Z</time>
      </trkpt>
      <trkpt lat="47.25093" lon="-1.44985">
        <ele>54</ele>
        <time>2022-04-03T12:07:40Z</time>
      </trkpt>
      <trkpt lat="47.25082" lon="-1.44994">
        <ele>54</ele>
        <time>2022-04-03T12:07:42Z</time>
      </trkpt>
      <trkpt lat="47.25071" lon="-1.45002">
        <ele>54</ele>
        <time>2022-04-03T12:07:44Z</time>
      </trkpt>
      <trkpt lat="47.25061" lon="-1.45012">
        <ele>54</ele>
        <time>2022-04-03T12:07:46Z</time>
      </trkpt>
      <trkpt lat="47.25049" lon="-1.4502">
        <ele>54</ele>
        <time>2022-04-03T12:07:48Z</time>
      </trkpt>
      <trkpt lat="47.25038" lon="-1.45028">
        <ele>55</ele>
        <time>2022-04-03T12:07:50Z</time>
      </trkpt>
      <trkpt lat="47.25027" lon="-1.45037">
        <ele>54</ele>
        <time>2022-04-03T12:07:52Z</time>
      </trkpt>
      <trkpt lat="47.25016" lon="-1.45047">
        <ele>54</ele>
        <time>2022-04-03T12:07:54Z</time>
      </trkpt>
      <trkpt lat="47.25005" lon="-1.45057">
        <ele>54</ele>
        <time>2022-04-03T12:07:56Z</time>
      </trkpt>
      <trkpt lat="47.24995" lon="-1.45068">
        <ele>55</ele>
        <time>2022-04-03T12:07:58Z</time>
      </trkpt>
      <trkpt lat="47.24986" lon="-1.4508">
        <ele>55</ele>
        <time>2022-04-03T12:08:00Z</time>
      </trkpt>
      <trkpt lat="47.24976" lon="-1.45092">
        <ele>55</ele>
        <time>2022-04-03T12:08:02Z</time>
      </trkpt>
      <trkpt lat="47.24966" lon="-1.45103">
        <ele>55</ele>
        <time>2022-04-03T12:08:04Z</time>
      </trkpt>
      <trkpt lat="47.24956" lon="-1.45114">
        <ele>54</ele>
        <time>2022-04-03T12:08:06Z</time>
      </trkpt>
      <trkpt lat="47.24946" lon="-1.45124">
        <ele>54</ele>
        <time>2022-04-03T12:08:08Z</time>
      </trkpt>
      <trkpt lat="47.24935" lon="-1.45135">
        <ele>54</ele>
        <time>2022-04-03T12:08:10Z</time>
      </trkpt>
      <trkpt lat="47.24925" lon="-1.45145">
        <ele>54</ele>
        <time>2022-04-03T12:08:12Z</time>
      </trkpt>
      <trkpt lat="47.24915" lon="-1.45156">
        <ele>54</ele>
        <time>2022-04-03T12:08:14Z</time>
      </trkpt>
      <trkpt lat="47.24905" lon="-1.45167">
        <ele>54</ele>
        <time>2022-04-03T12:08:16Z</time>
      </trkpt>
      <trkpt lat="47.24896" lon="-1.45179">
        <ele>54</ele>
        <time>2022-04-03T12:08:18Z</time>
      </trkpt>
      <trkpt lat="47.24887" lon="-1.4519">
        <ele>54</ele>
        <time>2022-04-03T12:08:20Z</time>
      </trkpt>
      <trkpt lat="47.24878" lon="-1.45203">
        <ele>55</ele>
        <time>2022-04-03T12:08:22Z</time>
      </trkpt>
      <trkpt lat="47.2487" lon="-1.45215">
        <ele>55</ele>
        <time>2022-04-03T12:08:24Z</time>
      </trkpt>
      <trkpt lat="47.24861" lon="-1.45229">
        <ele>54</ele>
        <time>2022-04-03T12:08:26Z</time>
      </trkpt>
      <trkpt lat="47.24853" lon="-1.45242">
        <ele>54</ele>
        <time>2022-04-03T12:08:28Z</time>
      </trkpt>
      <trkpt lat="47.24844" lon="-1.45255">
        <ele>55</ele>
        <time>2022-04-03T12:08:30Z</time>
      </trkpt>
      <trkpt lat="47.24836" lon="-1.45269">
        <ele>54</ele>
        <time>2022-04-03T12:08:32Z</time>
      </trkpt>
      <trkpt lat="47.24828" lon="-1.45283">
        <ele>55</ele>
        <time>2022-04-03T12:08:34Z</time>
      </trkpt>
      <trkpt lat="47.2482" lon="-1.45297">
        <ele>55</ele>
        <time>2022-04-03T12:08:36Z</time>
      </trkpt>
      <trkpt lat="47.24813" lon="-1.4531">
        <ele>55</ele>
        <time>2022-04-03T12:08:38Z</time>
      </trkpt>
      <trkpt lat="47.24807" lon="-1.45324">
        <ele>55</ele>
        <time>2022-04-03T12:08:40Z</time>
      </trkpt>
      <trkpt lat="47.24801" lon="-1.45338">
        <ele>56</ele>
        <time>2022-04-03T12:08:42Z</time>
      </trkpt>
      <trkpt lat="47.24794" lon="-1.45353">
        <ele>56</ele>
        <time>2022-04-03T12:08:44Z</time>
      </trkpt>
      <trkpt lat="47.24787" lon="-1.45369">
        <ele>56</ele>
        <time>2022-04-03T12:08:46Z</time>
      </trkpt>
      <trkpt lat="47.2478" lon="-1.45386">
        <ele>56</ele>
        <time>2022-04-03T12:08:48Z</time>
      </trkpt>
      <trkpt lat="47.24774" lon="-1.45402">
        <ele>55</ele>
        <time>2022-04-03T12:08:50Z</time>
      </trkpt>
      <trkpt lat="47.24768" lon="-1.45418">
        <ele>55</ele>
        <time>2022-04-03T12:08:52Z</time>
      </trkpt>
      <trkpt lat="47.24762" lon="-1.45434">
        <ele>55</ele>
        <time>2022-04-03T12:08:54Z</time>
      </trkpt>
      <trkpt lat="47.24756" lon="-1.4545">
        <ele>55</ele>
        <time>2022-04-03T12:08:56Z</time>
      </trkpt>
      <trkpt lat="47.2475" lon="-1.45466">
        <ele>55</ele>
        <time>2022-04-03T12:08:58Z</time>
      </trkpt>
      <trkpt lat="47.24744" lon="-1.45482">
        <ele>55</ele>
        <time>2022-04-03T12:09:00Z</time>
      </trkpt>
      <trkpt lat="47.24737" lon="-1.45497">
        <ele>54</ele>
        <time>2022-04-03T12:09:02Z</time>
      </trkpt>
      <trkpt lat="47.2473" lon="-1.45513">
        <ele>54</ele>
        <time>2022-04-03T12:09:04Z</time>
      </trkpt>
      <trkpt lat="47.24724" lon="-1.4553">
        <ele>54</ele>
        <time>2022-04-03T12:09:06Z</time>
      </trkpt>
      <trkpt lat="47.24718" lon="-1.45547">
        <ele>54</ele>
        <time>2022-04-03T12:09:08Z</time>
      </trkpt>
      <trkpt lat="47.24711" lon="-1.45563">
        <ele>54</ele>
        <time>2022-04-03T12:09:10Z</time>
      </trkpt>
      <trkpt lat="47.24706" lon="-1.45581">
        <ele>54</ele>
        <time>2022-04-03T12:09:12Z</time>
      </trkpt>
      <trkpt lat="47.247" lon="-1.45598">
        <ele>54</ele>
        <time>2022-04-03T12:09:14Z</time>
      </trkpt>
      <trkpt lat="47.24695" lon="-1.45614">
        <ele>54</ele>
        <time>2022-04-03T12:09:16Z</time>
      </trkpt>
      <trkpt lat="47.2469" lon="-1.45631">
        <ele>54</ele>
        <time>2022-04-03T12:09:18Z</time>
      </trkpt>
      <trkpt lat="47.24684" lon="-1.45647">
        <ele>54</ele>
        <time>2022-04-03T12:09:20Z</time>
      </trkpt>
      <trkpt lat="47.24678" lon="-1.45663">
        <ele>54</ele>
        <time>2022-04-03T12:09:22Z</time>
      </trkpt>
      <trkpt lat="47.24674" lon="-1.4568">
        <ele>54</ele>
        <time>2022-04-03T12:09:24Z</time>
      </trkpt>
      <trkpt lat="47.24669" lon="-1.45697">
        <ele>54</ele>
        <time>2022-04-03T12:09:26Z</time>
      </trkpt>
      <trkpt lat="47.24665" lon="-1.45716">
        <ele>53</ele>
        <time>2022-04-03T12:09:28Z</time>
      </trkpt>
      <trkpt lat="47.24661" lon="-1.45734">
        <ele>53</ele>
        <time>2022-04-03T12:09:30Z</time>
      </trkpt>
      <trkpt lat="47.24657" lon="-1.45751">
        <ele>53</ele>
        <time>2022-04-03T12:09:32Z</time>
      </trkpt>
      <trkpt lat="47.24653" lon="-1.45768">
        <ele>53</ele>
        <time>2022-04-03T12:09:34Z</time>
      </trkpt>
      <trkpt lat="47.24649" lon="-1.45785">
        <ele>54</ele>
        <time>2022-04-03T12:09:36Z</time>
      </trkpt>
      <trkpt lat="47.24644" lon="-1.45801">
        <ele>55</ele>
        <time>2022-04-03T12:09:38Z</time>
      </trkpt>
      <trkpt lat="47.24639" lon="-1.45817">
        <ele>56</ele>
        <time>2022-04-03T12:09:40Z</time>
      </trkpt>
      <trkpt lat="47.24634" lon="-1.45833">
        <ele>57</ele>
        <time>2022-04-03T12:09:42Z</time>
      </trkpt>
      <trkpt lat="47.2463" lon="-1.45852">
        <ele>57</ele>
        <time>2022-04-03T12:09:44Z</time>
      </trkpt>
      <trkpt lat="47.24625" lon="-1.4587">
        <ele>58</ele>
        <time>2022-04-03T12:09:46Z</time>
      </trkpt>
      <trkpt lat="47.24621" lon="-1.45888">
        <ele>58</ele>
        <time>2022-04-03T12:09:48Z</time>
      </trkpt>
      <trkpt lat="47.24615" lon="-1.45906">
        <ele>58</ele>
        <time>2022-04-03T12:09:50Z</time>
      </trkpt>
      <trkpt lat="47.24609" lon="-1.45923">
        <ele>58</ele>
        <time>2022-04-03T12:09:52Z</time>
      </trkpt>
      <trkpt lat="47.24604" lon="-1.4594">
        <ele>58</ele>
        <time>2022-04-03T12:09:54Z</time>
      </trkpt>
      <trkpt lat="47.24597" lon="-1.45955">
        <ele>58</ele>
        <time>2022-04-03T12:09:56Z</time>
      </trkpt>
      <trkpt lat="47.2459" lon="-1.45971">
        <ele>57</ele>
        <time>2022-04-03T12:09:58Z</time>
      </trkpt>
      <trkpt lat="47.24583" lon="-1.45986">
        <ele>57</ele>
        <time>2022-04-03T12:10:00Z</time>
      </trkpt>
      <trkpt lat="47.24575" lon="-1.46002">
        <ele>57</ele>
        <time>2022-04-03T12:10:02Z</time>
      </trkpt>
      <trkpt lat="47.24567" lon="-1.46018">
        <ele>56</ele>
        <time>2022-04-03T12:10:04Z</time>
      </trkpt>
      <trkpt lat="47.24559" lon="-1.46034">
        <ele>56</ele>
        <time>2022-04-03T12:10:06Z</time>
      </trkpt>
      <trkpt lat="47.24551" lon="-1.46048">
        <ele>56</ele>
        <time>2022-04-03T12:10:08Z</time>
      </trkpt>
      <trkpt lat="47.24543" lon="-1.46063">
        <ele>56</ele>
        <time>2022-04-03T12:10:10Z</time>
      </trkpt>
      <trkpt lat="47.24535" lon="-1.46078">
        <ele>56</ele>
        <time>2022-04-03T12:10:12Z</time>
      </trkpt>
      <trkpt lat="47.24528" lon="-1.46093">
        <ele>56</ele>
        <time>2022-04-03T12:10:14Z</time>
      </trkpt>
      <trkpt lat="47.2452" lon="-1.46107">
        <ele>56</ele>
        <time>2022-04-03T12:10:16Z</time>
      </trkpt>
      <trkpt lat="47.2451" lon="-1.46119">
        <ele>56</ele>
        <time>2022-04-03T12:10:18Z</time>
      </trkpt>
      <trkpt lat="47.24499" lon="-1.4613">
        <ele>56</ele>
        <time>2022-04-03T12:10:20Z</time>
      </trkpt>
      <trkpt lat="47.2449" lon="-1.46143">
        <ele>55</ele>
        <time>2022-04-03T12:10:22Z</time>
      </trkpt>
      <trkpt lat="47.24481" lon="-1.46154">
        <ele>55</ele>
        <time>2022-04-03T12:10:24Z</time>
      </trkpt>
      <trkpt lat="47.24471" lon="-1.46165">
        <ele>55</ele>
        <time>2022-04-03T12:10:26Z</time>
      </trkpt>
      <trkpt lat="47.24461" lon="-1.46176">
        <ele>55</ele>
        <time>2022-04-03T12:10:28Z</time>
      </trkpt>
      <trkpt lat="47.24452" lon="-1.46188">
        <ele>55</ele>
        <time>2022-04-03T12:10:30Z</time>
      </trkpt>
      <trkpt lat="47.24442" lon="-1.46201">
        <ele>55</ele>
        <time>2022-04-03T12:10:32Z</time>
      </trkpt>
      <trkpt lat="47.24432" lon="-1.46214">
        <ele>55</ele>
        <time>2022-04-03T12:10:34Z</time>
      </trkpt>
      <trkpt lat="47.24423" lon="-1.46227">
        <ele>55</ele>
        <time>2022-04-03T12:10:36Z</time>
      </trkpt>
      <trkpt lat="47.24413" lon="-1.4624">
        <ele>55</ele>
        <time>2022-04-03T12:10:38Z</time>
      </trkpt>
      <trkpt lat="47.24404" lon="-1.46252">
        <ele>56</ele>
        <time>2022-04-03T12:10:40Z</time>
      </trkpt>
      <trkpt lat="47.24395" lon="-1.46264">
        <ele>56</ele>
        <time>2022-04-03T12:10:42Z</time>
      </trkpt>
      <trkpt lat="47.24387" lon="-1.46277">
        <ele>56</ele>
        <time>2022-04-03T12:10:44Z</time>
      </trkpt>
      <trkpt lat="47.24378" lon="-1.4629">
        <ele>56</ele>
        <time>2022-04-03T12:10:46Z</time>
      </trkpt>
      <trkpt lat="47.2437" lon="-1.46303">
        <ele>56</ele>
        <time>2022-04-03T12:10:48Z</time>
      </trkpt>
      <trkpt lat="47.24361" lon="-1.46317">
        <ele>57</ele>
        <time>2022-04-03T12:10:50Z</time>
      </trkpt>
      <trkpt lat="47.24353" lon="-1.4633">
        <ele>57</ele>
        <time>2022-04-03T12:10:52Z</time>
      </trkpt>
      <trkpt lat="47.24345" lon="-1.46343">
        <ele>57</ele>
        <time>2022-04-03T12:10:54Z</time>
      </trkpt>
      <trkpt lat="47.24336" lon="-1.46357">
        <ele>57</ele>
        <time>2022-04-03T12:10:56Z</time>
      </trkpt>
      <trkpt lat="47.24328" lon="-1.4637">
        <ele>56</ele>
        <time>2022-04-03T12:10:58Z</time>
      </trkpt>
      <trkpt lat="47.24319" lon="-1.46384">
        <ele>57</ele>
        <time>2022-04-03T12:11:00Z</time>
      </trkpt>
      <trkpt lat="47.24312" lon="-1.46398">
        <ele>57</ele>
        <time>2022-04-03T12:11:02Z</time>
      </trkpt>
      <trkpt lat="47.24304" lon="-1.46411">
        <ele>56</ele>
        <time>2022-04-03T12:11:04Z</time>
      </trkpt>
      <trkpt lat="47.24295" lon="-1.46425">
        <ele>56</ele>
        <time>2022-04-03T12:11:06Z</time>
      </trkpt>
      <trkpt lat="47.24287" lon="-1.46439">
        <ele>55</ele>
        <time>2022-04-03T12:11:08Z</time>
      </trkpt>
      <trkpt lat="47.24278" lon="-1.46451">
        <ele>55</ele>
        <time>2022-04-03T12:11:10Z</time>
      </trkpt>
      <trkpt lat="47.2427" lon="-1.46463">
        <ele>55</ele>
        <time>2022-04-03T12:11:12Z</time>
      </trkpt>
      <trkpt lat="47.24261" lon="-1.46475">
        <ele>55</ele>
        <time>2022-04-03T12:11:14Z</time>
      </trkpt>
      <trkpt lat="47.24252" lon="-1.46487">
        <ele>55</ele>
        <time>2022-04-03T12:11:16Z</time>
      </trkpt>
      <trkpt lat="47.24242" lon="-1.46499">
        <ele>55</ele>
        <time>2022-04-03T12:11:18Z</time>
      </trkpt>
      <trkpt lat="47.24233" lon="-1.46512">
        <ele>55</ele>
        <time>2022-04-03T12:11:20Z</time>
      </trkpt>
      <trkpt lat="47.24223" lon="-1.46523">
        <ele>55</ele>
        <time>2022-04-03T12:11:22Z</time>
      </trkpt>
      <trkpt lat="47.24213" lon="-1.46535">
        <ele>55</ele>
        <time>2022-04-03T12:11:24Z</time>
      </trkpt>
      <trkpt lat="47.24203" lon="-1.46548">
        <ele>55</ele>
        <time>2022-04-03T12:11:26Z</time>
      </trkpt>
      <trkpt lat="47.24194" lon="-1.4656">
        <ele>55</ele>
        <time>2022-04-03T12:11:28Z</time>
      </trkpt>
      <trkpt lat="47.24185" lon="-1.46571">
        <ele>54</ele>
        <time>2022-04-03T12:11:30Z</time>
      </trkpt>
      <trkpt lat="47.24175" lon="-1.46583">
        <ele>55</ele>
        <time>2022-04-03T12:11:32Z</time>
      </trkpt>
      <trkpt lat="47.24166" lon="-1.46595">
        <ele>55</ele>
        <time>2022-04-03T12:11:34Z</time>
      </trkpt>
      <trkpt lat="47.24156" lon="-1.46607">
        <ele>55</ele>
        <time>2022-04-03T12:11:36Z</time>
      </trkpt>
      <trkpt lat="47.24147" lon="-1.46619">
        <ele>55</ele>
        <time>2022-04-03T12:11:38Z</time>
      </trkpt>
      <trkpt lat="47.24138" lon="-1.46631">
        <ele>55</ele>
        <time>2022-04-03T12:11:40Z</time>
      </trkpt>
      <trkpt lat="47.24129" lon="-1.46643">
        <ele>55</ele>
        <time>2022-04-03T12:11:42Z</time>
      </trkpt>
      <trkpt lat="47.24121" lon="-1.46656">
        <ele>55</ele>
        <time>2022-04-03T12:11:44Z</time>
      </trkpt>
      <trkpt lat="47.24112" lon="-1.46668">
        <ele>55</ele>
        <time>2022-04-03T12:11:46Z</time>
      </trkpt>
      <trkpt lat="47.24103" lon="-1.46681">
        <ele>55</ele>
        <time>2022-04-03T12:11:48Z</time>
      </trkpt>
      <trkpt lat="47.24094" lon="-1.46693">
        <ele>56</ele>
        <time>2022-04-03T12:11:50Z</time>
      </trkpt>
      <trkpt lat="47.24085" lon="-1.46707">
        <ele>55</ele>
        <time>2022-04-03T12:11:52Z</time>
      </trkpt>
      <trkpt lat="47.24079" lon="-1.46722">
        <ele>55</ele>
        <time>2022-04-03T12:11:54Z</time>
      </trkpt>
      <trkpt lat="47.24073" lon="-1.46737">
        <ele>55</ele>
        <time>2022-04-03T12:11:56Z</time>
      </trkpt>
      <trkpt lat="47.24062" lon="-1.46746">
        <ele>55</ele>
        <time>2022-04-03T12:11:58Z</time>
      </trkpt>
      <trkpt lat="47.24051" lon="-1.46753">
        <ele>55</ele>
        <time>2022-04-03T12:12:00Z</time>
      </trkpt>
      <trkpt lat="47.24041" lon="-1.46764">
        <ele>55</ele>
        <time>2022-04-03T12:12:02Z</time>
      </trkpt>
      <trkpt lat="47.2403" lon="-1.46774">
        <ele>55</ele>
        <time>2022-04-03T12:12:04Z</time>
      </trkpt>
      <trkpt lat="47.2402" lon="-1.46785">
        <ele>55</ele>
        <time>2022-04-03T12:12:06Z</time>
      </trkpt>
      <trkpt lat="47.2401" lon="-1.46796">
        <ele>55</ele>
        <time>2022-04-03T12:12:08Z</time>
      </trkpt>
      <trkpt lat="47.24001" lon="-1.46808">
        <ele>55</ele>
        <time>2022-04-03T12:12:10Z</time>
      </trkpt>
      <trkpt lat="47.2399" lon="-1.46818">
        <ele>55</ele>
        <time>2022-04-03T12:12:12Z</time>
      </trkpt>
      <trkpt lat="47.2398" lon="-1.46829">
        <ele>55</ele>
        <time>2022-04-03T12:12:14Z</time>
      </trkpt>
      <trkpt lat="47.23969" lon="-1.4684">
        <ele>55</ele>
        <time>2022-04-03T12:12:16Z</time>
      </trkpt>
      <trkpt lat="47.23959" lon="-1.46851">
        <ele>55</ele>
        <time>2022-04-03T12:12:18Z</time>
      </trkpt>
      <trkpt lat="47.23949" lon="-1.46861">
        <ele>56</ele>
        <time>2022-04-03T12:12:20Z</time>
      </trkpt>
      <trkpt lat="47.23938" lon="-1.4687">
        <ele>56</ele>
        <time>2022-04-03T12:12:22Z</time>
      </trkpt>
      <trkpt lat="47.23926" lon="-1.46879">
        <ele>55</ele>
        <time>2022-04-03T12:12:24Z</time>
      </trkpt>
      <trkpt lat="47.23916" lon="-1.46891">
        <ele>55</ele>
        <time>2022-04-03T12:12:26Z</time>
      </trkpt>
      <trkpt lat="47.23906" lon="-1.46903">
        <ele>55</ele>
        <time>2022-04-03T12:12:28Z</time>
      </trkpt>
      <trkpt lat="47.23897" lon="-1.46915">
        <ele>55</ele>
        <time>2022-04-03T12:12:30Z</time>
      </trkpt>
      <trkpt lat="47.23888" lon="-1.46928">
        <ele>56</ele>
        <time>2022-04-03T12:12:32Z</time>
      </trkpt>
      <trkpt lat="47.23879" lon="-1.46941">
        <ele>56</ele>
        <time>2022-04-03T12:12:34Z</time>
      </trkpt>
      <trkpt lat="47.23869" lon="-1.46953">
        <ele>55</ele>
        <time>2022-04-03T12:12:36Z</time>
      </trkpt>
      <trkpt lat="47.23859" lon="-1.46965">
        <ele>55</ele>
        <time>2022-04-03T12:12:38Z</time>
      </trkpt>
      <trkpt lat="47.23845" lon="-1.46985">
        <ele>55</ele>
        <time>2022-04-03T12:12:41Z</time>
      </trkpt>
      <trkpt lat="47.23836" lon="-1.46998">
        <ele>56</ele>
        <time>2022-04-03T12:12:43Z</time>
      </trkpt>
      <trkpt lat="47.23827" lon="-1.47012">
        <ele>55</ele>
        <time>2022-04-03T12:12:45Z</time>
      </trkpt>
      <trkpt lat="47.23813" lon="-1.47032">
        <ele>56</ele>
        <time>2022-04-03T12:12:48Z</time>
      </trkpt>
      <trkpt lat="47.23805" lon="-1.47045">
        <ele>55</ele>
        <time>2022-04-03T12:12:50Z</time>
      </trkpt>
      <trkpt lat="47.23795" lon="-1.47057">
        <ele>55</ele>
        <time>2022-04-03T12:12:52Z</time>
      </trkpt>
      <trkpt lat="47.23786" lon="-1.4707">
        <ele>55</ele>
        <time>2022-04-03T12:12:54Z</time>
      </trkpt>
      <trkpt lat="47.23772" lon="-1.4709">
        <ele>55</ele>
        <time>2022-04-03T12:12:57Z</time>
      </trkpt>
      <trkpt lat="47.23762" lon="-1.47104">
        <ele>55</ele>
        <time>2022-04-03T12:12:59Z</time>
      </trkpt>
      <trkpt lat="47.23752" lon="-1.47118">
        <ele>55</ele>
        <time>2022-04-03T12:13:01Z</time>
      </trkpt>
      <trkpt lat="47.23742" lon="-1.4713">
        <ele>55</ele>
        <time>2022-04-03T12:13:03Z</time>
      </trkpt>
      <trkpt lat="47.23731" lon="-1.47141">
        <ele>55</ele>
        <time>2022-04-03T12:13:05Z</time>
      </trkpt>
      <trkpt lat="47.23722" lon="-1.47155">
        <ele>55</ele>
        <time>2022-04-03T12:13:07Z</time>
      </trkpt>
      <trkpt lat="47.23711" lon="-1.47169">
        <ele>55</ele>
        <time>2022-04-03T12:13:09Z</time>
      </trkpt>
      <trkpt lat="47.23702" lon="-1.47183">
        <ele>55</ele>
        <time>2022-04-03T12:13:11Z</time>
      </trkpt>
      <trkpt lat="47.23691" lon="-1.47198">
        <ele>55</ele>
        <time>2022-04-03T12:13:13Z</time>
      </trkpt>
      <trkpt lat="47.23682" lon="-1.47214">
        <ele>55</ele>
        <time>2022-04-03T12:13:15Z</time>
      </trkpt>
      <trkpt lat="47.23671" lon="-1.47228">
        <ele>55</ele>
        <time>2022-04-03T12:13:17Z</time>
      </trkpt>
      <trkpt lat="47.23659" lon="-1.47241">
        <ele>55</ele>
        <time>2022-04-03T12:13:19Z</time>
      </trkpt>
      <trkpt lat="47.23647" lon="-1.47254">
        <ele>55</ele>
        <time>2022-04-03T12:13:21Z</time>
      </trkpt>
      <trkpt lat="47.23636" lon="-1.47267">
        <ele>54</ele>
        <time>2022-04-03T12:13:23Z</time>
      </trkpt>
      <trkpt lat="47.23625" lon="-1.4728">
        <ele>55</ele>
        <time>2022-04-03T12:13:25Z</time>
      </trkpt>
      <trkpt lat="47.23613" lon="-1.47292">
        <ele>55</ele>
        <time>2022-04-03T12:13:27Z</time>
      </trkpt>
      <trkpt lat="47.23602" lon="-1.47304">
        <ele>54</ele>
        <time>2022-04-03T12:13:29Z</time>
      </trkpt>
      <trkpt lat="47.23591" lon="-1.47316">
        <ele>54</ele>
        <time>2022-04-03T12:13:31Z</time>
      </trkpt>
      <trkpt lat="47.23579" lon="-1.47327">
        <ele>55</ele>
        <time>2022-04-03T12:13:33Z</time>
      </trkpt>
      <trkpt lat="47.23567" lon="-1.47338">
        <ele>54</ele>
        <time>2022-04-03T12:13:35Z</time>
      </trkpt>
      <trkpt lat="47.23554" lon="-1.47348">
        <ele>54</ele>
        <time>2022-04-03T12:13:37Z</time>
      </trkpt>
      <trkpt lat="47.23542" lon="-1.47358">
        <ele>54</ele>
        <time>2022-04-03T12:13:39Z</time>
      </trkpt>
      <trkpt lat="47.23529" lon="-1.47369">
        <ele>55</ele>
        <time>2022-04-03T12:13:41Z</time>
      </trkpt>
      <trkpt lat="47.23517" lon="-1.47378">
        <ele>54</ele>
        <time>2022-04-03T12:13:43Z</time>
      </trkpt>
      <trkpt lat="47.23505" lon="-1.47388">
        <ele>54</ele>
        <time>2022-04-03T12:13:45Z</time>
      </trkpt>
      <trkpt lat="47.23492" lon="-1.47399">
        <ele>54</ele>
        <time>2022-04-03T12:13:47Z</time>
      </trkpt>
      <trkpt lat="47.23479" lon="-1.47406">
        <ele>54</ele>
        <time>2022-04-03T12:13:49Z</time>
      </trkpt>
      <trkpt lat="47.23466" lon="-1.47412">
        <ele>55</ele>
        <time>2022-04-03T12:13:51Z</time>
      </trkpt>
      <trkpt lat="47.23453" lon="-1.47417">
        <ele>55</ele>
        <time>2022-04-03T12:13:53Z</time>
      </trkpt>
      <trkpt lat="47.23441" lon="-1.47423">
        <ele>55</ele>
        <time>2022-04-03T12:13:55Z</time>
      </trkpt>
      <trkpt lat="47.2343" lon="-1.47429">
        <ele>55</ele>
        <time>2022-04-03T12:13:57Z</time>
      </trkpt>
      <trkpt lat="47.23421" lon="-1.47436">
        <ele>54</ele>
        <time>2022-04-03T12:13:59Z</time>
      </trkpt>
      <trkpt lat="47.23413" lon="-1.47443">
        <ele>53</ele>
        <time>2022-04-03T12:14:01Z</time>
      </trkpt>
      <trkpt lat="47.23401" lon="-1.47447">
        <ele>53</ele>
        <time>2022-04-03T12:14:03Z</time>
      </trkpt>
      <trkpt lat="47.23388" lon="-1.47454">
        <ele>54</ele>
        <time>2022-04-03T12:14:05Z</time>
      </trkpt>
      <trkpt lat="47.23374" lon="-1.47462">
        <ele>54</ele>
        <time>2022-04-03T12:14:07Z</time>
      </trkpt>
      <trkpt lat="47.2336" lon="-1.47469">
        <ele>54</ele>
        <time>2022-04-03T12:14:09Z</time>
      </trkpt>
      <trkpt lat="47.23346" lon="-1.47475">
        <ele>54</ele>
        <time>2022-04-03T12:14:11Z</time>
      </trkpt>
      <trkpt lat="47.23334" lon="-1.47481">
        <ele>54</ele>
        <time>2022-04-03T12:14:13Z</time>
      </trkpt>
      <trkpt lat="47.23321" lon="-1.47489">
        <ele>54</ele>
        <time>2022-04-03T12:14:15Z</time>
      </trkpt>
      <trkpt lat="47.23309" lon="-1.475">
        <ele>53</ele>
        <time>2022-04-03T12:14:17Z</time>
      </trkpt>
      <trkpt lat="47.23297" lon="-1.47509">
        <ele>53</ele>
        <time>2022-04-03T12:14:19Z</time>
      </trkpt>
      <trkpt lat="47.23284" lon="-1.47515">
        <ele>53</ele>
        <time>2022-04-03T12:14:21Z</time>
      </trkpt>
      <trkpt lat="47.23271" lon="-1.47523">
        <ele>53</ele>
        <time>2022-04-03T12:14:23Z</time>
      </trkpt>
      <trkpt lat="47.23261" lon="-1.47535">
        <ele>53</ele>
        <time>2022-04-03T12:14:25Z</time>
      </trkpt>
      <trkpt lat="47.23251" lon="-1.4755">
        <ele>54</ele>
        <time>2022-04-03T12:14:27Z</time>
      </trkpt>
      <trkpt lat="47.23242" lon="-1.47566">
        <ele>54</ele>
        <time>2022-04-03T12:14:29Z</time>
      </trkpt>
      <trkpt lat="47.23235" lon="-1.4758">
        <ele>54</ele>
        <time>2022-04-03T12:14:31Z</time>
      </trkpt>
      <trkpt lat="47.23227" lon="-1.47595">
        <ele>54</ele>
        <time>2022-04-03T12:14:33Z</time>
      </trkpt>
      <trkpt lat="47.2322" lon="-1.47611">
        <ele>54</ele>
        <time>2022-04-03T12:14:35Z</time>
      </trkpt>
      <trkpt lat="47.23213" lon="-1.47629">
        <ele>54</ele>
        <time>2022-04-03T12:14:37Z</time>
      </trkpt>
      <trkpt lat="47.23206" lon="-1.47646">
        <ele>54</ele>
        <time>2022-04-03T12:14:39Z</time>
      </trkpt>
      <trkpt lat="47.23199" lon="-1.47663">
        <ele>54</ele>
        <time>2022-04-03T12:14:41Z</time>
      </trkpt>
      <trkpt lat="47.23191" lon="-1.4768">
        <ele>53</ele>
        <time>2022-04-03T12:14:43Z</time>
      </trkpt>
      <trkpt lat="47.23184" lon="-1.47697">
        <ele>54</ele>
        <time>2022-04-03T12:14:45Z</time>
      </trkpt>
      <trkpt lat="47.23176" lon="-1.47714">
        <ele>54</ele>
        <time>2022-04-03T12:14:47Z</time>
      </trkpt>
      <trkpt lat="47.23169" lon="-1.47731">
        <ele>54</ele>
        <time>2022-04-03T12:14:49Z</time>
      </trkpt>
      <trkpt lat="47.23161" lon="-1.47748">
        <ele>54</ele>
        <time>2022-04-03T12:14:51Z</time>
      </trkpt>
      <trkpt lat="47.23154" lon="-1.47765">
        <ele>54</ele>
        <time>2022-04-03T12:14:53Z</time>
      </trkpt>
      <trkpt lat="47.23147" lon="-1.47782">
        <ele>54</ele>
        <time>2022-04-03T12:14:55Z</time>
      </trkpt>
      <trkpt lat="47.23141" lon="-1.47798">
        <ele>54</ele>
        <time>2022-04-03T12:14:57Z</time>
      </trkpt>
      <trkpt lat="47.23135" lon="-1.47814">
        <ele>54</ele>
        <time>2022-04-03T12:14:59Z</time>
      </trkpt>
      <trkpt lat="47.23128" lon="-1.47831">
        <ele>54</ele>
        <time>2022-04-03T12:15:01Z</time>
      </trkpt>
      <trkpt lat="47.23122" lon="-1.47848">
        <ele>54</ele>
        <time>2022-04-03T12:15:03Z</time>
      </trkpt>
      <trkpt lat="47.23113" lon="-1.47864">
        <ele>54</ele>
        <time>2022-04-03T12:15:05Z</time>
      </trkpt>
      <trkpt lat="47.23104" lon="-1.47879">
        <ele>54</ele>
        <time>2022-04-03T12:15:07Z</time>
      </trkpt>
      <trkpt lat="47.23094" lon="-1.47892">
        <ele>54</ele>
        <time>2022-04-03T12:15:09Z</time>
      </trkpt>
      <trkpt lat="47.23084" lon="-1.47905">
        <ele>54</ele>
        <time>2022-04-03T12:15:11Z</time>
      </trkpt>
      <trkpt lat="47.23074" lon="-1.47918">
        <ele>54</ele>
        <time>2022-04-03T12:15:13Z</time>
      </trkpt>
      <trkpt lat="47.23064" lon="-1.47932">
        <ele>53</ele>
        <time>2022-04-03T12:15:15Z</time>
      </trkpt>
      <trkpt lat="47.23054" lon="-1.47945">
        <ele>53</ele>
        <time>2022-04-03T12:15:17Z</time>
      </trkpt>
      <trkpt lat="47.23044" lon="-1.47958">
        <ele>54</ele>
        <time>2022-04-03T12:15:19Z</time>
      </trkpt>
      <trkpt lat="47.23034" lon="-1.47971">
        <ele>54</ele>
        <time>2022-04-03T12:15:21Z</time>
      </trkpt>
      <trkpt lat="47.23024" lon="-1.47984">
        <ele>54</ele>
        <time>2022-04-03T12:15:23Z</time>
      </trkpt>
      <trkpt lat="47.23014" lon="-1.47999">
        <ele>54</ele>
        <time>2022-04-03T12:15:25Z</time>
      </trkpt>
      <trkpt lat="47.23005" lon="-1.48013">
        <ele>53</ele>
        <time>2022-04-03T12:15:27Z</time>
      </trkpt>
      <trkpt lat="47.22996" lon="-1.48028">
        <ele>53</ele>
        <time>2022-04-03T12:15:29Z</time>
      </trkpt>
      <trkpt lat="47.22988" lon="-1.48043">
        <ele>54</ele>
        <time>2022-04-03T12:15:31Z</time>
      </trkpt>
      <trkpt lat="47.22979" lon="-1.48058">
        <ele>53</ele>
        <time>2022-04-03T12:15:33Z</time>
      </trkpt>
      <trkpt lat="47.2297" lon="-1.48073">
        <ele>53</ele>
        <time>2022-04-03T12:15:35Z</time>
      </trkpt>
      <trkpt lat="47.22961" lon="-1.48088">
        <ele>53</ele>
        <time>2022-04-03T12:15:37Z</time>
      </trkpt>
      <trkpt lat="47.22952" lon="-1.48101">
        <ele>53</ele>
        <time>2022-04-03T12:15:39Z</time>
      </trkpt>
      <trkpt lat="47.22942" lon="-1.4811">
        <ele>54</ele>
        <time>2022-04-03T12:15:41Z</time>
      </trkpt>
      <trkpt lat="47.22928" lon="-1.48111">
        <ele>53</ele>
        <time>2022-04-03T12:15:43Z</time>
      </trkpt>
      <trkpt lat="47.22915" lon="-1.48115">
        <ele>53</ele>
        <time>2022-04-03T12:15:45Z</time>
      </trkpt>
      <trkpt lat="47.22903" lon="-1.48125">
        <ele>53</ele>
        <time>2022-04-03T12:15:47Z</time>
      </trkpt>
      <trkpt lat="47.22892" lon="-1.48139">
        <ele>54</ele>
        <time>2022-04-03T12:15:49Z</time>
      </trkpt>
      <trkpt lat="47.22883" lon="-1.48153">
        <ele>53</ele>
        <time>2022-04-03T12:15:51Z</time>
      </trkpt>
      <trkpt lat="47.22873" lon="-1.48168">
        <ele>53</ele>
        <time>2022-04-03T12:15:53Z</time>
      </trkpt>
      <trkpt lat="47.22863" lon="-1.48183">
        <ele>54</ele>
        <time>2022-04-03T12:15:55Z</time>
      </trkpt>
      <trkpt lat="47.22853" lon="-1.48198">
        <ele>54</ele>
        <time>2022-04-03T12:15:57Z</time>
      </trkpt>
      <trkpt lat="47.22843" lon="-1.48214">
        <ele>54</ele>
        <time>2022-04-03T12:15:59Z</time>
      </trkpt>
      <trkpt lat="47.22833" lon="-1.4823">
        <ele>54</ele>
        <time>2022-04-03T12:16:01Z</time>
      </trkpt>
      <trkpt lat="47.22823" lon="-1.48246">
        <ele>54</ele>
        <time>2022-04-03T12:16:03Z</time>
      </trkpt>
      <trkpt lat="47.22812" lon="-1.48262">
        <ele>54</ele>
        <time>2022-04-03T12:16:05Z</time>
      </trkpt>
      <trkpt lat="47.22802" lon="-1.48279">
        <ele>54</ele>
        <time>2022-04-03T12:16:07Z</time>
      </trkpt>
      <trkpt lat="47.22792" lon="-1.48294">
        <ele>54</ele>
        <time>2022-04-03T12:16:09Z</time>
      </trkpt>
      <trkpt lat="47.22783" lon="-1.4831">
        <ele>54</ele>
        <time>2022-04-03T12:16:11Z</time>
      </trkpt>
      <trkpt lat="47.22773" lon="-1.48325">
        <ele>54</ele>
        <time>2022-04-03T12:16:13Z</time>
      </trkpt>
      <trkpt lat="47.22762" lon="-1.4834">
        <ele>54</ele>
        <time>2022-04-03T12:16:15Z</time>
      </trkpt>
      <trkpt lat="47.22751" lon="-1.48355">
        <ele>54</ele>
        <time>2022-04-03T12:16:17Z</time>
      </trkpt>
      <trkpt lat="47.22741" lon="-1.48369">
        <ele>54</ele>
        <time>2022-04-03T12:16:19Z</time>
      </trkpt>
      <trkpt lat="47.2273" lon="-1.48384">
        <ele>54</ele>
        <time>2022-04-03T12:16:21Z</time>
      </trkpt>
      <trkpt lat="47.2272" lon="-1.48396">
        <ele>53</ele>
        <time>2022-04-03T12:16:23Z</time>
      </trkpt>
      <trkpt lat="47.2271" lon="-1.48411">
        <ele>53</ele>
        <time>2022-04-03T12:16:25Z</time>
      </trkpt>
      <trkpt lat="47.22702" lon="-1.48429">
        <ele>52</ele>
        <time>2022-04-03T12:16:27Z</time>
      </trkpt>
      <trkpt lat="47.22695" lon="-1.48448">
        <ele>52</ele>
        <time>2022-04-03T12:16:29Z</time>
      </trkpt>
      <trkpt lat="47.22688" lon="-1.48467">
        <ele>52</ele>
        <time>2022-04-03T12:16:31Z</time>
      </trkpt>
      <trkpt lat="47.2268" lon="-1.48485">
        <ele>53</ele>
        <time>2022-04-03T12:16:33Z</time>
      </trkpt>
      <trkpt lat="47.22671" lon="-1.48502">
        <ele>53</ele>
        <time>2022-04-03T12:16:35Z</time>
      </trkpt>
      <trkpt lat="47.22665" lon="-1.48519">
        <ele>53</ele>
        <time>2022-04-03T12:16:37Z</time>
      </trkpt>
      <trkpt lat="47.2266" lon="-1.48539">
        <ele>53</ele>
        <time>2022-04-03T12:16:39Z</time>
      </trkpt>
      <trkpt lat="47.22654" lon="-1.48559">
        <ele>53</ele>
        <time>2022-04-03T12:16:41Z</time>
      </trkpt>
      <trkpt lat="47.22647" lon="-1.48578">
        <ele>53</ele>
        <time>2022-04-03T12:16:43Z</time>
      </trkpt>
      <trkpt lat="47.2264" lon="-1.48595">
        <ele>54</ele>
        <time>2022-04-03T12:16:45Z</time>
      </trkpt>
      <trkpt lat="47.22634" lon="-1.48611">
        <ele>54</ele>
        <time>2022-04-03T12:16:47Z</time>
      </trkpt>
      <trkpt lat="47.22629" lon="-1.48629">
        <ele>55</ele>
        <time>2022-04-03T12:16:49Z</time>
      </trkpt>
      <trkpt lat="47.22623" lon="-1.48647">
        <ele>55</ele>
        <time>2022-04-03T12:16:51Z</time>
      </trkpt>
      <trkpt lat="47.22616" lon="-1.48667">
        <ele>55</ele>
        <time>2022-04-03T12:16:53Z</time>
      </trkpt>
      <trkpt lat="47.22609" lon="-1.48687">
        <ele>55</ele>
        <time>2022-04-03T12:16:55Z</time>
      </trkpt>
      <trkpt lat="47.22603" lon="-1.48708">
        <ele>55</ele>
        <time>2022-04-03T12:16:57Z</time>
      </trkpt>
      <trkpt lat="47.22597" lon="-1.48728">
        <ele>55</ele>
        <time>2022-04-03T12:16:59Z</time>
      </trkpt>
      <trkpt lat="47.22592" lon="-1.48747">
        <ele>56</ele>
        <time>2022-04-03T12:17:01Z</time>
      </trkpt>
      <trkpt lat="47.22587" lon="-1.48767">
        <ele>56</ele>
        <time>2022-04-03T12:17:03Z</time>
      </trkpt>
      <trkpt lat="47.22582" lon="-1.48786">
        <ele>56</ele>
        <time>2022-04-03T12:17:05Z</time>
      </trkpt>
      <trkpt lat="47.22576" lon="-1.48804">
        <ele>57</ele>
        <time>2022-04-03T12:17:07Z</time>
      </trkpt>
      <trkpt lat="47.2257" lon="-1.48822">
        <ele>58</ele>
        <time>2022-04-03T12:17:09Z</time>
      </trkpt>
      <trkpt lat="47.22564" lon="-1.4884">
        <ele>58</ele>
        <time>2022-04-03T12:17:11Z</time>
      </trkpt>
      <trkpt lat="47.22558" lon="-1.48859">
        <ele>59</ele>
        <time>2022-04-03T12:17:13Z</time>
      </trkpt>
      <trkpt lat="47.22553" lon="-1.48877">
        <ele>58</ele>
        <time>2022-04-03T12:17:15Z</time>
      </trkpt>
      <trkpt lat="47.22549" lon="-1.48894">
        <ele>58</ele>
        <time>2022-04-03T12:17:17Z</time>
      </trkpt>
      <trkpt lat="47.22544" lon="-1.48912">
        <ele>57</ele>
        <time>2022-04-03T12:17:19Z</time>
      </trkpt>
      <trkpt lat="47.22538" lon="-1.48931">
        <ele>57</ele>
        <time>2022-04-03T12:17:21Z</time>
      </trkpt>
      <trkpt lat="47.2253" lon="-1.48952">
        <ele>57</ele>
        <time>2022-04-03T12:17:23Z</time>
      </trkpt>
      <trkpt lat="47.22523" lon="-1.4897">
        <ele>57</ele>
        <time>2022-04-03T12:17:25Z</time>
      </trkpt>
      <trkpt lat="47.22516" lon="-1.48989">
        <ele>57</ele>
        <time>2022-04-03T12:17:27Z</time>
      </trkpt>
      <trkpt lat="47.2251" lon="-1.49008">
        <ele>57</ele>
        <time>2022-04-03T12:17:29Z</time>
      </trkpt>
      <trkpt lat="47.22505" lon="-1.49028">
        <ele>57</ele>
        <time>2022-04-03T12:17:31Z</time>
      </trkpt>
      <trkpt lat="47.22499" lon="-1.49048">
        <ele>58</ele>
        <time>2022-04-03T12:17:33Z</time>
      </trkpt>
      <trkpt lat="47.22492" lon="-1.49067">
        <ele>58</ele>
        <time>2022-04-03T12:17:35Z</time>
      </trkpt>
      <trkpt lat="47.22487" lon="-1.49087">
        <ele>58</ele>
        <time>2022-04-03T12:17:37Z</time>
      </trkpt>
      <trkpt lat="47.22479" lon="-1.49106">
        <ele>59</ele>
        <time>2022-04-03T12:17:39Z</time>
      </trkpt>
      <trkpt lat="47.22473" lon="-1.49126">
        <ele>59</ele>
        <time>2022-04-03T12:17:41Z</time>
      </trkpt>
      <trkpt lat="47.22467" lon="-1.49147">
        <ele>58</ele>
        <time>2022-04-03T12:17:43Z</time>
      </trkpt>
      <trkpt lat="47.22461" lon="-1.49167">
        <ele>57</ele>
        <time>2022-04-03T12:17:45Z</time>
      </trkpt>
      <trkpt lat="47.22454" lon="-1.49185">
        <ele>57</ele>
        <time>2022-04-03T12:17:47Z</time>
      </trkpt>
      <trkpt lat="47.22447" lon="-1.49205">
        <ele>57</ele>
        <time>2022-04-03T12:17:49Z</time>
      </trkpt>
      <trkpt lat="47.2244" lon="-1.49224">
        <ele>57</ele>
        <time>2022-04-03T12:17:51Z</time>
      </trkpt>
      <trkpt lat="47.22433" lon="-1.49242">
        <ele>57</ele>
        <time>2022-04-03T12:17:53Z</time>
      </trkpt>
      <trkpt lat="47.22426" lon="-1.49259">
        <ele>57</ele>
        <time>2022-04-03T12:17:55Z</time>
      </trkpt>
      <trkpt lat="47.22418" lon="-1.49277">
        <ele>57</ele>
        <time>2022-04-03T12:17:57Z</time>
      </trkpt>
      <trkpt lat="47.22411" lon="-1.49295">
        <ele>57</ele>
        <time>2022-04-03T12:17:59Z</time>
      </trkpt>
      <trkpt lat="47.22404" lon="-1.49314">
        <ele>57</ele>
        <time>2022-04-03T12:18:01Z</time>
      </trkpt>
      <trkpt lat="47.22398" lon="-1.49333">
        <ele>57</ele>
        <time>2022-04-03T12:18:03Z</time>
      </trkpt>
      <trkpt lat="47.22392" lon="-1.49351">
        <ele>58</ele>
        <time>2022-04-03T12:18:05Z</time>
      </trkpt>
      <trkpt lat="47.22384" lon="-1.49367">
        <ele>58</ele>
        <time>2022-04-03T12:18:07Z</time>
      </trkpt>
      <trkpt lat="47.22377" lon="-1.49384">
        <ele>59</ele>
        <time>2022-04-03T12:18:09Z</time>
      </trkpt>
      <trkpt lat="47.22369" lon="-1.49402">
        <ele>59</ele>
        <time>2022-04-03T12:18:11Z</time>
      </trkpt>
      <trkpt lat="47.22362" lon="-1.49419">
        <ele>58</ele>
        <time>2022-04-03T12:18:13Z</time>
      </trkpt>
      <trkpt lat="47.22355" lon="-1.49437">
        <ele>58</ele>
        <time>2022-04-03T12:18:15Z</time>
      </trkpt>
      <trkpt lat="47.22349" lon="-1.49453">
        <ele>59</ele>
        <time>2022-04-03T12:18:17Z</time>
      </trkpt>
      <trkpt lat="47.22343" lon="-1.49471">
        <ele>59</ele>
        <time>2022-04-03T12:18:19Z</time>
      </trkpt>
      <trkpt lat="47.22338" lon="-1.49489">
        <ele>59</ele>
        <time>2022-04-03T12:18:21Z</time>
      </trkpt>
      <trkpt lat="47.22333" lon="-1.49508">
        <ele>59</ele>
        <time>2022-04-03T12:18:23Z</time>
      </trkpt>
      <trkpt lat="47.22326" lon="-1.49526">
        <ele>59</ele>
        <time>2022-04-03T12:18:25Z</time>
      </trkpt>
      <trkpt lat="47.2232" lon="-1.49544">
        <ele>59</ele>
        <time>2022-04-03T12:18:27Z</time>
      </trkpt>
      <trkpt lat="47.22314" lon="-1.49562">
        <ele>59</ele>
        <time>2022-04-03T12:18:29Z</time>
      </trkpt>
      <trkpt lat="47.22308" lon="-1.49579">
        <ele>59</ele>
        <time>2022-04-03T12:18:31Z</time>
      </trkpt>
      <trkpt lat="47.22301" lon="-1.49596">
        <ele>59</ele>
        <time>2022-04-03T12:18:33Z</time>
      </trkpt>
      <trkpt lat="47.22296" lon="-1.49614">
        <ele>59</ele>
        <time>2022-04-03T12:18:35Z</time>
      </trkpt>
      <trkpt lat="47.2229" lon="-1.49632">
        <ele>58</ele>
        <time>2022-04-03T12:18:37Z</time>
      </trkpt>
      <trkpt lat="47.22285" lon="-1.49651">
        <ele>58</ele>
        <time>2022-04-03T12:18:39Z</time>
      </trkpt>
      <trkpt lat="47.22279" lon="-1.4967">
        <ele>58</ele>
        <time>2022-04-03T12:18:41Z</time>
      </trkpt>
      <trkpt lat="47.22273" lon="-1.49689">
        <ele>57</ele>
        <time>2022-04-03T12:18:43Z</time>
      </trkpt>
      <trkpt lat="47.22267" lon="-1.49706">
        <ele>57</ele>
        <time>2022-04-03T12:18:45Z</time>
      </trkpt>
      <trkpt lat="47.2226" lon="-1.49725">
        <ele>57</ele>
        <time>2022-04-03T12:18:47Z</time>
      </trkpt>
      <trkpt lat="47.22255" lon="-1.49743">
        <ele>57</ele>
        <time>2022-04-03T12:18:49Z</time>
      </trkpt>
      <trkpt lat="47.22252" lon="-1.49762">
        <ele>56</ele>
        <time>2022-04-03T12:18:51Z</time>
      </trkpt>
      <trkpt lat="47.22249" lon="-1.49782">
        <ele>57</ele>
        <time>2022-04-03T12:18:53Z</time>
      </trkpt>
      <trkpt lat="47.22246" lon="-1.49803">
        <ele>57</ele>
        <time>2022-04-03T12:18:55Z</time>
      </trkpt>
      <trkpt lat="47.22242" lon="-1.49823">
        <ele>57</ele>
        <time>2022-04-03T12:18:57Z</time>
      </trkpt>
      <trkpt lat="47.22238" lon="-1.49842">
        <ele>58</ele>
        <time>2022-04-03T12:18:59Z</time>
      </trkpt>
      <trkpt lat="47.22233" lon="-1.49862">
        <ele>58</ele>
        <time>2022-04-03T12:19:01Z</time>
      </trkpt>
      <trkpt lat="47.22229" lon="-1.49882">
        <ele>58</ele>
        <time>2022-04-03T12:19:03Z</time>
      </trkpt>
      <trkpt lat="47.22224" lon="-1.49902">
        <ele>58</ele>
        <time>2022-04-03T12:19:05Z</time>
      </trkpt>
      <trkpt lat="47.2222" lon="-1.49922">
        <ele>57</ele>
        <time>2022-04-03T12:19:07Z</time>
      </trkpt>
      <trkpt lat="47.22215" lon="-1.49942">
        <ele>57</ele>
        <time>2022-04-03T12:19:09Z</time>
      </trkpt>
      <trkpt lat="47.2221" lon="-1.49961">
        <ele>58</ele>
        <time>2022-04-03T12:19:11Z</time>
      </trkpt>
      <trkpt lat="47.22206" lon="-1.4998">
        <ele>57</ele>
        <time>2022-04-03T12:19:13Z</time>
      </trkpt>
      <trkpt lat="47.222" lon="-1.49998">
        <ele>58</ele>
        <time>2022-04-03T12:19:15Z</time>
      </trkpt>
      <trkpt lat="47.22194" lon="-1.50015">
        <ele>58</ele>
        <time>2022-04-03T12:19:17Z</time>
      </trkpt>
      <trkpt lat="47.22189" lon="-1.50034">
        <ele>58</ele>
        <time>2022-04-03T12:19:19Z</time>
      </trkpt>
      <trkpt lat="47.22186" lon="-1.50053">
        <ele>57</ele>
        <time>2022-04-03T12:19:21Z</time>
      </trkpt>
      <trkpt lat="47.22182" lon="-1.50072">
        <ele>57</ele>
        <time>2022-04-03T12:19:23Z</time>
      </trkpt>
      <trkpt lat="47.22178" lon="-1.50091">
        <ele>57</ele>
        <time>2022-04-03T12:19:25Z</time>
      </trkpt>
      <trkpt lat="47.22173" lon="-1.5011">
        <ele>56</ele>
        <time>2022-04-03T12:19:27Z</time>
      </trkpt>
      <trkpt lat="47.22168" lon="-1.50127">
        <ele>56</ele>
        <time>2022-04-03T12:19:29Z</time>
      </trkpt>
      <trkpt lat="47.22161" lon="-1.50145">
        <ele>56</ele>
        <time>2022-04-03T12:19:31Z</time>
      </trkpt>
      <trkpt lat="47.22155" lon="-1.50163">
        <ele>55</ele>
        <time>2022-04-03T12:19:33Z</time>
      </trkpt>
      <trkpt lat="47.22149" lon="-1.50181">
        <ele>55</ele>
        <time>2022-04-03T12:19:35Z</time>
      </trkpt>
      <trkpt lat="47.22146" lon="-1.50201">
        <ele>55</ele>
        <time>2022-04-03T12:19:37Z</time>
      </trkpt>
      <trkpt lat="47.22141" lon="-1.50219">
        <ele>55</ele>
        <time>2022-04-03T12:19:39Z</time>
      </trkpt>
      <trkpt lat="47.22136" lon="-1.50237">
        <ele>55</ele>
        <time>2022-04-03T12:19:41Z</time>
      </trkpt>
      <trkpt lat="47.2213" lon="-1.50254">
        <ele>56</ele>
        <time>2022-04-03T12:19:43Z</time>
      </trkpt>
      <trkpt lat="47.22124" lon="-1.50272">
        <ele>56</ele>
        <time>2022-04-03T12:19:45Z</time>
      </trkpt>
      <trkpt lat="47.22116" lon="-1.50291">
        <ele>56</ele>
        <time>2022-04-03T12:19:47Z</time>
      </trkpt>
      <trkpt lat="47.22108" lon="-1.50308">
        <ele>56</ele>
        <time>2022-04-03T12:19:49Z</time>
      </trkpt>
      <trkpt lat="47.22099" lon="-1.50325">
        <ele>56</ele>
        <time>2022-04-03T12:19:51Z</time>
      </trkpt>
      <trkpt lat="47.22092" lon="-1.50343">
        <ele>56</ele>
        <time>2022-04-03T12:19:53Z</time>
      </trkpt>
      <trkpt lat="47.22087" lon="-1.50362">
        <ele>56</ele>
        <time>2022-04-03T12:19:55Z</time>
      </trkpt>
      <trkpt lat="47.22082" lon="-1.50382">
        <ele>56</ele>
        <time>2022-04-03T12:19:57Z</time>
      </trkpt>
      <trkpt lat="47.22076" lon="-1.50402">
        <ele>55</ele>
        <time>2022-04-03T12:19:59Z</time>
      </trkpt>
      <trkpt lat="47.22071" lon="-1.50422">
        <ele>54</ele>
        <time>2022-04-03T12:20:01Z</time>
      </trkpt>
      <trkpt lat="47.22068" lon="-1.50443">
        <ele>54</ele>
        <time>2022-04-03T12:20:03Z</time>
      </trkpt>
      <trkpt lat="47.22065" lon="-1.50463">
        <ele>54</ele>
        <time>2022-04-03T12:20:05Z</time>
      </trkpt>
      <trkpt lat="47.22062" lon="-1.50483">
        <ele>54</ele>
        <time>2022-04-03T12:20:07Z</time>
      </trkpt>
      <trkpt lat="47.22061" lon="-1.50503">
        <ele>54</ele>
        <time>2022-04-03T12:20:09Z</time>
      </trkpt>
      <trkpt lat="47.2206" lon="-1.50523">
        <ele>54</ele>
        <time>2022-04-03T12:20:11Z</time>
      </trkpt>
      <trkpt lat="47.22058" lon="-1.50543">
        <ele>54</ele>
        <time>2022-04-03T12:20:13Z</time>
      </trkpt>
      <trkpt lat="47.22057" lon="-1.50563">
        <ele>54</ele>
        <time>2022-04-03T12:20:15Z</time>
      </trkpt>
      <trkpt lat="47.22055" lon="-1.50582">
        <ele>55</ele>
        <time>2022-04-03T12:20:17Z</time>
      </trkpt>
      <trkpt lat="47.22055" lon="-1.50602">
        <ele>55</ele>
        <time>2022-04-03T12:20:19Z</time>
      </trkpt>
      <trkpt lat="47.22054" lon="-1.50621">
        <ele>55</ele>
        <time>2022-04-03T12:20:21Z</time>
      </trkpt>
      <trkpt lat="47.22053" lon="-1.50641">
        <ele>55</ele>
        <time>2022-04-03T12:20:23Z</time>
      </trkpt>
      <trkpt lat="47.2205" lon="-1.50661">
        <ele>55</ele>
        <time>2022-04-03T12:20:25Z</time>
      </trkpt>
      <trkpt lat="47.22048" lon="-1.5068">
        <ele>55</ele>
        <time>2022-04-03T12:20:27Z</time>
      </trkpt>
      <trkpt lat="47.22047" lon="-1.50699">
        <ele>55</ele>
        <time>2022-04-03T12:20:29Z</time>
      </trkpt>
      <trkpt lat="47.22046" lon="-1.50719">
        <ele>55</ele>
        <time>2022-04-03T12:20:31Z</time>
      </trkpt>
      <trkpt lat="47.22044" lon="-1.50739">
        <ele>55</ele>
        <time>2022-04-03T12:20:33Z</time>
      </trkpt>
      <trkpt lat="47.22041" lon="-1.50759">
        <ele>55</ele>
        <time>2022-04-03T12:20:35Z</time>
      </trkpt>
      <trkpt lat="47.22037" lon="-1.50779">
        <ele>55</ele>
        <time>2022-04-03T12:20:37Z</time>
      </trkpt>
      <trkpt lat="47.22033" lon="-1.50797">
        <ele>55</ele>
        <time>2022-04-03T12:20:39Z</time>
      </trkpt>
      <trkpt lat="47.22027" lon="-1.50814">
        <ele>55</ele>
        <time>2022-04-03T12:20:41Z</time>
      </trkpt>
      <trkpt lat="47.22021" lon="-1.50831">
        <ele>55</ele>
        <time>2022-04-03T12:20:43Z</time>
      </trkpt>
      <trkpt lat="47.22013" lon="-1.50848">
        <ele>55</ele>
        <time>2022-04-03T12:20:45Z</time>
      </trkpt>
      <trkpt lat="47.22005" lon="-1.50867">
        <ele>55</ele>
        <time>2022-04-03T12:20:47Z</time>
      </trkpt>
      <trkpt lat="47.21998" lon="-1.50886">
        <ele>56</ele>
        <time>2022-04-03T12:20:49Z</time>
      </trkpt>
      <trkpt lat="47.21992" lon="-1.50905">
        <ele>56</ele>
        <time>2022-04-03T12:20:51Z</time>
      </trkpt>
      <trkpt lat="47.21987" lon="-1.50925">
        <ele>56</ele>
        <time>2022-04-03T12:20:53Z</time>
      </trkpt>
      <trkpt lat="47.21981" lon="-1.50945">
        <ele>55</ele>
        <time>2022-04-03T12:20:55Z</time>
      </trkpt>
      <trkpt lat="47.21975" lon="-1.50964">
        <ele>55</ele>
        <time>2022-04-03T12:20:57Z</time>
      </trkpt>
      <trkpt lat="47.2197" lon="-1.50982">
        <ele>55</ele>
        <time>2022-04-03T12:20:59Z</time>
      </trkpt>
      <trkpt lat="47.21964" lon="-1.51001">
        <ele>54</ele>
        <time>2022-04-03T12:21:01Z</time>
      </trkpt>
      <trkpt lat="47.21958" lon="-1.51018">
        <ele>54</ele>
        <time>2022-04-03T12:21:03Z</time>
      </trkpt>
      <trkpt lat="47.21952" lon="-1.51036">
        <ele>55</ele>
        <time>2022-04-03T12:21:05Z</time>
      </trkpt>
      <trkpt lat="47.21948" lon="-1.51054">
        <ele>55</ele>
        <time>2022-04-03T12:21:07Z</time>
      </trkpt>
      <trkpt lat="47.21941" lon="-1.51066">
        <ele>56</ele>
        <time>2022-04-03T12:21:09Z</time>
      </trkpt>
      <trkpt lat="47.21933" lon="-1.51079">
        <ele>56</ele>
        <time>2022-04-03T12:21:11Z</time>
      </trkpt>
      <trkpt lat="47.21927" lon="-1.51097">
        <ele>55</ele>
        <time>2022-04-03T12:21:13Z</time>
      </trkpt>
      <trkpt lat="47.21921" lon="-1.51116">
        <ele>55</ele>
        <time>2022-04-03T12:21:15Z</time>
      </trkpt>
      <trkpt lat="47.21915" lon="-1.51134">
        <ele>55</ele>
        <time>2022-04-03T12:21:17Z</time>
      </trkpt>
      <trkpt lat="47.21909" lon="-1.51152">
        <ele>55</ele>
        <time>2022-04-03T12:21:19Z</time>
      </trkpt>
      <trkpt lat="47.21904" lon="-1.5117">
        <ele>55</ele>
        <time>2022-04-03T12:21:21Z</time>
      </trkpt>
      <trkpt lat="47.21898" lon="-1.51187">
        <ele>55</ele>
        <time>2022-04-03T12:21:23Z</time>
      </trkpt>
      <trkpt lat="47.21892" lon="-1.51205">
        <ele>55</ele>
        <time>2022-04-03T12:21:25Z</time>
      </trkpt>
      <trkpt lat="47.21886" lon="-1.51224">
        <ele>55</ele>
        <time>2022-04-03T12:21:27Z</time>
      </trkpt>
      <trkpt lat="47.21879" lon="-1.51242">
        <ele>55</ele>
        <time>2022-04-03T12:21:29Z</time>
      </trkpt>
      <trkpt lat="47.21873" lon="-1.5126">
        <ele>55</ele>
        <time>2022-04-03T12:21:31Z</time>
      </trkpt>
      <trkpt lat="47.21867" lon="-1.51278">
        <ele>55</ele>
        <time>2022-04-03T12:21:33Z</time>
      </trkpt>
      <trkpt lat="47.21862" lon="-1.51296">
        <ele>55</ele>
        <time>2022-04-03T12:21:35Z</time>
      </trkpt>
      <trkpt lat="47.21856" lon="-1.51314">
        <ele>55</ele>
        <time>2022-04-03T12:21:37Z</time>
      </trkpt>
      <trkpt lat="47.2185" lon="-1.51332">
        <ele>56</ele>
        <time>2022-04-03T12:21:39Z</time>
      </trkpt>
      <trkpt lat="47.21845" lon="-1.5135">
        <ele>56</ele>
        <time>2022-04-03T12:21:41Z</time>
      </trkpt>
      <trkpt lat="47.2184" lon="-1.51369">
        <ele>55</ele>
        <time>2022-04-03T12:21:43Z</time>
      </trkpt>
      <trkpt lat="47.21836" lon="-1.51387">
        <ele>55</ele>
        <time>2022-04-03T12:21:45Z</time>
      </trkpt>
      <trkpt lat="47.21832" lon="-1.51405">
        <ele>56</ele>
        <time>2022-04-03T12:21:47Z</time>
      </trkpt>
      <trkpt lat="47.21828" lon="-1.51424">
        <ele>56</ele>
        <time>2022-04-03T12:21:49Z</time>
      </trkpt>
      <trkpt lat="47.21824" lon="-1.51442">
        <ele>56</ele>
        <time>2022-04-03T12:21:51Z</time>
      </trkpt>
      <trkpt lat="47.2182" lon="-1.51461">
        <ele>56</ele>
        <time>2022-04-03T12:21:53Z</time>
      </trkpt>
      <trkpt lat="47.21816" lon="-1.51479">
        <ele>56</ele>
        <time>2022-04-03T12:21:55Z</time>
      </trkpt>
      <trkpt lat="47.21811" lon="-1.51496">
        <ele>55</ele>
        <time>2022-04-03T12:21:57Z</time>
      </trkpt>
      <trkpt lat="47.21804" lon="-1.51512">
        <ele>56</ele>
        <time>2022-04-03T12:21:59Z</time>
      </trkpt>
      <trkpt lat="47.21798" lon="-1.51528">
        <ele>56</ele>
        <time>2022-04-03T12:22:01Z</time>
      </trkpt>
      <trkpt lat="47.21791" lon="-1.51544">
        <ele>56</ele>
        <time>2022-04-03T12:22:03Z</time>
      </trkpt>
      <trkpt lat="47.21784" lon="-1.51559">
        <ele>55</ele>
        <time>2022-04-03T12:22:05Z</time>
      </trkpt>
      <trkpt lat="47.21777" lon="-1.51575">
        <ele>55</ele>
        <time>2022-04-03T12:22:07Z</time>
      </trkpt>
      <trkpt lat="47.21768" lon="-1.51589">
        <ele>55</ele>
        <time>2022-04-03T12:22:09Z</time>
      </trkpt>
      <trkpt lat="47.21759" lon="-1.51602">
        <ele>55</ele>
        <time>2022-04-03T12:22:11Z</time>
      </trkpt>
      <trkpt lat="47.2175" lon="-1.51615">
        <ele>56</ele>
        <time>2022-04-03T12:22:13Z</time>
      </trkpt>
      <trkpt lat="47.21743" lon="-1.51632">
        <ele>55</ele>
        <time>2022-04-03T12:22:15Z</time>
      </trkpt>
      <trkpt lat="47.21736" lon="-1.51648">
        <ele>55</ele>
        <time>2022-04-03T12:22:17Z</time>
      </trkpt>
      <trkpt lat="47.21729" lon="-1.51665">
        <ele>55</ele>
        <time>2022-04-03T12:22:19Z</time>
      </trkpt>
      <trkpt lat="47.21721" lon="-1.51681">
        <ele>55</ele>
        <time>2022-04-03T12:22:21Z</time>
      </trkpt>
      <trkpt lat="47.21713" lon="-1.51698">
        <ele>55</ele>
        <time>2022-04-03T12:22:23Z</time>
      </trkpt>
      <trkpt lat="47.21706" lon="-1.51714">
        <ele>56</ele>
        <time>2022-04-03T12:22:25Z</time>
      </trkpt>
      <trkpt lat="47.217" lon="-1.51731">
        <ele>56</ele>
        <time>2022-04-03T12:22:27Z</time>
      </trkpt>
      <trkpt lat="47.21692" lon="-1.51748">
        <ele>56</ele>
        <time>2022-04-03T12:22:29Z</time>
      </trkpt>
      <trkpt lat="47.21684" lon="-1.51765">
        <ele>56</ele>
        <time>2022-04-03T12:22:31Z</time>
      </trkpt>
      <trkpt lat="47.21677" lon="-1.51782">
        <ele>56</ele>
        <time>2022-04-03T12:22:33Z</time>
      </trkpt>
      <trkpt lat="47.21669" lon="-1.51799">
        <ele>56</ele>
        <time>2022-04-03T12:22:35Z</time>
      </trkpt>
      <trkpt lat="47.21662" lon="-1.51816">
        <ele>56</ele>
        <time>2022-04-03T12:22:37Z</time>
      </trkpt>
      <trkpt lat="47.21655" lon="-1.51833">
        <ele>56</ele>
        <time>2022-04-03T12:22:39Z</time>
      </trkpt>
      <trkpt lat="47.2165" lon="-1.51851">
        <ele>57</ele>
        <time>2022-04-03T12:22:41Z</time>
      </trkpt>
      <trkpt lat="47.21646" lon="-1.5187">
        <ele>56</ele>
        <time>2022-04-03T12:22:43Z</time>
      </trkpt>
      <trkpt lat="47.21641" lon="-1.51889">
        <ele>56</ele>
        <time>2022-04-03T12:22:45Z</time>
      </trkpt>
      <trkpt lat="47.21633" lon="-1.51904">
        <ele>56</ele>
        <time>2022-04-03T12:22:47Z</time>
      </trkpt>
      <trkpt lat="47.21624" lon="-1.51931">
        <ele>57</ele>
        <time>2022-04-03T12:22:50Z</time>
      </trkpt>
      <trkpt lat="47.2162" lon="-1.5195">
        <ele>56</ele>
        <time>2022-04-03T12:22:52Z</time>
      </trkpt>
      <trkpt lat="47.21617" lon="-1.51969">
        <ele>54</ele>
        <time>2022-04-03T12:22:54Z</time>
      </trkpt>
      <trkpt lat="47.21609" lon="-1.51985">
        <ele>56</ele>
        <time>2022-04-03T12:22:56Z</time>
      </trkpt>
      <trkpt lat="47.21601" lon="-1.52002">
        <ele>56</ele>
        <time>2022-04-03T12:22:58Z</time>
      </trkpt>
      <trkpt lat="47.21592" lon="-1.52029">
        <ele>56</ele>
        <time>2022-04-03T12:23:01Z</time>
      </trkpt>
      <trkpt lat="47.21585" lon="-1.52047">
        <ele>56</ele>
        <time>2022-04-03T12:23:03Z</time>
      </trkpt>
      <trkpt lat="47.2158" lon="-1.52066">
        <ele>56</ele>
        <time>2022-04-03T12:23:05Z</time>
      </trkpt>
      <trkpt lat="47.21574" lon="-1.52084">
        <ele>56</ele>
        <time>2022-04-03T12:23:07Z</time>
      </trkpt>
      <trkpt lat="47.21568" lon="-1.52103">
        <ele>56</ele>
        <time>2022-04-03T12:23:09Z</time>
      </trkpt>
      <trkpt lat="47.21562" lon="-1.52121">
        <ele>56</ele>
        <time>2022-04-03T12:23:11Z</time>
      </trkpt>
      <trkpt lat="47.21556" lon="-1.52139">
        <ele>56</ele>
        <time>2022-04-03T12:23:13Z</time>
      </trkpt>
      <trkpt lat="47.21551" lon="-1.52157">
        <ele>56</ele>
        <time>2022-04-03T12:23:15Z</time>
      </trkpt>
      <trkpt lat="47.21545" lon="-1.52175">
        <ele>56</ele>
        <time>2022-04-03T12:23:17Z</time>
      </trkpt>
      <trkpt lat="47.21539" lon="-1.52194">
        <ele>56</ele>
        <time>2022-04-03T12:23:19Z</time>
      </trkpt>
      <trkpt lat="47.21533" lon="-1.52213">
        <ele>56</ele>
        <time>2022-04-03T12:23:21Z</time>
      </trkpt>
      <trkpt lat="47.21527" lon="-1.52232">
        <ele>56</ele>
        <time>2022-04-03T12:23:23Z</time>
      </trkpt>
      <trkpt lat="47.21521" lon="-1.52251">
        <ele>55</ele>
        <time>2022-04-03T12:23:25Z</time>
      </trkpt>
      <trkpt lat="47.21515" lon="-1.52269">
        <ele>56</ele>
        <time>2022-04-03T12:23:27Z</time>
      </trkpt>
      <trkpt lat="47.21508" lon="-1.52288">
        <ele>56</ele>
        <time>2022-04-03T12:23:29Z</time>
      </trkpt>
      <trkpt lat="47.21502" lon="-1.52307">
        <ele>56</ele>
        <time>2022-04-03T12:23:31Z</time>
      </trkpt>
      <trkpt lat="47.21496" lon="-1.52326">
        <ele>56</ele>
        <time>2022-04-03T12:23:33Z</time>
      </trkpt>
      <trkpt lat="47.2149" lon="-1.52343">
        <ele>56</ele>
        <time>2022-04-03T12:23:35Z</time>
      </trkpt>
      <trkpt lat="47.21484" lon="-1.52362">
        <ele>56</ele>
        <time>2022-04-03T12:23:37Z</time>
      </trkpt>
      <trkpt lat="47.21479" lon="-1.52381">
        <ele>56</ele>
        <time>2022-04-03T12:23:39Z</time>
      </trkpt>
      <trkpt lat="47.21473" lon="-1.52401">
        <ele>56</ele>
        <time>2022-04-03T12:23:41Z</time>
      </trkpt>
      <trkpt lat="47.21467" lon="-1.5242">
        <ele>56</ele>
        <time>2022-04-03T12:23:43Z</time>
      </trkpt>
      <trkpt lat="47.2146" lon="-1.52438">
        <ele>56</ele>
        <time>2022-04-03T12:23:45Z</time>
      </trkpt>
      <trkpt lat="47.21454" lon="-1.52457">
        <ele>57</ele>
        <time>2022-04-03T12:23:47Z</time>
      </trkpt>
      <trkpt lat="47.21449" lon="-1.52476">
        <ele>57</ele>
        <time>2022-04-03T12:23:49Z</time>
      </trkpt>
      <trkpt lat="47.21442" lon="-1.52495">
        <ele>57</ele>
        <time>2022-04-03T12:23:51Z</time>
      </trkpt>
      <trkpt lat="47.21436" lon="-1.52514">
        <ele>57</ele>
        <time>2022-04-03T12:23:53Z</time>
      </trkpt>
      <trkpt lat="47.2143" lon="-1.52532">
        <ele>57</ele>
        <time>2022-04-03T12:23:55Z</time>
      </trkpt>
      <trkpt lat="47.21424" lon="-1.52551">
        <ele>57</ele>
        <time>2022-04-03T12:23:57Z</time>
      </trkpt>
      <trkpt lat="47.21419" lon="-1.5257">
        <ele>57</ele>
        <time>2022-04-03T12:23:59Z</time>
      </trkpt>
      <trkpt lat="47.21413" lon="-1.52589">
        <ele>57</ele>
        <time>2022-04-03T12:24:01Z</time>
      </trkpt>
      <trkpt lat="47.21407" lon="-1.52608">
        <ele>56</ele>
        <time>2022-04-03T12:24:03Z</time>
      </trkpt>
      <trkpt lat="47.21401" lon="-1.52627">
        <ele>55</ele>
        <time>2022-04-03T12:24:05Z</time>
      </trkpt>
      <trkpt lat="47.21396" lon="-1.52646">
        <ele>55</ele>
        <time>2022-04-03T12:24:07Z</time>
      </trkpt>
      <trkpt lat="47.21391" lon="-1.52665">
        <ele>55</ele>
        <time>2022-04-03T12:24:09Z</time>
      </trkpt>
      <trkpt lat="47.21386" lon="-1.52685">
        <ele>55</ele>
        <time>2022-04-03T12:24:11Z</time>
      </trkpt>
      <trkpt lat="47.2138" lon="-1.52703">
        <ele>55</ele>
        <time>2022-04-03T12:24:13Z</time>
      </trkpt>
      <trkpt lat="47.21375" lon="-1.52723">
        <ele>56</ele>
        <time>2022-04-03T12:24:15Z</time>
      </trkpt>
      <trkpt lat="47.21373" lon="-1.52743">
        <ele>56</ele>
        <time>2022-04-03T12:24:17Z</time>
      </trkpt>
      <trkpt lat="47.21369" lon="-1.52765">
        <ele>55</ele>
        <time>2022-04-03T12:24:19Z</time>
      </trkpt>
      <trkpt lat="47.21367" lon="-1.52785">
        <ele>56</ele>
        <time>2022-04-03T12:24:21Z</time>
      </trkpt>
      <trkpt lat="47.21363" lon="-1.52803">
        <ele>56</ele>
        <time>2022-04-03T12:24:23Z</time>
      </trkpt>
      <trkpt lat="47.2136" lon="-1.52822">
        <ele>56</ele>
        <time>2022-04-03T12:24:25Z</time>
      </trkpt>
      <trkpt lat="47.21356" lon="-1.52842">
        <ele>56</ele>
        <time>2022-04-03T12:24:27Z</time>
      </trkpt>
      <trkpt lat="47.21351" lon="-1.52862">
        <ele>56</ele>
        <time>2022-04-03T12:24:29Z</time>
      </trkpt>
      <trkpt lat="47.21347" lon="-1.52884">
        <ele>55</ele>
        <time>2022-04-03T12:24:31Z</time>
      </trkpt>
      <trkpt lat="47.21343" lon="-1.52905">
        <ele>55</ele>
        <time>2022-04-03T12:24:33Z</time>
      </trkpt>
      <trkpt lat="47.21339" lon="-1.52927">
        <ele>55</ele>
        <time>2022-04-03T12:24:35Z</time>
      </trkpt>
      <trkpt lat="47.21338" lon="-1.52946">
        <ele>55</ele>
        <time>2022-04-03T12:24:37Z</time>
      </trkpt>
      <trkpt lat="47.21337" lon="-1.52966">
        <ele>55</ele>
        <time>2022-04-03T12:24:39Z</time>
      </trkpt>
      <trkpt lat="47.21334" lon="-1.52988">
        <ele>55</ele>
        <time>2022-04-03T12:24:41Z</time>
      </trkpt>
      <trkpt lat="47.21333" lon="-1.53009">
        <ele>55</ele>
        <time>2022-04-03T12:24:43Z</time>
      </trkpt>
      <trkpt lat="47.2133" lon="-1.5303">
        <ele>56</ele>
        <time>2022-04-03T12:24:45Z</time>
      </trkpt>
      <trkpt lat="47.21328" lon="-1.53051">
        <ele>56</ele>
        <time>2022-04-03T12:24:47Z</time>
      </trkpt>
      <trkpt lat="47.21327" lon="-1.53071">
        <ele>56</ele>
        <time>2022-04-03T12:24:49Z</time>
      </trkpt>
      <trkpt lat="47.21327" lon="-1.5309">
        <ele>57</ele>
        <time>2022-04-03T12:24:51Z</time>
      </trkpt>
      <trkpt lat="47.21324" lon="-1.53109">
        <ele>57</ele>
        <time>2022-04-03T12:24:53Z</time>
      </trkpt>
      <trkpt lat="47.21321" lon="-1.53129">
        <ele>57</ele>
        <time>2022-04-03T12:24:55Z</time>
      </trkpt>
      <trkpt lat="47.21317" lon="-1.5315">
        <ele>56</ele>
        <time>2022-04-03T12:24:57Z</time>
      </trkpt>
      <trkpt lat="47.21314" lon="-1.5317">
        <ele>57</ele>
        <time>2022-04-03T12:24:59Z</time>
      </trkpt>
      <trkpt lat="47.21312" lon="-1.53191">
        <ele>57</ele>
        <time>2022-04-03T12:25:01Z</time>
      </trkpt>
      <trkpt lat="47.2131" lon="-1.53211">
        <ele>57</ele>
        <time>2022-04-03T12:25:03Z</time>
      </trkpt>
      <trkpt lat="47.21309" lon="-1.53231">
        <ele>57</ele>
        <time>2022-04-03T12:25:05Z</time>
      </trkpt>
      <trkpt lat="47.21309" lon="-1.53251">
        <ele>57</ele>
        <time>2022-04-03T12:25:07Z</time>
      </trkpt>
      <trkpt lat="47.2131" lon="-1.53271">
        <ele>58</ele>
        <time>2022-04-03T12:25:09Z</time>
      </trkpt>
      <trkpt lat="47.2131" lon="-1.53291">
        <ele>58</ele>
        <time>2022-04-03T12:25:11Z</time>
      </trkpt>
      <trkpt lat="47.21308" lon="-1.53311">
        <ele>58</ele>
        <time>2022-04-03T12:25:13Z</time>
      </trkpt>
      <trkpt lat="47.21306" lon="-1.5333">
        <ele>57</ele>
        <time>2022-04-03T12:25:15Z</time>
      </trkpt>
      <trkpt lat="47.21302" lon="-1.53349">
        <ele>57</ele>
        <time>2022-04-03T12:25:17Z</time>
      </trkpt>
      <trkpt lat="47.21298" lon="-1.53369">
        <ele>56</ele>
        <time>2022-04-03T12:25:19Z</time>
      </trkpt>
      <trkpt lat="47.21294" lon="-1.53388">
        <ele>56</ele>
        <time>2022-04-03T12:25:21Z</time>
      </trkpt>
      <trkpt lat="47.21292" lon="-1.53408">
        <ele>56</ele>
        <time>2022-04-03T12:25:23Z</time>
      </trkpt>
      <trkpt lat="47.21291" lon="-1.53427">
        <ele>56</ele>
        <time>2022-04-03T12:25:25Z</time>
      </trkpt>
      <trkpt lat="47.21289" lon="-1.53448">
        <ele>56</ele>
        <time>2022-04-03T12:25:27Z</time>
      </trkpt>
      <trkpt lat="47.21292" lon="-1.53465">
        <ele>56</ele>
        <time>2022-04-03T12:25:29Z</time>
      </trkpt>
      <trkpt lat="47.21298" lon="-1.53482">
        <ele>56</ele>
        <time>2022-04-03T12:25:31Z</time>
      </trkpt>
      <trkpt lat="47.213" lon="-1.53501">
        <ele>57</ele>
        <time>2022-04-03T12:25:33Z</time>
      </trkpt>
      <trkpt lat="47.213" lon="-1.5352">
        <ele>57</ele>
        <time>2022-04-03T12:25:35Z</time>
      </trkpt>
      <trkpt lat="47.21301" lon="-1.53538">
        <ele>58</ele>
        <time>2022-04-03T12:25:37Z</time>
      </trkpt>
      <trkpt lat="47.21302" lon="-1.53557">
        <ele>57</ele>
        <time>2022-04-03T12:25:39Z</time>
      </trkpt>
      <trkpt lat="47.21302" lon="-1.53576">
        <ele>58</ele>
        <time>2022-04-03T12:25:41Z</time>
      </trkpt>
      <trkpt lat="47.21303" lon="-1.53593">
        <ele>58</ele>
        <time>2022-04-03T12:25:43Z</time>
      </trkpt>
      <trkpt lat="47.21303" lon="-1.53611">
        <ele>58</ele>
        <time>2022-04-03T12:25:45Z</time>
      </trkpt>
      <trkpt lat="47.21298" lon="-1.53627">
        <ele>57</ele>
        <time>2022-04-03T12:25:47Z</time>
      </trkpt>
      <trkpt lat="47.21293" lon="-1.5364">
        <ele>57</ele>
        <time>2022-04-03T12:25:50Z</time>
      </trkpt>
      <trkpt lat="47.21292" lon="-1.53654">
        <ele>57</ele>
        <time>2022-04-03T12:25:53Z</time>
      </trkpt>
      <trkpt lat="47.21294" lon="-1.53674">
        <ele>57</ele>
        <time>2022-04-03T12:25:56Z</time>
      </trkpt>
      <trkpt lat="47.21301" lon="-1.53686">
        <ele>58</ele>
        <time>2022-04-03T12:25:58Z</time>
      </trkpt>
      <trkpt lat="47.21305" lon="-1.53702">
        <ele>58</ele>
        <time>2022-04-03T12:26:00Z</time>
      </trkpt>
      <trkpt lat="47.2131" lon="-1.53719">
        <ele>58</ele>
        <time>2022-04-03T12:26:02Z</time>
      </trkpt>
      <trkpt lat="47.21313" lon="-1.53737">
        <ele>57</ele>
        <time>2022-04-03T12:26:04Z</time>
      </trkpt>
      <trkpt lat="47.21316" lon="-1.53754">
        <ele>57</ele>
        <time>2022-04-03T12:26:06Z</time>
      </trkpt>
      <trkpt lat="47.21319" lon="-1.53772">
        <ele>57</ele>
        <time>2022-04-03T12:26:08Z</time>
      </trkpt>
      <trkpt lat="47.21321" lon="-1.53789">
        <ele>58</ele>
        <time>2022-04-03T12:26:10Z</time>
      </trkpt>
      <trkpt lat="47.21323" lon="-1.53806">
        <ele>58</ele>
        <time>2022-04-03T12:26:12Z</time>
      </trkpt>
      <trkpt lat="47.21325" lon="-1.53823">
        <ele>58</ele>
        <time>2022-04-03T12:26:14Z</time>
      </trkpt>
      <trkpt lat="47.21328" lon="-1.5384">
        <ele>57</ele>
        <time>2022-04-03T12:26:16Z</time>
      </trkpt>
      <trkpt lat="47.21331" lon="-1.53857">
        <ele>57</ele>
        <time>2022-04-03T12:26:18Z</time>
      </trkpt>
      <trkpt lat="47.21333" lon="-1.53873">
        <ele>57</ele>
        <time>2022-04-03T12:26:20Z</time>
      </trkpt>
      <trkpt lat="47.21336" lon="-1.53888">
        <ele>58</ele>
        <time>2022-04-03T12:26:22Z</time>
      </trkpt>
      <trkpt lat="47.21338" lon="-1.53902">
        <ele>57</ele>
        <time>2022-04-03T12:26:24Z</time>
      </trkpt>
      <trkpt lat="47.2134" lon="-1.53918">
        <ele>58</ele>
        <time>2022-04-03T12:26:27Z</time>
      </trkpt>
      <trkpt lat="47.2135" lon="-1.53921">
        <ele>58</ele>
        <time>2022-04-03T12:26:33Z</time>
      </trkpt>
      <trkpt lat="47.2136" lon="-1.53928">
        <ele>58</ele>
        <time>2022-04-03T12:26:37Z</time>
      </trkpt>
      <trkpt lat="47.21371" lon="-1.53929">
        <ele>59</ele>
        <time>2022-04-03T12:26:41Z</time>
      </trkpt>
      <trkpt lat="47.21381" lon="-1.53936">
        <ele>58</ele>
        <time>2022-04-03T12:26:43Z</time>
      </trkpt>
      <trkpt lat="47.21389" lon="-1.53948">
        <ele>58</ele>
        <time>2022-04-03T12:26:45Z</time>
      </trkpt>
      <trkpt lat="47.21391" lon="-1.53962">
        <ele>58</ele>
        <time>2022-04-03T12:26:47Z</time>
      </trkpt>
      <trkpt lat="47.21386" lon="-1.53979">
        <ele>59</ele>
        <time>2022-04-03T12:26:49Z</time>
      </trkpt>
      <trkpt lat="47.21382" lon="-1.53991">
        <ele>59</ele>
        <time>2022-04-03T12:26:51Z</time>
      </trkpt>
      <trkpt lat="47.21377" lon="-1.54004">
        <ele>59</ele>
        <time>2022-04-03T12:26:54Z</time>
      </trkpt>
      <trkpt lat="47.21375" lon="-1.54022">
        <ele>58</ele>
        <time>2022-04-03T12:26:57Z</time>
      </trkpt>
      <trkpt lat="47.21384" lon="-1.54034">
        <ele>58</ele>
        <time>2022-04-03T12:26:59Z</time>
      </trkpt>
      <trkpt lat="47.21393" lon="-1.54047">
        <ele>58</ele>
        <time>2022-04-03T12:27:01Z</time>
      </trkpt>
      <trkpt lat="47.21402" lon="-1.5406">
        <ele>58</ele>
        <time>2022-04-03T12:27:03Z</time>
      </trkpt>
      <trkpt lat="47.2141" lon="-1.54073">
        <ele>58</ele>
        <time>2022-04-03T12:27:05Z</time>
      </trkpt>
      <trkpt lat="47.2142" lon="-1.54086">
        <ele>58</ele>
        <time>2022-04-03T12:27:07Z</time>
      </trkpt>
      <trkpt lat="47.21428" lon="-1.54099">
        <ele>57</ele>
        <time>2022-04-03T12:27:09Z</time>
      </trkpt>
      <trkpt lat="47.21437" lon="-1.54112">
        <ele>57</ele>
        <time>2022-04-03T12:27:11Z</time>
      </trkpt>
      <trkpt lat="47.21445" lon="-1.54126">
        <ele>56</ele>
        <time>2022-04-03T12:27:13Z</time>
      </trkpt>
      <trkpt lat="47.21453" lon="-1.54139">
        <ele>56</ele>
        <time>2022-04-03T12:27:15Z</time>
      </trkpt>
      <trkpt lat="47.21462" lon="-1.54151">
        <ele>56</ele>
        <time>2022-04-03T12:27:17Z</time>
      </trkpt>
      <trkpt lat="47.21471" lon="-1.54164">
        <ele>56</ele>
        <time>2022-04-03T12:27:19Z</time>
      </trkpt>
      <trkpt lat="47.21479" lon="-1.54177">
        <ele>56</ele>
        <time>2022-04-03T12:27:21Z</time>
      </trkpt>
      <trkpt lat="47.21487" lon="-1.5419">
        <ele>56</ele>
        <time>2022-04-03T12:27:23Z</time>
      </trkpt>
      <trkpt lat="47.21496" lon="-1.54203">
        <ele>56</ele>
        <time>2022-04-03T12:27:25Z</time>
      </trkpt>
      <trkpt lat="47.21504" lon="-1.54216">
        <ele>56</ele>
        <time>2022-04-03T12:27:27Z</time>
      </trkpt>
      <trkpt lat="47.21513" lon="-1.54229">
        <ele>56</ele>
        <time>2022-04-03T12:27:29Z</time>
      </trkpt>
      <trkpt lat="47.21523" lon="-1.54242">
        <ele>56</ele>
        <time>2022-04-03T12:27:31Z</time>
      </trkpt>
      <trkpt lat="47.21531" lon="-1.54257">
        <ele>56</ele>
        <time>2022-04-03T12:27:33Z</time>
      </trkpt>
      <trkpt lat="47.21539" lon="-1.5427">
        <ele>56</ele>
        <time>2022-04-03T12:27:35Z</time>
      </trkpt>
      <trkpt lat="47.21548" lon="-1.5428">
        <ele>56</ele>
        <time>2022-04-03T12:27:37Z</time>
      </trkpt>
      <trkpt lat="47.21558" lon="-1.54288">
        <ele>55</ele>
        <time>2022-04-03T12:27:39Z</time>
      </trkpt>
      <trkpt lat="47.21566" lon="-1.543">
        <ele>55</ele>
        <time>2022-04-03T12:27:41Z</time>
      </trkpt>
      <trkpt lat="47.21574" lon="-1.54312">
        <ele>55</ele>
        <time>2022-04-03T12:27:43Z</time>
      </trkpt>
      <trkpt lat="47.21582" lon="-1.54325">
        <ele>56</ele>
        <time>2022-04-03T12:27:45Z</time>
      </trkpt>
      <trkpt lat="47.21588" lon="-1.5434">
        <ele>56</ele>
        <time>2022-04-03T12:27:47Z</time>
      </trkpt>
      <trkpt lat="47.21596" lon="-1.54352">
        <ele>57</ele>
        <time>2022-04-03T12:27:49Z</time>
      </trkpt>
      <trkpt lat="47.21605" lon="-1.54367">
        <ele>58</ele>
        <time>2022-04-03T12:27:51Z</time>
      </trkpt>
      <trkpt lat="47.21615" lon="-1.54381">
        <ele>59</ele>
        <time>2022-04-03T12:27:53Z</time>
      </trkpt>
      <trkpt lat="47.21618" lon="-1.54401">
        <ele>59</ele>
        <time>2022-04-03T12:27:55Z</time>
      </trkpt>
      <trkpt lat="47.21614" lon="-1.54423">
        <ele>58</ele>
        <time>2022-04-03T12:27:57Z</time>
      </trkpt>
      <trkpt lat="47.21612" lon="-1.54443">
        <ele>58</ele>
        <time>2022-04-03T12:27:59Z</time>
      </trkpt>
      <trkpt lat="47.21611" lon="-1.54464">
        <ele>58</ele>
        <time>2022-04-03T12:28:01Z</time>
      </trkpt>
      <trkpt lat="47.21608" lon="-1.54485">
        <ele>59</ele>
        <time>2022-04-03T12:28:03Z</time>
      </trkpt>
      <trkpt lat="47.21604" lon="-1.54504">
        <ele>59</ele>
        <time>2022-04-03T12:28:05Z</time>
      </trkpt>
      <trkpt lat="47.21598" lon="-1.54522">
        <ele>59</ele>
        <time>2022-04-03T12:28:07Z</time>
      </trkpt>
      <trkpt lat="47.2159" lon="-1.5454">
        <ele>59</ele>
        <time>2022-04-03T12:28:09Z</time>
      </trkpt>
      <trkpt lat="47.21584" lon="-1.54558">
        <ele>59</ele>
        <time>2022-04-03T12:28:11Z</time>
      </trkpt>
      <trkpt lat="47.21578" lon="-1.54576">
        <ele>59</ele>
        <time>2022-04-03T12:28:13Z</time>
      </trkpt>
      <trkpt lat="47.21571" lon="-1.54595">
        <ele>58</ele>
        <time>2022-04-03T12:28:15Z</time>
      </trkpt>
      <trkpt lat="47.21564" lon="-1.54613">
        <ele>58</ele>
        <time>2022-04-03T12:28:17Z</time>
      </trkpt>
      <trkpt lat="47.21557" lon="-1.54632">
        <ele>57</ele>
        <time>2022-04-03T12:28:19Z</time>
      </trkpt>
      <trkpt lat="47.2155" lon="-1.5465">
        <ele>58</ele>
        <time>2022-04-03T12:28:21Z</time>
      </trkpt>
      <trkpt lat="47.21544" lon="-1.54667">
        <ele>58</ele>
        <time>2022-04-03T12:28:23Z</time>
      </trkpt>
      <trkpt lat="47.21539" lon="-1.54685">
        <ele>58</ele>
        <time>2022-04-03T12:28:25Z</time>
      </trkpt>
      <trkpt lat="47.21533" lon="-1.54705">
        <ele>58</ele>
        <time>2022-04-03T12:28:27Z</time>
      </trkpt>
      <trkpt lat="47.21527" lon="-1.54723">
        <ele>58</ele>
        <time>2022-04-03T12:28:29Z</time>
      </trkpt>
      <trkpt lat="47.2152" lon="-1.54741">
        <ele>58</ele>
        <time>2022-04-03T12:28:31Z</time>
      </trkpt>
      <trkpt lat="47.21513" lon="-1.54759">
        <ele>58</ele>
        <time>2022-04-03T12:28:33Z</time>
      </trkpt>
      <trkpt lat="47.21506" lon="-1.54777">
        <ele>59</ele>
        <time>2022-04-03T12:28:35Z</time>
      </trkpt>
      <trkpt lat="47.21499" lon="-1.54795">
        <ele>59</ele>
        <time>2022-04-03T12:28:37Z</time>
      </trkpt>
      <trkpt lat="47.21491" lon="-1.54813">
        <ele>60</ele>
        <time>2022-04-03T12:28:39Z</time>
      </trkpt>
      <trkpt lat="47.21483" lon="-1.5483">
        <ele>60</ele>
        <time>2022-04-03T12:28:41Z</time>
      </trkpt>
      <trkpt lat="47.21474" lon="-1.54846">
        <ele>60</ele>
        <time>2022-04-03T12:28:43Z</time>
      </trkpt>
      <trkpt lat="47.21466" lon="-1.54863">
        <ele>59</ele>
        <time>2022-04-03T12:28:45Z</time>
      </trkpt>
      <trkpt lat="47.21457" lon="-1.54879">
        <ele>59</ele>
        <time>2022-04-03T12:28:47Z</time>
      </trkpt>
      <trkpt lat="47.21449" lon="-1.54895">
        <ele>59</ele>
        <time>2022-04-03T12:28:49Z</time>
      </trkpt>
      <trkpt lat="47.21441" lon="-1.54911">
        <ele>59</ele>
        <time>2022-04-03T12:28:51Z</time>
      </trkpt>
      <trkpt lat="47.21433" lon="-1.54927">
        <ele>59</ele>
        <time>2022-04-03T12:28:53Z</time>
      </trkpt>
      <trkpt lat="47.21425" lon="-1.54943">
        <ele>59</ele>
        <time>2022-04-03T12:28:55Z</time>
      </trkpt>
      <trkpt lat="47.21418" lon="-1.5496">
        <ele>59</ele>
        <time>2022-04-03T12:28:57Z</time>
      </trkpt>
      <trkpt lat="47.21411" lon="-1.54977">
        <ele>59</ele>
        <time>2022-04-03T12:28:59Z</time>
      </trkpt>
      <trkpt lat="47.21404" lon="-1.54994">
        <ele>59</ele>
        <time>2022-04-03T12:29:01Z</time>
      </trkpt>
      <trkpt lat="47.21396" lon="-1.5501">
        <ele>59</ele>
        <time>2022-04-03T12:29:03Z</time>
      </trkpt>
      <trkpt lat="47.21389" lon="-1.55028">
        <ele>58</ele>
        <time>2022-04-03T12:29:05Z</time>
      </trkpt>
      <trkpt lat="47.21382" lon="-1.55045">
        <ele>58</ele>
        <time>2022-04-03T12:29:07Z</time>
      </trkpt>
      <trkpt lat="47.21375" lon="-1.55062">
        <ele>59</ele>
        <time>2022-04-03T12:29:09Z</time>
      </trkpt>
      <trkpt lat="47.21369" lon="-1.55079">
        <ele>59</ele>
        <time>2022-04-03T12:29:11Z</time>
      </trkpt>
      <trkpt lat="47.21363" lon="-1.55096">
        <ele>59</ele>
        <time>2022-04-03T12:29:13Z</time>
      </trkpt>
      <trkpt lat="47.21356" lon="-1.55113">
        <ele>59</ele>
        <time>2022-04-03T12:29:15Z</time>
      </trkpt>
      <trkpt lat="47.21349" lon="-1.5513">
        <ele>59</ele>
        <time>2022-04-03T12:29:17Z</time>
      </trkpt>
      <trkpt lat="47.21342" lon="-1.55145">
        <ele>59</ele>
        <time>2022-04-03T12:29:19Z</time>
      </trkpt>
      <trkpt lat="47.21336" lon="-1.55161">
        <ele>60</ele>
        <time>2022-04-03T12:29:21Z</time>
      </trkpt>
      <trkpt lat="47.21329" lon="-1.55178">
        <ele>59</ele>
        <time>2022-04-03T12:29:23Z</time>
      </trkpt>
      <trkpt lat="47.21322" lon="-1.55194">
        <ele>59</ele>
        <time>2022-04-03T12:29:25Z</time>
      </trkpt>
      <trkpt lat="47.21316" lon="-1.5521">
        <ele>58</ele>
        <time>2022-04-03T12:29:27Z</time>
      </trkpt>
      <trkpt lat="47.21309" lon="-1.55226">
        <ele>58</ele>
        <time>2022-04-03T12:29:29Z</time>
      </trkpt>
      <trkpt lat="47.21303" lon="-1.55243">
        <ele>58</ele>
        <time>2022-04-03T12:29:31Z</time>
      </trkpt>
      <trkpt lat="47.21296" lon="-1.55259">
        <ele>58</ele>
        <time>2022-04-03T12:29:33Z</time>
      </trkpt>
      <trkpt lat="47.21289" lon="-1.55275">
        <ele>58</ele>
        <time>2022-04-03T12:29:35Z</time>
      </trkpt>
      <trkpt lat="47.21283" lon="-1.55289">
        <ele>59</ele>
        <time>2022-04-03T12:29:37Z</time>
      </trkpt>
      <trkpt lat="47.21274" lon="-1.55295">
        <ele>59</ele>
        <time>2022-04-03T12:29:39Z</time>
      </trkpt>
      <trkpt lat="47.21263" lon="-1.55297">
        <ele>58</ele>
        <time>2022-04-03T12:29:41Z</time>
      </trkpt>
      <trkpt lat="47.21256" lon="-1.55308">
        <ele>58</ele>
        <time>2022-04-03T12:29:43Z</time>
      </trkpt>
      <trkpt lat="47.21257" lon="-1.55323">
        <ele>58</ele>
        <time>2022-04-03T12:29:45Z</time>
      </trkpt>
      <trkpt lat="47.21264" lon="-1.55338">
        <ele>59</ele>
        <time>2022-04-03T12:29:48Z</time>
      </trkpt>
      <trkpt lat="47.21271" lon="-1.55347">
        <ele>59</ele>
        <time>2022-04-03T12:29:52Z</time>
      </trkpt>
      <trkpt lat="47.21277" lon="-1.55359">
        <ele>59</ele>
        <time>2022-04-03T12:30:01Z</time>
      </trkpt>
      <trkpt lat="47.21279" lon="-1.55376">
        <ele>58</ele>
        <time>2022-04-03T12:30:03Z</time>
      </trkpt>
      <trkpt lat="47.21272" lon="-1.55395">
        <ele>58</ele>
        <time>2022-04-03T12:30:05Z</time>
      </trkpt>
      <trkpt lat="47.21263" lon="-1.55412">
        <ele>58</ele>
        <time>2022-04-03T12:30:07Z</time>
      </trkpt>
      <trkpt lat="47.21254" lon="-1.55428">
        <ele>58</ele>
        <time>2022-04-03T12:30:09Z</time>
      </trkpt>
      <trkpt lat="47.21243" lon="-1.55444">
        <ele>58</ele>
        <time>2022-04-03T12:30:11Z</time>
      </trkpt>
      <trkpt lat="47.21233" lon="-1.5546">
        <ele>58</ele>
        <time>2022-04-03T12:30:13Z</time>
      </trkpt>
      <trkpt lat="47.21224" lon="-1.55477">
        <ele>58</ele>
        <time>2022-04-03T12:30:15Z</time>
      </trkpt>
      <trkpt lat="47.21217" lon="-1.55496">
        <ele>58</ele>
        <time>2022-04-03T12:30:17Z</time>
      </trkpt>
      <trkpt lat="47.21211" lon="-1.55516">
        <ele>58</ele>
        <time>2022-04-03T12:30:19Z</time>
      </trkpt>
      <trkpt lat="47.21206" lon="-1.55535">
        <ele>58</ele>
        <time>2022-04-03T12:30:21Z</time>
      </trkpt>
      <trkpt lat="47.21199" lon="-1.55554">
        <ele>58</ele>
        <time>2022-04-03T12:30:23Z</time>
      </trkpt>
      <trkpt lat="47.21193" lon="-1.55573">
        <ele>57</ele>
        <time>2022-04-03T12:30:25Z</time>
      </trkpt>
      <trkpt lat="47.21187" lon="-1.55591">
        <ele>57</ele>
        <time>2022-04-03T12:30:27Z</time>
      </trkpt>
      <trkpt lat="47.2118" lon="-1.55608">
        <ele>57</ele>
        <time>2022-04-03T12:30:29Z</time>
      </trkpt>
      <trkpt lat="47.21175" lon="-1.55626">
        <ele>57</ele>
        <time>2022-04-03T12:30:31Z</time>
      </trkpt>
      <trkpt lat="47.2117" lon="-1.55644">
        <ele>56</ele>
        <time>2022-04-03T12:30:33Z</time>
      </trkpt>
      <trkpt lat="47.21166" lon="-1.55663">
        <ele>56</ele>
        <time>2022-04-03T12:30:35Z</time>
      </trkpt>
      <trkpt lat="47.21157" lon="-1.55675">
        <ele>56</ele>
        <time>2022-04-03T12:30:37Z</time>
      </trkpt>
      <trkpt lat="47.21142" lon="-1.55667">
        <ele>56</ele>
        <time>2022-04-03T12:30:39Z</time>
      </trkpt>
      <trkpt lat="47.21129" lon="-1.55653">
        <ele>56</ele>
        <time>2022-04-03T12:30:41Z</time>
      </trkpt>
      <trkpt lat="47.21117" lon="-1.55638">
        <ele>56</ele>
        <time>2022-04-03T12:30:43Z</time>
      </trkpt>
      <trkpt lat="47.21103" lon="-1.55627">
        <ele>56</ele>
        <time>2022-04-03T12:30:45Z</time>
      </trkpt>
      <trkpt lat="47.21087" lon="-1.55618">
        <ele>56</ele>
        <time>2022-04-03T12:30:47Z</time>
      </trkpt>
      <trkpt lat="47.21073" lon="-1.55607">
        <ele>56</ele>
        <time>2022-04-03T12:30:49Z</time>
      </trkpt>
      <trkpt lat="47.21058" lon="-1.55596">
        <ele>56</ele>
        <time>2022-04-03T12:30:51Z</time>
      </trkpt>
      <trkpt lat="47.21042" lon="-1.55586">
        <ele>58</ele>
        <time>2022-04-03T12:30:53Z</time>
      </trkpt>
      <trkpt lat="47.21026" lon="-1.55582">
        <ele>58</ele>
        <time>2022-04-03T12:30:55Z</time>
      </trkpt>
      <trkpt lat="47.21011" lon="-1.55579">
        <ele>58</ele>
        <time>2022-04-03T12:30:57Z</time>
      </trkpt>
      <trkpt lat="47.20996" lon="-1.55577">
        <ele>58</ele>
        <time>2022-04-03T12:30:59Z</time>
      </trkpt>
      <trkpt lat="47.20982" lon="-1.55575">
        <ele>58</ele>
        <time>2022-04-03T12:31:01Z</time>
      </trkpt>
      <trkpt lat="47.2097" lon="-1.55572">
        <ele>57</ele>
        <time>2022-04-03T12:31:03Z</time>
      </trkpt>
      <trkpt lat="47.20958" lon="-1.5557">
        <ele>58</ele>
        <time>2022-04-03T12:31:06Z</time>
      </trkpt>
      <trkpt lat="47.20949" lon="-1.55568">
        <ele>58</ele>
        <time>2022-04-03T12:31:12Z</time>
      </trkpt>
      <trkpt lat="47.20937" lon="-1.55568">
        <ele>57</ele>
        <time>2022-04-03T12:31:31Z</time>
      </trkpt>
      <trkpt lat="47.20925" lon="-1.55563">
        <ele>56</ele>
        <time>2022-04-03T12:31:33Z</time>
      </trkpt>
      <trkpt lat="47.20913" lon="-1.55559">
        <ele>57</ele>
        <time>2022-04-03T12:31:35Z</time>
      </trkpt>
      <trkpt lat="47.20901" lon="-1.55556">
        <ele>57</ele>
        <time>2022-04-03T12:31:37Z</time>
      </trkpt>
      <trkpt lat="47.20888" lon="-1.55552">
        <ele>58</ele>
        <time>2022-04-03T12:31:39Z</time>
      </trkpt>
      <trkpt lat="47.20877" lon="-1.55549">
        <ele>59</ele>
        <time>2022-04-03T12:31:41Z</time>
      </trkpt>
      <trkpt lat="47.20865" lon="-1.55546">
        <ele>59</ele>
        <time>2022-04-03T12:31:43Z</time>
      </trkpt>
      <trkpt lat="47.20853" lon="-1.55543">
        <ele>60</ele>
        <time>2022-04-03T12:31:45Z</time>
      </trkpt>
      <trkpt lat="47.20842" lon="-1.5554">
        <ele>60</ele>
        <time>2022-04-03T12:31:47Z</time>
      </trkpt>
      <trkpt lat="47.2083" lon="-1.55538">
        <ele>60</ele>
        <time>2022-04-03T12:31:49Z</time>
      </trkpt>
      <trkpt lat="47.20818" lon="-1.55535">
        <ele>60</ele>
        <time>2022-04-03T12:31:51Z</time>
      </trkpt>
      <trkpt lat="47.20806" lon="-1.55532">
        <ele>60</ele>
        <time>2022-04-03T12:31:53Z</time>
      </trkpt>
      <trkpt lat="47.20794" lon="-1.55529">
        <ele>60</ele>
        <time>2022-04-03T12:31:55Z</time>
      </trkpt>
      <trkpt lat="47.2078" lon="-1.55526">
        <ele>59</ele>
        <time>2022-04-03T12:31:57Z</time>
      </trkpt>
      <trkpt lat="47.20766" lon="-1.55524">
        <ele>58</ele>
        <time>2022-04-03T12:31:59Z</time>
      </trkpt>
      <trkpt lat="47.20752" lon="-1.5552">
        <ele>57</ele>
        <time>2022-04-03T12:32:01Z</time>
      </trkpt>
      <trkpt lat="47.20737" lon="-1.55516">
        <ele>56</ele>
        <time>2022-04-03T12:32:03Z</time>
      </trkpt>
      <trkpt lat="47.20722" lon="-1.5551">
        <ele>56</ele>
        <time>2022-04-03T12:32:05Z</time>
      </trkpt>
      <trkpt lat="47.20708" lon="-1.55507">
        <ele>56</ele>
        <time>2022-04-03T12:32:07Z</time>
      </trkpt>
      <trkpt lat="47.20695" lon="-1.55504">
        <ele>56</ele>
        <time>2022-04-03T12:32:09Z</time>
      </trkpt>
      <trkpt lat="47.20685" lon="-1.55502">
        <ele>56</ele>
        <time>2022-04-03T12:32:11Z</time>
      </trkpt>
      <trkpt lat="47.20674" lon="-1.555">
        <ele>57</ele>
        <time>2022-04-03T12:32:15Z</time>
      </trkpt>
      <trkpt lat="47.20664" lon="-1.55498">
        <ele>58</ele>
        <time>2022-04-03T12:32:21Z</time>
      </trkpt>
      <trkpt lat="47.20652" lon="-1.55495">
        <ele>59</ele>
        <time>2022-04-03T12:32:37Z</time>
      </trkpt>
      <trkpt lat="47.20641" lon="-1.55492">
        <ele>60</ele>
        <time>2022-04-03T12:32:39Z</time>
      </trkpt>
      <trkpt lat="47.2063" lon="-1.55489">
        <ele>61</ele>
        <time>2022-04-03T12:32:41Z</time>
      </trkpt>
      <trkpt lat="47.20617" lon="-1.55487">
        <ele>61</ele>
        <time>2022-04-03T12:32:43Z</time>
      </trkpt>
      <trkpt lat="47.20604" lon="-1.55487">
        <ele>61</ele>
        <time>2022-04-03T12:32:45Z</time>
      </trkpt>
      <trkpt lat="47.20591" lon="-1.55485">
        <ele>62</ele>
        <time>2022-04-03T12:32:47Z</time>
      </trkpt>
      <trkpt lat="47.20576" lon="-1.5548">
        <ele>62</ele>
        <time>2022-04-03T12:32:49Z</time>
      </trkpt>
      <trkpt lat="47.20565" lon="-1.5548">
        <ele>62</ele>
        <time>2022-04-03T12:32:51Z</time>
      </trkpt>
      <trkpt lat="47.20555" lon="-1.55485">
        <ele>63</ele>
        <time>2022-04-03T12:32:55Z</time>
      </trkpt>
      <trkpt lat="47.20546" lon="-1.55496">
        <ele>63</ele>
        <time>2022-04-03T12:32:58Z</time>
      </trkpt>
      <trkpt lat="47.20534" lon="-1.55503">
        <ele>63</ele>
        <time>2022-04-03T12:33:00Z</time>
      </trkpt>
      <trkpt lat="47.2052" lon="-1.555">
        <ele>62</ele>
        <time>2022-04-03T12:33:02Z</time>
      </trkpt>
      <trkpt lat="47.20508" lon="-1.55488">
        <ele>61</ele>
        <time>2022-04-03T12:33:04Z</time>
      </trkpt>
      <trkpt lat="47.20501" lon="-1.5547">
        <ele>60</ele>
        <time>2022-04-03T12:33:06Z</time>
      </trkpt>
      <trkpt lat="47.20502" lon="-1.5545">
        <ele>60</ele>
        <time>2022-04-03T12:33:08Z</time>
      </trkpt>
      <trkpt lat="47.20505" lon="-1.5543">
        <ele>59</ele>
        <time>2022-04-03T12:33:10Z</time>
      </trkpt>
      <trkpt lat="47.20504" lon="-1.55413">
        <ele>59</ele>
        <time>2022-04-03T12:33:12Z</time>
      </trkpt>
      <trkpt lat="47.20497" lon="-1.554">
        <ele>59</ele>
        <time>2022-04-03T12:33:14Z</time>
      </trkpt>
      <trkpt lat="47.2049" lon="-1.55388">
        <ele>59</ele>
        <time>2022-04-03T12:33:16Z</time>
      </trkpt>
      <trkpt lat="47.20483" lon="-1.55373">
        <ele>60</ele>
        <time>2022-04-03T12:33:19Z</time>
      </trkpt>
      <trkpt lat="47.20478" lon="-1.55361">
        <ele>60</ele>
        <time>2022-04-03T12:33:22Z</time>
      </trkpt>
      <trkpt lat="47.2047" lon="-1.55353">
        <ele>59</ele>
        <time>2022-04-03T12:33:41Z</time>
      </trkpt>
      <trkpt lat="47.20464" lon="-1.55338">
        <ele>59</ele>
        <time>2022-04-03T12:33:44Z</time>
      </trkpt>
      <trkpt lat="47.20456" lon="-1.55324">
        <ele>59</ele>
        <time>2022-04-03T12:33:46Z</time>
      </trkpt>
      <trkpt lat="47.2045" lon="-1.55309">
        <ele>60</ele>
        <time>2022-04-03T12:33:48Z</time>
      </trkpt>
      <trkpt lat="47.20442" lon="-1.55294">
        <ele>60</ele>
        <time>2022-04-03T12:33:50Z</time>
      </trkpt>
      <trkpt lat="47.20434" lon="-1.55279">
        <ele>60</ele>
        <time>2022-04-03T12:33:52Z</time>
      </trkpt>
      <trkpt lat="47.20426" lon="-1.55263">
        <ele>59</ele>
        <time>2022-04-03T12:33:54Z</time>
      </trkpt>
      <trkpt lat="47.20419" lon="-1.55245">
        <ele>60</ele>
        <time>2022-04-03T12:33:56Z</time>
      </trkpt>
      <trkpt lat="47.20411" lon="-1.5523">
        <ele>60</ele>
        <time>2022-04-03T12:33:58Z</time>
      </trkpt>
      <trkpt lat="47.20404" lon="-1.55215">
        <ele>60</ele>
        <time>2022-04-03T12:34:00Z</time>
      </trkpt>
      <trkpt lat="47.20397" lon="-1.55201">
        <ele>60</ele>
        <time>2022-04-03T12:34:02Z</time>
      </trkpt>
      <trkpt lat="47.2039" lon="-1.55188">
        <ele>60</ele>
        <time>2022-04-03T12:34:04Z</time>
      </trkpt>
      <trkpt lat="47.2038" lon="-1.55182">
        <ele>60</ele>
        <time>2022-04-03T12:34:06Z</time>
      </trkpt>
      <trkpt lat="47.20368" lon="-1.55193">
        <ele>61</ele>
        <time>2022-04-03T12:34:08Z</time>
      </trkpt>
      <trkpt lat="47.20358" lon="-1.55205">
        <ele>59</ele>
        <time>2022-04-03T12:34:10Z</time>
      </trkpt>
      <trkpt lat="47.20348" lon="-1.5522">
        <ele>59</ele>
        <time>2022-04-03T12:34:12Z</time>
      </trkpt>
      <trkpt lat="47.20337" lon="-1.55234">
        <ele>58</ele>
        <time>2022-04-03T12:34:14Z</time>
      </trkpt>
      <trkpt lat="47.20326" lon="-1.5525">
        <ele>59</ele>
        <time>2022-04-03T12:34:16Z</time>
      </trkpt>
      <trkpt lat="47.20315" lon="-1.55263">
        <ele>58</ele>
        <time>2022-04-03T12:34:18Z</time>
      </trkpt>
      <trkpt lat="47.20305" lon="-1.55276">
        <ele>58</ele>
        <time>2022-04-03T12:34:20Z</time>
      </trkpt>
      <trkpt lat="47.20296" lon="-1.55288">
        <ele>59</ele>
        <time>2022-04-03T12:34:22Z</time>
      </trkpt>
      <trkpt lat="47.20286" lon="-1.55301">
        <ele>59</ele>
        <time>2022-04-03T12:34:24Z</time>
      </trkpt>
      <trkpt lat="47.20277" lon="-1.55314">
        <ele>58</ele>
        <time>2022-04-03T12:34:26Z</time>
      </trkpt>
      <trkpt lat="47.20267" lon="-1.55326">
        <ele>58</ele>
        <time>2022-04-03T12:34:28Z</time>
      </trkpt>
      <trkpt lat="47.20257" lon="-1.5534">
        <ele>58</ele>
        <time>2022-04-03T12:34:30Z</time>
      </trkpt>
      <trkpt lat="47.20247" lon="-1.55353">
        <ele>58</ele>
        <time>2022-04-03T12:34:32Z</time>
      </trkpt>
      <trkpt lat="47.20237" lon="-1.55365">
        <ele>58</ele>
        <time>2022-04-03T12:34:34Z</time>
      </trkpt>
      <trkpt lat="47.20227" lon="-1.55379">
        <ele>57</ele>
        <time>2022-04-03T12:34:36Z</time>
      </trkpt>
      <trkpt lat="47.20218" lon="-1.55391">
        <ele>58</ele>
        <time>2022-04-03T12:34:38Z</time>
      </trkpt>
      <trkpt lat="47.20208" lon="-1.55403">
        <ele>58</ele>
        <time>2022-04-03T12:34:40Z</time>
      </trkpt>
      <trkpt lat="47.202" lon="-1.55414">
        <ele>59</ele>
        <time>2022-04-03T12:34:42Z</time>
      </trkpt>
      <trkpt lat="47.20197" lon="-1.55426">
        <ele>59</ele>
        <time>2022-04-03T12:34:44Z</time>
      </trkpt>
      <trkpt lat="47.20192" lon="-1.55441">
        <ele>59</ele>
        <time>2022-04-03T12:34:46Z</time>
      </trkpt>
      <trkpt lat="47.20184" lon="-1.55457">
        <ele>58</ele>
        <time>2022-04-03T12:34:48Z</time>
      </trkpt>
      <trkpt lat="47.20179" lon="-1.55478">
        <ele>58</ele>
        <time>2022-04-03T12:34:50Z</time>
      </trkpt>
      <trkpt lat="47.20177" lon="-1.55498">
        <ele>58</ele>
        <time>2022-04-03T12:34:52Z</time>
      </trkpt>
      <trkpt lat="47.2018" lon="-1.55517">
        <ele>58</ele>
        <time>2022-04-03T12:34:54Z</time>
      </trkpt>
      <trkpt lat="47.20189" lon="-1.5553">
        <ele>57</ele>
        <time>2022-04-03T12:34:56Z</time>
      </trkpt>
      <trkpt lat="47.20201" lon="-1.55537">
        <ele>57</ele>
        <time>2022-04-03T12:34:58Z</time>
      </trkpt>
      <trkpt lat="47.20213" lon="-1.55543">
        <ele>57</ele>
        <time>2022-04-03T12:35:00Z</time>
      </trkpt>
      <trkpt lat="47.20226" lon="-1.55548">
        <ele>57</ele>
        <time>2022-04-03T12:35:02Z</time>
      </trkpt>
      <trkpt lat="47.20238" lon="-1.55554">
        <ele>57</ele>
        <time>2022-04-03T12:35:04Z</time>
      </trkpt>
      <trkpt lat="47.2025" lon="-1.55559">
        <ele>57</ele>
        <time>2022-04-03T12:35:06Z</time>
      </trkpt>
      <trkpt lat="47.20261" lon="-1.55563">
        <ele>57</ele>
        <time>2022-04-03T12:35:08Z</time>
      </trkpt>
      <trkpt lat="47.20273" lon="-1.55565">
        <ele>57</ele>
        <time>2022-04-03T12:35:10Z</time>
      </trkpt>
      <trkpt lat="47.20284" lon="-1.55569">
        <ele>58</ele>
        <time>2022-04-03T12:35:12Z</time>
      </trkpt>
      <trkpt lat="47.20294" lon="-1.55576">
        <ele>58</ele>
        <time>2022-04-03T12:35:14Z</time>
      </trkpt>
      <trkpt lat="47.20299" lon="-1.55593">
        <ele>58</ele>
        <time>2022-04-03T12:35:16Z</time>
      </trkpt>
      <trkpt lat="47.20297" lon="-1.55612">
        <ele>58</ele>
        <time>2022-04-03T12:35:18Z</time>
      </trkpt>
      <trkpt lat="47.20295" lon="-1.55633">
        <ele>58</ele>
        <time>2022-04-03T12:35:20Z</time>
      </trkpt>
      <trkpt lat="47.20293" lon="-1.55652">
        <ele>58</ele>
        <time>2022-04-03T12:35:22Z</time>
      </trkpt>
      <trkpt lat="47.2029" lon="-1.55671">
        <ele>57</ele>
        <time>2022-04-03T12:35:24Z</time>
      </trkpt>
      <trkpt lat="47.20288" lon="-1.55691">
        <ele>57</ele>
        <time>2022-04-03T12:35:26Z</time>
      </trkpt>
      <trkpt lat="47.20286" lon="-1.55711">
        <ele>57</ele>
        <time>2022-04-03T12:35:28Z</time>
      </trkpt>
      <trkpt lat="47.20284" lon="-1.55731">
        <ele>57</ele>
        <time>2022-04-03T12:35:30Z</time>
      </trkpt>
      <trkpt lat="47.20282" lon="-1.5575">
        <ele>57</ele>
        <time>2022-04-03T12:35:32Z</time>
      </trkpt>
      <trkpt lat="47.2028" lon="-1.5577">
        <ele>57</ele>
        <time>2022-04-03T12:35:34Z</time>
      </trkpt>
      <trkpt lat="47.20278" lon="-1.5579">
        <ele>57</ele>
        <time>2022-04-03T12:35:36Z</time>
      </trkpt>
      <trkpt lat="47.20276" lon="-1.55809">
        <ele>57</ele>
        <time>2022-04-03T12:35:38Z</time>
      </trkpt>
      <trkpt lat="47.20273" lon="-1.55829">
        <ele>57</ele>
        <time>2022-04-03T12:35:40Z</time>
      </trkpt>
      <trkpt lat="47.20272" lon="-1.55848">
        <ele>57</ele>
        <time>2022-04-03T12:35:42Z</time>
      </trkpt>
      <trkpt lat="47.2027" lon="-1.55867">
        <ele>57</ele>
        <time>2022-04-03T12:35:44Z</time>
      </trkpt>
      <trkpt lat="47.20268" lon="-1.55887">
        <ele>57</ele>
        <time>2022-04-03T12:35:46Z</time>
      </trkpt>
      <trkpt lat="47.20266" lon="-1.55905">
        <ele>57</ele>
        <time>2022-04-03T12:35:48Z</time>
      </trkpt>
      <trkpt lat="47.20264" lon="-1.55925">
        <ele>57</ele>
        <time>2022-04-03T12:35:50Z</time>
      </trkpt>
      <trkpt lat="47.20262" lon="-1.55944">
        <ele>57</ele>
        <time>2022-04-03T12:35:52Z</time>
      </trkpt>
      <trkpt lat="47.20259" lon="-1.55963">
        <ele>57</ele>
        <time>2022-04-03T12:35:54Z</time>
      </trkpt>
      <trkpt lat="47.20258" lon="-1.55982">
        <ele>57</ele>
        <time>2022-04-03T12:35:56Z</time>
      </trkpt>
      <trkpt lat="47.20256" lon="-1.56001">
        <ele>57</ele>
        <time>2022-04-03T12:35:58Z</time>
      </trkpt>
      <trkpt lat="47.20254" lon="-1.5602">
        <ele>57</ele>
        <time>2022-04-03T12:36:00Z</time>
      </trkpt>
      <trkpt lat="47.20252" lon="-1.56039">
        <ele>57</ele>
        <time>2022-04-03T12:36:02Z</time>
      </trkpt>
      <trkpt lat="47.20249" lon="-1.56059">
        <ele>57</ele>
        <time>2022-04-03T12:36:04Z</time>
      </trkpt>
      <trkpt lat="47.20247" lon="-1.56078">
        <ele>57</ele>
        <time>2022-04-03T12:36:06Z</time>
      </trkpt>
      <trkpt lat="47.20245" lon="-1.56097">
        <ele>57</ele>
        <time>2022-04-03T12:36:08Z</time>
      </trkpt>
      <trkpt lat="47.20243" lon="-1.56116">
        <ele>57</ele>
        <time>2022-04-03T12:36:10Z</time>
      </trkpt>
      <trkpt lat="47.20239" lon="-1.56134">
        <ele>57</ele>
        <time>2022-04-03T12:36:12Z</time>
      </trkpt>
      <trkpt lat="47.2023" lon="-1.56149">
        <ele>57</ele>
        <time>2022-04-03T12:36:14Z</time>
      </trkpt>
      <trkpt lat="47.2022" lon="-1.56161">
        <ele>57</ele>
        <time>2022-04-03T12:36:16Z</time>
      </trkpt>
      <trkpt lat="47.20207" lon="-1.56171">
        <ele>57</ele>
        <time>2022-04-03T12:36:18Z</time>
      </trkpt>
      <trkpt lat="47.20195" lon="-1.56177">
        <ele>57</ele>
        <time>2022-04-03T12:36:20Z</time>
      </trkpt>
      <trkpt lat="47.20185" lon="-1.56188">
        <ele>56</ele>
        <time>2022-04-03T12:36:22Z</time>
      </trkpt>
      <trkpt lat="47.20173" lon="-1.56196">
        <ele>56</ele>
        <time>2022-04-03T12:36:24Z</time>
      </trkpt>
      <trkpt lat="47.2016" lon="-1.56191">
        <ele>56</ele>
        <time>2022-04-03T12:36:26Z</time>
      </trkpt>
      <trkpt lat="47.20149" lon="-1.56182">
        <ele>56</ele>
        <time>2022-04-03T12:36:28Z</time>
      </trkpt>
      <trkpt lat="47.20136" lon="-1.56181">
        <ele>56</ele>
        <time>2022-04-03T12:36:30Z</time>
      </trkpt>
      <trkpt lat="47.20123" lon="-1.56181">
        <ele>57</ele>
        <time>2022-04-03T12:36:32Z</time>
      </trkpt>
      <trkpt lat="47.2011" lon="-1.56181">
        <ele>57</ele>
        <time>2022-04-03T12:36:34Z</time>
      </trkpt>
      <trkpt lat="47.20097" lon="-1.56181">
        <ele>57</ele>
        <time>2022-04-03T12:36:36Z</time>
      </trkpt>
      <trkpt lat="47.20083" lon="-1.56181">
        <ele>57</ele>
        <time>2022-04-03T12:36:38Z</time>
      </trkpt>
      <trkpt lat="47.2007" lon="-1.56182">
        <ele>57</ele>
        <time>2022-04-03T12:36:40Z</time>
      </trkpt>
      <trkpt lat="47.20057" lon="-1.56182">
        <ele>56</ele>
        <time>2022-04-03T12:36:42Z</time>
      </trkpt>
      <trkpt lat="47.20043" lon="-1.56182">
        <ele>56</ele>
        <time>2022-04-03T12:36:44Z</time>
      </trkpt>
      <trkpt lat="47.2003" lon="-1.56183">
        <ele>56</ele>
        <time>2022-04-03T12:36:46Z</time>
      </trkpt>
      <trkpt lat="47.20018" lon="-1.56184">
        <ele>56</ele>
        <time>2022-04-03T12:36:48Z</time>
      </trkpt>
      <trkpt lat="47.20006" lon="-1.56187">
        <ele>56</ele>
        <time>2022-04-03T12:36:50Z</time>
      </trkpt>
      <trkpt lat="47.19996" lon="-1.56191">
        <ele>56</ele>
        <time>2022-04-03T12:36:52Z</time>
      </trkpt>
      <trkpt lat="47.19984" lon="-1.56193">
        <ele>56</ele>
        <time>2022-04-03T12:36:54Z</time>
      </trkpt>
      <trkpt lat="47.19975" lon="-1.56182">
        <ele>56</ele>
        <time>2022-04-03T12:36:56Z</time>
      </trkpt>
      <trkpt lat="47.1997" lon="-1.56168">
        <ele>56</ele>
        <time>2022-04-03T12:36:58Z</time>
      </trkpt>
      <trkpt lat="47.19958" lon="-1.56166">
        <ele>56</ele>
        <time>2022-04-03T12:37:00Z</time>
      </trkpt>
      <trkpt lat="47.19946" lon="-1.56171">
        <ele>57</ele>
        <time>2022-04-03T12:37:02Z</time>
      </trkpt>
      <trkpt lat="47.19933" lon="-1.56173">
        <ele>59</ele>
        <time>2022-04-03T12:37:04Z</time>
      </trkpt>
      <trkpt lat="47.19922" lon="-1.56175">
        <ele>59</ele>
        <time>2022-04-03T12:37:06Z</time>
      </trkpt>
      <trkpt lat="47.19909" lon="-1.56177">
        <ele>60</ele>
        <time>2022-04-03T12:37:08Z</time>
      </trkpt>
      <trkpt lat="47.19896" lon="-1.5618">
        <ele>60</ele>
        <time>2022-04-03T12:37:10Z</time>
      </trkpt>
      <trkpt lat="47.19883" lon="-1.56182">
        <ele>61</ele>
        <time>2022-04-03T12:37:12Z</time>
      </trkpt>
      <trkpt lat="47.1987" lon="-1.56184">
        <ele>61</ele>
        <time>2022-04-03T12:37:14Z</time>
      </trkpt>
      <trkpt lat="47.19857" lon="-1.56186">
        <ele>61</ele>
        <time>2022-04-03T12:37:16Z</time>
      </trkpt>
      <trkpt lat="47.19845" lon="-1.56188">
        <ele>62</ele>
        <time>2022-04-03T12:37:18Z</time>
      </trkpt>
      <trkpt lat="47.19833" lon="-1.5619">
        <ele>62</ele>
        <time>2022-04-03T12:37:20Z</time>
      </trkpt>
      <trkpt lat="47.19821" lon="-1.56193">
        <ele>62</ele>
        <time>2022-04-03T12:37:22Z</time>
      </trkpt>
      <trkpt lat="47.19809" lon="-1.56194">
        <ele>62</ele>
        <time>2022-04-03T12:37:24Z</time>
      </trkpt>
      <trkpt lat="47.19797" lon="-1.56197">
        <ele>62</ele>
        <time>2022-04-03T12:37:26Z</time>
      </trkpt>
      <trkpt lat="47.19784" lon="-1.56199">
        <ele>62</ele>
        <time>2022-04-03T12:37:28Z</time>
      </trkpt>
      <trkpt lat="47.19771" lon="-1.56202">
        <ele>61</ele>
        <time>2022-04-03T12:37:30Z</time>
      </trkpt>
      <trkpt lat="47.19757" lon="-1.56204">
        <ele>61</ele>
        <time>2022-04-03T12:37:32Z</time>
      </trkpt>
      <trkpt lat="47.19743" lon="-1.56208">
        <ele>61</ele>
        <time>2022-04-03T12:37:34Z</time>
      </trkpt>
      <trkpt lat="47.19728" lon="-1.5621">
        <ele>60</ele>
        <time>2022-04-03T12:37:36Z</time>
      </trkpt>
      <trkpt lat="47.19711" lon="-1.56214">
        <ele>59</ele>
        <time>2022-04-03T12:37:38Z</time>
      </trkpt>
      <trkpt lat="47.19694" lon="-1.56216">
        <ele>58</ele>
        <time>2022-04-03T12:37:40Z</time>
      </trkpt>
      <trkpt lat="47.19676" lon="-1.5622">
        <ele>57</ele>
        <time>2022-04-03T12:37:42Z</time>
      </trkpt>
      <trkpt lat="47.19659" lon="-1.56227">
        <ele>56</ele>
        <time>2022-04-03T12:37:44Z</time>
      </trkpt>
      <trkpt lat="47.19644" lon="-1.56232">
        <ele>56</ele>
        <time>2022-04-03T12:37:46Z</time>
      </trkpt>
      <trkpt lat="47.19636" lon="-1.5625">
        <ele>56</ele>
        <time>2022-04-03T12:37:48Z</time>
      </trkpt>
      <trkpt lat="47.19635" lon="-1.56272">
        <ele>55</ele>
        <time>2022-04-03T12:37:50Z</time>
      </trkpt>
      <trkpt lat="47.19633" lon="-1.56294">
        <ele>55</ele>
        <time>2022-04-03T12:37:52Z</time>
      </trkpt>
      <trkpt lat="47.19631" lon="-1.56317">
        <ele>55</ele>
        <time>2022-04-03T12:37:54Z</time>
      </trkpt>
      <trkpt lat="47.1963" lon="-1.56339">
        <ele>55</ele>
        <time>2022-04-03T12:37:56Z</time>
      </trkpt>
      <trkpt lat="47.1963" lon="-1.56361">
        <ele>54</ele>
        <time>2022-04-03T12:37:58Z</time>
      </trkpt>
      <trkpt lat="47.19631" lon="-1.56383">
        <ele>54</ele>
        <time>2022-04-03T12:38:00Z</time>
      </trkpt>
      <trkpt lat="47.19631" lon="-1.56404">
        <ele>54</ele>
        <time>2022-04-03T12:38:02Z</time>
      </trkpt>
      <trkpt lat="47.19632" lon="-1.56425">
        <ele>54</ele>
        <time>2022-04-03T12:38:04Z</time>
      </trkpt>
      <trkpt lat="47.19633" lon="-1.56447">
        <ele>54</ele>
        <time>2022-04-03T12:38:06Z</time>
      </trkpt>
      <trkpt lat="47.19633" lon="-1.56468">
        <ele>54</ele>
        <time>2022-04-03T12:38:08Z</time>
      </trkpt>
      <trkpt lat="47.19634" lon="-1.56489">
        <ele>54</ele>
        <time>2022-04-03T12:38:10Z</time>
      </trkpt>
      <trkpt lat="47.19634" lon="-1.5651">
        <ele>54</ele>
        <time>2022-04-03T12:38:12Z</time>
      </trkpt>
      <trkpt lat="47.19633" lon="-1.56531">
        <ele>54</ele>
        <time>2022-04-03T12:38:14Z</time>
      </trkpt>
      <trkpt lat="47.19633" lon="-1.56552">
        <ele>54</ele>
        <time>2022-04-03T12:38:16Z</time>
      </trkpt>
      <trkpt lat="47.19633" lon="-1.56572">
        <ele>55</ele>
        <time>2022-04-03T12:38:18Z</time>
      </trkpt>
      <trkpt lat="47.19632" lon="-1.56593">
        <ele>55</ele>
        <time>2022-04-03T12:38:20Z</time>
      </trkpt>
      <trkpt lat="47.1963" lon="-1.56613">
        <ele>55</ele>
        <time>2022-04-03T12:38:22Z</time>
      </trkpt>
      <trkpt lat="47.19629" lon="-1.56634">
        <ele>55</ele>
        <time>2022-04-03T12:38:24Z</time>
      </trkpt>
      <trkpt lat="47.19628" lon="-1.56654">
        <ele>55</ele>
        <time>2022-04-03T12:38:26Z</time>
      </trkpt>
      <trkpt lat="47.19628" lon="-1.56675">
        <ele>55</ele>
        <time>2022-04-03T12:38:28Z</time>
      </trkpt>
      <trkpt lat="47.19627" lon="-1.56695">
        <ele>56</ele>
        <time>2022-04-03T12:38:30Z</time>
      </trkpt>
      <trkpt lat="47.19626" lon="-1.56714">
        <ele>56</ele>
        <time>2022-04-03T12:38:32Z</time>
      </trkpt>
      <trkpt lat="47.19623" lon="-1.56734">
        <ele>56</ele>
        <time>2022-04-03T12:38:34Z</time>
      </trkpt>
      <trkpt lat="47.19622" lon="-1.56755">
        <ele>56</ele>
        <time>2022-04-03T12:38:36Z</time>
      </trkpt>
      <trkpt lat="47.19619" lon="-1.56775">
        <ele>56</ele>
        <time>2022-04-03T12:38:38Z</time>
      </trkpt>
      <trkpt lat="47.19618" lon="-1.56797">
        <ele>56</ele>
        <time>2022-04-03T12:38:40Z</time>
      </trkpt>
      <trkpt lat="47.19617" lon="-1.56818">
        <ele>55</ele>
        <time>2022-04-03T12:38:42Z</time>
      </trkpt>
      <trkpt lat="47.19617" lon="-1.5684">
        <ele>55</ele>
        <time>2022-04-03T12:38:44Z</time>
      </trkpt>
      <trkpt lat="47.19615" lon="-1.56861">
        <ele>55</ele>
        <time>2022-04-03T12:38:46Z</time>
      </trkpt>
      <trkpt lat="47.19614" lon="-1.56881">
        <ele>55</ele>
        <time>2022-04-03T12:38:48Z</time>
      </trkpt>
      <trkpt lat="47.19614" lon="-1.56902">
        <ele>55</ele>
        <time>2022-04-03T12:38:50Z</time>
      </trkpt>
      <trkpt lat="47.19613" lon="-1.56922">
        <ele>55</ele>
        <time>2022-04-03T12:38:52Z</time>
      </trkpt>
      <trkpt lat="47.19611" lon="-1.56942">
        <ele>55</ele>
        <time>2022-04-03T12:38:54Z</time>
      </trkpt>
      <trkpt lat="47.19609" lon="-1.56962">
        <ele>54</ele>
        <time>2022-04-03T12:38:56Z</time>
      </trkpt>
      <trkpt lat="47.19607" lon="-1.56983">
        <ele>54</ele>
        <time>2022-04-03T12:38:58Z</time>
      </trkpt>
      <trkpt lat="47.19606" lon="-1.57002">
        <ele>54</ele>
        <time>2022-04-03T12:39:00Z</time>
      </trkpt>
      <trkpt lat="47.19603" lon="-1.57023">
        <ele>54</ele>
        <time>2022-04-03T12:39:02Z</time>
      </trkpt>
      <trkpt lat="47.19603" lon="-1.57043">
        <ele>54</ele>
        <time>2022-04-03T12:39:04Z</time>
      </trkpt>
      <trkpt lat="47.19602" lon="-1.57062">
        <ele>54</ele>
        <time>2022-04-03T12:39:06Z</time>
      </trkpt>
      <trkpt lat="47.19601" lon="-1.5708">
        <ele>54</ele>
        <time>2022-04-03T12:39:08Z</time>
      </trkpt>
      <trkpt lat="47.196" lon="-1.57098">
        <ele>54</ele>
        <time>2022-04-03T12:39:10Z</time>
      </trkpt>
      <trkpt lat="47.19598" lon="-1.57115">
        <ele>54</ele>
        <time>2022-04-03T12:39:12Z</time>
      </trkpt>
      <trkpt lat="47.1959" lon="-1.57127">
        <ele>54</ele>
        <time>2022-04-03T12:39:14Z</time>
      </trkpt>
      <trkpt lat="47.19576" lon="-1.57124">
        <ele>53</ele>
        <time>2022-04-03T12:39:16Z</time>
      </trkpt>
      <trkpt lat="47.19563" lon="-1.57121">
        <ele>53</ele>
        <time>2022-04-03T12:39:18Z</time>
      </trkpt>
      <trkpt lat="47.19549" lon="-1.57119">
        <ele>54</ele>
        <time>2022-04-03T12:39:20Z</time>
      </trkpt>
      <trkpt lat="47.19535" lon="-1.57116">
        <ele>56</ele>
        <time>2022-04-03T12:39:22Z</time>
      </trkpt>
      <trkpt lat="47.19523" lon="-1.57114">
        <ele>57</ele>
        <time>2022-04-03T12:39:24Z</time>
      </trkpt>
      <trkpt lat="47.19511" lon="-1.57111">
        <ele>57</ele>
        <time>2022-04-03T12:39:26Z</time>
      </trkpt>
      <trkpt lat="47.19499" lon="-1.57108">
        <ele>57</ele>
        <time>2022-04-03T12:39:28Z</time>
      </trkpt>
      <trkpt lat="47.19487" lon="-1.57105">
        <ele>57</ele>
        <time>2022-04-03T12:39:30Z</time>
      </trkpt>
      <trkpt lat="47.19475" lon="-1.57105">
        <ele>57</ele>
        <time>2022-04-03T12:39:32Z</time>
      </trkpt>
      <trkpt lat="47.19463" lon="-1.57113">
        <ele>57</ele>
        <time>2022-04-03T12:39:34Z</time>
      </trkpt>
      <trkpt lat="47.19457" lon="-1.57131">
        <ele>56</ele>
        <time>2022-04-03T12:39:36Z</time>
      </trkpt>
      <trkpt lat="47.19455" lon="-1.57151">
        <ele>56</ele>
        <time>2022-04-03T12:39:38Z</time>
      </trkpt>
      <trkpt lat="47.19454" lon="-1.57172">
        <ele>56</ele>
        <time>2022-04-03T12:39:40Z</time>
      </trkpt>
      <trkpt lat="47.19451" lon="-1.57192">
        <ele>56</ele>
        <time>2022-04-03T12:39:42Z</time>
      </trkpt>
      <trkpt lat="47.19448" lon="-1.57212">
        <ele>56</ele>
        <time>2022-04-03T12:39:44Z</time>
      </trkpt>
      <trkpt lat="47.19446" lon="-1.57233">
        <ele>56</ele>
        <time>2022-04-03T12:39:46Z</time>
      </trkpt>
      <trkpt lat="47.19443" lon="-1.57252">
        <ele>56</ele>
        <time>2022-04-03T12:39:48Z</time>
      </trkpt>
      <trkpt lat="47.1944" lon="-1.57272">
        <ele>56</ele>
        <time>2022-04-03T12:39:50Z</time>
      </trkpt>
      <trkpt lat="47.19436" lon="-1.57291">
        <ele>56</ele>
        <time>2022-04-03T12:39:52Z</time>
      </trkpt>
      <trkpt lat="47.19433" lon="-1.57311">
        <ele>56</ele>
        <time>2022-04-03T12:39:54Z</time>
      </trkpt>
      <trkpt lat="47.1943" lon="-1.57331">
        <ele>56</ele>
        <time>2022-04-03T12:39:56Z</time>
      </trkpt>
      <trkpt lat="47.19427" lon="-1.57349">
        <ele>56</ele>
        <time>2022-04-03T12:39:58Z</time>
      </trkpt>
      <trkpt lat="47.1942" lon="-1.57365">
        <ele>57</ele>
        <time>2022-04-03T12:40:00Z</time>
      </trkpt>
      <trkpt lat="47.19413" lon="-1.57383">
        <ele>58</ele>
        <time>2022-04-03T12:40:02Z</time>
      </trkpt>
      <trkpt lat="47.19408" lon="-1.57401">
        <ele>58</ele>
        <time>2022-04-03T12:40:04Z</time>
      </trkpt>
      <trkpt lat="47.19403" lon="-1.5742">
        <ele>58</ele>
        <time>2022-04-03T12:40:06Z</time>
      </trkpt>
      <trkpt lat="47.19399" lon="-1.5744">
        <ele>58</ele>
        <time>2022-04-03T12:40:08Z</time>
      </trkpt>
      <trkpt lat="47.19394" lon="-1.57458">
        <ele>58</ele>
        <time>2022-04-03T12:40:10Z</time>
      </trkpt>
      <trkpt lat="47.19388" lon="-1.57476">
        <ele>58</ele>
        <time>2022-04-03T12:40:12Z</time>
      </trkpt>
      <trkpt lat="47.19383" lon="-1.57496">
        <ele>58</ele>
        <time>2022-04-03T12:40:14Z</time>
      </trkpt>
      <trkpt lat="47.19377" lon="-1.57515">
        <ele>57</ele>
        <time>2022-04-03T12:40:16Z</time>
      </trkpt>
      <trkpt lat="47.19371" lon="-1.57534">
        <ele>57</ele>
        <time>2022-04-03T12:40:18Z</time>
      </trkpt>
      <trkpt lat="47.19366" lon="-1.57553">
        <ele>57</ele>
        <time>2022-04-03T12:40:20Z</time>
      </trkpt>
      <trkpt lat="47.19361" lon="-1.57573">
        <ele>57</ele>
        <time>2022-04-03T12:40:22Z</time>
      </trkpt>
      <trkpt lat="47.19355" lon="-1.57593">
        <ele>57</ele>
        <time>2022-04-03T12:40:24Z</time>
      </trkpt>
      <trkpt lat="47.1935" lon="-1.57614">
        <ele>57</ele>
        <time>2022-04-03T12:40:26Z</time>
      </trkpt>
      <trkpt lat="47.19344" lon="-1.57634">
        <ele>57</ele>
        <time>2022-04-03T12:40:28Z</time>
      </trkpt>
      <trkpt lat="47.19339" lon="-1.57654">
        <ele>56</ele>
        <time>2022-04-03T12:40:30Z</time>
      </trkpt>
      <trkpt lat="47.19333" lon="-1.57674">
        <ele>56</ele>
        <time>2022-04-03T12:40:32Z</time>
      </trkpt>
      <trkpt lat="47.19327" lon="-1.57694">
        <ele>56</ele>
        <time>2022-04-03T12:40:34Z</time>
      </trkpt>
      <trkpt lat="47.19322" lon="-1.57714">
        <ele>56</ele>
        <time>2022-04-03T12:40:36Z</time>
      </trkpt>
      <trkpt lat="47.19316" lon="-1.57733">
        <ele>56</ele>
        <time>2022-04-03T12:40:38Z</time>
      </trkpt>
      <trkpt lat="47.1931" lon="-1.57752">
        <ele>56</ele>
        <time>2022-04-03T12:40:40Z</time>
      </trkpt>
      <trkpt lat="47.19304" lon="-1.57772">
        <ele>56</ele>
        <time>2022-04-03T12:40:42Z</time>
      </trkpt>
      <trkpt lat="47.19298" lon="-1.57793">
        <ele>56</ele>
        <time>2022-04-03T12:40:44Z</time>
      </trkpt>
      <trkpt lat="47.19293" lon="-1.57814">
        <ele>56</ele>
        <time>2022-04-03T12:40:46Z</time>
      </trkpt>
      <trkpt lat="47.19288" lon="-1.57835">
        <ele>56</ele>
        <time>2022-04-03T12:40:48Z</time>
      </trkpt>
      <trkpt lat="47.19282" lon="-1.57856">
        <ele>56</ele>
        <time>2022-04-03T12:40:50Z</time>
      </trkpt>
      <trkpt lat="47.19277" lon="-1.57876">
        <ele>56</ele>
        <time>2022-04-03T12:40:52Z</time>
      </trkpt>
      <trkpt lat="47.19271" lon="-1.57897">
        <ele>56</ele>
        <time>2022-04-03T12:40:54Z</time>
      </trkpt>
      <trkpt lat="47.19265" lon="-1.57917">
        <ele>55</ele>
        <time>2022-04-03T12:40:56Z</time>
      </trkpt>
      <trkpt lat="47.1926" lon="-1.57938">
        <ele>55</ele>
        <time>2022-04-03T12:40:58Z</time>
      </trkpt>
      <trkpt lat="47.19254" lon="-1.57958">
        <ele>55</ele>
        <time>2022-04-03T12:41:00Z</time>
      </trkpt>
      <trkpt lat="47.19248" lon="-1.57978">
        <ele>55</ele>
        <time>2022-04-03T12:41:02Z</time>
      </trkpt>
      <trkpt lat="47.19242" lon="-1.57999">
        <ele>55</ele>
        <time>2022-04-03T12:41:04Z</time>
      </trkpt>
      <trkpt lat="47.19236" lon="-1.58019">
        <ele>55</ele>
        <time>2022-04-03T12:41:06Z</time>
      </trkpt>
      <trkpt lat="47.19231" lon="-1.58039">
        <ele>55</ele>
        <time>2022-04-03T12:41:08Z</time>
      </trkpt>
      <trkpt lat="47.19226" lon="-1.58058">
        <ele>55</ele>
        <time>2022-04-03T12:41:10Z</time>
      </trkpt>
      <trkpt lat="47.1922" lon="-1.58077">
        <ele>55</ele>
        <time>2022-04-03T12:41:12Z</time>
      </trkpt>
      <trkpt lat="47.19213" lon="-1.58094">
        <ele>55</ele>
        <time>2022-04-03T12:41:14Z</time>
      </trkpt>
      <trkpt lat="47.19207" lon="-1.58113">
        <ele>55</ele>
        <time>2022-04-03T12:41:16Z</time>
      </trkpt>
      <trkpt lat="47.19202" lon="-1.58133">
        <ele>55</ele>
        <time>2022-04-03T12:41:18Z</time>
      </trkpt>
      <trkpt lat="47.19198" lon="-1.58153">
        <ele>55</ele>
        <time>2022-04-03T12:41:20Z</time>
      </trkpt>
      <trkpt lat="47.19193" lon="-1.58173">
        <ele>54</ele>
        <time>2022-04-03T12:41:22Z</time>
      </trkpt>
      <trkpt lat="47.19188" lon="-1.58192">
        <ele>54</ele>
        <time>2022-04-03T12:41:24Z</time>
      </trkpt>
      <trkpt lat="47.19184" lon="-1.58211">
        <ele>55</ele>
        <time>2022-04-03T12:41:26Z</time>
      </trkpt>
      <trkpt lat="47.19177" lon="-1.58231">
        <ele>55</ele>
        <time>2022-04-03T12:41:28Z</time>
      </trkpt>
      <trkpt lat="47.19167" lon="-1.58249">
        <ele>55</ele>
        <time>2022-04-03T12:41:30Z</time>
      </trkpt>
      <trkpt lat="47.19156" lon="-1.58267">
        <ele>55</ele>
        <time>2022-04-03T12:41:32Z</time>
      </trkpt>
      <trkpt lat="47.19147" lon="-1.58287">
        <ele>55</ele>
        <time>2022-04-03T12:41:34Z</time>
      </trkpt>
      <trkpt lat="47.19139" lon="-1.58307">
        <ele>55</ele>
        <time>2022-04-03T12:41:36Z</time>
      </trkpt>
      <trkpt lat="47.19131" lon="-1.58327">
        <ele>55</ele>
        <time>2022-04-03T12:41:38Z</time>
      </trkpt>
      <trkpt lat="47.19123" lon="-1.58346">
        <ele>54</ele>
        <time>2022-04-03T12:41:40Z</time>
      </trkpt>
      <trkpt lat="47.19114" lon="-1.58364">
        <ele>54</ele>
        <time>2022-04-03T12:41:42Z</time>
      </trkpt>
      <trkpt lat="47.1911" lon="-1.58386">
        <ele>54</ele>
        <time>2022-04-03T12:41:44Z</time>
      </trkpt>
      <trkpt lat="47.19116" lon="-1.58406">
        <ele>54</ele>
        <time>2022-04-03T12:41:46Z</time>
      </trkpt>
      <trkpt lat="47.19123" lon="-1.58422">
        <ele>54</ele>
        <time>2022-04-03T12:41:48Z</time>
      </trkpt>
      <trkpt lat="47.19129" lon="-1.58434">
        <ele>54</ele>
        <time>2022-04-03T12:41:50Z</time>
      </trkpt>
      <trkpt lat="47.19135" lon="-1.58447">
        <ele>54</ele>
        <time>2022-04-03T12:41:52Z</time>
      </trkpt>
      <trkpt lat="47.1914" lon="-1.58461">
        <ele>54</ele>
        <time>2022-04-03T12:41:54Z</time>
      </trkpt>
      <trkpt lat="47.19142" lon="-1.58475">
        <ele>54</ele>
        <time>2022-04-03T12:41:56Z</time>
      </trkpt>
      <trkpt lat="47.19133" lon="-1.58483">
        <ele>54</ele>
        <time>2022-04-03T12:41:58Z</time>
      </trkpt>
      <trkpt lat="47.19124" lon="-1.58491">
        <ele>54</ele>
        <time>2022-04-03T12:42:05Z</time>
      </trkpt>
      <trkpt lat="47.19116" lon="-1.58499">
        <ele>54</ele>
        <time>2022-04-03T12:42:10Z</time>
      </trkpt>
      <trkpt lat="47.19105" lon="-1.58506">
        <ele>54</ele>
        <time>2022-04-03T12:42:14Z</time>
      </trkpt>
      <trkpt lat="47.19097" lon="-1.58515">
        <ele>54</ele>
        <time>2022-04-03T12:42:16Z</time>
      </trkpt>
      <trkpt lat="47.19087" lon="-1.58528">
        <ele>54</ele>
        <time>2022-04-03T12:42:18Z</time>
      </trkpt>
      <trkpt lat="47.19074" lon="-1.58541">
        <ele>55</ele>
        <time>2022-04-03T12:42:20Z</time>
      </trkpt>
      <trkpt lat="47.19059" lon="-1.58555">
        <ele>55</ele>
        <time>2022-04-03T12:42:22Z</time>
      </trkpt>
      <trkpt lat="47.19052" lon="-1.58563">
        <ele>55</ele>
        <time>2022-04-03T12:42:23Z</time>
      </trkpt>
      <trkpt lat="47.19037" lon="-1.58577">
        <ele>55</ele>
        <time>2022-04-03T12:42:25Z</time>
      </trkpt>
      <trkpt lat="47.19029" lon="-1.58585">
        <ele>55</ele>
        <time>2022-04-03T12:42:26Z</time>
      </trkpt>
      <trkpt lat="47.19021" lon="-1.58592">
        <ele>55</ele>
        <time>2022-04-03T12:42:27Z</time>
      </trkpt>
      <trkpt lat="47.19013" lon="-1.586">
        <ele>55</ele>
        <time>2022-04-03T12:42:28Z</time>
      </trkpt>
      <trkpt lat="47.19006" lon="-1.58607">
        <ele>55</ele>
        <time>2022-04-03T12:42:29Z</time>
      </trkpt>
      <trkpt lat="47.18998" lon="-1.58615">
        <ele>55</ele>
        <time>2022-04-03T12:42:30Z</time>
      </trkpt>
      <trkpt lat="47.18983" lon="-1.58629">
        <ele>55</ele>
        <time>2022-04-03T12:42:32Z</time>
      </trkpt>
      <trkpt lat="47.18969" lon="-1.58643">
        <ele>55</ele>
        <time>2022-04-03T12:42:34Z</time>
      </trkpt>
      <trkpt lat="47.18954" lon="-1.58657">
        <ele>55</ele>
        <time>2022-04-03T12:42:36Z</time>
      </trkpt>
      <trkpt lat="47.1894" lon="-1.58671">
        <ele>56</ele>
        <time>2022-04-03T12:42:38Z</time>
      </trkpt>
      <trkpt lat="47.18925" lon="-1.58684">
        <ele>55</ele>
        <time>2022-04-03T12:42:40Z</time>
      </trkpt>
      <trkpt lat="47.18903" lon="-1.58702">
        <ele>56</ele>
        <time>2022-04-03T12:42:43Z</time>
      </trkpt>
      <trkpt lat="47.18889" lon="-1.58712">
        <ele>56</ele>
        <time>2022-04-03T12:42:45Z</time>
      </trkpt>
      <trkpt lat="47.18874" lon="-1.58721">
        <ele>56</ele>
        <time>2022-04-03T12:42:47Z</time>
      </trkpt>
      <trkpt lat="47.1886" lon="-1.58729">
        <ele>56</ele>
        <time>2022-04-03T12:42:49Z</time>
      </trkpt>
      <trkpt lat="47.18846" lon="-1.58737">
        <ele>56</ele>
        <time>2022-04-03T12:42:51Z</time>
      </trkpt>
      <trkpt lat="47.18836" lon="-1.58746">
        <ele>56</ele>
        <time>2022-04-03T12:42:53Z</time>
      </trkpt>
      <trkpt lat="47.18833" lon="-1.58762">
        <ele>56</ele>
        <time>2022-04-03T12:42:55Z</time>
      </trkpt>
      <trkpt lat="47.18828" lon="-1.5878">
        <ele>56</ele>
        <time>2022-04-03T12:42:57Z</time>
      </trkpt>
      <trkpt lat="47.18818" lon="-1.58796">
        <ele>56</ele>
        <time>2022-04-03T12:42:59Z</time>
      </trkpt>
      <trkpt lat="47.18805" lon="-1.58808">
        <ele>56</ele>
        <time>2022-04-03T12:43:01Z</time>
      </trkpt>
      <trkpt lat="47.18792" lon="-1.58817">
        <ele>56</ele>
        <time>2022-04-03T12:43:03Z</time>
      </trkpt>
      <trkpt lat="47.18788" lon="-1.58836">
        <ele>56</ele>
        <time>2022-04-03T12:43:05Z</time>
      </trkpt>
      <trkpt lat="47.18782" lon="-1.58857">
        <ele>56</ele>
        <time>2022-04-03T12:43:07Z</time>
      </trkpt>
      <trkpt lat="47.18779" lon="-1.58878">
        <ele>56</ele>
        <time>2022-04-03T12:43:09Z</time>
      </trkpt>
      <trkpt lat="47.18776" lon="-1.589">
        <ele>56</ele>
        <time>2022-04-03T12:43:11Z</time>
      </trkpt>
      <trkpt lat="47.18773" lon="-1.58923">
        <ele>56</ele>
        <time>2022-04-03T12:43:13Z</time>
      </trkpt>
      <trkpt lat="47.1877" lon="-1.58945">
        <ele>55</ele>
        <time>2022-04-03T12:43:15Z</time>
      </trkpt>
      <trkpt lat="47.18768" lon="-1.58967">
        <ele>55</ele>
        <time>2022-04-03T12:43:17Z</time>
      </trkpt>
      <trkpt lat="47.18765" lon="-1.58989">
        <ele>55</ele>
        <time>2022-04-03T12:43:19Z</time>
      </trkpt>
      <trkpt lat="47.18763" lon="-1.59011">
        <ele>55</ele>
        <time>2022-04-03T12:43:21Z</time>
      </trkpt>
      <trkpt lat="47.1876" lon="-1.59034">
        <ele>55</ele>
        <time>2022-04-03T12:43:23Z</time>
      </trkpt>
      <trkpt lat="47.18758" lon="-1.59056">
        <ele>56</ele>
        <time>2022-04-03T12:43:25Z</time>
      </trkpt>
      <trkpt lat="47.18756" lon="-1.59078">
        <ele>56</ele>
        <time>2022-04-03T12:43:27Z</time>
      </trkpt>
      <trkpt lat="47.18753" lon="-1.591">
        <ele>56</ele>
        <time>2022-04-03T12:43:29Z</time>
      </trkpt>
      <trkpt lat="47.18751" lon="-1.59123">
        <ele>56</ele>
        <time>2022-04-03T12:43:31Z</time>
      </trkpt>
      <trkpt lat="47.18748" lon="-1.59145">
        <ele>55</ele>
        <time>2022-04-03T12:43:33Z</time>
      </trkpt>
      <trkpt lat="47.18746" lon="-1.59168">
        <ele>55</ele>
        <time>2022-04-03T12:43:35Z</time>
      </trkpt>
      <trkpt lat="47.18743" lon="-1.59191">
        <ele>55</ele>
        <time>2022-04-03T12:43:37Z</time>
      </trkpt>
      <trkpt lat="47.1874" lon="-1.59214">
        <ele>55</ele>
        <time>2022-04-03T12:43:39Z</time>
      </trkpt>
      <trkpt lat="47.18739" lon="-1.59236">
        <ele>55</ele>
        <time>2022-04-03T12:43:41Z</time>
      </trkpt>
      <trkpt lat="47.18736" lon="-1.5926">
        <ele>55</ele>
        <time>2022-04-03T12:43:43Z</time>
      </trkpt>
      <trkpt lat="47.18733" lon="-1.59283">
        <ele>55</ele>
        <time>2022-04-03T12:43:45Z</time>
      </trkpt>
      <trkpt lat="47.18731" lon="-1.59306">
        <ele>55</ele>
        <time>2022-04-03T12:43:47Z</time>
      </trkpt>
      <trkpt lat="47.18728" lon="-1.59329">
        <ele>55</ele>
        <time>2022-04-03T12:43:49Z</time>
      </trkpt>
      <trkpt lat="47.18726" lon="-1.59353">
        <ele>55</ele>
        <time>2022-04-03T12:43:51Z</time>
      </trkpt>
      <trkpt lat="47.18723" lon="-1.59376">
        <ele>55</ele>
        <time>2022-04-03T12:43:53Z</time>
      </trkpt>
      <trkpt lat="47.18721" lon="-1.59399">
        <ele>55</ele>
        <time>2022-04-03T12:43:55Z</time>
      </trkpt>
      <trkpt lat="47.18718" lon="-1.59423">
        <ele>55</ele>
        <time>2022-04-03T12:43:57Z</time>
      </trkpt>
      <trkpt lat="47.18716" lon="-1.59446">
        <ele>55</ele>
        <time>2022-04-03T12:43:59Z</time>
      </trkpt>
      <trkpt lat="47.18713" lon="-1.5947">
        <ele>55</ele>
        <time>2022-04-03T12:44:01Z</time>
      </trkpt>
      <trkpt lat="47.1871" lon="-1.59494">
        <ele>55</ele>
        <time>2022-04-03T12:44:03Z</time>
      </trkpt>
      <trkpt lat="47.18708" lon="-1.59518">
        <ele>55</ele>
        <time>2022-04-03T12:44:05Z</time>
      </trkpt>
      <trkpt lat="47.18705" lon="-1.59541">
        <ele>55</ele>
        <time>2022-04-03T12:44:07Z</time>
      </trkpt>
      <trkpt lat="47.18703" lon="-1.59565">
        <ele>56</ele>
        <time>2022-04-03T12:44:09Z</time>
      </trkpt>
      <trkpt lat="47.187" lon="-1.59588">
        <ele>56</ele>
        <time>2022-04-03T12:44:11Z</time>
      </trkpt>
      <trkpt lat="47.18697" lon="-1.59611">
        <ele>56</ele>
        <time>2022-04-03T12:44:13Z</time>
      </trkpt>
      <trkpt lat="47.18694" lon="-1.59634">
        <ele>56</ele>
        <time>2022-04-03T12:44:15Z</time>
      </trkpt>
      <trkpt lat="47.18691" lon="-1.59656">
        <ele>56</ele>
        <time>2022-04-03T12:44:17Z</time>
      </trkpt>
      <trkpt lat="47.18688" lon="-1.59679">
        <ele>56</ele>
        <time>2022-04-03T12:44:19Z</time>
      </trkpt>
      <trkpt lat="47.18685" lon="-1.59702">
        <ele>55</ele>
        <time>2022-04-03T12:44:21Z</time>
      </trkpt>
      <trkpt lat="47.18683" lon="-1.59726">
        <ele>55</ele>
        <time>2022-04-03T12:44:23Z</time>
      </trkpt>
      <trkpt lat="47.18683" lon="-1.5974">
        <ele>55</ele>
        <time>2022-04-03T12:44:24Z</time>
      </trkpt>
      <trkpt lat="47.18682" lon="-1.59766">
        <ele>55</ele>
        <time>2022-04-03T12:44:26Z</time>
      </trkpt>
      <trkpt lat="47.18683" lon="-1.5978">
        <ele>54</ele>
        <time>2022-04-03T12:44:27Z</time>
      </trkpt>
      <trkpt lat="47.18684" lon="-1.59794">
        <ele>54</ele>
        <time>2022-04-03T12:44:28Z</time>
      </trkpt>
      <trkpt lat="47.18684" lon="-1.59808">
        <ele>55</ele>
        <time>2022-04-03T12:44:29Z</time>
      </trkpt>
      <trkpt lat="47.1868" lon="-1.59822">
        <ele>55</ele>
        <time>2022-04-03T12:44:30Z</time>
      </trkpt>
      <trkpt lat="47.18673" lon="-1.59833">
        <ele>55</ele>
        <time>2022-04-03T12:44:31Z</time>
      </trkpt>
      <trkpt lat="47.18665" lon="-1.59841">
        <ele>55</ele>
        <time>2022-04-03T12:44:32Z</time>
      </trkpt>
      <trkpt lat="47.18656" lon="-1.59845">
        <ele>55</ele>
        <time>2022-04-03T12:44:33Z</time>
      </trkpt>
      <trkpt lat="47.1864" lon="-1.59839">
        <ele>55</ele>
        <time>2022-04-03T12:44:35Z</time>
      </trkpt>
      <trkpt lat="47.18627" lon="-1.59829">
        <ele>54</ele>
        <time>2022-04-03T12:44:37Z</time>
      </trkpt>
      <trkpt lat="47.18616" lon="-1.59837">
        <ele>53</ele>
        <time>2022-04-03T12:44:39Z</time>
      </trkpt>
      <trkpt lat="47.18621" lon="-1.59854">
        <ele>53</ele>
        <time>2022-04-03T12:44:41Z</time>
      </trkpt>
      <trkpt lat="47.18623" lon="-1.59873">
        <ele>54</ele>
        <time>2022-04-03T12:44:43Z</time>
      </trkpt>
      <trkpt lat="47.18618" lon="-1.59894">
        <ele>54</ele>
        <time>2022-04-03T12:44:45Z</time>
      </trkpt>
      <trkpt lat="47.18612" lon="-1.59915">
        <ele>54</ele>
        <time>2022-04-03T12:44:47Z</time>
      </trkpt>
      <trkpt lat="47.18605" lon="-1.59937">
        <ele>54</ele>
        <time>2022-04-03T12:44:49Z</time>
      </trkpt>
      <trkpt lat="47.18599" lon="-1.5996">
        <ele>54</ele>
        <time>2022-04-03T12:44:51Z</time>
      </trkpt>
      <trkpt lat="47.18592" lon="-1.59982">
        <ele>54</ele>
        <time>2022-04-03T12:44:53Z</time>
      </trkpt>
      <trkpt lat="47.18585" lon="-1.60004">
        <ele>54</ele>
        <time>2022-04-03T12:44:55Z</time>
      </trkpt>
      <trkpt lat="47.18577" lon="-1.60026">
        <ele>54</ele>
        <time>2022-04-03T12:44:57Z</time>
      </trkpt>
      <trkpt lat="47.1857" lon="-1.60047">
        <ele>55</ele>
        <time>2022-04-03T12:44:59Z</time>
      </trkpt>
      <trkpt lat="47.18562" lon="-1.60068">
        <ele>55</ele>
        <time>2022-04-03T12:45:01Z</time>
      </trkpt>
      <trkpt lat="47.18554" lon="-1.60088">
        <ele>55</ele>
        <time>2022-04-03T12:45:03Z</time>
      </trkpt>
      <trkpt lat="47.18546" lon="-1.60109">
        <ele>55</ele>
        <time>2022-04-03T12:45:05Z</time>
      </trkpt>
      <trkpt lat="47.18537" lon="-1.60128">
        <ele>55</ele>
        <time>2022-04-03T12:45:07Z</time>
      </trkpt>
      <trkpt lat="47.18529" lon="-1.60147">
        <ele>55</ele>
        <time>2022-04-03T12:45:09Z</time>
      </trkpt>
      <trkpt lat="47.1852" lon="-1.60165">
        <ele>55</ele>
        <time>2022-04-03T12:45:11Z</time>
      </trkpt>
      <trkpt lat="47.18511" lon="-1.60184">
        <ele>55</ele>
        <time>2022-04-03T12:45:13Z</time>
      </trkpt>
      <trkpt lat="47.18502" lon="-1.60202">
        <ele>55</ele>
        <time>2022-04-03T12:45:15Z</time>
      </trkpt>
      <trkpt lat="47.18493" lon="-1.6022">
        <ele>55</ele>
        <time>2022-04-03T12:45:17Z</time>
      </trkpt>
      <trkpt lat="47.18484" lon="-1.60237">
        <ele>55</ele>
        <time>2022-04-03T12:45:19Z</time>
      </trkpt>
      <trkpt lat="47.18475" lon="-1.60254">
        <ele>55</ele>
        <time>2022-04-03T12:45:21Z</time>
      </trkpt>
      <trkpt lat="47.18466" lon="-1.6027">
        <ele>55</ele>
        <time>2022-04-03T12:45:23Z</time>
      </trkpt>
      <trkpt lat="47.18456" lon="-1.60287">
        <ele>55</ele>
        <time>2022-04-03T12:45:25Z</time>
      </trkpt>
      <trkpt lat="47.18446" lon="-1.60304">
        <ele>55</ele>
        <time>2022-04-03T12:45:27Z</time>
      </trkpt>
      <trkpt lat="47.18437" lon="-1.6032">
        <ele>55</ele>
        <time>2022-04-03T12:45:29Z</time>
      </trkpt>
      <trkpt lat="47.18427" lon="-1.60337">
        <ele>55</ele>
        <time>2022-04-03T12:45:31Z</time>
      </trkpt>
      <trkpt lat="47.18416" lon="-1.60352">
        <ele>55</ele>
        <time>2022-04-03T12:45:33Z</time>
      </trkpt>
      <trkpt lat="47.18405" lon="-1.60367">
        <ele>55</ele>
        <time>2022-04-03T12:45:35Z</time>
      </trkpt>
      <trkpt lat="47.18394" lon="-1.60382">
        <ele>54</ele>
        <time>2022-04-03T12:45:37Z</time>
      </trkpt>
      <trkpt lat="47.18383" lon="-1.60397">
        <ele>54</ele>
        <time>2022-04-03T12:45:39Z</time>
      </trkpt>
      <trkpt lat="47.18372" lon="-1.60411">
        <ele>55</ele>
        <time>2022-04-03T12:45:41Z</time>
      </trkpt>
      <trkpt lat="47.18361" lon="-1.60426">
        <ele>55</ele>
        <time>2022-04-03T12:45:43Z</time>
      </trkpt>
      <trkpt lat="47.18349" lon="-1.6044">
        <ele>55</ele>
        <time>2022-04-03T12:45:45Z</time>
      </trkpt>
      <trkpt lat="47.18338" lon="-1.60454">
        <ele>55</ele>
        <time>2022-04-03T12:45:47Z</time>
      </trkpt>
      <trkpt lat="47.18327" lon="-1.60468">
        <ele>55</ele>
        <time>2022-04-03T12:45:49Z</time>
      </trkpt>
      <trkpt lat="47.18315" lon="-1.60481">
        <ele>55</ele>
        <time>2022-04-03T12:45:51Z</time>
      </trkpt>
      <trkpt lat="47.18303" lon="-1.60494">
        <ele>55</ele>
        <time>2022-04-03T12:45:53Z</time>
      </trkpt>
      <trkpt lat="47.18291" lon="-1.60507">
        <ele>55</ele>
        <time>2022-04-03T12:45:55Z</time>
      </trkpt>
      <trkpt lat="47.18279" lon="-1.60519">
        <ele>55</ele>
        <time>2022-04-03T12:45:57Z</time>
      </trkpt>
      <trkpt lat="47.18267" lon="-1.60531">
        <ele>55</ele>
        <time>2022-04-03T12:45:59Z</time>
      </trkpt>
      <trkpt lat="47.18254" lon="-1.60541">
        <ele>56</ele>
        <time>2022-04-03T12:46:01Z</time>
      </trkpt>
      <trkpt lat="47.18242" lon="-1.6055">
        <ele>56</ele>
        <time>2022-04-03T12:46:03Z</time>
      </trkpt>
      <trkpt lat="47.18229" lon="-1.60559">
        <ele>56</ele>
        <time>2022-04-03T12:46:05Z</time>
      </trkpt>
      <trkpt lat="47.18217" lon="-1.60566">
        <ele>56</ele>
        <time>2022-04-03T12:46:07Z</time>
      </trkpt>
      <trkpt lat="47.18206" lon="-1.60571">
        <ele>56</ele>
        <time>2022-04-03T12:46:09Z</time>
      </trkpt>
      <trkpt lat="47.18195" lon="-1.60575">
        <ele>56</ele>
        <time>2022-04-03T12:46:11Z</time>
      </trkpt>
      <trkpt lat="47.1819" lon="-1.60591">
        <ele>56</ele>
        <time>2022-04-03T12:46:14Z</time>
      </trkpt>
      <trkpt lat="47.18183" lon="-1.60601">
        <ele>56</ele>
        <time>2022-04-03T12:46:16Z</time>
      </trkpt>
      <trkpt lat="47.1817" lon="-1.60603">
        <ele>56</ele>
        <time>2022-04-03T12:46:18Z</time>
      </trkpt>
      <trkpt lat="47.18156" lon="-1.60604">
        <ele>55</ele>
        <time>2022-04-03T12:46:20Z</time>
      </trkpt>
      <trkpt lat="47.18143" lon="-1.60602">
        <ele>55</ele>
        <time>2022-04-03T12:46:22Z</time>
      </trkpt>
      <trkpt lat="47.1813" lon="-1.60599">
        <ele>55</ele>
        <time>2022-04-03T12:46:24Z</time>
      </trkpt>
      <trkpt lat="47.18117" lon="-1.60596">
        <ele>55</ele>
        <time>2022-04-03T12:46:26Z</time>
      </trkpt>
      <trkpt lat="47.18104" lon="-1.60591">
        <ele>55</ele>
        <time>2022-04-03T12:46:28Z</time>
      </trkpt>
      <trkpt lat="47.18091" lon="-1.60585">
        <ele>55</ele>
        <time>2022-04-03T12:46:30Z</time>
      </trkpt>
      <trkpt lat="47.18078" lon="-1.60578">
        <ele>55</ele>
        <time>2022-04-03T12:46:32Z</time>
      </trkpt>
      <trkpt lat="47.18065" lon="-1.60572">
        <ele>55</ele>
        <time>2022-04-03T12:46:34Z</time>
      </trkpt>
      <trkpt lat="47.18053" lon="-1.60565">
        <ele>55</ele>
        <time>2022-04-03T12:46:36Z</time>
      </trkpt>
      <trkpt lat="47.18041" lon="-1.60558">
        <ele>55</ele>
        <time>2022-04-03T12:46:38Z</time>
      </trkpt>
      <trkpt lat="47.18028" lon="-1.60553">
        <ele>55</ele>
        <time>2022-04-03T12:46:40Z</time>
      </trkpt>
      <trkpt lat="47.18015" lon="-1.60552">
        <ele>55</ele>
        <time>2022-04-03T12:46:42Z</time>
      </trkpt>
      <trkpt lat="47.18002" lon="-1.60555">
        <ele>55</ele>
        <time>2022-04-03T12:46:44Z</time>
      </trkpt>
      <trkpt lat="47.17989" lon="-1.60559">
        <ele>56</ele>
        <time>2022-04-03T12:46:46Z</time>
      </trkpt>
      <trkpt lat="47.17978" lon="-1.60564">
        <ele>56</ele>
        <time>2022-04-03T12:46:48Z</time>
      </trkpt>
      <trkpt lat="47.17966" lon="-1.60569">
        <ele>56</ele>
        <time>2022-04-03T12:46:50Z</time>
      </trkpt>
      <trkpt lat="47.17949" lon="-1.60576">
        <ele>57</ele>
        <time>2022-04-03T12:46:53Z</time>
      </trkpt>
      <trkpt lat="47.17936" lon="-1.60585">
        <ele>57</ele>
        <time>2022-04-03T12:46:55Z</time>
      </trkpt>
      <trkpt lat="47.17926" lon="-1.60587">
        <ele>59</ele>
        <time>2022-04-03T12:46:57Z</time>
      </trkpt>
      <trkpt lat="47.17915" lon="-1.60587">
        <ele>58</ele>
        <time>2022-04-03T12:47:00Z</time>
      </trkpt>
      <trkpt lat="47.17905" lon="-1.60596">
        <ele>56</ele>
        <time>2022-04-03T12:47:02Z</time>
      </trkpt>
      <trkpt lat="47.179" lon="-1.60616">
        <ele>55</ele>
        <time>2022-04-03T12:47:04Z</time>
      </trkpt>
      <trkpt lat="47.17894" lon="-1.60638">
        <ele>55</ele>
        <time>2022-04-03T12:47:06Z</time>
      </trkpt>
      <trkpt lat="47.17887" lon="-1.60659">
        <ele>54</ele>
        <time>2022-04-03T12:47:08Z</time>
      </trkpt>
      <trkpt lat="47.1788" lon="-1.60681">
        <ele>53</ele>
        <time>2022-04-03T12:47:10Z</time>
      </trkpt>
      <trkpt lat="47.17873" lon="-1.60703">
        <ele>53</ele>
        <time>2022-04-03T12:47:12Z</time>
      </trkpt>
      <trkpt lat="47.17868" lon="-1.60726">
        <ele>53</ele>
        <time>2022-04-03T12:47:14Z</time>
      </trkpt>
      <trkpt lat="47.17863" lon="-1.60747">
        <ele>53</ele>
        <time>2022-04-03T12:47:16Z</time>
      </trkpt>
      <trkpt lat="47.17858" lon="-1.60769">
        <ele>53</ele>
        <time>2022-04-03T12:47:18Z</time>
      </trkpt>
      <trkpt lat="47.17854" lon="-1.60791">
        <ele>53</ele>
        <time>2022-04-03T12:47:20Z</time>
      </trkpt>
      <trkpt lat="47.1785" lon="-1.60812">
        <ele>53</ele>
        <time>2022-04-03T12:47:22Z</time>
      </trkpt>
      <trkpt lat="47.17844" lon="-1.60832">
        <ele>53</ele>
        <time>2022-04-03T12:47:24Z</time>
      </trkpt>
      <trkpt lat="47.17837" lon="-1.60851">
        <ele>53</ele>
        <time>2022-04-03T12:47:26Z</time>
      </trkpt>
      <trkpt lat="47.17827" lon="-1.60868">
        <ele>53</ele>
        <time>2022-04-03T12:47:28Z</time>
      </trkpt>
      <trkpt lat="47.17816" lon="-1.60883">
        <ele>53</ele>
        <time>2022-04-03T12:47:30Z</time>
      </trkpt>
      <trkpt lat="47.17804" lon="-1.60896">
        <ele>54</ele>
        <time>2022-04-03T12:47:32Z</time>
      </trkpt>
      <trkpt lat="47.1779" lon="-1.60906">
        <ele>54</ele>
        <time>2022-04-03T12:47:34Z</time>
      </trkpt>
      <trkpt lat="47.17777" lon="-1.60915">
        <ele>54</ele>
        <time>2022-04-03T12:47:36Z</time>
      </trkpt>
      <trkpt lat="47.17765" lon="-1.60925">
        <ele>54</ele>
        <time>2022-04-03T12:47:38Z</time>
      </trkpt>
      <trkpt lat="47.17752" lon="-1.60935">
        <ele>54</ele>
        <time>2022-04-03T12:47:40Z</time>
      </trkpt>
      <trkpt lat="47.1774" lon="-1.60945">
        <ele>54</ele>
        <time>2022-04-03T12:47:42Z</time>
      </trkpt>
      <trkpt lat="47.17727" lon="-1.60954">
        <ele>54</ele>
        <time>2022-04-03T12:47:44Z</time>
      </trkpt>
      <trkpt lat="47.17713" lon="-1.60963">
        <ele>55</ele>
        <time>2022-04-03T12:47:46Z</time>
      </trkpt>
      <trkpt lat="47.177" lon="-1.60971">
        <ele>55</ele>
        <time>2022-04-03T12:47:48Z</time>
      </trkpt>
      <trkpt lat="47.17685" lon="-1.60973">
        <ele>55</ele>
        <time>2022-04-03T12:47:50Z</time>
      </trkpt>
      <trkpt lat="47.1767" lon="-1.6097">
        <ele>54</ele>
        <time>2022-04-03T12:47:52Z</time>
      </trkpt>
      <trkpt lat="47.17656" lon="-1.60975">
        <ele>54</ele>
        <time>2022-04-03T12:47:54Z</time>
      </trkpt>
      <trkpt lat="47.17643" lon="-1.60986">
        <ele>53</ele>
        <time>2022-04-03T12:47:56Z</time>
      </trkpt>
      <trkpt lat="47.1763" lon="-1.60997">
        <ele>53</ele>
        <time>2022-04-03T12:47:58Z</time>
      </trkpt>
      <trkpt lat="47.17618" lon="-1.61008">
        <ele>53</ele>
        <time>2022-04-03T12:48:00Z</time>
      </trkpt>
      <trkpt lat="47.17605" lon="-1.61019">
        <ele>54</ele>
        <time>2022-04-03T12:48:02Z</time>
      </trkpt>
      <trkpt lat="47.17593" lon="-1.6103">
        <ele>54</ele>
        <time>2022-04-03T12:48:04Z</time>
      </trkpt>
      <trkpt lat="47.17581" lon="-1.6104">
        <ele>54</ele>
        <time>2022-04-03T12:48:06Z</time>
      </trkpt>
      <trkpt lat="47.1757" lon="-1.6105">
        <ele>54</ele>
        <time>2022-04-03T12:48:08Z</time>
      </trkpt>
      <trkpt lat="47.17559" lon="-1.61059">
        <ele>54</ele>
        <time>2022-04-03T12:48:10Z</time>
      </trkpt>
      <trkpt lat="47.17548" lon="-1.61069">
        <ele>54</ele>
        <time>2022-04-03T12:48:12Z</time>
      </trkpt>
      <trkpt lat="47.17537" lon="-1.61079">
        <ele>54</ele>
        <time>2022-04-03T12:48:14Z</time>
      </trkpt>
      <trkpt lat="47.17525" lon="-1.61089">
        <ele>55</ele>
        <time>2022-04-03T12:48:16Z</time>
      </trkpt>
      <trkpt lat="47.17514" lon="-1.61098">
        <ele>55</ele>
        <time>2022-04-03T12:48:18Z</time>
      </trkpt>
      <trkpt lat="47.17502" lon="-1.61104">
        <ele>55</ele>
        <time>2022-04-03T12:48:20Z</time>
      </trkpt>
      <trkpt lat="47.17489" lon="-1.61105">
        <ele>55</ele>
        <time>2022-04-03T12:48:22Z</time>
      </trkpt>
      <trkpt lat="47.17477" lon="-1.61102">
        <ele>56</ele>
        <time>2022-04-03T12:48:24Z</time>
      </trkpt>
      <trkpt lat="47.17466" lon="-1.61094">
        <ele>56</ele>
        <time>2022-04-03T12:48:26Z</time>
      </trkpt>
      <trkpt lat="47.17456" lon="-1.61084">
        <ele>57</ele>
        <time>2022-04-03T12:48:28Z</time>
      </trkpt>
      <trkpt lat="47.17448" lon="-1.61073">
        <ele>57</ele>
        <time>2022-04-03T12:48:30Z</time>
      </trkpt>
      <trkpt lat="47.17442" lon="-1.61059">
        <ele>57</ele>
        <time>2022-04-03T12:48:32Z</time>
      </trkpt>
      <trkpt lat="47.17436" lon="-1.61045">
        <ele>57</ele>
        <time>2022-04-03T12:48:34Z</time>
      </trkpt>
      <trkpt lat="47.17432" lon="-1.61032">
        <ele>57</ele>
        <time>2022-04-03T12:48:36Z</time>
      </trkpt>
      <trkpt lat="47.17425" lon="-1.61018">
        <ele>57</ele>
        <time>2022-04-03T12:48:39Z</time>
      </trkpt>
      <trkpt lat="47.17421" lon="-1.61036">
        <ele>57</ele>
        <time>2022-04-03T12:48:43Z</time>
      </trkpt>
      <trkpt lat="47.17425" lon="-1.6105">
        <ele>57</ele>
        <time>2022-04-03T12:48:45Z</time>
      </trkpt>
      <trkpt lat="47.1743" lon="-1.61064">
        <ele>57</ele>
        <time>2022-04-03T12:48:47Z</time>
      </trkpt>
      <trkpt lat="47.17437" lon="-1.61078">
        <ele>57</ele>
        <time>2022-04-03T12:48:49Z</time>
      </trkpt>
      <trkpt lat="47.17442" lon="-1.61093">
        <ele>58</ele>
        <time>2022-04-03T12:48:51Z</time>
      </trkpt>
      <trkpt lat="47.17448" lon="-1.61107">
        <ele>58</ele>
        <time>2022-04-03T12:48:53Z</time>
      </trkpt>
      <trkpt lat="47.17455" lon="-1.61122">
        <ele>59</ele>
        <time>2022-04-03T12:48:55Z</time>
      </trkpt>
      <trkpt lat="47.1746" lon="-1.61136">
        <ele>59</ele>
        <time>2022-04-03T12:48:57Z</time>
      </trkpt>
      <trkpt lat="47.17466" lon="-1.6115">
        <ele>59</ele>
        <time>2022-04-03T12:48:59Z</time>
      </trkpt>
      <trkpt lat="47.17472" lon="-1.61164">
        <ele>60</ele>
        <time>2022-04-03T12:49:01Z</time>
      </trkpt>
      <trkpt lat="47.17478" lon="-1.61178">
        <ele>60</ele>
        <time>2022-04-03T12:49:03Z</time>
      </trkpt>
      <trkpt lat="47.17483" lon="-1.61192">
        <ele>60</ele>
        <time>2022-04-03T12:49:05Z</time>
      </trkpt>
      <trkpt lat="47.17489" lon="-1.61206">
        <ele>60</ele>
        <time>2022-04-03T12:49:07Z</time>
      </trkpt>
      <trkpt lat="47.17495" lon="-1.6122">
        <ele>60</ele>
        <time>2022-04-03T12:49:09Z</time>
      </trkpt>
      <trkpt lat="47.17501" lon="-1.61234">
        <ele>60</ele>
        <time>2022-04-03T12:49:11Z</time>
      </trkpt>
      <trkpt lat="47.17507" lon="-1.61247">
        <ele>60</ele>
        <time>2022-04-03T12:49:13Z</time>
      </trkpt>
      <trkpt lat="47.17514" lon="-1.6126">
        <ele>61</ele>
        <time>2022-04-03T12:49:15Z</time>
      </trkpt>
      <trkpt lat="47.17522" lon="-1.61271">
        <ele>61</ele>
        <time>2022-04-03T12:49:17Z</time>
      </trkpt>
      <trkpt lat="47.17531" lon="-1.61282">
        <ele>61</ele>
        <time>2022-04-03T12:49:19Z</time>
      </trkpt>
      <trkpt lat="47.1754" lon="-1.61289">
        <ele>61</ele>
        <time>2022-04-03T12:49:21Z</time>
      </trkpt>
      <trkpt lat="47.17551" lon="-1.61296">
        <ele>62</ele>
        <time>2022-04-03T12:49:23Z</time>
      </trkpt>
      <trkpt lat="47.1756" lon="-1.61308">
        <ele>61</ele>
        <time>2022-04-03T12:49:25Z</time>
      </trkpt>
      <trkpt lat="47.17561" lon="-1.61326">
        <ele>61</ele>
        <time>2022-04-03T12:49:27Z</time>
      </trkpt>
      <trkpt lat="47.17556" lon="-1.61343">
        <ele>61</ele>
        <time>2022-04-03T12:49:29Z</time>
      </trkpt>
      <trkpt lat="47.17546" lon="-1.61355">
        <ele>61</ele>
        <time>2022-04-03T12:49:31Z</time>
      </trkpt>
      <trkpt lat="47.17535" lon="-1.61366">
        <ele>61</ele>
        <time>2022-04-03T12:49:33Z</time>
      </trkpt>
      <trkpt lat="47.17528" lon="-1.61381">
        <ele>61</ele>
        <time>2022-04-03T12:49:35Z</time>
      </trkpt>
      <trkpt lat="47.17524" lon="-1.61398">
        <ele>62</ele>
        <time>2022-04-03T12:49:37Z</time>
      </trkpt>
      <trkpt lat="47.1752" lon="-1.61414">
        <ele>62</ele>
        <time>2022-04-03T12:49:39Z</time>
      </trkpt>
      <trkpt lat="47.17518" lon="-1.6143">
        <ele>63</ele>
        <time>2022-04-03T12:49:41Z</time>
      </trkpt>
      <trkpt lat="47.17517" lon="-1.61444">
        <ele>63</ele>
        <time>2022-04-03T12:49:43Z</time>
      </trkpt>
      <trkpt lat="47.17511" lon="-1.61456">
        <ele>64</ele>
        <time>2022-04-03T12:49:45Z</time>
      </trkpt>
      <trkpt lat="47.175" lon="-1.61462">
        <ele>64</ele>
        <time>2022-04-03T12:49:47Z</time>
      </trkpt>
      <trkpt lat="47.17489" lon="-1.61467">
        <ele>65</ele>
        <time>2022-04-03T12:49:49Z</time>
      </trkpt>
      <trkpt lat="47.17478" lon="-1.61472">
        <ele>65</ele>
        <time>2022-04-03T12:49:51Z</time>
      </trkpt>
      <trkpt lat="47.17466" lon="-1.61477">
        <ele>67</ele>
        <time>2022-04-03T12:49:53Z</time>
      </trkpt>
      <trkpt lat="47.17455" lon="-1.61483">
        <ele>68</ele>
        <time>2022-04-03T12:49:55Z</time>
      </trkpt>
      <trkpt lat="47.17444" lon="-1.61488">
        <ele>68</ele>
        <time>2022-04-03T12:49:57Z</time>
      </trkpt>
      <trkpt lat="47.17434" lon="-1.61495">
        <ele>68</ele>
        <time>2022-04-03T12:49:59Z</time>
      </trkpt>
      <trkpt lat="47.17424" lon="-1.61501">
        <ele>69</ele>
        <time>2022-04-03T12:50:01Z</time>
      </trkpt>
      <trkpt lat="47.17414" lon="-1.61508">
        <ele>68</ele>
        <time>2022-04-03T12:50:03Z</time>
      </trkpt>
      <trkpt lat="47.17404" lon="-1.61515">
        <ele>69</ele>
        <time>2022-04-03T12:50:05Z</time>
      </trkpt>
      <trkpt lat="47.17395" lon="-1.61523">
        <ele>69</ele>
        <time>2022-04-03T12:50:07Z</time>
      </trkpt>
      <trkpt lat="47.17385" lon="-1.61531">
        <ele>70</ele>
        <time>2022-04-03T12:50:09Z</time>
      </trkpt>
      <trkpt lat="47.17376" lon="-1.61541">
        <ele>71</ele>
        <time>2022-04-03T12:50:11Z</time>
      </trkpt>
      <trkpt lat="47.17367" lon="-1.6155">
        <ele>71</ele>
        <time>2022-04-03T12:50:13Z</time>
      </trkpt>
      <trkpt lat="47.17358" lon="-1.61559">
        <ele>71</ele>
        <time>2022-04-03T12:50:15Z</time>
      </trkpt>
      <trkpt lat="47.1735" lon="-1.61569">
        <ele>72</ele>
        <time>2022-04-03T12:50:17Z</time>
      </trkpt>
      <trkpt lat="47.17341" lon="-1.61579">
        <ele>72</ele>
        <time>2022-04-03T12:50:19Z</time>
      </trkpt>
      <trkpt lat="47.17333" lon="-1.61589">
        <ele>72</ele>
        <time>2022-04-03T12:50:21Z</time>
      </trkpt>
      <trkpt lat="47.17324" lon="-1.61599">
        <ele>72</ele>
        <time>2022-04-03T12:50:23Z</time>
      </trkpt>
      <trkpt lat="47.17316" lon="-1.6161">
        <ele>72</ele>
        <time>2022-04-03T12:50:25Z</time>
      </trkpt>
      <trkpt lat="47.17308" lon="-1.61623">
        <ele>72</ele>
        <time>2022-04-03T12:50:27Z</time>
      </trkpt>
      <trkpt lat="47.17301" lon="-1.61635">
        <ele>72</ele>
        <time>2022-04-03T12:50:29Z</time>
      </trkpt>
      <trkpt lat="47.17294" lon="-1.61648">
        <ele>73</ele>
        <time>2022-04-03T12:50:31Z</time>
      </trkpt>
      <trkpt lat="47.17287" lon="-1.61661">
        <ele>73</ele>
        <time>2022-04-03T12:50:33Z</time>
      </trkpt>
      <trkpt lat="47.1728" lon="-1.61674">
        <ele>73</ele>
        <time>2022-04-03T12:50:35Z</time>
      </trkpt>
      <trkpt lat="47.17272" lon="-1.61688">
        <ele>73</ele>
        <time>2022-04-03T12:50:37Z</time>
      </trkpt>
      <trkpt lat="47.17265" lon="-1.61701">
        <ele>73</ele>
        <time>2022-04-03T12:50:39Z</time>
      </trkpt>
      <trkpt lat="47.17259" lon="-1.61715">
        <ele>73</ele>
        <time>2022-04-03T12:50:41Z</time>
      </trkpt>
      <trkpt lat="47.17252" lon="-1.6173">
        <ele>73</ele>
        <time>2022-04-03T12:50:43Z</time>
      </trkpt>
      <trkpt lat="47.17247" lon="-1.61744">
        <ele>73</ele>
        <time>2022-04-03T12:50:45Z</time>
      </trkpt>
      <trkpt lat="47.17245" lon="-1.61761">
        <ele>72</ele>
        <time>2022-04-03T12:50:47Z</time>
      </trkpt>
      <trkpt lat="47.17239" lon="-1.61777">
        <ele>72</ele>
        <time>2022-04-03T12:50:49Z</time>
      </trkpt>
      <trkpt lat="47.17229" lon="-1.61788">
        <ele>71</ele>
        <time>2022-04-03T12:50:51Z</time>
      </trkpt>
      <trkpt lat="47.17219" lon="-1.61798">
        <ele>71</ele>
        <time>2022-04-03T12:50:53Z</time>
      </trkpt>
      <trkpt lat="47.17209" lon="-1.61806">
        <ele>71</ele>
        <time>2022-04-03T12:50:55Z</time>
      </trkpt>
      <trkpt lat="47.17198" lon="-1.61815">
        <ele>71</ele>
        <time>2022-04-03T12:50:57Z</time>
      </trkpt>
      <trkpt lat="47.17188" lon="-1.61824">
        <ele>72</ele>
        <time>2022-04-03T12:50:59Z</time>
      </trkpt>
      <trkpt lat="47.17179" lon="-1.61834">
        <ele>72</ele>
        <time>2022-04-03T12:51:01Z</time>
      </trkpt>
      <trkpt lat="47.17169" lon="-1.61843">
        <ele>71</ele>
        <time>2022-04-03T12:51:03Z</time>
      </trkpt>
      <trkpt lat="47.17159" lon="-1.61853">
        <ele>71</ele>
        <time>2022-04-03T12:51:05Z</time>
      </trkpt>
      <trkpt lat="47.17149" lon="-1.61863">
        <ele>71</ele>
        <time>2022-04-03T12:51:07Z</time>
      </trkpt>
      <trkpt lat="47.17139" lon="-1.61873">
        <ele>71</ele>
        <time>2022-04-03T12:51:09Z</time>
      </trkpt>
      <trkpt lat="47.17129" lon="-1.61882">
        <ele>71</ele>
        <time>2022-04-03T12:51:11Z</time>
      </trkpt>
      <trkpt lat="47.17118" lon="-1.61892">
        <ele>71</ele>
        <time>2022-04-03T12:51:13Z</time>
      </trkpt>
      <trkpt lat="47.17107" lon="-1.61902">
        <ele>71</ele>
        <time>2022-04-03T12:51:15Z</time>
      </trkpt>
      <trkpt lat="47.17097" lon="-1.61913">
        <ele>71</ele>
        <time>2022-04-03T12:51:17Z</time>
      </trkpt>
      <trkpt lat="47.17087" lon="-1.61922">
        <ele>71</ele>
        <time>2022-04-03T12:51:19Z</time>
      </trkpt>
      <trkpt lat="47.17077" lon="-1.61932">
        <ele>71</ele>
        <time>2022-04-03T12:51:21Z</time>
      </trkpt>
      <trkpt lat="47.17067" lon="-1.61943">
        <ele>71</ele>
        <time>2022-04-03T12:51:23Z</time>
      </trkpt>
      <trkpt lat="47.17057" lon="-1.61954">
        <ele>72</ele>
        <time>2022-04-03T12:51:25Z</time>
      </trkpt>
      <trkpt lat="47.17046" lon="-1.61967">
        <ele>72</ele>
        <time>2022-04-03T12:51:27Z</time>
      </trkpt>
      <trkpt lat="47.17037" lon="-1.61981">
        <ele>71</ele>
        <time>2022-04-03T12:51:29Z</time>
      </trkpt>
      <trkpt lat="47.17028" lon="-1.61995">
        <ele>71</ele>
        <time>2022-04-03T12:51:31Z</time>
      </trkpt>
      <trkpt lat="47.17019" lon="-1.62009">
        <ele>71</ele>
        <time>2022-04-03T12:51:33Z</time>
      </trkpt>
      <trkpt lat="47.1701" lon="-1.62023">
        <ele>71</ele>
        <time>2022-04-03T12:51:35Z</time>
      </trkpt>
      <trkpt lat="47.17001" lon="-1.62038">
        <ele>71</ele>
        <time>2022-04-03T12:51:37Z</time>
      </trkpt>
      <trkpt lat="47.16992" lon="-1.62054">
        <ele>71</ele>
        <time>2022-04-03T12:51:39Z</time>
      </trkpt>
      <trkpt lat="47.16983" lon="-1.6207">
        <ele>71</ele>
        <time>2022-04-03T12:51:41Z</time>
      </trkpt>
      <trkpt lat="47.16974" lon="-1.62086">
        <ele>71</ele>
        <time>2022-04-03T12:51:43Z</time>
      </trkpt>
      <trkpt lat="47.16966" lon="-1.62102">
        <ele>72</ele>
        <time>2022-04-03T12:51:45Z</time>
      </trkpt>
      <trkpt lat="47.16957" lon="-1.62118">
        <ele>71</ele>
        <time>2022-04-03T12:51:47Z</time>
      </trkpt>
      <trkpt lat="47.16949" lon="-1.62134">
        <ele>71</ele>
        <time>2022-04-03T12:51:49Z</time>
      </trkpt>
      <trkpt lat="47.16941" lon="-1.6215">
        <ele>71</ele>
        <time>2022-04-03T12:51:51Z</time>
      </trkpt>
      <trkpt lat="47.16933" lon="-1.62167">
        <ele>70</ele>
        <time>2022-04-03T12:51:53Z</time>
      </trkpt>
      <trkpt lat="47.16925" lon="-1.62184">
        <ele>71</ele>
        <time>2022-04-03T12:51:55Z</time>
      </trkpt>
      <trkpt lat="47.16916" lon="-1.622">
        <ele>70</ele>
        <time>2022-04-03T12:51:57Z</time>
      </trkpt>
      <trkpt lat="47.16907" lon="-1.62214">
        <ele>71</ele>
        <time>2022-04-03T12:51:59Z</time>
      </trkpt>
      <trkpt lat="47.16897" lon="-1.62227">
        <ele>71</ele>
        <time>2022-04-03T12:52:01Z</time>
      </trkpt>
      <trkpt lat="47.16887" lon="-1.6224">
        <ele>71</ele>
        <time>2022-04-03T12:52:03Z</time>
      </trkpt>
      <trkpt lat="47.16877" lon="-1.62253">
        <ele>71</ele>
        <time>2022-04-03T12:52:05Z</time>
      </trkpt>
      <trkpt lat="47.16866" lon="-1.62265">
        <ele>71</ele>
        <time>2022-04-03T12:52:07Z</time>
      </trkpt>
      <trkpt lat="47.16856" lon="-1.62278">
        <ele>71</ele>
        <time>2022-04-03T12:52:09Z</time>
      </trkpt>
      <trkpt lat="47.16846" lon="-1.6229">
        <ele>71</ele>
        <time>2022-04-03T12:52:11Z</time>
      </trkpt>
      <trkpt lat="47.16836" lon="-1.62303">
        <ele>71</ele>
        <time>2022-04-03T12:52:13Z</time>
      </trkpt>
      <trkpt lat="47.16825" lon="-1.62313">
        <ele>71</ele>
        <time>2022-04-03T12:52:15Z</time>
      </trkpt>
      <trkpt lat="47.16813" lon="-1.62321">
        <ele>71</ele>
        <time>2022-04-03T12:52:17Z</time>
      </trkpt>
      <trkpt lat="47.16801" lon="-1.62329">
        <ele>71</ele>
        <time>2022-04-03T12:52:19Z</time>
      </trkpt>
      <trkpt lat="47.16788" lon="-1.62336">
        <ele>71</ele>
        <time>2022-04-03T12:52:21Z</time>
      </trkpt>
      <trkpt lat="47.16775" lon="-1.62343">
        <ele>70</ele>
        <time>2022-04-03T12:52:23Z</time>
      </trkpt>
      <trkpt lat="47.16763" lon="-1.62351">
        <ele>70</ele>
        <time>2022-04-03T12:52:25Z</time>
      </trkpt>
      <trkpt lat="47.16751" lon="-1.62362">
        <ele>70</ele>
        <time>2022-04-03T12:52:27Z</time>
      </trkpt>
      <trkpt lat="47.16741" lon="-1.62375">
        <ele>70</ele>
        <time>2022-04-03T12:52:29Z</time>
      </trkpt>
      <trkpt lat="47.16734" lon="-1.62392">
        <ele>69</ele>
        <time>2022-04-03T12:52:31Z</time>
      </trkpt>
      <trkpt lat="47.1673" lon="-1.62411">
        <ele>69</ele>
        <time>2022-04-03T12:52:33Z</time>
      </trkpt>
      <trkpt lat="47.16727" lon="-1.62438">
        <ele>69</ele>
        <time>2022-04-03T12:52:36Z</time>
      </trkpt>
      <trkpt lat="47.16722" lon="-1.62456">
        <ele>69</ele>
        <time>2022-04-03T12:52:38Z</time>
      </trkpt>
      <trkpt lat="47.16717" lon="-1.62473">
        <ele>69</ele>
        <time>2022-04-03T12:52:40Z</time>
      </trkpt>
      <trkpt lat="47.16717" lon="-1.62491">
        <ele>69</ele>
        <time>2022-04-03T12:52:42Z</time>
      </trkpt>
      <trkpt lat="47.16728" lon="-1.62499">
        <ele>69</ele>
        <time>2022-04-03T12:52:44Z</time>
      </trkpt>
      <trkpt lat="47.1674" lon="-1.62503">
        <ele>69</ele>
        <time>2022-04-03T12:52:46Z</time>
      </trkpt>
      <trkpt lat="47.16752" lon="-1.62509">
        <ele>69</ele>
        <time>2022-04-03T12:52:48Z</time>
      </trkpt>
      <trkpt lat="47.16763" lon="-1.62516">
        <ele>69</ele>
        <time>2022-04-03T12:52:50Z</time>
      </trkpt>
      <trkpt lat="47.16774" lon="-1.62522">
        <ele>70</ele>
        <time>2022-04-03T12:52:52Z</time>
      </trkpt>
      <trkpt lat="47.16783" lon="-1.62527">
        <ele>70</ele>
        <time>2022-04-03T12:52:54Z</time>
      </trkpt>
      <trkpt lat="47.16791" lon="-1.62534">
        <ele>70</ele>
        <time>2022-04-03T12:52:56Z</time>
      </trkpt>
      <trkpt lat="47.16804" lon="-1.6254">
        <ele>70</ele>
        <time>2022-04-03T12:52:59Z</time>
      </trkpt>
      <trkpt lat="47.16794" lon="-1.62544">
        <ele>70</ele>
        <time>2022-04-03T12:53:08Z</time>
      </trkpt>
      <trkpt lat="47.16791" lon="-1.62558">
        <ele>69</ele>
        <time>2022-04-03T12:53:11Z</time>
      </trkpt>
      <trkpt lat="47.16788" lon="-1.62571">
        <ele>70</ele>
        <time>2022-04-03T12:53:14Z</time>
      </trkpt>
      <trkpt lat="47.16784" lon="-1.62585">
        <ele>70</ele>
        <time>2022-04-03T12:53:18Z</time>
      </trkpt>
      <trkpt lat="47.16783" lon="-1.62595">
        <ele>69</ele>
        <time>2022-04-03T12:55:19Z</time>
      </trkpt>
      <trkpt lat="47.16783" lon="-1.62595">
        <ele>69</ele>
        <time>2022-04-03T12:57:20Z</time>
      </trkpt>
      <trkpt lat="47.1679" lon="-1.62605">
        <ele>70</ele>
        <time>2022-04-03T12:57:36Z</time>
      </trkpt>
      <trkpt lat="47.16798" lon="-1.62615">
        <ele>70</ele>
        <time>2022-04-03T12:57:39Z</time>
      </trkpt>
      <trkpt lat="47.16805" lon="-1.62627">
        <ele>69</ele>
        <time>2022-04-03T12:57:43Z</time>
      </trkpt>
      <trkpt lat="47.16797" lon="-1.62639">
        <ele>70</ele>
        <time>2022-04-03T12:57:46Z</time>
      </trkpt>
      <trkpt lat="47.16792" lon="-1.6265">
        <ele>70</ele>
        <time>2022-04-03T12:57:48Z</time>
      </trkpt>
      <trkpt lat="47.16785" lon="-1.62662">
        <ele>71</ele>
        <time>2022-04-03T12:57:51Z</time>
      </trkpt>
      <trkpt lat="47.16777" lon="-1.62654">
        <ele>71</ele>
        <time>2022-04-03T12:57:56Z</time>
      </trkpt>
    </trkseg>
  </trk>
</gpx>